<?xml version="1.0" encoding="UTF-8"?>
<gpx xmlns="http://www.topografix.com/GPX/1/1" xmlns:xsi="http://www.w3.org/2001/XMLSchema-instance" version="1.1" xsi:schemaLocation="http://www.topografix.com/GPX/1/1 http://www.topografix.com/GPX/1/1/gpx.xsd">
  <metadata>
    <name>Eddie Ferrell Music City Triathlon 2023 - Olympic Aquabike</name>
  </metadata>
  <trk>
    <name>Eddie Ferrell Music City Triathlon 2023 - Olympic Aquabike</name>
    <trkseg>
      <trkpt lat="36.164308" lon="-86.770445">
        <ele>126.808901</ele>
        <time>2024-06-02T07:52:00.000Z</time>
      </trkpt>
      <trkpt lat="36.164379" lon="-86.770258">
        <ele>126.808911</ele>
        <time>2024-06-02T07:52:02.000Z</time>
      </trkpt>
      <trkpt lat="36.164453" lon="-86.77008">
        <ele>126.808899</ele>
        <time>2024-06-02T07:52:04.000Z</time>
      </trkpt>
      <trkpt lat="36.164502" lon="-86.769906">
        <ele>126.808902</ele>
        <time>2024-06-02T07:52:06.000Z</time>
      </trkpt>
      <trkpt lat="36.164552" lon="-86.769766">
        <ele>126.808913</ele>
        <time>2024-06-02T07:52:07.000Z</time>
      </trkpt>
      <trkpt lat="36.164589" lon="-86.769673">
        <ele>126.808909</ele>
        <time>2024-06-02T07:52:08.000Z</time>
      </trkpt>
      <trkpt lat="36.164686" lon="-86.769723">
        <ele>126.808913</ele>
        <time>2024-06-02T07:52:09.000Z</time>
      </trkpt>
      <trkpt lat="36.164929" lon="-86.769851">
        <ele>126.844873</ele>
        <time>2024-06-02T07:52:12.000Z</time>
      </trkpt>
      <trkpt lat="36.164969" lon="-86.769884">
        <ele>126.861104</ele>
        <time>2024-06-02T07:52:13.000Z</time>
      </trkpt>
      <trkpt lat="36.164996" lon="-86.769819">
        <ele>126.875279</ele>
        <time>2024-06-02T07:52:14.000Z</time>
      </trkpt>
      <trkpt lat="36.165048" lon="-86.769712">
        <ele>126.90288</ele>
        <time>2024-06-02T07:52:15.000Z</time>
      </trkpt>
      <trkpt lat="36.165258" lon="-86.76913">
        <ele>127.036853</ele>
        <time>2024-06-02T07:52:21.000Z</time>
      </trkpt>
      <trkpt lat="36.165297" lon="-86.769032">
        <ele>127.061395</ele>
        <time>2024-06-02T07:52:22.000Z</time>
      </trkpt>
      <trkpt lat="36.165383" lon="-86.768809">
        <ele>127.11502</ele>
        <time>2024-06-02T07:52:24.000Z</time>
      </trkpt>
      <trkpt lat="36.165448" lon="-86.768615">
        <ele>127.157855</ele>
        <time>2024-06-02T07:52:26.000Z</time>
      </trkpt>
      <trkpt lat="36.165874" lon="-86.769096">
        <ele>127.294852</ele>
        <time>2024-06-02T07:52:32.000Z</time>
      </trkpt>
      <trkpt lat="36.166234" lon="-86.769396">
        <ele>127.346582</ele>
        <time>2024-06-02T07:52:37.000Z</time>
      </trkpt>
      <trkpt lat="36.16634" lon="-86.769461">
        <ele>127.360811</ele>
        <time>2024-06-02T07:52:38.000Z</time>
      </trkpt>
      <trkpt lat="36.16746" lon="-86.770102">
        <ele>127.582727</ele>
        <time>2024-06-02T07:52:52.000Z</time>
      </trkpt>
      <trkpt lat="36.168263" lon="-86.770584">
        <ele>128.275791</ele>
        <time>2024-06-02T07:53:02.000Z</time>
      </trkpt>
      <trkpt lat="36.168341" lon="-86.770633">
        <ele>128.352399</ele>
        <time>2024-06-02T07:53:03.000Z</time>
      </trkpt>
      <trkpt lat="36.16842" lon="-86.770421">
        <ele>128.498979</ele>
        <time>2024-06-02T07:53:05.000Z</time>
      </trkpt>
      <trkpt lat="36.168444" lon="-86.770313">
        <ele>128.567745</ele>
        <time>2024-06-02T07:53:06.000Z</time>
      </trkpt>
      <trkpt lat="36.168513" lon="-86.770362">
        <ele>128.621479</ele>
        <time>2024-06-02T07:53:07.000Z</time>
      </trkpt>
      <trkpt lat="36.168741" lon="-86.770488">
        <ele>128.825077</ele>
        <time>2024-06-02T07:53:10.000Z</time>
      </trkpt>
      <trkpt lat="36.16952" lon="-86.770946">
        <ele>129.695827</ele>
        <time>2024-06-02T07:53:20.000Z</time>
      </trkpt>
      <trkpt lat="36.169722" lon="-86.770387">
        <ele>130.232053</ele>
        <time>2024-06-02T07:53:25.000Z</time>
      </trkpt>
      <trkpt lat="36.169924" lon="-86.769801">
        <ele>130.77096</ele>
        <time>2024-06-02T07:53:31.000Z</time>
      </trkpt>
      <trkpt lat="36.16999" lon="-86.769624">
        <ele>130.950781</ele>
        <time>2024-06-02T07:53:33.000Z</time>
      </trkpt>
      <trkpt lat="36.170086" lon="-86.769271">
        <ele>131.327596</ele>
        <time>2024-06-02T07:53:36.000Z</time>
      </trkpt>
      <trkpt lat="36.17037" lon="-86.768485">
        <ele>132.186271</ele>
        <time>2024-06-02T07:53:44.000Z</time>
      </trkpt>
      <trkpt lat="36.170401" lon="-86.768421">
        <ele>132.261407</ele>
        <time>2024-06-02T07:53:45.000Z</time>
      </trkpt>
      <trkpt lat="36.170388" lon="-86.768333">
        <ele>132.346299</ele>
        <time>2024-06-02T07:53:46.000Z</time>
      </trkpt>
      <trkpt lat="36.170919" lon="-86.766972">
        <ele>134.172898</ele>
        <time>2024-06-02T07:54:00.000Z</time>
      </trkpt>
      <trkpt lat="36.171034" lon="-86.766713">
        <ele>134.575167</ele>
        <time>2024-06-02T07:54:03.000Z</time>
      </trkpt>
      <trkpt lat="36.171076" lon="-86.766584">
        <ele>134.767324</ele>
        <time>2024-06-02T07:54:04.000Z</time>
      </trkpt>
      <trkpt lat="36.171159" lon="-86.766391">
        <ele>135.067366</ele>
        <time>2024-06-02T07:54:06.000Z</time>
      </trkpt>
      <trkpt lat="36.171362" lon="-86.765884">
        <ele>135.852034</ele>
        <time>2024-06-02T07:54:11.000Z</time>
      </trkpt>
      <trkpt lat="36.171392" lon="-86.765812">
        <ele>135.953827</ele>
        <time>2024-06-02T07:54:12.000Z</time>
      </trkpt>
      <trkpt lat="36.171567" lon="-86.765405">
        <ele>136.24835</ele>
        <time>2024-06-02T07:54:16.000Z</time>
      </trkpt>
      <trkpt lat="36.171661" lon="-86.765171">
        <ele>136.369732</ele>
        <time>2024-06-02T07:54:18.000Z</time>
      </trkpt>
      <trkpt lat="36.171777" lon="-86.764848">
        <ele>136.522711</ele>
        <time>2024-06-02T07:54:21.000Z</time>
      </trkpt>
      <trkpt lat="36.171852" lon="-86.76476">
        <ele>136.582801</ele>
        <time>2024-06-02T07:54:22.000Z</time>
      </trkpt>
      <trkpt lat="36.171897" lon="-86.76478">
        <ele>136.614712</ele>
        <time>2024-06-02T07:54:23.000Z</time>
      </trkpt>
      <trkpt lat="36.172245" lon="-86.764985">
        <ele>136.82688</ele>
        <time>2024-06-02T07:54:27.000Z</time>
      </trkpt>
      <trkpt lat="36.172347" lon="-86.765045">
        <ele>136.883159</ele>
        <time>2024-06-02T07:54:28.000Z</time>
      </trkpt>
      <trkpt lat="36.172517" lon="-86.765147">
        <ele>136.989587</ele>
        <time>2024-06-02T07:54:30.000Z</time>
      </trkpt>
      <trkpt lat="36.172745" lon="-86.76528">
        <ele>136.952304</ele>
        <time>2024-06-02T07:54:33.000Z</time>
      </trkpt>
      <trkpt lat="36.172879" lon="-86.765344">
        <ele>136.709406</ele>
        <time>2024-06-02T07:54:35.000Z</time>
      </trkpt>
      <trkpt lat="36.172986" lon="-86.765354">
        <ele>136.514945</ele>
        <time>2024-06-02T07:54:36.000Z</time>
      </trkpt>
      <trkpt lat="36.173574" lon="-86.765676">
        <ele>135.437537</ele>
        <time>2024-06-02T07:54:43.000Z</time>
      </trkpt>
      <trkpt lat="36.173771" lon="-86.765746">
        <ele>135.07687</ele>
        <time>2024-06-02T07:54:45.000Z</time>
      </trkpt>
      <trkpt lat="36.173992" lon="-86.765777">
        <ele>134.708768</ele>
        <time>2024-06-02T07:54:47.000Z</time>
      </trkpt>
      <trkpt lat="36.174559" lon="-86.765729">
        <ele>133.461378</ele>
        <time>2024-06-02T07:54:53.000Z</time>
      </trkpt>
      <trkpt lat="36.174986" lon="-86.765709">
        <ele>132.143233</ele>
        <time>2024-06-02T07:54:58.000Z</time>
      </trkpt>
      <trkpt lat="36.175419" lon="-86.765829">
        <ele>130.80335</ele>
        <time>2024-06-02T07:55:03.000Z</time>
      </trkpt>
      <trkpt lat="36.175443" lon="-86.765643">
        <ele>130.354474</ele>
        <time>2024-06-02T07:55:05.000Z</time>
      </trkpt>
      <trkpt lat="36.175563" lon="-86.765615">
        <ele>129.998187</ele>
        <time>2024-06-02T07:55:06.000Z</time>
      </trkpt>
      <trkpt lat="36.175676" lon="-86.765583">
        <ele>129.650562</ele>
        <time>2024-06-02T07:55:07.000Z</time>
      </trkpt>
      <trkpt lat="36.175781" lon="-86.765555">
        <ele>129.304441</ele>
        <time>2024-06-02T07:55:08.000Z</time>
      </trkpt>
      <trkpt lat="36.175891" lon="-86.765531">
        <ele>128.946778</ele>
        <time>2024-06-02T07:55:09.000Z</time>
      </trkpt>
      <trkpt lat="36.175993" lon="-86.765483">
        <ele>128.578835</ele>
        <time>2024-06-02T07:55:10.000Z</time>
      </trkpt>
      <trkpt lat="36.176113" lon="-86.76543">
        <ele>128.308812</ele>
        <time>2024-06-02T07:55:11.000Z</time>
      </trkpt>
      <trkpt lat="36.176228" lon="-86.765368">
        <ele>128.092897</ele>
        <time>2024-06-02T07:55:12.000Z</time>
      </trkpt>
      <trkpt lat="36.176344" lon="-86.765309">
        <ele>127.870936</ele>
        <time>2024-06-02T07:55:13.000Z</time>
      </trkpt>
      <trkpt lat="36.176457" lon="-86.765247">
        <ele>127.645042</ele>
        <time>2024-06-02T07:55:14.000Z</time>
      </trkpt>
      <trkpt lat="36.176582" lon="-86.76517">
        <ele>127.417322</ele>
        <time>2024-06-02T07:55:16.000Z</time>
      </trkpt>
      <trkpt lat="36.176686" lon="-86.765092">
        <ele>127.185097</ele>
        <time>2024-06-02T07:55:17.000Z</time>
      </trkpt>
      <trkpt lat="36.176807" lon="-86.765016">
        <ele>126.94506</ele>
        <time>2024-06-02T07:55:19.000Z</time>
      </trkpt>
      <trkpt lat="36.176921" lon="-86.764921">
        <ele>126.702796</ele>
        <time>2024-06-02T07:55:21.000Z</time>
      </trkpt>
      <trkpt lat="36.177037" lon="-86.764824">
        <ele>126.461122</ele>
        <time>2024-06-02T07:55:23.000Z</time>
      </trkpt>
      <trkpt lat="36.177134" lon="-86.764733">
        <ele>126.224195</ele>
        <time>2024-06-02T07:55:24.000Z</time>
      </trkpt>
      <trkpt lat="36.177239" lon="-86.764622">
        <ele>125.994012</ele>
        <time>2024-06-02T07:55:26.000Z</time>
      </trkpt>
      <trkpt lat="36.17734" lon="-86.764528">
        <ele>125.764699</ele>
        <time>2024-06-02T07:55:27.000Z</time>
      </trkpt>
      <trkpt lat="36.177449" lon="-86.764417">
        <ele>125.531798</ele>
        <time>2024-06-02T07:55:29.000Z</time>
      </trkpt>
      <trkpt lat="36.177536" lon="-86.764315">
        <ele>125.303001</ele>
        <time>2024-06-02T07:55:30.000Z</time>
      </trkpt>
      <trkpt lat="36.177632" lon="-86.764215">
        <ele>125.314054</ele>
        <time>2024-06-02T07:55:31.000Z</time>
      </trkpt>
      <trkpt lat="36.177733" lon="-86.764107">
        <ele>125.377138</ele>
        <time>2024-06-02T07:55:32.000Z</time>
      </trkpt>
      <trkpt lat="36.177819" lon="-86.763989">
        <ele>125.43985</ele>
        <time>2024-06-02T07:55:33.000Z</time>
      </trkpt>
      <trkpt lat="36.177912" lon="-86.763884">
        <ele>125.502225</ele>
        <time>2024-06-02T07:55:34.000Z</time>
      </trkpt>
      <trkpt lat="36.178011" lon="-86.763779">
        <ele>125.564404</ele>
        <time>2024-06-02T07:55:35.000Z</time>
      </trkpt>
      <trkpt lat="36.178104" lon="-86.763683">
        <ele>125.626431</ele>
        <time>2024-06-02T07:55:36.000Z</time>
      </trkpt>
      <trkpt lat="36.178206" lon="-86.763564">
        <ele>125.687191</ele>
        <time>2024-06-02T07:55:38.000Z</time>
      </trkpt>
      <trkpt lat="36.1783" lon="-86.763477">
        <ele>125.748182</ele>
        <time>2024-06-02T07:55:39.000Z</time>
      </trkpt>
      <trkpt lat="36.178388" lon="-86.763379">
        <ele>125.809161</ele>
        <time>2024-06-02T07:55:40.000Z</time>
      </trkpt>
      <trkpt lat="36.1785" lon="-86.763292">
        <ele>125.869948</ele>
        <time>2024-06-02T07:55:41.000Z</time>
      </trkpt>
      <trkpt lat="36.178603" lon="-86.763194">
        <ele>125.929957</ele>
        <time>2024-06-02T07:55:42.000Z</time>
      </trkpt>
      <trkpt lat="36.178687" lon="-86.763115">
        <ele>125.989479</ele>
        <time>2024-06-02T07:55:43.000Z</time>
      </trkpt>
      <trkpt lat="36.178805" lon="-86.763033">
        <ele>126.049006</ele>
        <time>2024-06-02T07:55:45.000Z</time>
      </trkpt>
      <trkpt lat="36.178908" lon="-86.762972">
        <ele>126.10907</ele>
        <time>2024-06-02T07:55:46.000Z</time>
      </trkpt>
      <trkpt lat="36.179026" lon="-86.762915">
        <ele>126.180923</ele>
        <time>2024-06-02T07:55:47.000Z</time>
      </trkpt>
      <trkpt lat="36.179149" lon="-86.76286">
        <ele>126.268797</ele>
        <time>2024-06-02T07:55:48.000Z</time>
      </trkpt>
      <trkpt lat="36.179252" lon="-86.762825">
        <ele>126.356778</ele>
        <time>2024-06-02T07:55:49.000Z</time>
      </trkpt>
      <trkpt lat="36.179377" lon="-86.762774">
        <ele>126.445629</ele>
        <time>2024-06-02T07:55:50.000Z</time>
      </trkpt>
      <trkpt lat="36.179495" lon="-86.76274">
        <ele>126.533798</ele>
        <time>2024-06-02T07:55:51.000Z</time>
      </trkpt>
      <trkpt lat="36.179608" lon="-86.76269">
        <ele>126.622292</ele>
        <time>2024-06-02T07:55:52.000Z</time>
      </trkpt>
      <trkpt lat="36.179733" lon="-86.762641">
        <ele>126.710455</ele>
        <time>2024-06-02T07:55:53.000Z</time>
      </trkpt>
      <trkpt lat="36.179857" lon="-86.762602">
        <ele>126.799065</ele>
        <time>2024-06-02T07:55:54.000Z</time>
      </trkpt>
      <trkpt lat="36.179973" lon="-86.762563">
        <ele>126.887265</ele>
        <time>2024-06-02T07:55:55.000Z</time>
      </trkpt>
      <trkpt lat="36.180094" lon="-86.76254">
        <ele>126.974375</ele>
        <time>2024-06-02T07:55:56.000Z</time>
      </trkpt>
      <trkpt lat="36.180211" lon="-86.7625">
        <ele>127.062086</ele>
        <time>2024-06-02T07:55:57.000Z</time>
      </trkpt>
      <trkpt lat="36.180336" lon="-86.762483">
        <ele>127.149343</ele>
        <time>2024-06-02T07:55:58.000Z</time>
      </trkpt>
      <trkpt lat="36.180444" lon="-86.762441">
        <ele>127.235763</ele>
        <time>2024-06-02T07:55:59.000Z</time>
      </trkpt>
      <trkpt lat="36.180566" lon="-86.762408">
        <ele>127.321312</ele>
        <time>2024-06-02T07:56:00.000Z</time>
      </trkpt>
      <trkpt lat="36.180678" lon="-86.762384">
        <ele>127.406723</ele>
        <time>2024-06-02T07:56:01.000Z</time>
      </trkpt>
      <trkpt lat="36.180796" lon="-86.762338">
        <ele>127.468276</ele>
        <time>2024-06-02T07:56:02.000Z</time>
      </trkpt>
      <trkpt lat="36.180916" lon="-86.762305">
        <ele>127.521354</ele>
        <time>2024-06-02T07:56:03.000Z</time>
      </trkpt>
      <trkpt lat="36.181031" lon="-86.762269">
        <ele>127.573259</ele>
        <time>2024-06-02T07:56:04.000Z</time>
      </trkpt>
      <trkpt lat="36.181151" lon="-86.762221">
        <ele>127.624206</ele>
        <time>2024-06-02T07:56:05.000Z</time>
      </trkpt>
      <trkpt lat="36.181257" lon="-86.762175">
        <ele>127.673832</ele>
        <time>2024-06-02T07:56:06.000Z</time>
      </trkpt>
      <trkpt lat="36.181367" lon="-86.762119">
        <ele>127.722663</ele>
        <time>2024-06-02T07:56:07.000Z</time>
      </trkpt>
      <trkpt lat="36.181468" lon="-86.76207">
        <ele>127.772009</ele>
        <time>2024-06-02T07:56:08.000Z</time>
      </trkpt>
      <trkpt lat="36.181576" lon="-86.762029">
        <ele>127.821471</ele>
        <time>2024-06-02T07:56:09.000Z</time>
      </trkpt>
      <trkpt lat="36.181687" lon="-86.761981">
        <ele>127.871049</ele>
        <time>2024-06-02T07:56:10.000Z</time>
      </trkpt>
      <trkpt lat="36.181789" lon="-86.761919">
        <ele>127.920364</ele>
        <time>2024-06-02T07:56:11.000Z</time>
      </trkpt>
      <trkpt lat="36.181883" lon="-86.761872">
        <ele>127.969409</ele>
        <time>2024-06-02T07:56:12.000Z</time>
      </trkpt>
      <trkpt lat="36.182002" lon="-86.76181">
        <ele>128.018473</ele>
        <time>2024-06-02T07:56:13.000Z</time>
      </trkpt>
      <trkpt lat="36.182088" lon="-86.761756">
        <ele>128.066623</ele>
        <time>2024-06-02T07:56:14.000Z</time>
      </trkpt>
      <trkpt lat="36.182196" lon="-86.761691">
        <ele>128.114541</ele>
        <time>2024-06-02T07:56:15.000Z</time>
      </trkpt>
      <trkpt lat="36.182287" lon="-86.761624">
        <ele>128.162374</ele>
        <time>2024-06-02T07:56:16.000Z</time>
      </trkpt>
      <trkpt lat="36.182389" lon="-86.761575">
        <ele>128.214376</ele>
        <time>2024-06-02T07:56:17.000Z</time>
      </trkpt>
      <trkpt lat="36.182495" lon="-86.76151">
        <ele>128.33929</ele>
        <time>2024-06-02T07:56:18.000Z</time>
      </trkpt>
      <trkpt lat="36.182586" lon="-86.761427">
        <ele>128.463739</ele>
        <time>2024-06-02T07:56:19.000Z</time>
      </trkpt>
      <trkpt lat="36.182675" lon="-86.761378">
        <ele>128.588297</ele>
        <time>2024-06-02T07:56:20.000Z</time>
      </trkpt>
      <trkpt lat="36.182775" lon="-86.761312">
        <ele>128.711387</ele>
        <time>2024-06-02T07:56:21.000Z</time>
      </trkpt>
      <trkpt lat="36.182867" lon="-86.761251">
        <ele>128.835843</ele>
        <time>2024-06-02T07:56:22.000Z</time>
      </trkpt>
      <trkpt lat="36.182962" lon="-86.761184">
        <ele>128.95939</ele>
        <time>2024-06-02T07:56:23.000Z</time>
      </trkpt>
      <trkpt lat="36.183046" lon="-86.76112">
        <ele>129.080455</ele>
        <time>2024-06-02T07:56:24.000Z</time>
      </trkpt>
      <trkpt lat="36.183139" lon="-86.761058">
        <ele>129.202105</ele>
        <time>2024-06-02T07:56:25.000Z</time>
      </trkpt>
      <trkpt lat="36.183228" lon="-86.760991">
        <ele>129.322455</ele>
        <time>2024-06-02T07:56:26.000Z</time>
      </trkpt>
      <trkpt lat="36.183334" lon="-86.760922">
        <ele>129.444986</ele>
        <time>2024-06-02T07:56:27.000Z</time>
      </trkpt>
      <trkpt lat="36.183424" lon="-86.760867">
        <ele>129.565973</ele>
        <time>2024-06-02T07:56:28.000Z</time>
      </trkpt>
      <trkpt lat="36.183516" lon="-86.76079">
        <ele>129.686423</ele>
        <time>2024-06-02T07:56:29.000Z</time>
      </trkpt>
      <trkpt lat="36.183598" lon="-86.760727">
        <ele>129.813797</ele>
        <time>2024-06-02T07:56:30.000Z</time>
      </trkpt>
      <trkpt lat="36.183694" lon="-86.760658">
        <ele>129.938346</ele>
        <time>2024-06-02T07:56:31.000Z</time>
      </trkpt>
      <trkpt lat="36.183793" lon="-86.76061">
        <ele>130.063923</ele>
        <time>2024-06-02T07:56:32.000Z</time>
      </trkpt>
      <trkpt lat="36.183892" lon="-86.76055">
        <ele>130.188387</ele>
        <time>2024-06-02T07:56:33.000Z</time>
      </trkpt>
      <trkpt lat="36.183983" lon="-86.760479">
        <ele>130.302605</ele>
        <time>2024-06-02T07:56:34.000Z</time>
      </trkpt>
      <trkpt lat="36.18409" lon="-86.760416">
        <ele>130.386081</ele>
        <time>2024-06-02T07:56:35.000Z</time>
      </trkpt>
      <trkpt lat="36.184179" lon="-86.760354">
        <ele>130.469861</ele>
        <time>2024-06-02T07:56:36.000Z</time>
      </trkpt>
      <trkpt lat="36.184265" lon="-86.760285">
        <ele>130.553633</ele>
        <time>2024-06-02T07:56:37.000Z</time>
      </trkpt>
      <trkpt lat="36.184355" lon="-86.760221">
        <ele>130.638032</ele>
        <time>2024-06-02T07:56:38.000Z</time>
      </trkpt>
      <trkpt lat="36.184447" lon="-86.760164">
        <ele>130.722808</ele>
        <time>2024-06-02T07:56:39.000Z</time>
      </trkpt>
      <trkpt lat="36.184551" lon="-86.7601">
        <ele>130.807164</ele>
        <time>2024-06-02T07:56:40.000Z</time>
      </trkpt>
      <trkpt lat="36.184634" lon="-86.760022">
        <ele>130.892864</ele>
        <time>2024-06-02T07:56:41.000Z</time>
      </trkpt>
      <trkpt lat="36.184722" lon="-86.759945">
        <ele>130.978271</ele>
        <time>2024-06-02T07:56:42.000Z</time>
      </trkpt>
      <trkpt lat="36.184813" lon="-86.759859">
        <ele>131.06376</ele>
        <time>2024-06-02T07:56:43.000Z</time>
      </trkpt>
      <trkpt lat="36.184898" lon="-86.759792">
        <ele>131.148603</ele>
        <time>2024-06-02T07:56:44.000Z</time>
      </trkpt>
      <trkpt lat="36.184997" lon="-86.759704">
        <ele>131.233802</ele>
        <time>2024-06-02T07:56:45.000Z</time>
      </trkpt>
      <trkpt lat="36.185072" lon="-86.75964">
        <ele>131.318874</ele>
        <time>2024-06-02T07:56:46.000Z</time>
      </trkpt>
      <trkpt lat="36.185163" lon="-86.759543">
        <ele>131.401655</ele>
        <time>2024-06-02T07:56:47.000Z</time>
      </trkpt>
      <trkpt lat="36.185243" lon="-86.759458">
        <ele>131.48442</ele>
        <time>2024-06-02T07:56:48.000Z</time>
      </trkpt>
      <trkpt lat="36.185328" lon="-86.759388">
        <ele>131.567202</ele>
        <time>2024-06-02T07:56:49.000Z</time>
      </trkpt>
      <trkpt lat="36.185399" lon="-86.759305">
        <ele>131.651804</ele>
        <time>2024-06-02T07:56:50.000Z</time>
      </trkpt>
      <trkpt lat="36.185491" lon="-86.759206">
        <ele>131.699224</ele>
        <time>2024-06-02T07:56:51.000Z</time>
      </trkpt>
      <trkpt lat="36.18555" lon="-86.759105">
        <ele>131.706991</ele>
        <time>2024-06-02T07:56:52.000Z</time>
      </trkpt>
      <trkpt lat="36.185629" lon="-86.759022">
        <ele>131.714642</ele>
        <time>2024-06-02T07:56:53.000Z</time>
      </trkpt>
      <trkpt lat="36.185702" lon="-86.758927">
        <ele>131.722441</ele>
        <time>2024-06-02T07:56:54.000Z</time>
      </trkpt>
      <trkpt lat="36.185773" lon="-86.758825">
        <ele>131.730148</ele>
        <time>2024-06-02T07:56:55.000Z</time>
      </trkpt>
      <trkpt lat="36.185842" lon="-86.758727">
        <ele>131.737942</ele>
        <time>2024-06-02T07:56:56.000Z</time>
      </trkpt>
      <trkpt lat="36.185913" lon="-86.758626">
        <ele>131.745668</ele>
        <time>2024-06-02T07:56:57.000Z</time>
      </trkpt>
      <trkpt lat="36.185976" lon="-86.758518">
        <ele>131.753412</ele>
        <time>2024-06-02T07:56:58.000Z</time>
      </trkpt>
      <trkpt lat="36.186049" lon="-86.758419">
        <ele>131.761186</ele>
        <time>2024-06-02T07:56:59.000Z</time>
      </trkpt>
      <trkpt lat="36.186122" lon="-86.75832">
        <ele>131.768729</ele>
        <time>2024-06-02T07:57:00.000Z</time>
      </trkpt>
      <trkpt lat="36.186184" lon="-86.758212">
        <ele>131.776363</ele>
        <time>2024-06-02T07:57:01.000Z</time>
      </trkpt>
      <trkpt lat="36.186239" lon="-86.758121">
        <ele>131.783923</ele>
        <time>2024-06-02T07:57:02.000Z</time>
      </trkpt>
      <trkpt lat="36.186297" lon="-86.758004">
        <ele>131.791472</ele>
        <time>2024-06-02T07:57:03.000Z</time>
      </trkpt>
      <trkpt lat="36.186357" lon="-86.757915">
        <ele>131.798894</ele>
        <time>2024-06-02T07:57:04.000Z</time>
      </trkpt>
      <trkpt lat="36.186425" lon="-86.757809">
        <ele>131.806524</ele>
        <time>2024-06-02T07:57:05.000Z</time>
      </trkpt>
      <trkpt lat="36.186481" lon="-86.757705">
        <ele>131.814136</ele>
        <time>2024-06-02T07:57:06.000Z</time>
      </trkpt>
      <trkpt lat="36.186552" lon="-86.757595">
        <ele>131.821635</ele>
        <time>2024-06-02T07:57:07.000Z</time>
      </trkpt>
      <trkpt lat="36.186617" lon="-86.757484">
        <ele>131.861146</ele>
        <time>2024-06-02T07:57:08.000Z</time>
      </trkpt>
      <trkpt lat="36.186661" lon="-86.757382">
        <ele>131.95426</ele>
        <time>2024-06-02T07:57:09.000Z</time>
      </trkpt>
      <trkpt lat="36.186726" lon="-86.757277">
        <ele>132.047329</ele>
        <time>2024-06-02T07:57:10.000Z</time>
      </trkpt>
      <trkpt lat="36.186798" lon="-86.757182">
        <ele>132.140339</ele>
        <time>2024-06-02T07:57:11.000Z</time>
      </trkpt>
      <trkpt lat="36.186861" lon="-86.75707">
        <ele>132.235625</ele>
        <time>2024-06-02T07:57:12.000Z</time>
      </trkpt>
      <trkpt lat="36.186934" lon="-86.756969">
        <ele>132.329907</ele>
        <time>2024-06-02T07:57:13.000Z</time>
      </trkpt>
      <trkpt lat="36.186992" lon="-86.756859">
        <ele>132.423663</ele>
        <time>2024-06-02T07:57:14.000Z</time>
      </trkpt>
      <trkpt lat="36.187048" lon="-86.756761">
        <ele>132.516205</ele>
        <time>2024-06-02T07:57:15.000Z</time>
      </trkpt>
      <trkpt lat="36.187102" lon="-86.756659">
        <ele>132.608211</ele>
        <time>2024-06-02T07:57:16.000Z</time>
      </trkpt>
      <trkpt lat="36.187173" lon="-86.75655">
        <ele>132.700804</ele>
        <time>2024-06-02T07:57:17.000Z</time>
      </trkpt>
      <trkpt lat="36.187226" lon="-86.756452">
        <ele>132.788817</ele>
        <time>2024-06-02T07:57:18.000Z</time>
      </trkpt>
      <trkpt lat="36.187284" lon="-86.756357">
        <ele>132.875711</ele>
        <time>2024-06-02T07:57:19.000Z</time>
      </trkpt>
      <trkpt lat="36.187352" lon="-86.756257">
        <ele>132.961538</ele>
        <time>2024-06-02T07:57:20.000Z</time>
      </trkpt>
      <trkpt lat="36.187407" lon="-86.756168">
        <ele>133.047474</ele>
        <time>2024-06-02T07:57:21.000Z</time>
      </trkpt>
      <trkpt lat="36.187469" lon="-86.756061">
        <ele>133.13289</ele>
        <time>2024-06-02T07:57:22.000Z</time>
      </trkpt>
      <trkpt lat="36.187518" lon="-86.755975">
        <ele>133.216644</ele>
        <time>2024-06-02T07:57:23.000Z</time>
      </trkpt>
      <trkpt lat="36.187563" lon="-86.755882">
        <ele>133.29871</ele>
        <time>2024-06-02T07:57:24.000Z</time>
      </trkpt>
      <trkpt lat="36.18763" lon="-86.755786">
        <ele>133.379511</ele>
        <time>2024-06-02T07:57:25.000Z</time>
      </trkpt>
      <trkpt lat="36.187682" lon="-86.755702">
        <ele>133.486186</ele>
        <time>2024-06-02T07:57:26.000Z</time>
      </trkpt>
      <trkpt lat="36.187746" lon="-86.755608">
        <ele>133.622802</ele>
        <time>2024-06-02T07:57:27.000Z</time>
      </trkpt>
      <trkpt lat="36.187802" lon="-86.755517">
        <ele>133.75475</ele>
        <time>2024-06-02T07:57:28.000Z</time>
      </trkpt>
      <trkpt lat="36.187853" lon="-86.755437">
        <ele>133.884945</ele>
        <time>2024-06-02T07:57:29.000Z</time>
      </trkpt>
      <trkpt lat="36.187904" lon="-86.75536">
        <ele>134.013236</ele>
        <time>2024-06-02T07:57:30.000Z</time>
      </trkpt>
      <trkpt lat="36.187961" lon="-86.75529">
        <ele>134.141381</ele>
        <time>2024-06-02T07:57:31.000Z</time>
      </trkpt>
      <trkpt lat="36.188023" lon="-86.755199">
        <ele>134.271416</ele>
        <time>2024-06-02T07:57:32.000Z</time>
      </trkpt>
      <trkpt lat="36.188072" lon="-86.755115">
        <ele>134.399858</ele>
        <time>2024-06-02T07:57:33.000Z</time>
      </trkpt>
      <trkpt lat="36.188117" lon="-86.755022">
        <ele>134.527136</ele>
        <time>2024-06-02T07:57:34.000Z</time>
      </trkpt>
      <trkpt lat="36.188178" lon="-86.754949">
        <ele>134.654518</ele>
        <time>2024-06-02T07:57:35.000Z</time>
      </trkpt>
      <trkpt lat="36.188225" lon="-86.754864">
        <ele>134.780131</ele>
        <time>2024-06-02T07:57:36.000Z</time>
      </trkpt>
      <trkpt lat="36.188283" lon="-86.754794">
        <ele>134.907654</ele>
        <time>2024-06-02T07:57:37.000Z</time>
      </trkpt>
      <trkpt lat="36.188343" lon="-86.754722">
        <ele>135.03505</ele>
        <time>2024-06-02T07:57:38.000Z</time>
      </trkpt>
      <trkpt lat="36.188396" lon="-86.754645">
        <ele>135.160123</ele>
        <time>2024-06-02T07:57:39.000Z</time>
      </trkpt>
      <trkpt lat="36.188472" lon="-86.754575">
        <ele>135.284594</ele>
        <time>2024-06-02T07:57:40.000Z</time>
      </trkpt>
      <trkpt lat="36.188531" lon="-86.754502">
        <ele>135.408797</ele>
        <time>2024-06-02T07:57:41.000Z</time>
      </trkpt>
      <trkpt lat="36.18858" lon="-86.754439">
        <ele>135.532209</ele>
        <time>2024-06-02T07:57:42.000Z</time>
      </trkpt>
      <trkpt lat="36.188649" lon="-86.75438">
        <ele>135.65983</ele>
        <time>2024-06-02T07:57:43.000Z</time>
      </trkpt>
      <trkpt lat="36.188716" lon="-86.754301">
        <ele>135.784748</ele>
        <time>2024-06-02T07:57:44.000Z</time>
      </trkpt>
      <trkpt lat="36.188785" lon="-86.754242">
        <ele>135.908987</ele>
        <time>2024-06-02T07:57:45.000Z</time>
      </trkpt>
      <trkpt lat="36.188856" lon="-86.754183">
        <ele>136.036152</ele>
        <time>2024-06-02T07:57:46.000Z</time>
      </trkpt>
      <trkpt lat="36.188919" lon="-86.754123">
        <ele>136.142559</ele>
        <time>2024-06-02T07:57:47.000Z</time>
      </trkpt>
      <trkpt lat="36.188994" lon="-86.754073">
        <ele>136.210126</ele>
        <time>2024-06-02T07:57:48.000Z</time>
      </trkpt>
      <trkpt lat="36.189067" lon="-86.754008">
        <ele>136.277416</ele>
        <time>2024-06-02T07:57:49.000Z</time>
      </trkpt>
      <trkpt lat="36.189121" lon="-86.753938">
        <ele>136.345075</ele>
        <time>2024-06-02T07:57:50.000Z</time>
      </trkpt>
      <trkpt lat="36.189192" lon="-86.753886">
        <ele>136.413687</ele>
        <time>2024-06-02T07:57:51.000Z</time>
      </trkpt>
      <trkpt lat="36.189269" lon="-86.753827">
        <ele>136.481273</ele>
        <time>2024-06-02T07:57:52.000Z</time>
      </trkpt>
      <trkpt lat="36.189343" lon="-86.753782">
        <ele>136.549505</ele>
        <time>2024-06-02T07:57:53.000Z</time>
      </trkpt>
      <trkpt lat="36.189423" lon="-86.753725">
        <ele>136.617458</ele>
        <time>2024-06-02T07:57:54.000Z</time>
      </trkpt>
      <trkpt lat="36.189488" lon="-86.753677">
        <ele>136.687225</ele>
        <time>2024-06-02T07:57:55.000Z</time>
      </trkpt>
      <trkpt lat="36.189563" lon="-86.753622">
        <ele>136.756117</ele>
        <time>2024-06-02T07:57:56.000Z</time>
      </trkpt>
      <trkpt lat="36.189648" lon="-86.753583">
        <ele>136.826898</ele>
        <time>2024-06-02T07:57:57.000Z</time>
      </trkpt>
      <trkpt lat="36.189726" lon="-86.753533">
        <ele>136.896897</ele>
        <time>2024-06-02T07:57:58.000Z</time>
      </trkpt>
      <trkpt lat="36.189808" lon="-86.753501">
        <ele>136.968348</ele>
        <time>2024-06-02T07:57:59.000Z</time>
      </trkpt>
      <trkpt lat="36.189895" lon="-86.753454">
        <ele>137.039345</ele>
        <time>2024-06-02T07:58:00.000Z</time>
      </trkpt>
      <trkpt lat="36.189973" lon="-86.753414">
        <ele>137.109317</ele>
        <time>2024-06-02T07:58:01.000Z</time>
      </trkpt>
      <trkpt lat="36.190064" lon="-86.753366">
        <ele>137.180543</ele>
        <time>2024-06-02T07:58:02.000Z</time>
      </trkpt>
      <trkpt lat="36.190133" lon="-86.753322">
        <ele>137.250767</ele>
        <time>2024-06-02T07:58:03.000Z</time>
      </trkpt>
      <trkpt lat="36.190213" lon="-86.753276">
        <ele>137.322003</ele>
        <time>2024-06-02T07:58:04.000Z</time>
      </trkpt>
      <trkpt lat="36.190296" lon="-86.753249">
        <ele>137.39129</ele>
        <time>2024-06-02T07:58:05.000Z</time>
      </trkpt>
      <trkpt lat="36.190377" lon="-86.753218">
        <ele>137.462304</ele>
        <time>2024-06-02T07:58:06.000Z</time>
      </trkpt>
      <trkpt lat="36.19047" lon="-86.75317">
        <ele>137.533433</ele>
        <time>2024-06-02T07:58:07.000Z</time>
      </trkpt>
      <trkpt lat="36.19055" lon="-86.753138">
        <ele>137.634847</ele>
        <time>2024-06-02T07:58:08.000Z</time>
      </trkpt>
      <trkpt lat="36.190644" lon="-86.753119">
        <ele>137.760876</ele>
        <time>2024-06-02T07:58:09.000Z</time>
      </trkpt>
      <trkpt lat="36.190731" lon="-86.753089">
        <ele>137.885995</ele>
        <time>2024-06-02T07:58:10.000Z</time>
      </trkpt>
      <trkpt lat="36.190809" lon="-86.75307">
        <ele>138.013089</ele>
        <time>2024-06-02T07:58:11.000Z</time>
      </trkpt>
      <trkpt lat="36.1909" lon="-86.753045">
        <ele>138.141097</ele>
        <time>2024-06-02T07:58:12.000Z</time>
      </trkpt>
      <trkpt lat="36.190988" lon="-86.753024">
        <ele>138.270491</ele>
        <time>2024-06-02T07:58:13.000Z</time>
      </trkpt>
      <trkpt lat="36.191079" lon="-86.75299">
        <ele>138.400845</ele>
        <time>2024-06-02T07:58:14.000Z</time>
      </trkpt>
      <trkpt lat="36.191172" lon="-86.75297">
        <ele>138.532064</ele>
        <time>2024-06-02T07:58:15.000Z</time>
      </trkpt>
      <trkpt lat="36.191267" lon="-86.752939">
        <ele>138.662626</ele>
        <time>2024-06-02T07:58:16.000Z</time>
      </trkpt>
      <trkpt lat="36.191355" lon="-86.752938">
        <ele>138.795385</ele>
        <time>2024-06-02T07:58:17.000Z</time>
      </trkpt>
      <trkpt lat="36.191452" lon="-86.752921">
        <ele>138.927977</ele>
        <time>2024-06-02T07:58:18.000Z</time>
      </trkpt>
      <trkpt lat="36.191534" lon="-86.752902">
        <ele>139.061817</ele>
        <time>2024-06-02T07:58:19.000Z</time>
      </trkpt>
      <trkpt lat="36.191631" lon="-86.752877">
        <ele>139.195493</ele>
        <time>2024-06-02T07:58:20.000Z</time>
      </trkpt>
      <trkpt lat="36.191731" lon="-86.752871">
        <ele>139.330181</ele>
        <time>2024-06-02T07:58:21.000Z</time>
      </trkpt>
      <trkpt lat="36.191817" lon="-86.752853">
        <ele>139.463262</ele>
        <time>2024-06-02T07:58:22.000Z</time>
      </trkpt>
      <trkpt lat="36.191925" lon="-86.752846">
        <ele>139.596433</ele>
        <time>2024-06-02T07:58:23.000Z</time>
      </trkpt>
      <trkpt lat="36.192015" lon="-86.752829">
        <ele>139.727027</ele>
        <time>2024-06-02T07:58:24.000Z</time>
      </trkpt>
      <trkpt lat="36.192096" lon="-86.752816">
        <ele>139.859038</ele>
        <time>2024-06-02T07:58:25.000Z</time>
      </trkpt>
      <trkpt lat="36.192204" lon="-86.752806">
        <ele>139.988114</ele>
        <time>2024-06-02T07:58:26.000Z</time>
      </trkpt>
      <trkpt lat="36.192281" lon="-86.752801">
        <ele>140.120117</ele>
        <time>2024-06-02T07:58:27.000Z</time>
      </trkpt>
      <trkpt lat="36.192382" lon="-86.752793">
        <ele>140.260186</ele>
        <time>2024-06-02T07:58:28.000Z</time>
      </trkpt>
      <trkpt lat="36.192479" lon="-86.752793">
        <ele>140.400259</ele>
        <time>2024-06-02T07:58:29.000Z</time>
      </trkpt>
      <trkpt lat="36.192562" lon="-86.75278">
        <ele>140.539599</ele>
        <time>2024-06-02T07:58:30.000Z</time>
      </trkpt>
      <trkpt lat="36.192653" lon="-86.752753">
        <ele>140.676235</ele>
        <time>2024-06-02T07:58:31.000Z</time>
      </trkpt>
      <trkpt lat="36.192728" lon="-86.752746">
        <ele>140.812539</ele>
        <time>2024-06-02T07:58:32.000Z</time>
      </trkpt>
      <trkpt lat="36.192816" lon="-86.752732">
        <ele>140.946748</ele>
        <time>2024-06-02T07:58:33.000Z</time>
      </trkpt>
      <trkpt lat="36.192916" lon="-86.752722">
        <ele>141.079241</ele>
        <time>2024-06-02T07:58:34.000Z</time>
      </trkpt>
      <trkpt lat="36.192991" lon="-86.752712">
        <ele>141.211731</ele>
        <time>2024-06-02T07:58:35.000Z</time>
      </trkpt>
      <trkpt lat="36.193069" lon="-86.752703">
        <ele>141.33983</ele>
        <time>2024-06-02T07:58:36.000Z</time>
      </trkpt>
      <trkpt lat="36.193157" lon="-86.752697">
        <ele>141.468216</ele>
        <time>2024-06-02T07:58:37.000Z</time>
      </trkpt>
      <trkpt lat="36.193235" lon="-86.752679">
        <ele>141.59339</ele>
        <time>2024-06-02T07:58:38.000Z</time>
      </trkpt>
      <trkpt lat="36.193322" lon="-86.752682">
        <ele>141.719847</ele>
        <time>2024-06-02T07:58:39.000Z</time>
      </trkpt>
      <trkpt lat="36.193402" lon="-86.752666">
        <ele>141.845036</ele>
        <time>2024-06-02T07:58:40.000Z</time>
      </trkpt>
      <trkpt lat="36.193495" lon="-86.752652">
        <ele>141.97067</ele>
        <time>2024-06-02T07:58:41.000Z</time>
      </trkpt>
      <trkpt lat="36.193563" lon="-86.752646">
        <ele>142.094315</ele>
        <time>2024-06-02T07:58:42.000Z</time>
      </trkpt>
      <trkpt lat="36.193654" lon="-86.752631">
        <ele>142.217725</ele>
        <time>2024-06-02T07:58:43.000Z</time>
      </trkpt>
      <trkpt lat="36.193725" lon="-86.752628">
        <ele>142.341032</ele>
        <time>2024-06-02T07:58:44.000Z</time>
      </trkpt>
      <trkpt lat="36.193812" lon="-86.752619">
        <ele>142.465857</ele>
        <time>2024-06-02T07:58:45.000Z</time>
      </trkpt>
      <trkpt lat="36.193881" lon="-86.7526">
        <ele>142.587447</ele>
        <time>2024-06-02T07:58:46.000Z</time>
      </trkpt>
      <trkpt lat="36.193968" lon="-86.752609">
        <ele>142.710503</ele>
        <time>2024-06-02T07:58:47.000Z</time>
      </trkpt>
      <trkpt lat="36.19404" lon="-86.752601">
        <ele>142.830847</ele>
        <time>2024-06-02T07:58:48.000Z</time>
      </trkpt>
      <trkpt lat="36.194124" lon="-86.752571">
        <ele>142.957599</ele>
        <time>2024-06-02T07:58:49.000Z</time>
      </trkpt>
      <trkpt lat="36.194204" lon="-86.752563">
        <ele>143.082686</ele>
        <time>2024-06-02T07:58:50.000Z</time>
      </trkpt>
      <trkpt lat="36.19428" lon="-86.752558">
        <ele>143.208863</ele>
        <time>2024-06-02T07:58:51.000Z</time>
      </trkpt>
      <trkpt lat="36.19436" lon="-86.752544">
        <ele>143.333178</ele>
        <time>2024-06-02T07:58:52.000Z</time>
      </trkpt>
      <trkpt lat="36.194423" lon="-86.752536">
        <ele>143.45736</ele>
        <time>2024-06-02T07:58:53.000Z</time>
      </trkpt>
      <trkpt lat="36.194514" lon="-86.752534">
        <ele>143.581663</ele>
        <time>2024-06-02T07:58:54.000Z</time>
      </trkpt>
      <trkpt lat="36.19459" lon="-86.752522">
        <ele>143.704375</ele>
        <time>2024-06-02T07:58:55.000Z</time>
      </trkpt>
      <trkpt lat="36.194659" lon="-86.752506">
        <ele>143.828682</ele>
        <time>2024-06-02T07:58:56.000Z</time>
      </trkpt>
      <trkpt lat="36.194745" lon="-86.752502">
        <ele>143.951167</ele>
        <time>2024-06-02T07:58:57.000Z</time>
      </trkpt>
      <trkpt lat="36.194815" lon="-86.752501">
        <ele>144.073758</ele>
        <time>2024-06-02T07:58:58.000Z</time>
      </trkpt>
      <trkpt lat="36.194894" lon="-86.752484">
        <ele>144.197959</ele>
        <time>2024-06-02T07:58:59.000Z</time>
      </trkpt>
      <trkpt lat="36.194972" lon="-86.75247">
        <ele>144.322393</ele>
        <time>2024-06-02T07:59:00.000Z</time>
      </trkpt>
      <trkpt lat="36.195054" lon="-86.752474">
        <ele>144.44856</ele>
        <time>2024-06-02T07:59:01.000Z</time>
      </trkpt>
      <trkpt lat="36.195132" lon="-86.752453">
        <ele>144.573469</ele>
        <time>2024-06-02T07:59:02.000Z</time>
      </trkpt>
      <trkpt lat="36.195201" lon="-86.752437">
        <ele>144.699953</ele>
        <time>2024-06-02T07:59:03.000Z</time>
      </trkpt>
      <trkpt lat="36.195283" lon="-86.752419">
        <ele>144.828223</ele>
        <time>2024-06-02T07:59:04.000Z</time>
      </trkpt>
      <trkpt lat="36.195354" lon="-86.752406">
        <ele>144.954711</ele>
        <time>2024-06-02T07:59:05.000Z</time>
      </trkpt>
      <trkpt lat="36.195427" lon="-86.752394">
        <ele>145.080896</ele>
        <time>2024-06-02T07:59:06.000Z</time>
      </trkpt>
      <trkpt lat="36.19551" lon="-86.752394">
        <ele>145.209893</ele>
        <time>2024-06-02T07:59:07.000Z</time>
      </trkpt>
      <trkpt lat="36.195601" lon="-86.752385">
        <ele>145.337025</ele>
        <time>2024-06-02T07:59:08.000Z</time>
      </trkpt>
      <trkpt lat="36.195684" lon="-86.752389">
        <ele>145.465921</ele>
        <time>2024-06-02T07:59:09.000Z</time>
      </trkpt>
      <trkpt lat="36.195754" lon="-86.752375">
        <ele>145.596525</ele>
        <time>2024-06-02T07:59:10.000Z</time>
      </trkpt>
      <trkpt lat="36.195843" lon="-86.752368">
        <ele>145.728841</ele>
        <time>2024-06-02T07:59:11.000Z</time>
      </trkpt>
      <trkpt lat="36.19592" lon="-86.752347">
        <ele>145.92372</ele>
        <time>2024-06-02T07:59:12.000Z</time>
      </trkpt>
      <trkpt lat="36.196008" lon="-86.752342">
        <ele>146.131389</ele>
        <time>2024-06-02T07:59:13.000Z</time>
      </trkpt>
      <trkpt lat="36.196073" lon="-86.75233">
        <ele>146.344623</ele>
        <time>2024-06-02T07:59:14.000Z</time>
      </trkpt>
      <trkpt lat="36.19617" lon="-86.752312">
        <ele>146.555068</ele>
        <time>2024-06-02T07:59:15.000Z</time>
      </trkpt>
      <trkpt lat="36.196252" lon="-86.752316">
        <ele>146.773688</ele>
        <time>2024-06-02T07:59:16.000Z</time>
      </trkpt>
      <trkpt lat="36.196326" lon="-86.75229">
        <ele>146.992591</ele>
        <time>2024-06-02T07:59:17.000Z</time>
      </trkpt>
      <trkpt lat="36.196421" lon="-86.752286">
        <ele>147.216879</ele>
        <time>2024-06-02T07:59:18.000Z</time>
      </trkpt>
      <trkpt lat="36.1965" lon="-86.752265">
        <ele>147.441459</ele>
        <time>2024-06-02T07:59:19.000Z</time>
      </trkpt>
      <trkpt lat="36.196595" lon="-86.752255">
        <ele>147.668317</ele>
        <time>2024-06-02T07:59:20.000Z</time>
      </trkpt>
      <trkpt lat="36.196672" lon="-86.75224">
        <ele>147.899769</ele>
        <time>2024-06-02T07:59:21.000Z</time>
      </trkpt>
      <trkpt lat="36.196761" lon="-86.752227">
        <ele>148.130756</ele>
        <time>2024-06-02T07:59:22.000Z</time>
      </trkpt>
      <trkpt lat="36.19685" lon="-86.752213">
        <ele>148.367085</ele>
        <time>2024-06-02T07:59:23.000Z</time>
      </trkpt>
      <trkpt lat="36.196959" lon="-86.752193">
        <ele>148.609293</ele>
        <time>2024-06-02T07:59:24.000Z</time>
      </trkpt>
      <trkpt lat="36.197041" lon="-86.752178">
        <ele>148.854942</ele>
        <time>2024-06-02T07:59:25.000Z</time>
      </trkpt>
      <trkpt lat="36.197129" lon="-86.75215">
        <ele>149.099867</ele>
        <time>2024-06-02T07:59:26.000Z</time>
      </trkpt>
      <trkpt lat="36.197237" lon="-86.752134">
        <ele>149.347732</ele>
        <time>2024-06-02T07:59:27.000Z</time>
      </trkpt>
      <trkpt lat="36.197324" lon="-86.75211">
        <ele>149.59694</ele>
        <time>2024-06-02T07:59:28.000Z</time>
      </trkpt>
      <trkpt lat="36.197424" lon="-86.752087">
        <ele>149.848709</ele>
        <time>2024-06-02T07:59:29.000Z</time>
      </trkpt>
      <trkpt lat="36.197521" lon="-86.752062">
        <ele>150.107103</ele>
        <time>2024-06-02T07:59:30.000Z</time>
      </trkpt>
      <trkpt lat="36.197624" lon="-86.752046">
        <ele>150.370577</ele>
        <time>2024-06-02T07:59:31.000Z</time>
      </trkpt>
      <trkpt lat="36.197729" lon="-86.752018">
        <ele>150.704006</ele>
        <time>2024-06-02T07:59:32.000Z</time>
      </trkpt>
      <trkpt lat="36.197828" lon="-86.75199">
        <ele>151.044706</ele>
        <time>2024-06-02T07:59:33.000Z</time>
      </trkpt>
      <trkpt lat="36.197922" lon="-86.751972">
        <ele>151.386449</ele>
        <time>2024-06-02T07:59:34.000Z</time>
      </trkpt>
      <trkpt lat="36.198033" lon="-86.751949">
        <ele>151.730866</ele>
        <time>2024-06-02T07:59:35.000Z</time>
      </trkpt>
      <trkpt lat="36.198129" lon="-86.751911">
        <ele>152.082233</ele>
        <time>2024-06-02T07:59:36.000Z</time>
      </trkpt>
      <trkpt lat="36.198237" lon="-86.751884">
        <ele>152.439045</ele>
        <time>2024-06-02T07:59:37.000Z</time>
      </trkpt>
      <trkpt lat="36.198344" lon="-86.75185">
        <ele>152.795841</ele>
        <time>2024-06-02T07:59:38.000Z</time>
      </trkpt>
      <trkpt lat="36.198462" lon="-86.751833">
        <ele>153.164904</ele>
        <time>2024-06-02T07:59:39.000Z</time>
      </trkpt>
      <trkpt lat="36.198565" lon="-86.751804">
        <ele>153.531304</ele>
        <time>2024-06-02T07:59:40.000Z</time>
      </trkpt>
      <trkpt lat="36.198679" lon="-86.751761">
        <ele>153.898901</ele>
        <time>2024-06-02T07:59:41.000Z</time>
      </trkpt>
      <trkpt lat="36.198786" lon="-86.751733">
        <ele>154.264576</ele>
        <time>2024-06-02T07:59:42.000Z</time>
      </trkpt>
      <trkpt lat="36.198882" lon="-86.7517">
        <ele>154.63024</ele>
        <time>2024-06-02T07:59:43.000Z</time>
      </trkpt>
      <trkpt lat="36.198992" lon="-86.751663">
        <ele>154.995251</ele>
        <time>2024-06-02T07:59:44.000Z</time>
      </trkpt>
      <trkpt lat="36.199103" lon="-86.751637">
        <ele>155.350921</ele>
        <time>2024-06-02T07:59:45.000Z</time>
      </trkpt>
      <trkpt lat="36.199213" lon="-86.751606">
        <ele>155.706582</ele>
        <time>2024-06-02T07:59:46.000Z</time>
      </trkpt>
      <trkpt lat="36.199306" lon="-86.75157">
        <ele>156.05207</ele>
        <time>2024-06-02T07:59:47.000Z</time>
      </trkpt>
      <trkpt lat="36.199421" lon="-86.751559">
        <ele>156.359938</ele>
        <time>2024-06-02T07:59:48.000Z</time>
      </trkpt>
      <trkpt lat="36.199514" lon="-86.751529">
        <ele>156.568451</ele>
        <time>2024-06-02T07:59:49.000Z</time>
      </trkpt>
      <trkpt lat="36.199624" lon="-86.751499">
        <ele>156.774055</ele>
        <time>2024-06-02T07:59:50.000Z</time>
      </trkpt>
      <trkpt lat="36.199709" lon="-86.751467">
        <ele>156.975746</ele>
        <time>2024-06-02T07:59:51.000Z</time>
      </trkpt>
      <trkpt lat="36.199814" lon="-86.751442">
        <ele>157.172486</ele>
        <time>2024-06-02T07:59:52.000Z</time>
      </trkpt>
      <trkpt lat="36.199905" lon="-86.751418">
        <ele>157.360529</ele>
        <time>2024-06-02T07:59:53.000Z</time>
      </trkpt>
      <trkpt lat="36.199987" lon="-86.751396">
        <ele>157.545499</ele>
        <time>2024-06-02T07:59:54.000Z</time>
      </trkpt>
      <trkpt lat="36.200087" lon="-86.751362">
        <ele>157.732415</ele>
        <time>2024-06-02T07:59:55.000Z</time>
      </trkpt>
      <trkpt lat="36.200176" lon="-86.751328">
        <ele>157.918105</ele>
        <time>2024-06-02T07:59:56.000Z</time>
      </trkpt>
      <trkpt lat="36.200265" lon="-86.751307">
        <ele>158.100786</ele>
        <time>2024-06-02T07:59:57.000Z</time>
      </trkpt>
      <trkpt lat="36.200345" lon="-86.751291">
        <ele>158.285756</ele>
        <time>2024-06-02T07:59:58.000Z</time>
      </trkpt>
      <trkpt lat="36.20044" lon="-86.751256">
        <ele>158.468409</ele>
        <time>2024-06-02T07:59:59.000Z</time>
      </trkpt>
      <trkpt lat="36.200523" lon="-86.751237">
        <ele>158.649133</ele>
        <time>2024-06-02T08:00:00.000Z</time>
      </trkpt>
      <trkpt lat="36.20061" lon="-86.751217">
        <ele>158.827533</ele>
        <time>2024-06-02T08:00:01.000Z</time>
      </trkpt>
      <trkpt lat="36.200709" lon="-86.751187">
        <ele>159.004325</ele>
        <time>2024-06-02T08:00:02.000Z</time>
      </trkpt>
      <trkpt lat="36.200795" lon="-86.751166">
        <ele>159.181104</ele>
        <time>2024-06-02T08:00:03.000Z</time>
      </trkpt>
      <trkpt lat="36.200869" lon="-86.751138">
        <ele>159.35595</ele>
        <time>2024-06-02T08:00:04.000Z</time>
      </trkpt>
      <trkpt lat="36.200966" lon="-86.751123">
        <ele>159.528821</ele>
        <time>2024-06-02T08:00:05.000Z</time>
      </trkpt>
      <trkpt lat="36.201034" lon="-86.751081">
        <ele>159.700517</ele>
        <time>2024-06-02T08:00:06.000Z</time>
      </trkpt>
      <trkpt lat="36.20112" lon="-86.751073">
        <ele>159.867549</ele>
        <time>2024-06-02T08:00:07.000Z</time>
      </trkpt>
      <trkpt lat="36.201207" lon="-86.751041">
        <ele>160.033376</ele>
        <time>2024-06-02T08:00:08.000Z</time>
      </trkpt>
      <trkpt lat="36.201273" lon="-86.751021">
        <ele>160.199188</ele>
        <time>2024-06-02T08:00:09.000Z</time>
      </trkpt>
      <trkpt lat="36.201367" lon="-86.751006">
        <ele>160.365003</ele>
        <time>2024-06-02T08:00:10.000Z</time>
      </trkpt>
      <trkpt lat="36.201449" lon="-86.750992">
        <ele>160.529145</ele>
        <time>2024-06-02T08:00:11.000Z</time>
      </trkpt>
      <trkpt lat="36.201513" lon="-86.750968">
        <ele>160.691982</ele>
        <time>2024-06-02T08:00:12.000Z</time>
      </trkpt>
      <trkpt lat="36.201591" lon="-86.750933">
        <ele>160.857159</ele>
        <time>2024-06-02T08:00:13.000Z</time>
      </trkpt>
      <trkpt lat="36.201671" lon="-86.75092">
        <ele>161.022348</ele>
        <time>2024-06-02T08:00:14.000Z</time>
      </trkpt>
      <trkpt lat="36.201762" lon="-86.750899">
        <ele>161.185195</ele>
        <time>2024-06-02T08:00:15.000Z</time>
      </trkpt>
      <trkpt lat="36.20183" lon="-86.750876">
        <ele>161.349003</ele>
        <time>2024-06-02T08:00:16.000Z</time>
      </trkpt>
      <trkpt lat="36.201901" lon="-86.75086">
        <ele>161.508518</ele>
        <time>2024-06-02T08:00:17.000Z</time>
      </trkpt>
      <trkpt lat="36.201995" lon="-86.750849">
        <ele>161.667731</ele>
        <time>2024-06-02T08:00:18.000Z</time>
      </trkpt>
      <trkpt lat="36.202065" lon="-86.750832">
        <ele>161.829235</ele>
        <time>2024-06-02T08:00:19.000Z</time>
      </trkpt>
      <trkpt lat="36.202139" lon="-86.750799">
        <ele>161.989044</ele>
        <time>2024-06-02T08:00:20.000Z</time>
      </trkpt>
      <trkpt lat="36.202227" lon="-86.750787">
        <ele>162.151887</ele>
        <time>2024-06-02T08:00:21.000Z</time>
      </trkpt>
      <trkpt lat="36.202304" lon="-86.750757">
        <ele>162.311339</ele>
        <time>2024-06-02T08:00:22.000Z</time>
      </trkpt>
      <trkpt lat="36.202364" lon="-86.750733">
        <ele>162.474226</ele>
        <time>2024-06-02T08:00:23.000Z</time>
      </trkpt>
      <trkpt lat="36.202448" lon="-86.750698">
        <ele>162.638652</ele>
        <time>2024-06-02T08:00:24.000Z</time>
      </trkpt>
      <trkpt lat="36.202534" lon="-86.750687">
        <ele>162.804226</ele>
        <time>2024-06-02T08:00:25.000Z</time>
      </trkpt>
      <trkpt lat="36.202609" lon="-86.750653">
        <ele>162.969419</ele>
        <time>2024-06-02T08:00:26.000Z</time>
      </trkpt>
      <trkpt lat="36.202689" lon="-86.750635">
        <ele>163.136213</ele>
        <time>2024-06-02T08:00:27.000Z</time>
      </trkpt>
      <trkpt lat="36.202764" lon="-86.750609">
        <ele>163.304671</ele>
        <time>2024-06-02T08:00:28.000Z</time>
      </trkpt>
      <trkpt lat="36.202843" lon="-86.750594">
        <ele>163.475121</ele>
        <time>2024-06-02T08:00:29.000Z</time>
      </trkpt>
      <trkpt lat="36.202927" lon="-86.750576">
        <ele>163.640141</ele>
        <time>2024-06-02T08:00:30.000Z</time>
      </trkpt>
      <trkpt lat="36.203012" lon="-86.750551">
        <ele>163.803236</ele>
        <time>2024-06-02T08:00:31.000Z</time>
      </trkpt>
      <trkpt lat="36.203106" lon="-86.750509">
        <ele>163.968593</ele>
        <time>2024-06-02T08:00:32.000Z</time>
      </trkpt>
      <trkpt lat="36.203175" lon="-86.750485">
        <ele>164.133552</ele>
        <time>2024-06-02T08:00:33.000Z</time>
      </trkpt>
      <trkpt lat="36.203259" lon="-86.750462">
        <ele>164.301136</ele>
        <time>2024-06-02T08:00:34.000Z</time>
      </trkpt>
      <trkpt lat="36.203346" lon="-86.750432">
        <ele>164.472452</ele>
        <time>2024-06-02T08:00:35.000Z</time>
      </trkpt>
      <trkpt lat="36.203443" lon="-86.750409">
        <ele>164.639056</ele>
        <time>2024-06-02T08:00:36.000Z</time>
      </trkpt>
      <trkpt lat="36.203527" lon="-86.750401">
        <ele>164.81321</ele>
        <time>2024-06-02T08:00:37.000Z</time>
      </trkpt>
      <trkpt lat="36.203612" lon="-86.750381">
        <ele>164.983025</ele>
        <time>2024-06-02T08:00:38.000Z</time>
      </trkpt>
      <trkpt lat="36.203708" lon="-86.75035">
        <ele>165.155013</ele>
        <time>2024-06-02T08:00:39.000Z</time>
      </trkpt>
      <trkpt lat="36.203793" lon="-86.750337">
        <ele>165.328614</ele>
        <time>2024-06-02T08:00:40.000Z</time>
      </trkpt>
      <trkpt lat="36.203882" lon="-86.75032">
        <ele>165.504366</ele>
        <time>2024-06-02T08:00:41.000Z</time>
      </trkpt>
      <trkpt lat="36.203971" lon="-86.7503">
        <ele>165.680138</ele>
        <time>2024-06-02T08:00:42.000Z</time>
      </trkpt>
      <trkpt lat="36.204068" lon="-86.75028">
        <ele>165.855895</ele>
        <time>2024-06-02T08:00:43.000Z</time>
      </trkpt>
      <trkpt lat="36.204151" lon="-86.75026">
        <ele>166.033555</ele>
        <time>2024-06-02T08:00:44.000Z</time>
      </trkpt>
      <trkpt lat="36.20425" lon="-86.750235">
        <ele>166.212847</ele>
        <time>2024-06-02T08:00:45.000Z</time>
      </trkpt>
      <trkpt lat="36.204336" lon="-86.750223">
        <ele>166.390497</ele>
        <time>2024-06-02T08:00:46.000Z</time>
      </trkpt>
      <trkpt lat="36.204418" lon="-86.750196">
        <ele>166.570902</ele>
        <time>2024-06-02T08:00:47.000Z</time>
      </trkpt>
      <trkpt lat="36.204523" lon="-86.750173">
        <ele>166.754166</ele>
        <time>2024-06-02T08:00:48.000Z</time>
      </trkpt>
      <trkpt lat="36.20461" lon="-86.750153">
        <ele>166.933349</ele>
        <time>2024-06-02T08:00:49.000Z</time>
      </trkpt>
      <trkpt lat="36.204708" lon="-86.750122">
        <ele>167.074922</ele>
        <time>2024-06-02T08:00:50.000Z</time>
      </trkpt>
      <trkpt lat="36.204791" lon="-86.750094">
        <ele>167.177846</ele>
        <time>2024-06-02T08:00:51.000Z</time>
      </trkpt>
      <trkpt lat="36.204887" lon="-86.750088">
        <ele>167.282081</ele>
        <time>2024-06-02T08:00:52.000Z</time>
      </trkpt>
      <trkpt lat="36.204966" lon="-86.750054">
        <ele>167.386697</ele>
        <time>2024-06-02T08:00:53.000Z</time>
      </trkpt>
      <trkpt lat="36.205066" lon="-86.750022">
        <ele>167.492415</ele>
        <time>2024-06-02T08:00:54.000Z</time>
      </trkpt>
      <trkpt lat="36.205158" lon="-86.750006">
        <ele>167.599439</ele>
        <time>2024-06-02T08:00:55.000Z</time>
      </trkpt>
      <trkpt lat="36.205236" lon="-86.74998">
        <ele>167.707012</ele>
        <time>2024-06-02T08:00:56.000Z</time>
      </trkpt>
      <trkpt lat="36.205336" lon="-86.749964">
        <ele>167.813284</ele>
        <time>2024-06-02T08:00:57.000Z</time>
      </trkpt>
      <trkpt lat="36.205429" lon="-86.74993">
        <ele>167.917148</ele>
        <time>2024-06-02T08:00:58.000Z</time>
      </trkpt>
      <trkpt lat="36.205509" lon="-86.749906">
        <ele>168.021204</ele>
        <time>2024-06-02T08:00:59.000Z</time>
      </trkpt>
      <trkpt lat="36.205609" lon="-86.749887">
        <ele>168.124145</ele>
        <time>2024-06-02T08:01:00.000Z</time>
      </trkpt>
      <trkpt lat="36.205701" lon="-86.749865">
        <ele>168.22707</ele>
        <time>2024-06-02T08:01:01.000Z</time>
      </trkpt>
      <trkpt lat="36.205777" lon="-86.749841">
        <ele>168.325766</ele>
        <time>2024-06-02T08:01:02.000Z</time>
      </trkpt>
      <trkpt lat="36.205869" lon="-86.74983">
        <ele>168.424997</ele>
        <time>2024-06-02T08:01:03.000Z</time>
      </trkpt>
      <trkpt lat="36.205947" lon="-86.749809">
        <ele>168.525202</ele>
        <time>2024-06-02T08:01:04.000Z</time>
      </trkpt>
      <trkpt lat="36.206039" lon="-86.749781">
        <ele>168.623345</ele>
        <time>2024-06-02T08:01:05.000Z</time>
      </trkpt>
      <trkpt lat="36.206116" lon="-86.749777">
        <ele>168.720857</ele>
        <time>2024-06-02T08:01:06.000Z</time>
      </trkpt>
      <trkpt lat="36.206197" lon="-86.74975">
        <ele>168.816985</ele>
        <time>2024-06-02T08:01:07.000Z</time>
      </trkpt>
      <trkpt lat="36.206297" lon="-86.74975">
        <ele>168.910743</ele>
        <time>2024-06-02T08:01:08.000Z</time>
      </trkpt>
      <trkpt lat="36.206373" lon="-86.749737">
        <ele>169.003787</ele>
        <time>2024-06-02T08:01:09.000Z</time>
      </trkpt>
      <trkpt lat="36.206445" lon="-86.749714">
        <ele>169.115539</ele>
        <time>2024-06-02T08:01:10.000Z</time>
      </trkpt>
      <trkpt lat="36.206527" lon="-86.749691">
        <ele>169.279907</ele>
        <time>2024-06-02T08:01:11.000Z</time>
      </trkpt>
      <trkpt lat="36.206609" lon="-86.749676">
        <ele>169.437451</ele>
        <time>2024-06-02T08:01:12.000Z</time>
      </trkpt>
      <trkpt lat="36.206693" lon="-86.749668">
        <ele>169.59849</ele>
        <time>2024-06-02T08:01:13.000Z</time>
      </trkpt>
      <trkpt lat="36.206754" lon="-86.749657">
        <ele>169.7533</ele>
        <time>2024-06-02T08:01:14.000Z</time>
      </trkpt>
      <trkpt lat="36.206843" lon="-86.74964">
        <ele>169.905903</ele>
        <time>2024-06-02T08:01:15.000Z</time>
      </trkpt>
      <trkpt lat="36.206919" lon="-86.749621">
        <ele>170.058949</ele>
        <time>2024-06-02T08:01:16.000Z</time>
      </trkpt>
      <trkpt lat="36.20698" lon="-86.749612">
        <ele>170.212808</ele>
        <time>2024-06-02T08:01:17.000Z</time>
      </trkpt>
      <trkpt lat="36.207066" lon="-86.749597">
        <ele>170.364123</ele>
        <time>2024-06-02T08:01:18.000Z</time>
      </trkpt>
      <trkpt lat="36.207135" lon="-86.749585">
        <ele>170.515704</ele>
        <time>2024-06-02T08:01:19.000Z</time>
      </trkpt>
      <trkpt lat="36.207209" lon="-86.749569">
        <ele>170.665586</ele>
        <time>2024-06-02T08:01:20.000Z</time>
      </trkpt>
      <trkpt lat="36.207288" lon="-86.749555">
        <ele>170.814651</ele>
        <time>2024-06-02T08:01:21.000Z</time>
      </trkpt>
      <trkpt lat="36.207346" lon="-86.749534">
        <ele>170.963714</ele>
        <time>2024-06-02T08:01:22.000Z</time>
      </trkpt>
      <trkpt lat="36.207425" lon="-86.749528">
        <ele>171.114527</ele>
        <time>2024-06-02T08:01:23.000Z</time>
      </trkpt>
      <trkpt lat="36.207502" lon="-86.749514">
        <ele>171.265353</ele>
        <time>2024-06-02T08:01:24.000Z</time>
      </trkpt>
      <trkpt lat="36.207564" lon="-86.749489">
        <ele>171.414672</ele>
        <time>2024-06-02T08:01:25.000Z</time>
      </trkpt>
      <trkpt lat="36.207638" lon="-86.749485">
        <ele>171.561732</ele>
        <time>2024-06-02T08:01:26.000Z</time>
      </trkpt>
      <trkpt lat="36.207724" lon="-86.74947">
        <ele>171.713322</ele>
        <time>2024-06-02T08:01:27.000Z</time>
      </trkpt>
      <trkpt lat="36.207801" lon="-86.749443">
        <ele>171.865186</ele>
        <time>2024-06-02T08:01:28.000Z</time>
      </trkpt>
      <trkpt lat="36.207879" lon="-86.749439">
        <ele>172.02399</ele>
        <time>2024-06-02T08:01:29.000Z</time>
      </trkpt>
      <trkpt lat="36.207953" lon="-86.749421">
        <ele>172.184615</ele>
        <time>2024-06-02T08:01:30.000Z</time>
      </trkpt>
      <trkpt lat="36.208031" lon="-86.749402">
        <ele>172.343203</ele>
        <time>2024-06-02T08:01:31.000Z</time>
      </trkpt>
      <trkpt lat="36.208104" lon="-86.749388">
        <ele>172.499047</ele>
        <time>2024-06-02T08:01:32.000Z</time>
      </trkpt>
      <trkpt lat="36.208175" lon="-86.74938">
        <ele>172.659148</ele>
        <time>2024-06-02T08:01:33.000Z</time>
      </trkpt>
      <trkpt lat="36.208251" lon="-86.749351">
        <ele>172.778147</ele>
        <time>2024-06-02T08:01:34.000Z</time>
      </trkpt>
      <trkpt lat="36.208335" lon="-86.749343">
        <ele>172.887491</ele>
        <time>2024-06-02T08:01:35.000Z</time>
      </trkpt>
      <trkpt lat="36.208411" lon="-86.749327">
        <ele>172.995494</ele>
        <time>2024-06-02T08:01:36.000Z</time>
      </trkpt>
      <trkpt lat="36.208493" lon="-86.749309">
        <ele>173.103489</ele>
        <time>2024-06-02T08:01:37.000Z</time>
      </trkpt>
      <trkpt lat="36.208573" lon="-86.74929">
        <ele>173.215921</ele>
        <time>2024-06-02T08:01:38.000Z</time>
      </trkpt>
      <trkpt lat="36.208655" lon="-86.749273">
        <ele>173.327946</ele>
        <time>2024-06-02T08:01:39.000Z</time>
      </trkpt>
      <trkpt lat="36.208739" lon="-86.749256">
        <ele>173.44017</ele>
        <time>2024-06-02T08:01:40.000Z</time>
      </trkpt>
      <trkpt lat="36.208822" lon="-86.749227">
        <ele>173.551054</ele>
        <time>2024-06-02T08:01:41.000Z</time>
      </trkpt>
      <trkpt lat="36.208898" lon="-86.749211">
        <ele>173.663685</ele>
        <time>2024-06-02T08:01:42.000Z</time>
      </trkpt>
      <trkpt lat="36.208973" lon="-86.749189">
        <ele>173.777863</ele>
        <time>2024-06-02T08:01:43.000Z</time>
      </trkpt>
      <trkpt lat="36.209059" lon="-86.749172">
        <ele>173.89451</ele>
        <time>2024-06-02T08:01:44.000Z</time>
      </trkpt>
      <trkpt lat="36.209154" lon="-86.749155">
        <ele>174.015175</ele>
        <time>2024-06-02T08:01:45.000Z</time>
      </trkpt>
      <trkpt lat="36.209234" lon="-86.749133">
        <ele>174.136819</ele>
        <time>2024-06-02T08:01:46.000Z</time>
      </trkpt>
      <trkpt lat="36.209321" lon="-86.749112">
        <ele>174.258629</ele>
        <time>2024-06-02T08:01:47.000Z</time>
      </trkpt>
      <trkpt lat="36.209424" lon="-86.749098">
        <ele>174.381983</ele>
        <time>2024-06-02T08:01:48.000Z</time>
      </trkpt>
      <trkpt lat="36.209512" lon="-86.749069">
        <ele>174.506668</ele>
        <time>2024-06-02T08:01:49.000Z</time>
      </trkpt>
      <trkpt lat="36.209591" lon="-86.749057">
        <ele>174.632711</ele>
        <time>2024-06-02T08:01:50.000Z</time>
      </trkpt>
      <trkpt lat="36.209689" lon="-86.749029">
        <ele>174.758551</ele>
        <time>2024-06-02T08:01:51.000Z</time>
      </trkpt>
      <trkpt lat="36.209783" lon="-86.749009">
        <ele>174.886909</ele>
        <time>2024-06-02T08:01:52.000Z</time>
      </trkpt>
      <trkpt lat="36.209866" lon="-86.748998">
        <ele>175.015271</ele>
        <time>2024-06-02T08:01:53.000Z</time>
      </trkpt>
      <trkpt lat="36.209966" lon="-86.748973">
        <ele>175.144991</ele>
        <time>2024-06-02T08:01:54.000Z</time>
      </trkpt>
      <trkpt lat="36.210053" lon="-86.74896">
        <ele>175.194437</ele>
        <time>2024-06-02T08:01:55.000Z</time>
      </trkpt>
      <trkpt lat="36.210152" lon="-86.748937">
        <ele>175.241246</ele>
        <time>2024-06-02T08:01:56.000Z</time>
      </trkpt>
      <trkpt lat="36.21025" lon="-86.748926">
        <ele>175.28923</ele>
        <time>2024-06-02T08:01:57.000Z</time>
      </trkpt>
      <trkpt lat="36.210357" lon="-86.748902">
        <ele>175.33756</ele>
        <time>2024-06-02T08:01:58.000Z</time>
      </trkpt>
      <trkpt lat="36.210459" lon="-86.748879">
        <ele>175.385744</ele>
        <time>2024-06-02T08:01:59.000Z</time>
      </trkpt>
      <trkpt lat="36.210554" lon="-86.748855">
        <ele>175.434466</ele>
        <time>2024-06-02T08:02:00.000Z</time>
      </trkpt>
      <trkpt lat="36.210641" lon="-86.748844">
        <ele>175.482645</ele>
        <time>2024-06-02T08:02:01.000Z</time>
      </trkpt>
      <trkpt lat="36.210748" lon="-86.74881">
        <ele>175.531796</ele>
        <time>2024-06-02T08:02:02.000Z</time>
      </trkpt>
      <trkpt lat="36.210851" lon="-86.748793">
        <ele>175.580937</ele>
        <time>2024-06-02T08:02:03.000Z</time>
      </trkpt>
      <trkpt lat="36.21095" lon="-86.748782">
        <ele>175.630557</ele>
        <time>2024-06-02T08:02:04.000Z</time>
      </trkpt>
      <trkpt lat="36.211047" lon="-86.748761">
        <ele>175.680782</ele>
        <time>2024-06-02T08:02:05.000Z</time>
      </trkpt>
      <trkpt lat="36.211148" lon="-86.74873">
        <ele>175.731152</ele>
        <time>2024-06-02T08:02:06.000Z</time>
      </trkpt>
      <trkpt lat="36.211259" lon="-86.748704">
        <ele>175.781915</ele>
        <time>2024-06-02T08:02:07.000Z</time>
      </trkpt>
      <trkpt lat="36.21136" lon="-86.748676">
        <ele>175.832769</ele>
        <time>2024-06-02T08:02:08.000Z</time>
      </trkpt>
      <trkpt lat="36.211462" lon="-86.748658">
        <ele>175.884422</ele>
        <time>2024-06-02T08:02:09.000Z</time>
      </trkpt>
      <trkpt lat="36.21157" lon="-86.748636">
        <ele>175.936498</ele>
        <time>2024-06-02T08:02:10.000Z</time>
      </trkpt>
      <trkpt lat="36.21168" lon="-86.748617">
        <ele>175.989049</ele>
        <time>2024-06-02T08:02:11.000Z</time>
      </trkpt>
      <trkpt lat="36.211786" lon="-86.748598">
        <ele>176.081126</ele>
        <time>2024-06-02T08:02:12.000Z</time>
      </trkpt>
      <trkpt lat="36.211884" lon="-86.74857">
        <ele>176.245792</ele>
        <time>2024-06-02T08:02:13.000Z</time>
      </trkpt>
      <trkpt lat="36.211999" lon="-86.748555">
        <ele>176.410823</ele>
        <time>2024-06-02T08:02:14.000Z</time>
      </trkpt>
      <trkpt lat="36.212101" lon="-86.748543">
        <ele>176.576053</ele>
        <time>2024-06-02T08:02:15.000Z</time>
      </trkpt>
      <trkpt lat="36.212206" lon="-86.748524">
        <ele>176.74259</ele>
        <time>2024-06-02T08:02:16.000Z</time>
      </trkpt>
      <trkpt lat="36.212311" lon="-86.748501">
        <ele>176.909558</ele>
        <time>2024-06-02T08:02:17.000Z</time>
      </trkpt>
      <trkpt lat="36.212421" lon="-86.748469">
        <ele>177.076723</ele>
        <time>2024-06-02T08:02:18.000Z</time>
      </trkpt>
      <trkpt lat="36.212527" lon="-86.748451">
        <ele>177.242384</ele>
        <time>2024-06-02T08:02:19.000Z</time>
      </trkpt>
      <trkpt lat="36.212625" lon="-86.748418">
        <ele>177.405692</ele>
        <time>2024-06-02T08:02:20.000Z</time>
      </trkpt>
      <trkpt lat="36.212729" lon="-86.748396">
        <ele>177.570548</ele>
        <time>2024-06-02T08:02:21.000Z</time>
      </trkpt>
      <trkpt lat="36.21285" lon="-86.748382">
        <ele>177.73385</ele>
        <time>2024-06-02T08:02:22.000Z</time>
      </trkpt>
      <trkpt lat="36.212943" lon="-86.748371">
        <ele>177.895656</ele>
        <time>2024-06-02T08:02:23.000Z</time>
      </trkpt>
      <trkpt lat="36.213044" lon="-86.748354">
        <ele>178.055415</ele>
        <time>2024-06-02T08:02:24.000Z</time>
      </trkpt>
      <trkpt lat="36.213152" lon="-86.748332">
        <ele>178.21667</ele>
        <time>2024-06-02T08:02:25.000Z</time>
      </trkpt>
      <trkpt lat="36.213253" lon="-86.74831">
        <ele>178.373553</ele>
        <time>2024-06-02T08:02:26.000Z</time>
      </trkpt>
      <trkpt lat="36.213363" lon="-86.748291">
        <ele>178.52948</ele>
        <time>2024-06-02T08:02:27.000Z</time>
      </trkpt>
      <trkpt lat="36.213453" lon="-86.748276">
        <ele>178.682385</ele>
        <time>2024-06-02T08:02:28.000Z</time>
      </trkpt>
      <trkpt lat="36.213547" lon="-86.748245">
        <ele>178.809413</ele>
        <time>2024-06-02T08:02:29.000Z</time>
      </trkpt>
      <trkpt lat="36.213649" lon="-86.748235">
        <ele>178.883411</ele>
        <time>2024-06-02T08:02:30.000Z</time>
      </trkpt>
      <trkpt lat="36.213744" lon="-86.748222">
        <ele>178.955691</ele>
        <time>2024-06-02T08:02:31.000Z</time>
      </trkpt>
      <trkpt lat="36.213831" lon="-86.748193">
        <ele>179.025789</ele>
        <time>2024-06-02T08:02:32.000Z</time>
      </trkpt>
      <trkpt lat="36.213926" lon="-86.748186">
        <ele>179.095622</ele>
        <time>2024-06-02T08:02:33.000Z</time>
      </trkpt>
      <trkpt lat="36.214006" lon="-86.748162">
        <ele>179.16337</ele>
        <time>2024-06-02T08:02:34.000Z</time>
      </trkpt>
      <trkpt lat="36.214106" lon="-86.74814">
        <ele>179.231108</ele>
        <time>2024-06-02T08:02:35.000Z</time>
      </trkpt>
      <trkpt lat="36.214191" lon="-86.748121">
        <ele>179.296169</ele>
        <time>2024-06-02T08:02:36.000Z</time>
      </trkpt>
      <trkpt lat="36.214276" lon="-86.748101">
        <ele>179.36039</ele>
        <time>2024-06-02T08:02:37.000Z</time>
      </trkpt>
      <trkpt lat="36.214355" lon="-86.748079">
        <ele>179.423774</ele>
        <time>2024-06-02T08:02:38.000Z</time>
      </trkpt>
      <trkpt lat="36.214427" lon="-86.748072">
        <ele>179.486502</ele>
        <time>2024-06-02T08:02:39.000Z</time>
      </trkpt>
      <trkpt lat="36.214521" lon="-86.748058">
        <ele>179.546909</ele>
        <time>2024-06-02T08:02:40.000Z</time>
      </trkpt>
      <trkpt lat="36.214595" lon="-86.748038">
        <ele>179.60657</ele>
        <time>2024-06-02T08:02:41.000Z</time>
      </trkpt>
      <trkpt lat="36.214659" lon="-86.748017">
        <ele>179.665698</ele>
        <time>2024-06-02T08:02:42.000Z</time>
      </trkpt>
      <trkpt lat="36.214735" lon="-86.747993">
        <ele>179.724454</ele>
        <time>2024-06-02T08:02:43.000Z</time>
      </trkpt>
      <trkpt lat="36.21482" lon="-86.747985">
        <ele>179.781603</ele>
        <time>2024-06-02T08:02:44.000Z</time>
      </trkpt>
      <trkpt lat="36.214889" lon="-86.747954">
        <ele>179.83889</ele>
        <time>2024-06-02T08:02:45.000Z</time>
      </trkpt>
      <trkpt lat="36.214964" lon="-86.74794">
        <ele>179.894297</ele>
        <time>2024-06-02T08:02:46.000Z</time>
      </trkpt>
      <trkpt lat="36.215033" lon="-86.747913">
        <ele>179.950343</ele>
        <time>2024-06-02T08:02:47.000Z</time>
      </trkpt>
      <trkpt lat="36.215115" lon="-86.747901">
        <ele>180.003948</ele>
        <time>2024-06-02T08:02:48.000Z</time>
      </trkpt>
      <trkpt lat="36.215175" lon="-86.747889">
        <ele>180.058203</ele>
        <time>2024-06-02T08:02:49.000Z</time>
      </trkpt>
      <trkpt lat="36.215249" lon="-86.747887">
        <ele>180.11096</ele>
        <time>2024-06-02T08:02:50.000Z</time>
      </trkpt>
      <trkpt lat="36.215319" lon="-86.747857">
        <ele>180.202534</ele>
        <time>2024-06-02T08:02:51.000Z</time>
      </trkpt>
      <trkpt lat="36.215378" lon="-86.747857">
        <ele>180.364335</ele>
        <time>2024-06-02T08:02:52.000Z</time>
      </trkpt>
      <trkpt lat="36.215447" lon="-86.747841">
        <ele>180.52331</ele>
        <time>2024-06-02T08:02:53.000Z</time>
      </trkpt>
      <trkpt lat="36.215527" lon="-86.747824">
        <ele>180.682075</ele>
        <time>2024-06-02T08:02:54.000Z</time>
      </trkpt>
      <trkpt lat="36.215598" lon="-86.747815">
        <ele>180.84104</ele>
        <time>2024-06-02T08:02:55.000Z</time>
      </trkpt>
      <trkpt lat="36.215647" lon="-86.747805">
        <ele>180.9952</ele>
        <time>2024-06-02T08:02:56.000Z</time>
      </trkpt>
      <trkpt lat="36.215717" lon="-86.747797">
        <ele>181.147286</ele>
        <time>2024-06-02T08:02:57.000Z</time>
      </trkpt>
      <trkpt lat="36.215785" lon="-86.747784">
        <ele>181.299633</ele>
        <time>2024-06-02T08:02:58.000Z</time>
      </trkpt>
      <trkpt lat="36.21586" lon="-86.747778">
        <ele>181.45861</ele>
        <time>2024-06-02T08:02:59.000Z</time>
      </trkpt>
      <trkpt lat="36.215917" lon="-86.747776">
        <ele>181.61945</ele>
        <time>2024-06-02T08:03:00.000Z</time>
      </trkpt>
      <trkpt lat="36.215991" lon="-86.747762">
        <ele>181.781544</ele>
        <time>2024-06-02T08:03:01.000Z</time>
      </trkpt>
      <trkpt lat="36.216056" lon="-86.747736">
        <ele>181.943571</ele>
        <time>2024-06-02T08:03:02.000Z</time>
      </trkpt>
      <trkpt lat="36.216129" lon="-86.747708">
        <ele>182.105599</ele>
        <time>2024-06-02T08:03:03.000Z</time>
      </trkpt>
      <trkpt lat="36.216193" lon="-86.747688">
        <ele>182.26679</ele>
        <time>2024-06-02T08:03:04.000Z</time>
      </trkpt>
      <trkpt lat="36.21626" lon="-86.747688">
        <ele>182.424634</ele>
        <time>2024-06-02T08:03:05.000Z</time>
      </trkpt>
      <trkpt lat="36.216325" lon="-86.747664">
        <ele>182.582478</ele>
        <time>2024-06-02T08:03:06.000Z</time>
      </trkpt>
      <trkpt lat="36.216397" lon="-86.747652">
        <ele>182.735755</ele>
        <time>2024-06-02T08:03:07.000Z</time>
      </trkpt>
      <trkpt lat="36.216462" lon="-86.747641">
        <ele>182.889749</ele>
        <time>2024-06-02T08:03:08.000Z</time>
      </trkpt>
      <trkpt lat="36.216516" lon="-86.747625">
        <ele>183.041113</ele>
        <time>2024-06-02T08:03:09.000Z</time>
      </trkpt>
      <trkpt lat="36.21658" lon="-86.747595">
        <ele>183.192472</ele>
        <time>2024-06-02T08:03:10.000Z</time>
      </trkpt>
      <trkpt lat="36.216645" lon="-86.74759">
        <ele>183.346098</ele>
        <time>2024-06-02T08:03:11.000Z</time>
      </trkpt>
      <trkpt lat="36.216708" lon="-86.747571">
        <ele>183.499386</ele>
        <time>2024-06-02T08:03:12.000Z</time>
      </trkpt>
      <trkpt lat="36.216789" lon="-86.747557">
        <ele>183.652338</ele>
        <time>2024-06-02T08:03:13.000Z</time>
      </trkpt>
      <trkpt lat="36.216852" lon="-86.747541">
        <ele>183.804977</ele>
        <time>2024-06-02T08:03:14.000Z</time>
      </trkpt>
      <trkpt lat="36.216916" lon="-86.747523">
        <ele>183.957604</ele>
        <time>2024-06-02T08:03:15.000Z</time>
      </trkpt>
      <trkpt lat="36.21697" lon="-86.747508">
        <ele>184.110243</ele>
        <time>2024-06-02T08:03:16.000Z</time>
      </trkpt>
      <trkpt lat="36.217034" lon="-86.747515">
        <ele>184.260038</ele>
        <time>2024-06-02T08:03:17.000Z</time>
      </trkpt>
      <trkpt lat="36.217106" lon="-86.747496">
        <ele>184.469651</ele>
        <time>2024-06-02T08:03:18.000Z</time>
      </trkpt>
      <trkpt lat="36.217176" lon="-86.747486">
        <ele>184.705223</ele>
        <time>2024-06-02T08:03:19.000Z</time>
      </trkpt>
      <trkpt lat="36.217234" lon="-86.747462">
        <ele>184.944422</ele>
        <time>2024-06-02T08:03:20.000Z</time>
      </trkpt>
      <trkpt lat="36.217306" lon="-86.747447">
        <ele>185.183628</ele>
        <time>2024-06-02T08:03:21.000Z</time>
      </trkpt>
      <trkpt lat="36.217367" lon="-86.747445">
        <ele>185.419208</ele>
        <time>2024-06-02T08:03:22.000Z</time>
      </trkpt>
      <trkpt lat="36.217418" lon="-86.747426">
        <ele>185.663064</ele>
        <time>2024-06-02T08:03:23.000Z</time>
      </trkpt>
      <trkpt lat="36.21748" lon="-86.74741">
        <ele>185.900261</ele>
        <time>2024-06-02T08:03:24.000Z</time>
      </trkpt>
      <trkpt lat="36.21754" lon="-86.747391">
        <ele>186.128569</ele>
        <time>2024-06-02T08:03:25.000Z</time>
      </trkpt>
      <trkpt lat="36.217618" lon="-86.747398">
        <ele>186.358475</ele>
        <time>2024-06-02T08:03:26.000Z</time>
      </trkpt>
      <trkpt lat="36.217675" lon="-86.747392">
        <ele>186.584434</ele>
        <time>2024-06-02T08:03:27.000Z</time>
      </trkpt>
      <trkpt lat="36.217726" lon="-86.747373">
        <ele>186.810381</ele>
        <time>2024-06-02T08:03:28.000Z</time>
      </trkpt>
      <trkpt lat="36.217786" lon="-86.747363">
        <ele>187.033682</ele>
        <time>2024-06-02T08:03:29.000Z</time>
      </trkpt>
      <trkpt lat="36.217859" lon="-86.747348">
        <ele>187.254199</ele>
        <time>2024-06-02T08:03:30.000Z</time>
      </trkpt>
      <trkpt lat="36.217911" lon="-86.747336">
        <ele>187.476347</ele>
        <time>2024-06-02T08:03:31.000Z</time>
      </trkpt>
      <trkpt lat="36.217972" lon="-86.747328">
        <ele>187.699117</ele>
        <time>2024-06-02T08:03:32.000Z</time>
      </trkpt>
      <trkpt lat="36.218033" lon="-86.747318">
        <ele>187.921268</ele>
        <time>2024-06-02T08:03:33.000Z</time>
      </trkpt>
      <trkpt lat="36.218092" lon="-86.747304">
        <ele>188.145927</ele>
        <time>2024-06-02T08:03:34.000Z</time>
      </trkpt>
      <trkpt lat="36.218156" lon="-86.747289">
        <ele>188.374215</ele>
        <time>2024-06-02T08:03:35.000Z</time>
      </trkpt>
      <trkpt lat="36.218205" lon="-86.747267">
        <ele>188.603029</ele>
        <time>2024-06-02T08:03:36.000Z</time>
      </trkpt>
      <trkpt lat="36.218277" lon="-86.747247">
        <ele>188.831852</ele>
        <time>2024-06-02T08:03:37.000Z</time>
      </trkpt>
      <trkpt lat="36.218338" lon="-86.747242">
        <ele>189.063779</ele>
        <time>2024-06-02T08:03:38.000Z</time>
      </trkpt>
      <trkpt lat="36.218388" lon="-86.747229">
        <ele>189.29985</ele>
        <time>2024-06-02T08:03:39.000Z</time>
      </trkpt>
      <trkpt lat="36.218467" lon="-86.747217">
        <ele>189.535416</ele>
        <time>2024-06-02T08:03:40.000Z</time>
      </trkpt>
      <trkpt lat="36.218518" lon="-86.7472">
        <ele>189.767354</ele>
        <time>2024-06-02T08:03:41.000Z</time>
      </trkpt>
      <trkpt lat="36.218589" lon="-86.747189">
        <ele>190.006546</ele>
        <time>2024-06-02T08:03:42.000Z</time>
      </trkpt>
      <trkpt lat="36.218649" lon="-86.74717">
        <ele>190.238479</ele>
        <time>2024-06-02T08:03:43.000Z</time>
      </trkpt>
      <trkpt lat="36.218705" lon="-86.747156">
        <ele>190.473577</ele>
        <time>2024-06-02T08:03:44.000Z</time>
      </trkpt>
      <trkpt lat="36.218775" lon="-86.747147">
        <ele>190.711893</ele>
        <time>2024-06-02T08:03:45.000Z</time>
      </trkpt>
      <trkpt lat="36.218847" lon="-86.747138">
        <ele>190.956783</ele>
        <time>2024-06-02T08:03:46.000Z</time>
      </trkpt>
      <trkpt lat="36.21891" lon="-86.747125">
        <ele>191.29423</ele>
        <time>2024-06-02T08:03:47.000Z</time>
      </trkpt>
      <trkpt lat="36.21897" lon="-86.747105">
        <ele>191.626734</ele>
        <time>2024-06-02T08:03:48.000Z</time>
      </trkpt>
      <trkpt lat="36.219042" lon="-86.747094">
        <ele>191.974643</ele>
        <time>2024-06-02T08:03:49.000Z</time>
      </trkpt>
      <trkpt lat="36.219114" lon="-86.747089">
        <ele>192.319033</ele>
        <time>2024-06-02T08:03:50.000Z</time>
      </trkpt>
      <trkpt lat="36.219181" lon="-86.747059">
        <ele>192.6642</ele>
        <time>2024-06-02T08:03:51.000Z</time>
      </trkpt>
      <trkpt lat="36.219249" lon="-86.747054">
        <ele>193.019134</ele>
        <time>2024-06-02T08:03:52.000Z</time>
      </trkpt>
      <trkpt lat="36.219327" lon="-86.747033">
        <ele>193.3726</ele>
        <time>2024-06-02T08:03:53.000Z</time>
      </trkpt>
      <trkpt lat="36.219394" lon="-86.747026">
        <ele>193.730971</ele>
        <time>2024-06-02T08:03:54.000Z</time>
      </trkpt>
      <trkpt lat="36.219452" lon="-86.747015">
        <ele>194.088692</ele>
        <time>2024-06-02T08:03:55.000Z</time>
      </trkpt>
      <trkpt lat="36.219528" lon="-86.746986">
        <ele>194.445236</ele>
        <time>2024-06-02T08:03:56.000Z</time>
      </trkpt>
      <trkpt lat="36.219599" lon="-86.746985">
        <ele>194.806717</ele>
        <time>2024-06-02T08:03:57.000Z</time>
      </trkpt>
      <trkpt lat="36.219675" lon="-86.746969">
        <ele>195.173672</ele>
        <time>2024-06-02T08:03:58.000Z</time>
      </trkpt>
      <trkpt lat="36.219747" lon="-86.746959">
        <ele>195.545016</ele>
        <time>2024-06-02T08:03:59.000Z</time>
      </trkpt>
      <trkpt lat="36.219816" lon="-86.746952">
        <ele>195.916913</ele>
        <time>2024-06-02T08:04:00.000Z</time>
      </trkpt>
      <trkpt lat="36.219892" lon="-86.746927">
        <ele>196.295583</ele>
        <time>2024-06-02T08:04:01.000Z</time>
      </trkpt>
      <trkpt lat="36.219968" lon="-86.746901">
        <ele>196.676478</ele>
        <time>2024-06-02T08:04:02.000Z</time>
      </trkpt>
      <trkpt lat="36.22005" lon="-86.7469">
        <ele>197.061473</ele>
        <time>2024-06-02T08:04:03.000Z</time>
      </trkpt>
      <trkpt lat="36.220137" lon="-86.746876">
        <ele>197.453635</ele>
        <time>2024-06-02T08:04:04.000Z</time>
      </trkpt>
      <trkpt lat="36.220212" lon="-86.74686">
        <ele>197.849189</ele>
        <time>2024-06-02T08:04:05.000Z</time>
      </trkpt>
      <trkpt lat="36.220283" lon="-86.74685">
        <ele>198.2512</ele>
        <time>2024-06-02T08:04:06.000Z</time>
      </trkpt>
      <trkpt lat="36.220373" lon="-86.74684">
        <ele>198.660665</ele>
        <time>2024-06-02T08:04:07.000Z</time>
      </trkpt>
      <trkpt lat="36.220443" lon="-86.746814">
        <ele>199.078119</ele>
        <time>2024-06-02T08:04:08.000Z</time>
      </trkpt>
      <trkpt lat="36.220529" lon="-86.746798">
        <ele>199.494759</ele>
        <time>2024-06-02T08:04:09.000Z</time>
      </trkpt>
      <trkpt lat="36.220618" lon="-86.746774">
        <ele>199.911823</ele>
        <time>2024-06-02T08:04:10.000Z</time>
      </trkpt>
      <trkpt lat="36.220699" lon="-86.746756">
        <ele>200.175408</ele>
        <time>2024-06-02T08:04:11.000Z</time>
      </trkpt>
      <trkpt lat="36.220798" lon="-86.746741">
        <ele>200.444996</ele>
        <time>2024-06-02T08:04:12.000Z</time>
      </trkpt>
      <trkpt lat="36.220877" lon="-86.746724">
        <ele>200.715755</ele>
        <time>2024-06-02T08:04:13.000Z</time>
      </trkpt>
      <trkpt lat="36.22096" lon="-86.746697">
        <ele>200.995463</ele>
        <time>2024-06-02T08:04:14.000Z</time>
      </trkpt>
      <trkpt lat="36.221062" lon="-86.746686">
        <ele>201.277764</ele>
        <time>2024-06-02T08:04:15.000Z</time>
      </trkpt>
      <trkpt lat="36.221161" lon="-86.746667">
        <ele>201.566447</ele>
        <time>2024-06-02T08:04:16.000Z</time>
      </trkpt>
      <trkpt lat="36.221251" lon="-86.746641">
        <ele>201.861931</ele>
        <time>2024-06-02T08:04:17.000Z</time>
      </trkpt>
      <trkpt lat="36.221349" lon="-86.74662">
        <ele>202.159983</ele>
        <time>2024-06-02T08:04:18.000Z</time>
      </trkpt>
      <trkpt lat="36.221443" lon="-86.746596">
        <ele>202.461444</ele>
        <time>2024-06-02T08:04:19.000Z</time>
      </trkpt>
      <trkpt lat="36.221553" lon="-86.746576">
        <ele>202.769278</ele>
        <time>2024-06-02T08:04:20.000Z</time>
      </trkpt>
      <trkpt lat="36.221649" lon="-86.746561">
        <ele>203.080117</ele>
        <time>2024-06-02T08:04:21.000Z</time>
      </trkpt>
      <trkpt lat="36.22174" lon="-86.746541">
        <ele>203.393122</ele>
        <time>2024-06-02T08:04:22.000Z</time>
      </trkpt>
      <trkpt lat="36.221849" lon="-86.746516">
        <ele>203.706533</ele>
        <time>2024-06-02T08:04:23.000Z</time>
      </trkpt>
      <trkpt lat="36.221945" lon="-86.746503">
        <ele>204.023754</ele>
        <time>2024-06-02T08:04:24.000Z</time>
      </trkpt>
      <trkpt lat="36.222062" lon="-86.746475">
        <ele>204.346942</ele>
        <time>2024-06-02T08:04:25.000Z</time>
      </trkpt>
      <trkpt lat="36.222167" lon="-86.746448">
        <ele>204.679096</ele>
        <time>2024-06-02T08:04:26.000Z</time>
      </trkpt>
      <trkpt lat="36.222269" lon="-86.746435">
        <ele>205.019825</ele>
        <time>2024-06-02T08:04:27.000Z</time>
      </trkpt>
      <trkpt lat="36.222392" lon="-86.746402">
        <ele>205.331718</ele>
        <time>2024-06-02T08:04:28.000Z</time>
      </trkpt>
      <trkpt lat="36.222502" lon="-86.746392">
        <ele>204.911533</ele>
        <time>2024-06-02T08:04:29.000Z</time>
      </trkpt>
      <trkpt lat="36.222633" lon="-86.746372">
        <ele>204.488185</ele>
        <time>2024-06-02T08:04:30.000Z</time>
      </trkpt>
      <trkpt lat="36.222742" lon="-86.746347">
        <ele>204.068006</ele>
        <time>2024-06-02T08:04:31.000Z</time>
      </trkpt>
      <trkpt lat="36.22286" lon="-86.746315">
        <ele>203.636423</ele>
        <time>2024-06-02T08:04:32.000Z</time>
      </trkpt>
      <trkpt lat="36.22298" lon="-86.746298">
        <ele>203.195518</ele>
        <time>2024-06-02T08:04:33.000Z</time>
      </trkpt>
      <trkpt lat="36.223109" lon="-86.746267">
        <ele>202.746576</ele>
        <time>2024-06-02T08:04:34.000Z</time>
      </trkpt>
      <trkpt lat="36.223232" lon="-86.746245">
        <ele>202.298153</ele>
        <time>2024-06-02T08:04:35.000Z</time>
      </trkpt>
      <trkpt lat="36.223357" lon="-86.746207">
        <ele>201.833178</ele>
        <time>2024-06-02T08:04:36.000Z</time>
      </trkpt>
      <trkpt lat="36.223487" lon="-86.746192">
        <ele>201.368209</ele>
        <time>2024-06-02T08:04:37.000Z</time>
      </trkpt>
      <trkpt lat="36.223623" lon="-86.746166">
        <ele>200.900598</ele>
        <time>2024-06-02T08:04:39.000Z</time>
      </trkpt>
      <trkpt lat="36.223756" lon="-86.746142">
        <ele>200.426358</ele>
        <time>2024-06-02T08:04:40.000Z</time>
      </trkpt>
      <trkpt lat="36.223885" lon="-86.746121">
        <ele>199.952507</ele>
        <time>2024-06-02T08:04:41.000Z</time>
      </trkpt>
      <trkpt lat="36.224015" lon="-86.746091">
        <ele>199.482193</ele>
        <time>2024-06-02T08:04:42.000Z</time>
      </trkpt>
      <trkpt lat="36.224144" lon="-86.746075">
        <ele>199.012245</ele>
        <time>2024-06-02T08:04:43.000Z</time>
      </trkpt>
      <trkpt lat="36.224272" lon="-86.746052">
        <ele>198.357684</ele>
        <time>2024-06-02T08:04:44.000Z</time>
      </trkpt>
      <trkpt lat="36.224416" lon="-86.74605">
        <ele>197.678442</ele>
        <time>2024-06-02T08:04:46.000Z</time>
      </trkpt>
      <trkpt lat="36.224551" lon="-86.746034">
        <ele>196.985178</ele>
        <time>2024-06-02T08:04:48.000Z</time>
      </trkpt>
      <trkpt lat="36.224681" lon="-86.746021">
        <ele>196.287505</ele>
        <time>2024-06-02T08:04:49.000Z</time>
      </trkpt>
      <trkpt lat="36.224815" lon="-86.746012">
        <ele>195.579586</ele>
        <time>2024-06-02T08:04:50.000Z</time>
      </trkpt>
      <trkpt lat="36.22495" lon="-86.746007">
        <ele>194.871844</ele>
        <time>2024-06-02T08:04:52.000Z</time>
      </trkpt>
      <trkpt lat="36.225102" lon="-86.746002">
        <ele>194.154155</ele>
        <time>2024-06-02T08:04:54.000Z</time>
      </trkpt>
      <trkpt lat="36.225245" lon="-86.746007">
        <ele>193.431588</ele>
        <time>2024-06-02T08:04:56.000Z</time>
      </trkpt>
      <trkpt lat="36.225384" lon="-86.746004">
        <ele>192.703772</ele>
        <time>2024-06-02T08:04:58.000Z</time>
      </trkpt>
      <trkpt lat="36.225523" lon="-86.746021">
        <ele>191.970065</ele>
        <time>2024-06-02T08:05:00.000Z</time>
      </trkpt>
      <trkpt lat="36.22567" lon="-86.746021">
        <ele>191.239032</ele>
        <time>2024-06-02T08:05:02.000Z</time>
      </trkpt>
      <trkpt lat="36.225814" lon="-86.746055">
        <ele>190.499572</ele>
        <time>2024-06-02T08:05:04.000Z</time>
      </trkpt>
      <trkpt lat="36.225954" lon="-86.746083">
        <ele>189.76404</ele>
        <time>2024-06-02T08:05:06.000Z</time>
      </trkpt>
      <trkpt lat="36.226086" lon="-86.746116">
        <ele>189.343697</ele>
        <time>2024-06-02T08:05:07.000Z</time>
      </trkpt>
      <trkpt lat="36.226228" lon="-86.746139">
        <ele>188.934408</ele>
        <time>2024-06-02T08:05:09.000Z</time>
      </trkpt>
      <trkpt lat="36.226381" lon="-86.746186">
        <ele>188.528314</ele>
        <time>2024-06-02T08:05:11.000Z</time>
      </trkpt>
      <trkpt lat="36.226519" lon="-86.746215">
        <ele>188.117887</ele>
        <time>2024-06-02T08:05:13.000Z</time>
      </trkpt>
      <trkpt lat="36.226644" lon="-86.746261">
        <ele>187.707994</ele>
        <time>2024-06-02T08:05:14.000Z</time>
      </trkpt>
      <trkpt lat="36.226792" lon="-86.746316">
        <ele>187.293135</ele>
        <time>2024-06-02T08:05:16.000Z</time>
      </trkpt>
      <trkpt lat="36.22693" lon="-86.746367">
        <ele>186.875882</ele>
        <time>2024-06-02T08:05:18.000Z</time>
      </trkpt>
      <trkpt lat="36.227074" lon="-86.746408">
        <ele>186.461505</ele>
        <time>2024-06-02T08:05:20.000Z</time>
      </trkpt>
      <trkpt lat="36.227205" lon="-86.746475">
        <ele>186.042346</ele>
        <time>2024-06-02T08:05:22.000Z</time>
      </trkpt>
      <trkpt lat="36.227353" lon="-86.746524">
        <ele>185.619038</ele>
        <time>2024-06-02T08:05:24.000Z</time>
      </trkpt>
      <trkpt lat="36.227489" lon="-86.746588">
        <ele>185.198898</ele>
        <time>2024-06-02T08:05:26.000Z</time>
      </trkpt>
      <trkpt lat="36.227626" lon="-86.746643">
        <ele>184.776405</ele>
        <time>2024-06-02T08:05:28.000Z</time>
      </trkpt>
      <trkpt lat="36.227769" lon="-86.746721">
        <ele>184.419822</ele>
        <time>2024-06-02T08:05:30.000Z</time>
      </trkpt>
      <trkpt lat="36.227903" lon="-86.746791">
        <ele>184.105449</ele>
        <time>2024-06-02T08:05:32.000Z</time>
      </trkpt>
      <trkpt lat="36.228049" lon="-86.746842">
        <ele>183.796238</ele>
        <time>2024-06-02T08:05:34.000Z</time>
      </trkpt>
      <trkpt lat="36.228179" lon="-86.746907">
        <ele>183.485422</ele>
        <time>2024-06-02T08:05:36.000Z</time>
      </trkpt>
      <trkpt lat="36.228329" lon="-86.746967">
        <ele>183.177164</ele>
        <time>2024-06-02T08:05:38.000Z</time>
      </trkpt>
      <trkpt lat="36.228466" lon="-86.74703">
        <ele>182.868009</ele>
        <time>2024-06-02T08:05:40.000Z</time>
      </trkpt>
      <trkpt lat="36.228608" lon="-86.747089">
        <ele>182.562449</ele>
        <time>2024-06-02T08:05:42.000Z</time>
      </trkpt>
      <trkpt lat="36.228732" lon="-86.74714">
        <ele>182.256412</ele>
        <time>2024-06-02T08:05:43.000Z</time>
      </trkpt>
      <trkpt lat="36.228878" lon="-86.747172">
        <ele>181.95315</ele>
        <time>2024-06-02T08:05:45.000Z</time>
      </trkpt>
      <trkpt lat="36.22902" lon="-86.747224">
        <ele>181.65553</ele>
        <time>2024-06-02T08:05:47.000Z</time>
      </trkpt>
      <trkpt lat="36.22915" lon="-86.747253">
        <ele>181.360202</ele>
        <time>2024-06-02T08:05:48.000Z</time>
      </trkpt>
      <trkpt lat="36.229298" lon="-86.747266">
        <ele>181.070125</ele>
        <time>2024-06-02T08:05:50.000Z</time>
      </trkpt>
      <trkpt lat="36.22942" lon="-86.747303">
        <ele>180.809775</ele>
        <time>2024-06-02T08:05:51.000Z</time>
      </trkpt>
      <trkpt lat="36.229557" lon="-86.747313">
        <ele>180.741468</ele>
        <time>2024-06-02T08:05:53.000Z</time>
      </trkpt>
      <trkpt lat="36.229693" lon="-86.747346">
        <ele>180.674432</ele>
        <time>2024-06-02T08:05:55.000Z</time>
      </trkpt>
      <trkpt lat="36.22982" lon="-86.747355">
        <ele>180.608578</ele>
        <time>2024-06-02T08:05:56.000Z</time>
      </trkpt>
      <trkpt lat="36.229945" lon="-86.747357">
        <ele>180.543805</ele>
        <time>2024-06-02T08:05:57.000Z</time>
      </trkpt>
      <trkpt lat="36.230067" lon="-86.747366">
        <ele>180.480136</ele>
        <time>2024-06-02T08:05:58.000Z</time>
      </trkpt>
      <trkpt lat="36.230182" lon="-86.747376">
        <ele>180.417531</ele>
        <time>2024-06-02T08:05:59.000Z</time>
      </trkpt>
      <trkpt lat="36.230304" lon="-86.747389">
        <ele>180.355981</ele>
        <time>2024-06-02T08:06:00.000Z</time>
      </trkpt>
      <trkpt lat="36.230411" lon="-86.747392">
        <ele>180.295452</ele>
        <time>2024-06-02T08:06:01.000Z</time>
      </trkpt>
      <trkpt lat="36.230529" lon="-86.747398">
        <ele>180.235492</ele>
        <time>2024-06-02T08:06:02.000Z</time>
      </trkpt>
      <trkpt lat="36.23065" lon="-86.747398">
        <ele>180.176597</ele>
        <time>2024-06-02T08:06:03.000Z</time>
      </trkpt>
      <trkpt lat="36.23076" lon="-86.747398">
        <ele>180.118187</ele>
        <time>2024-06-02T08:06:04.000Z</time>
      </trkpt>
      <trkpt lat="36.230865" lon="-86.747398">
        <ele>180.059778</ele>
        <time>2024-06-02T08:06:05.000Z</time>
      </trkpt>
      <trkpt lat="36.230993" lon="-86.747393">
        <ele>180.001893</ele>
        <time>2024-06-02T08:06:06.000Z</time>
      </trkpt>
      <trkpt lat="36.231093" lon="-86.747391">
        <ele>179.944541</ele>
        <time>2024-06-02T08:06:07.000Z</time>
      </trkpt>
      <trkpt lat="36.231213" lon="-86.747393">
        <ele>179.893889</ele>
        <time>2024-06-02T08:06:08.000Z</time>
      </trkpt>
      <trkpt lat="36.231324" lon="-86.747387">
        <ele>180.193705</ele>
        <time>2024-06-02T08:06:09.000Z</time>
      </trkpt>
      <trkpt lat="36.231431" lon="-86.747383">
        <ele>180.490937</ele>
        <time>2024-06-02T08:06:10.000Z</time>
      </trkpt>
      <trkpt lat="36.231535" lon="-86.747371">
        <ele>180.78307</ele>
        <time>2024-06-02T08:06:11.000Z</time>
      </trkpt>
      <trkpt lat="36.231632" lon="-86.747361">
        <ele>181.075528</ele>
        <time>2024-06-02T08:06:12.000Z</time>
      </trkpt>
      <trkpt lat="36.231741" lon="-86.747356">
        <ele>181.365437</ele>
        <time>2024-06-02T08:06:13.000Z</time>
      </trkpt>
      <trkpt lat="36.231849" lon="-86.747344">
        <ele>181.65222</ele>
        <time>2024-06-02T08:06:14.000Z</time>
      </trkpt>
      <trkpt lat="36.231943" lon="-86.747332">
        <ele>181.938858</ele>
        <time>2024-06-02T08:06:15.000Z</time>
      </trkpt>
      <trkpt lat="36.23206" lon="-86.747327">
        <ele>182.22566</ele>
        <time>2024-06-02T08:06:16.000Z</time>
      </trkpt>
      <trkpt lat="36.232156" lon="-86.747312">
        <ele>182.512824</ele>
        <time>2024-06-02T08:06:17.000Z</time>
      </trkpt>
      <trkpt lat="36.232266" lon="-86.747288">
        <ele>182.797962</ele>
        <time>2024-06-02T08:06:18.000Z</time>
      </trkpt>
      <trkpt lat="36.232365" lon="-86.747273">
        <ele>183.080626</ele>
        <time>2024-06-02T08:06:19.000Z</time>
      </trkpt>
      <trkpt lat="36.232458" lon="-86.747262">
        <ele>183.363302</ele>
        <time>2024-06-02T08:06:20.000Z</time>
      </trkpt>
      <trkpt lat="36.232561" lon="-86.747246">
        <ele>183.644182</ele>
        <time>2024-06-02T08:06:21.000Z</time>
      </trkpt>
      <trkpt lat="36.232656" lon="-86.747213">
        <ele>183.926111</ele>
        <time>2024-06-02T08:06:22.000Z</time>
      </trkpt>
      <trkpt lat="36.232761" lon="-86.747201">
        <ele>184.204355</ele>
        <time>2024-06-02T08:06:23.000Z</time>
      </trkpt>
      <trkpt lat="36.232868" lon="-86.747164">
        <ele>184.480856</ele>
        <time>2024-06-02T08:06:24.000Z</time>
      </trkpt>
      <trkpt lat="36.232953" lon="-86.747132">
        <ele>184.757399</ele>
        <time>2024-06-02T08:06:25.000Z</time>
      </trkpt>
      <trkpt lat="36.233047" lon="-86.747098">
        <ele>184.935395</ele>
        <time>2024-06-02T08:06:26.000Z</time>
      </trkpt>
      <trkpt lat="36.233143" lon="-86.747052">
        <ele>185.076083</ele>
        <time>2024-06-02T08:06:27.000Z</time>
      </trkpt>
      <trkpt lat="36.233241" lon="-86.747006">
        <ele>185.214855</ele>
        <time>2024-06-02T08:06:28.000Z</time>
      </trkpt>
      <trkpt lat="36.233327" lon="-86.746978">
        <ele>185.354829</ele>
        <time>2024-06-02T08:06:29.000Z</time>
      </trkpt>
      <trkpt lat="36.233414" lon="-86.746923">
        <ele>185.494756</ele>
        <time>2024-06-02T08:06:30.000Z</time>
      </trkpt>
      <trkpt lat="36.233508" lon="-86.746865">
        <ele>185.633921</ele>
        <time>2024-06-02T08:06:31.000Z</time>
      </trkpt>
      <trkpt lat="36.233602" lon="-86.746817">
        <ele>185.771525</ele>
        <time>2024-06-02T08:06:32.000Z</time>
      </trkpt>
      <trkpt lat="36.233692" lon="-86.746755">
        <ele>185.908141</ele>
        <time>2024-06-02T08:06:33.000Z</time>
      </trkpt>
      <trkpt lat="36.233768" lon="-86.746712">
        <ele>186.043961</ele>
        <time>2024-06-02T08:06:34.000Z</time>
      </trkpt>
      <trkpt lat="36.23385" lon="-86.746642">
        <ele>186.181494</ele>
        <time>2024-06-02T08:06:35.000Z</time>
      </trkpt>
      <trkpt lat="36.233936" lon="-86.74659">
        <ele>186.317832</ele>
        <time>2024-06-02T08:06:36.000Z</time>
      </trkpt>
      <trkpt lat="36.234023" lon="-86.746507">
        <ele>186.457232</ele>
        <time>2024-06-02T08:06:37.000Z</time>
      </trkpt>
      <trkpt lat="36.234101" lon="-86.746437">
        <ele>186.595945</ele>
        <time>2024-06-02T08:06:38.000Z</time>
      </trkpt>
      <trkpt lat="36.234176" lon="-86.746359">
        <ele>186.734914</ele>
        <time>2024-06-02T08:06:39.000Z</time>
      </trkpt>
      <trkpt lat="36.234245" lon="-86.746276">
        <ele>186.875793</ele>
        <time>2024-06-02T08:06:40.000Z</time>
      </trkpt>
      <trkpt lat="36.23432" lon="-86.746195">
        <ele>187.016674</ele>
        <time>2024-06-02T08:06:41.000Z</time>
      </trkpt>
      <trkpt lat="36.234389" lon="-86.746121">
        <ele>187.159858</ele>
        <time>2024-06-02T08:06:42.000Z</time>
      </trkpt>
      <trkpt lat="36.234462" lon="-86.746023">
        <ele>187.303595</ele>
        <time>2024-06-02T08:06:43.000Z</time>
      </trkpt>
      <trkpt lat="36.234539" lon="-86.745934">
        <ele>187.284508</ele>
        <time>2024-06-02T08:06:44.000Z</time>
      </trkpt>
      <trkpt lat="36.234615" lon="-86.745838">
        <ele>187.039574</ele>
        <time>2024-06-02T08:06:45.000Z</time>
      </trkpt>
      <trkpt lat="36.234671" lon="-86.745753">
        <ele>186.794898</ele>
        <time>2024-06-02T08:06:46.000Z</time>
      </trkpt>
      <trkpt lat="36.234742" lon="-86.745664">
        <ele>186.548855</ele>
        <time>2024-06-02T08:06:47.000Z</time>
      </trkpt>
      <trkpt lat="36.234827" lon="-86.745572">
        <ele>186.302793</ele>
        <time>2024-06-02T08:06:48.000Z</time>
      </trkpt>
      <trkpt lat="36.234882" lon="-86.74547">
        <ele>186.056737</ele>
        <time>2024-06-02T08:06:49.000Z</time>
      </trkpt>
      <trkpt lat="36.234956" lon="-86.745377">
        <ele>185.806464</ele>
        <time>2024-06-02T08:06:50.000Z</time>
      </trkpt>
      <trkpt lat="36.235039" lon="-86.745276">
        <ele>185.554934</ele>
        <time>2024-06-02T08:06:51.000Z</time>
      </trkpt>
      <trkpt lat="36.235102" lon="-86.745179">
        <ele>185.303226</ele>
        <time>2024-06-02T08:06:52.000Z</time>
      </trkpt>
      <trkpt lat="36.235168" lon="-86.745085">
        <ele>185.048315</ele>
        <time>2024-06-02T08:06:53.000Z</time>
      </trkpt>
      <trkpt lat="36.235244" lon="-86.744996">
        <ele>184.793387</ele>
        <time>2024-06-02T08:06:54.000Z</time>
      </trkpt>
      <trkpt lat="36.235319" lon="-86.744892">
        <ele>184.535435</ele>
        <time>2024-06-02T08:06:55.000Z</time>
      </trkpt>
      <trkpt lat="36.235393" lon="-86.744804">
        <ele>184.272563</ele>
        <time>2024-06-02T08:06:56.000Z</time>
      </trkpt>
      <trkpt lat="36.235481" lon="-86.744693">
        <ele>184.008002</ele>
        <time>2024-06-02T08:06:57.000Z</time>
      </trkpt>
      <trkpt lat="36.235554" lon="-86.744604">
        <ele>183.737357</ele>
        <time>2024-06-02T08:06:58.000Z</time>
      </trkpt>
      <trkpt lat="36.235633" lon="-86.744505">
        <ele>183.465055</ele>
        <time>2024-06-02T08:06:59.000Z</time>
      </trkpt>
      <trkpt lat="36.235728" lon="-86.744406">
        <ele>183.189335</ele>
        <time>2024-06-02T08:07:00.000Z</time>
      </trkpt>
      <trkpt lat="36.235797" lon="-86.744294">
        <ele>182.92382</ele>
        <time>2024-06-02T08:07:01.000Z</time>
      </trkpt>
      <trkpt lat="36.235894" lon="-86.74421">
        <ele>182.660219</ele>
        <time>2024-06-02T08:07:02.000Z</time>
      </trkpt>
      <trkpt lat="36.235995" lon="-86.744112">
        <ele>182.389133</ele>
        <time>2024-06-02T08:07:03.000Z</time>
      </trkpt>
      <trkpt lat="36.236085" lon="-86.744026">
        <ele>182.111012</ele>
        <time>2024-06-02T08:07:04.000Z</time>
      </trkpt>
      <trkpt lat="36.236179" lon="-86.743932">
        <ele>181.829283</ele>
        <time>2024-06-02T08:07:05.000Z</time>
      </trkpt>
      <trkpt lat="36.23629" lon="-86.74383">
        <ele>181.546148</ele>
        <time>2024-06-02T08:07:07.000Z</time>
      </trkpt>
      <trkpt lat="36.236389" lon="-86.743743">
        <ele>181.260413</ele>
        <time>2024-06-02T08:07:08.000Z</time>
      </trkpt>
      <trkpt lat="36.236485" lon="-86.743658">
        <ele>180.971</ele>
        <time>2024-06-02T08:07:09.000Z</time>
      </trkpt>
      <trkpt lat="36.236598" lon="-86.743558">
        <ele>180.68178</ele>
        <time>2024-06-02T08:07:11.000Z</time>
      </trkpt>
      <trkpt lat="36.236704" lon="-86.743475">
        <ele>180.388817</ele>
        <time>2024-06-02T08:07:12.000Z</time>
      </trkpt>
      <trkpt lat="36.236809" lon="-86.743389">
        <ele>180.087284</ele>
        <time>2024-06-02T08:07:13.000Z</time>
      </trkpt>
      <trkpt lat="36.236934" lon="-86.743282">
        <ele>179.777168</ele>
        <time>2024-06-02T08:07:15.000Z</time>
      </trkpt>
      <trkpt lat="36.237056" lon="-86.743197">
        <ele>179.468955</ele>
        <time>2024-06-02T08:07:17.000Z</time>
      </trkpt>
      <trkpt lat="36.237169" lon="-86.743112">
        <ele>179.157771</ele>
        <time>2024-06-02T08:07:18.000Z</time>
      </trkpt>
      <trkpt lat="36.237277" lon="-86.743007">
        <ele>178.810527</ele>
        <time>2024-06-02T08:07:20.000Z</time>
      </trkpt>
      <trkpt lat="36.237393" lon="-86.742911">
        <ele>178.440223</ele>
        <time>2024-06-02T08:07:22.000Z</time>
      </trkpt>
      <trkpt lat="36.237502" lon="-86.742802">
        <ele>178.073557</ele>
        <time>2024-06-02T08:07:24.000Z</time>
      </trkpt>
      <trkpt lat="36.237608" lon="-86.742695">
        <ele>177.700326</ele>
        <time>2024-06-02T08:07:26.000Z</time>
      </trkpt>
      <trkpt lat="36.237725" lon="-86.742598">
        <ele>177.32037</ele>
        <time>2024-06-02T08:07:28.000Z</time>
      </trkpt>
      <trkpt lat="36.237824" lon="-86.742471">
        <ele>176.938303</ele>
        <time>2024-06-02T08:07:30.000Z</time>
      </trkpt>
      <trkpt lat="36.237941" lon="-86.742347">
        <ele>176.550264</ele>
        <time>2024-06-02T08:07:32.000Z</time>
      </trkpt>
      <trkpt lat="36.238037" lon="-86.742218">
        <ele>176.164727</ele>
        <time>2024-06-02T08:07:34.000Z</time>
      </trkpt>
      <trkpt lat="36.238133" lon="-86.742098">
        <ele>175.779775</ele>
        <time>2024-06-02T08:07:36.000Z</time>
      </trkpt>
      <trkpt lat="36.238227" lon="-86.741957">
        <ele>175.394041</ele>
        <time>2024-06-02T08:07:38.000Z</time>
      </trkpt>
      <trkpt lat="36.238324" lon="-86.741825">
        <ele>175.010229</ele>
        <time>2024-06-02T08:07:40.000Z</time>
      </trkpt>
      <trkpt lat="36.23841" lon="-86.741687">
        <ele>174.623048</ele>
        <time>2024-06-02T08:07:42.000Z</time>
      </trkpt>
      <trkpt lat="36.238506" lon="-86.741535">
        <ele>174.240706</ele>
        <time>2024-06-02T08:07:44.000Z</time>
      </trkpt>
      <trkpt lat="36.238581" lon="-86.741391">
        <ele>173.647163</ele>
        <time>2024-06-02T08:07:46.000Z</time>
      </trkpt>
      <trkpt lat="36.238666" lon="-86.741251">
        <ele>173.050714</ele>
        <time>2024-06-02T08:07:48.000Z</time>
      </trkpt>
      <trkpt lat="36.238755" lon="-86.741094">
        <ele>172.448461</ele>
        <time>2024-06-02T08:07:50.000Z</time>
      </trkpt>
      <trkpt lat="36.238825" lon="-86.740936">
        <ele>171.853868</ele>
        <time>2024-06-02T08:07:52.000Z</time>
      </trkpt>
      <trkpt lat="36.238898" lon="-86.740779">
        <ele>171.261283</ele>
        <time>2024-06-02T08:07:54.000Z</time>
      </trkpt>
      <trkpt lat="36.238968" lon="-86.740603">
        <ele>170.676141</ele>
        <time>2024-06-02T08:07:56.000Z</time>
      </trkpt>
      <trkpt lat="36.239039" lon="-86.740459">
        <ele>170.092166</ele>
        <time>2024-06-02T08:07:58.000Z</time>
      </trkpt>
      <trkpt lat="36.23911" lon="-86.740303">
        <ele>169.523315</ele>
        <time>2024-06-02T08:08:00.000Z</time>
      </trkpt>
      <trkpt lat="36.239179" lon="-86.740162">
        <ele>168.96499</ele>
        <time>2024-06-02T08:08:01.000Z</time>
      </trkpt>
      <trkpt lat="36.239237" lon="-86.739998">
        <ele>168.402983</ele>
        <time>2024-06-02T08:08:03.000Z</time>
      </trkpt>
      <trkpt lat="36.239306" lon="-86.739852">
        <ele>167.83129</ele>
        <time>2024-06-02T08:08:05.000Z</time>
      </trkpt>
      <trkpt lat="36.239383" lon="-86.739708">
        <ele>167.266051</ele>
        <time>2024-06-02T08:08:07.000Z</time>
      </trkpt>
      <trkpt lat="36.239457" lon="-86.739562">
        <ele>166.883464</ele>
        <time>2024-06-02T08:08:09.000Z</time>
      </trkpt>
      <trkpt lat="36.239511" lon="-86.739406">
        <ele>166.723891</ele>
        <time>2024-06-02T08:08:11.000Z</time>
      </trkpt>
      <trkpt lat="36.239586" lon="-86.739256">
        <ele>166.567632</ele>
        <time>2024-06-02T08:08:13.000Z</time>
      </trkpt>
      <trkpt lat="36.239639" lon="-86.739111">
        <ele>166.412222</ele>
        <time>2024-06-02T08:08:14.000Z</time>
      </trkpt>
      <trkpt lat="36.23971" lon="-86.738968">
        <ele>166.257583</ele>
        <time>2024-06-02T08:08:16.000Z</time>
      </trkpt>
      <trkpt lat="36.23978" lon="-86.738829">
        <ele>166.095488</ele>
        <time>2024-06-02T08:08:17.000Z</time>
      </trkpt>
      <trkpt lat="36.239856" lon="-86.738694">
        <ele>165.939867</ele>
        <time>2024-06-02T08:08:18.000Z</time>
      </trkpt>
      <trkpt lat="36.239906" lon="-86.738563">
        <ele>165.796897</ele>
        <time>2024-06-02T08:08:19.000Z</time>
      </trkpt>
      <trkpt lat="36.239973" lon="-86.738423">
        <ele>165.651698</ele>
        <time>2024-06-02T08:08:20.000Z</time>
      </trkpt>
      <trkpt lat="36.240024" lon="-86.738293">
        <ele>165.510352</ele>
        <time>2024-06-02T08:08:21.000Z</time>
      </trkpt>
      <trkpt lat="36.240084" lon="-86.738172">
        <ele>165.369668</ele>
        <time>2024-06-02T08:08:22.000Z</time>
      </trkpt>
      <trkpt lat="36.240161" lon="-86.738047">
        <ele>165.231203</ele>
        <time>2024-06-02T08:08:23.000Z</time>
      </trkpt>
      <trkpt lat="36.240214" lon="-86.737925">
        <ele>165.095703</ele>
        <time>2024-06-02T08:08:24.000Z</time>
      </trkpt>
      <trkpt lat="36.240289" lon="-86.737816">
        <ele>164.963464</ele>
        <time>2024-06-02T08:08:25.000Z</time>
      </trkpt>
      <trkpt lat="36.240363" lon="-86.737706">
        <ele>164.85747</ele>
        <time>2024-06-02T08:08:26.000Z</time>
      </trkpt>
      <trkpt lat="36.240433" lon="-86.737604">
        <ele>164.915018</ele>
        <time>2024-06-02T08:08:27.000Z</time>
      </trkpt>
      <trkpt lat="36.240511" lon="-86.737509">
        <ele>164.971347</ele>
        <time>2024-06-02T08:08:28.000Z</time>
      </trkpt>
      <trkpt lat="36.240582" lon="-86.7374">
        <ele>165.02789</ele>
        <time>2024-06-02T08:08:29.000Z</time>
      </trkpt>
      <trkpt lat="36.240665" lon="-86.737327">
        <ele>165.083719</ele>
        <time>2024-06-02T08:08:30.000Z</time>
      </trkpt>
      <trkpt lat="36.240762" lon="-86.737234">
        <ele>165.139959</ele>
        <time>2024-06-02T08:08:31.000Z</time>
      </trkpt>
      <trkpt lat="36.240838" lon="-86.737155">
        <ele>165.194231</ele>
        <time>2024-06-02T08:08:32.000Z</time>
      </trkpt>
      <trkpt lat="36.240925" lon="-86.737082">
        <ele>165.249052</ele>
        <time>2024-06-02T08:08:33.000Z</time>
      </trkpt>
      <trkpt lat="36.241008" lon="-86.737026">
        <ele>165.30269</ele>
        <time>2024-06-02T08:08:34.000Z</time>
      </trkpt>
      <trkpt lat="36.241097" lon="-86.736959">
        <ele>165.354138</ele>
        <time>2024-06-02T08:08:35.000Z</time>
      </trkpt>
      <trkpt lat="36.241185" lon="-86.7369">
        <ele>165.404257</ele>
        <time>2024-06-02T08:08:36.000Z</time>
      </trkpt>
      <trkpt lat="36.24126" lon="-86.736834">
        <ele>165.453544</ele>
        <time>2024-06-02T08:08:37.000Z</time>
      </trkpt>
      <trkpt lat="36.241354" lon="-86.736789">
        <ele>165.500811</ele>
        <time>2024-06-02T08:08:38.000Z</time>
      </trkpt>
      <trkpt lat="36.241425" lon="-86.736745">
        <ele>165.546701</ele>
        <time>2024-06-02T08:08:39.000Z</time>
      </trkpt>
      <trkpt lat="36.241506" lon="-86.736704">
        <ele>165.591497</ele>
        <time>2024-06-02T08:08:40.000Z</time>
      </trkpt>
      <trkpt lat="36.241595" lon="-86.736661">
        <ele>165.635738</ele>
        <time>2024-06-02T08:08:41.000Z</time>
      </trkpt>
      <trkpt lat="36.241672" lon="-86.73663">
        <ele>165.678232</ele>
        <time>2024-06-02T08:08:42.000Z</time>
      </trkpt>
      <trkpt lat="36.241747" lon="-86.736611">
        <ele>165.719549</ele>
        <time>2024-06-02T08:08:43.000Z</time>
      </trkpt>
      <trkpt lat="36.241814" lon="-86.736573">
        <ele>165.756613</ele>
        <time>2024-06-02T08:08:44.000Z</time>
      </trkpt>
      <trkpt lat="36.241869" lon="-86.736575">
        <ele>165.785591</ele>
        <time>2024-06-02T08:08:45.000Z</time>
      </trkpt>
      <trkpt lat="36.241928" lon="-86.736608">
        <ele>165.803087</ele>
        <time>2024-06-02T08:08:46.000Z</time>
      </trkpt>
      <trkpt lat="36.241946" lon="-86.736671">
        <ele>165.820081</ele>
        <time>2024-06-02T08:08:47.000Z</time>
      </trkpt>
      <trkpt lat="36.241914" lon="-86.736758">
        <ele>165.838135</ele>
        <time>2024-06-02T08:08:48.000Z</time>
      </trkpt>
      <trkpt lat="36.241871" lon="-86.736793">
        <ele>165.855601</ele>
        <time>2024-06-02T08:08:49.000Z</time>
      </trkpt>
      <trkpt lat="36.241805" lon="-86.736812">
        <ele>165.875585</ele>
        <time>2024-06-02T08:08:50.000Z</time>
      </trkpt>
      <trkpt lat="36.241718" lon="-86.736846">
        <ele>165.898089</ele>
        <time>2024-06-02T08:08:51.000Z</time>
      </trkpt>
      <trkpt lat="36.241643" lon="-86.736879">
        <ele>165.922029</ele>
        <time>2024-06-02T08:08:52.000Z</time>
      </trkpt>
      <trkpt lat="36.24157" lon="-86.736913">
        <ele>165.945699</ele>
        <time>2024-06-02T08:08:53.000Z</time>
      </trkpt>
      <trkpt lat="36.241488" lon="-86.736969">
        <ele>165.969226</ele>
        <time>2024-06-02T08:08:54.000Z</time>
      </trkpt>
      <trkpt lat="36.241408" lon="-86.737021">
        <ele>165.993537</ele>
        <time>2024-06-02T08:08:55.000Z</time>
      </trkpt>
      <trkpt lat="36.241341" lon="-86.73708">
        <ele>166.018648</ele>
        <time>2024-06-02T08:08:56.000Z</time>
      </trkpt>
      <trkpt lat="36.241258" lon="-86.737146">
        <ele>166.044874</ele>
        <time>2024-06-02T08:08:57.000Z</time>
      </trkpt>
      <trkpt lat="36.241182" lon="-86.737198">
        <ele>166.071263</ele>
        <time>2024-06-02T08:08:58.000Z</time>
      </trkpt>
      <trkpt lat="36.241113" lon="-86.73727">
        <ele>166.09794</ele>
        <time>2024-06-02T08:08:59.000Z</time>
      </trkpt>
      <trkpt lat="36.241045" lon="-86.737347">
        <ele>166.125296</ele>
        <time>2024-06-02T08:09:00.000Z</time>
      </trkpt>
      <trkpt lat="36.240964" lon="-86.737419">
        <ele>166.152231</ele>
        <time>2024-06-02T08:09:01.000Z</time>
      </trkpt>
      <trkpt lat="36.240904" lon="-86.737501">
        <ele>166.180036</ele>
        <time>2024-06-02T08:09:02.000Z</time>
      </trkpt>
      <trkpt lat="36.240841" lon="-86.737607">
        <ele>166.207899</ele>
        <time>2024-06-02T08:09:03.000Z</time>
      </trkpt>
      <trkpt lat="36.240762" lon="-86.737678">
        <ele>166.235557</ele>
        <time>2024-06-02T08:09:04.000Z</time>
      </trkpt>
      <trkpt lat="36.240705" lon="-86.737777">
        <ele>166.263341</ele>
        <time>2024-06-02T08:09:05.000Z</time>
      </trkpt>
      <trkpt lat="36.240638" lon="-86.737873">
        <ele>166.290949</ele>
        <time>2024-06-02T08:09:06.000Z</time>
      </trkpt>
      <trkpt lat="36.240592" lon="-86.737972">
        <ele>166.317747</ele>
        <time>2024-06-02T08:09:07.000Z</time>
      </trkpt>
      <trkpt lat="36.240532" lon="-86.73806">
        <ele>166.344432</ele>
        <time>2024-06-02T08:09:08.000Z</time>
      </trkpt>
      <trkpt lat="36.24049" lon="-86.738165">
        <ele>166.370802</ele>
        <time>2024-06-02T08:09:09.000Z</time>
      </trkpt>
      <trkpt lat="36.240455" lon="-86.738267">
        <ele>166.397107</ele>
        <time>2024-06-02T08:09:10.000Z</time>
      </trkpt>
      <trkpt lat="36.240406" lon="-86.738386">
        <ele>166.423483</ele>
        <time>2024-06-02T08:09:11.000Z</time>
      </trkpt>
      <trkpt lat="36.240366" lon="-86.738474">
        <ele>166.449416</ele>
        <time>2024-06-02T08:09:12.000Z</time>
      </trkpt>
      <trkpt lat="36.240331" lon="-86.738593">
        <ele>166.47538</ele>
        <time>2024-06-02T08:09:13.000Z</time>
      </trkpt>
      <trkpt lat="36.240291" lon="-86.738687">
        <ele>166.501323</ele>
        <time>2024-06-02T08:09:14.000Z</time>
      </trkpt>
      <trkpt lat="36.240266" lon="-86.738792">
        <ele>166.526897</ele>
        <time>2024-06-02T08:09:15.000Z</time>
      </trkpt>
      <trkpt lat="36.240241" lon="-86.738915">
        <ele>166.55236</ele>
        <time>2024-06-02T08:09:16.000Z</time>
      </trkpt>
      <trkpt lat="36.240202" lon="-86.739015">
        <ele>166.57793</ele>
        <time>2024-06-02T08:09:17.000Z</time>
      </trkpt>
      <trkpt lat="36.24017" lon="-86.739116">
        <ele>166.603618</ele>
        <time>2024-06-02T08:09:18.000Z</time>
      </trkpt>
      <trkpt lat="36.240146" lon="-86.739224">
        <ele>166.629008</ele>
        <time>2024-06-02T08:09:19.000Z</time>
      </trkpt>
      <trkpt lat="36.240112" lon="-86.739333">
        <ele>166.65438</ele>
        <time>2024-06-02T08:09:20.000Z</time>
      </trkpt>
      <trkpt lat="36.240093" lon="-86.739438">
        <ele>166.680198</ele>
        <time>2024-06-02T08:09:21.000Z</time>
      </trkpt>
      <trkpt lat="36.240067" lon="-86.739558">
        <ele>166.705938</ele>
        <time>2024-06-02T08:09:22.000Z</time>
      </trkpt>
      <trkpt lat="36.240025" lon="-86.739666">
        <ele>166.731618</ele>
        <time>2024-06-02T08:09:23.000Z</time>
      </trkpt>
      <trkpt lat="36.240007" lon="-86.739776">
        <ele>166.757529</ele>
        <time>2024-06-02T08:09:24.000Z</time>
      </trkpt>
      <trkpt lat="36.239976" lon="-86.73989">
        <ele>166.783724</ele>
        <time>2024-06-02T08:09:25.000Z</time>
      </trkpt>
      <trkpt lat="36.239936" lon="-86.739989">
        <ele>166.895387</ele>
        <time>2024-06-02T08:09:26.000Z</time>
      </trkpt>
      <trkpt lat="36.239908" lon="-86.740099">
        <ele>167.089508</ele>
        <time>2024-06-02T08:09:27.000Z</time>
      </trkpt>
      <trkpt lat="36.239886" lon="-86.740213">
        <ele>167.287378</ele>
        <time>2024-06-02T08:09:28.000Z</time>
      </trkpt>
      <trkpt lat="36.23986" lon="-86.740341">
        <ele>167.48058</ele>
        <time>2024-06-02T08:09:29.000Z</time>
      </trkpt>
      <trkpt lat="36.239824" lon="-86.740452">
        <ele>167.681313</ele>
        <time>2024-06-02T08:09:30.000Z</time>
      </trkpt>
      <trkpt lat="36.239777" lon="-86.74057">
        <ele>167.884929</ele>
        <time>2024-06-02T08:09:31.000Z</time>
      </trkpt>
      <trkpt lat="36.239755" lon="-86.740679">
        <ele>168.090093</ele>
        <time>2024-06-02T08:09:32.000Z</time>
      </trkpt>
      <trkpt lat="36.239718" lon="-86.740793">
        <ele>168.289945</ele>
        <time>2024-06-02T08:09:33.000Z</time>
      </trkpt>
      <trkpt lat="36.239672" lon="-86.740918">
        <ele>168.486686</ele>
        <time>2024-06-02T08:09:34.000Z</time>
      </trkpt>
      <trkpt lat="36.239643" lon="-86.741024">
        <ele>168.684957</ele>
        <time>2024-06-02T08:09:35.000Z</time>
      </trkpt>
      <trkpt lat="36.239605" lon="-86.741134">
        <ele>168.885031</ele>
        <time>2024-06-02T08:09:36.000Z</time>
      </trkpt>
      <trkpt lat="36.239561" lon="-86.74125">
        <ele>169.084844</ele>
        <time>2024-06-02T08:09:37.000Z</time>
      </trkpt>
      <trkpt lat="36.239506" lon="-86.741356">
        <ele>169.286056</ele>
        <time>2024-06-02T08:09:38.000Z</time>
      </trkpt>
      <trkpt lat="36.239453" lon="-86.741459">
        <ele>169.49027</ele>
        <time>2024-06-02T08:09:39.000Z</time>
      </trkpt>
      <trkpt lat="36.239393" lon="-86.74156">
        <ele>169.692395</ele>
        <time>2024-06-02T08:09:40.000Z</time>
      </trkpt>
      <trkpt lat="36.239344" lon="-86.741665">
        <ele>169.894569</ele>
        <time>2024-06-02T08:09:41.000Z</time>
      </trkpt>
      <trkpt lat="36.239282" lon="-86.741758">
        <ele>170.096525</ele>
        <time>2024-06-02T08:09:42.000Z</time>
      </trkpt>
      <trkpt lat="36.239211" lon="-86.741856">
        <ele>170.297436</ele>
        <time>2024-06-02T08:09:43.000Z</time>
      </trkpt>
      <trkpt lat="36.23915" lon="-86.741935">
        <ele>170.526161</ele>
        <time>2024-06-02T08:09:44.000Z</time>
      </trkpt>
      <trkpt lat="36.239082" lon="-86.742043">
        <ele>170.828508</ele>
        <time>2024-06-02T08:09:45.000Z</time>
      </trkpt>
      <trkpt lat="36.239022" lon="-86.742118">
        <ele>171.124524</ele>
        <time>2024-06-02T08:09:46.000Z</time>
      </trkpt>
      <trkpt lat="36.238947" lon="-86.742214">
        <ele>171.421953</ele>
        <time>2024-06-02T08:09:47.000Z</time>
      </trkpt>
      <trkpt lat="36.238891" lon="-86.742288">
        <ele>171.717953</ele>
        <time>2024-06-02T08:09:48.000Z</time>
      </trkpt>
      <trkpt lat="36.238817" lon="-86.742368">
        <ele>172.015532</ele>
        <time>2024-06-02T08:09:49.000Z</time>
      </trkpt>
      <trkpt lat="36.238731" lon="-86.742447">
        <ele>172.298264</ele>
        <time>2024-06-02T08:09:50.000Z</time>
      </trkpt>
      <trkpt lat="36.238672" lon="-86.742521">
        <ele>172.578005</ele>
        <time>2024-06-02T08:09:51.000Z</time>
      </trkpt>
      <trkpt lat="36.238591" lon="-86.742582">
        <ele>172.872017</ele>
        <time>2024-06-02T08:09:52.000Z</time>
      </trkpt>
      <trkpt lat="36.238508" lon="-86.742651">
        <ele>173.15706</ele>
        <time>2024-06-02T08:09:53.000Z</time>
      </trkpt>
      <trkpt lat="36.238419" lon="-86.742713">
        <ele>173.447188</ele>
        <time>2024-06-02T08:09:54.000Z</time>
      </trkpt>
      <trkpt lat="36.238348" lon="-86.742769">
        <ele>173.734711</ele>
        <time>2024-06-02T08:09:55.000Z</time>
      </trkpt>
      <trkpt lat="36.238264" lon="-86.742826">
        <ele>174.037878</ele>
        <time>2024-06-02T08:09:56.000Z</time>
      </trkpt>
      <trkpt lat="36.238175" lon="-86.742885">
        <ele>174.322383</ele>
        <time>2024-06-02T08:09:57.000Z</time>
      </trkpt>
      <trkpt lat="36.238091" lon="-86.742933">
        <ele>174.607663</ele>
        <time>2024-06-02T08:09:58.000Z</time>
      </trkpt>
      <trkpt lat="36.238005" lon="-86.742996">
        <ele>174.878708</ele>
        <time>2024-06-02T08:09:59.000Z</time>
      </trkpt>
      <trkpt lat="36.237946" lon="-86.743048">
        <ele>175.145897</ele>
        <time>2024-06-02T08:10:00.000Z</time>
      </trkpt>
      <trkpt lat="36.237866" lon="-86.743097">
        <ele>175.409256</ele>
        <time>2024-06-02T08:10:01.000Z</time>
      </trkpt>
      <trkpt lat="36.237789" lon="-86.743149">
        <ele>175.680044</ele>
        <time>2024-06-02T08:10:02.000Z</time>
      </trkpt>
      <trkpt lat="36.237705" lon="-86.743195">
        <ele>175.939138</ele>
        <time>2024-06-02T08:10:03.000Z</time>
      </trkpt>
      <trkpt lat="36.237637" lon="-86.743257">
        <ele>176.215774</ele>
        <time>2024-06-02T08:10:04.000Z</time>
      </trkpt>
      <trkpt lat="36.237567" lon="-86.743306">
        <ele>176.491176</ele>
        <time>2024-06-02T08:10:05.000Z</time>
      </trkpt>
      <trkpt lat="36.237475" lon="-86.743347">
        <ele>176.761357</ele>
        <time>2024-06-02T08:10:06.000Z</time>
      </trkpt>
      <trkpt lat="36.237419" lon="-86.743396">
        <ele>177.019454</ele>
        <time>2024-06-02T08:10:07.000Z</time>
      </trkpt>
      <trkpt lat="36.237338" lon="-86.743445">
        <ele>177.287999</ele>
        <time>2024-06-02T08:10:08.000Z</time>
      </trkpt>
      <trkpt lat="36.237255" lon="-86.743496">
        <ele>177.559025</ele>
        <time>2024-06-02T08:10:09.000Z</time>
      </trkpt>
      <trkpt lat="36.23719" lon="-86.74355">
        <ele>177.822993</ele>
        <time>2024-06-02T08:10:10.000Z</time>
      </trkpt>
      <trkpt lat="36.237129" lon="-86.743605">
        <ele>178.087157</ele>
        <time>2024-06-02T08:10:11.000Z</time>
      </trkpt>
      <trkpt lat="36.237056" lon="-86.743654">
        <ele>178.346025</ele>
        <time>2024-06-02T08:10:12.000Z</time>
      </trkpt>
      <trkpt lat="36.236974" lon="-86.743689">
        <ele>178.6021</ele>
        <time>2024-06-02T08:10:13.000Z</time>
      </trkpt>
      <trkpt lat="36.236917" lon="-86.743735">
        <ele>178.85664</ele>
        <time>2024-06-02T08:10:14.000Z</time>
      </trkpt>
      <trkpt lat="36.236839" lon="-86.743787">
        <ele>179.109719</ele>
        <time>2024-06-02T08:10:15.000Z</time>
      </trkpt>
      <trkpt lat="36.236778" lon="-86.743853">
        <ele>179.361382</ele>
        <time>2024-06-02T08:10:16.000Z</time>
      </trkpt>
      <trkpt lat="36.236707" lon="-86.7439">
        <ele>179.613049</ele>
        <time>2024-06-02T08:10:17.000Z</time>
      </trkpt>
      <trkpt lat="36.236637" lon="-86.743955">
        <ele>179.860671</ele>
        <time>2024-06-02T08:10:18.000Z</time>
      </trkpt>
      <trkpt lat="36.236575" lon="-86.743998">
        <ele>180.108478</ele>
        <time>2024-06-02T08:10:19.000Z</time>
      </trkpt>
      <trkpt lat="36.236508" lon="-86.744062">
        <ele>180.349545</ele>
        <time>2024-06-02T08:10:20.000Z</time>
      </trkpt>
      <trkpt lat="36.236447" lon="-86.744115">
        <ele>180.595916</ele>
        <time>2024-06-02T08:10:21.000Z</time>
      </trkpt>
      <trkpt lat="36.236387" lon="-86.744168">
        <ele>180.832879</ele>
        <time>2024-06-02T08:10:22.000Z</time>
      </trkpt>
      <trkpt lat="36.236339" lon="-86.74421">
        <ele>181.071335</ele>
        <time>2024-06-02T08:10:23.000Z</time>
      </trkpt>
      <trkpt lat="36.236274" lon="-86.744263">
        <ele>181.30763</ele>
        <time>2024-06-02T08:10:24.000Z</time>
      </trkpt>
      <trkpt lat="36.236219" lon="-86.744325">
        <ele>181.543909</ele>
        <time>2024-06-02T08:10:25.000Z</time>
      </trkpt>
      <trkpt lat="36.236162" lon="-86.74437">
        <ele>181.787292</ele>
        <time>2024-06-02T08:10:26.000Z</time>
      </trkpt>
      <trkpt lat="36.236097" lon="-86.744432">
        <ele>182.04094</ele>
        <time>2024-06-02T08:10:27.000Z</time>
      </trkpt>
      <trkpt lat="36.236053" lon="-86.744489">
        <ele>182.294613</ele>
        <time>2024-06-02T08:10:28.000Z</time>
      </trkpt>
      <trkpt lat="36.235979" lon="-86.744548">
        <ele>182.547423</ele>
        <time>2024-06-02T08:10:29.000Z</time>
      </trkpt>
      <trkpt lat="36.235931" lon="-86.744609">
        <ele>182.800233</ele>
        <time>2024-06-02T08:10:30.000Z</time>
      </trkpt>
      <trkpt lat="36.235875" lon="-86.744664">
        <ele>183.050437</ele>
        <time>2024-06-02T08:10:31.000Z</time>
      </trkpt>
      <trkpt lat="36.235818" lon="-86.74473">
        <ele>183.301238</ele>
        <time>2024-06-02T08:10:32.000Z</time>
      </trkpt>
      <trkpt lat="36.235764" lon="-86.744792">
        <ele>183.55202</ele>
        <time>2024-06-02T08:10:33.000Z</time>
      </trkpt>
      <trkpt lat="36.235725" lon="-86.744848">
        <ele>183.802302</ele>
        <time>2024-06-02T08:10:34.000Z</time>
      </trkpt>
      <trkpt lat="36.235674" lon="-86.744907">
        <ele>184.053087</ele>
        <time>2024-06-02T08:10:35.000Z</time>
      </trkpt>
      <trkpt lat="36.235621" lon="-86.744978">
        <ele>184.306396</ele>
        <time>2024-06-02T08:10:36.000Z</time>
      </trkpt>
      <trkpt lat="36.235567" lon="-86.745041">
        <ele>184.557776</ele>
        <time>2024-06-02T08:10:37.000Z</time>
      </trkpt>
      <trkpt lat="36.235519" lon="-86.745107">
        <ele>184.813017</ele>
        <time>2024-06-02T08:10:38.000Z</time>
      </trkpt>
      <trkpt lat="36.235459" lon="-86.745163">
        <ele>185.063294</ele>
        <time>2024-06-02T08:10:39.000Z</time>
      </trkpt>
      <trkpt lat="36.235403" lon="-86.745229">
        <ele>185.317178</ele>
        <time>2024-06-02T08:10:40.000Z</time>
      </trkpt>
      <trkpt lat="36.235365" lon="-86.745297">
        <ele>185.576329</ele>
        <time>2024-06-02T08:10:41.000Z</time>
      </trkpt>
      <trkpt lat="36.235308" lon="-86.745355">
        <ele>185.835479</ele>
        <time>2024-06-02T08:10:42.000Z</time>
      </trkpt>
      <trkpt lat="36.235252" lon="-86.74543">
        <ele>186.094642</ele>
        <time>2024-06-02T08:10:43.000Z</time>
      </trkpt>
      <trkpt lat="36.235208" lon="-86.745496">
        <ele>186.350307</ele>
        <time>2024-06-02T08:10:44.000Z</time>
      </trkpt>
      <trkpt lat="36.235151" lon="-86.745558">
        <ele>186.605681</ele>
        <time>2024-06-02T08:10:45.000Z</time>
      </trkpt>
      <trkpt lat="36.235105" lon="-86.745629">
        <ele>186.86786</ele>
        <time>2024-06-02T08:10:46.000Z</time>
      </trkpt>
      <trkpt lat="36.235052" lon="-86.745701">
        <ele>187.127929</ele>
        <time>2024-06-02T08:10:47.000Z</time>
      </trkpt>
      <trkpt lat="36.235008" lon="-86.745766">
        <ele>187.390672</ele>
        <time>2024-06-02T08:10:48.000Z</time>
      </trkpt>
      <trkpt lat="36.234941" lon="-86.745837">
        <ele>187.662259</ele>
        <time>2024-06-02T08:10:49.000Z</time>
      </trkpt>
      <trkpt lat="36.234886" lon="-86.745914">
        <ele>187.925887</ele>
        <time>2024-06-02T08:10:50.000Z</time>
      </trkpt>
      <trkpt lat="36.23484" lon="-86.745977">
        <ele>187.898356</ele>
        <time>2024-06-02T08:10:51.000Z</time>
      </trkpt>
      <trkpt lat="36.234789" lon="-86.74605">
        <ele>187.870822</ele>
        <time>2024-06-02T08:10:52.000Z</time>
      </trkpt>
      <trkpt lat="36.23473" lon="-86.746122">
        <ele>187.843079</ele>
        <time>2024-06-02T08:10:53.000Z</time>
      </trkpt>
      <trkpt lat="36.234687" lon="-86.74619">
        <ele>187.815558</ele>
        <time>2024-06-02T08:10:54.000Z</time>
      </trkpt>
      <trkpt lat="36.234622" lon="-86.746273">
        <ele>187.787945</ele>
        <time>2024-06-02T08:10:55.000Z</time>
      </trkpt>
      <trkpt lat="36.234564" lon="-86.746333">
        <ele>187.760728</ele>
        <time>2024-06-02T08:10:56.000Z</time>
      </trkpt>
      <trkpt lat="36.23452" lon="-86.746404">
        <ele>187.733561</ele>
        <time>2024-06-02T08:10:57.000Z</time>
      </trkpt>
      <trkpt lat="36.234445" lon="-86.746462">
        <ele>187.706272</ele>
        <time>2024-06-02T08:10:58.000Z</time>
      </trkpt>
      <trkpt lat="36.234387" lon="-86.746539">
        <ele>187.678217</ele>
        <time>2024-06-02T08:10:59.000Z</time>
      </trkpt>
      <trkpt lat="36.234332" lon="-86.746595">
        <ele>187.649456</ele>
        <time>2024-06-02T08:11:00.000Z</time>
      </trkpt>
      <trkpt lat="36.234263" lon="-86.746652">
        <ele>187.620331</ele>
        <time>2024-06-02T08:11:01.000Z</time>
      </trkpt>
      <trkpt lat="36.234201" lon="-86.746722">
        <ele>187.590529</ele>
        <time>2024-06-02T08:11:02.000Z</time>
      </trkpt>
      <trkpt lat="36.234115" lon="-86.746788">
        <ele>187.560322</ele>
        <time>2024-06-02T08:11:03.000Z</time>
      </trkpt>
      <trkpt lat="36.234041" lon="-86.74684">
        <ele>187.529075</ele>
        <time>2024-06-02T08:11:04.000Z</time>
      </trkpt>
      <trkpt lat="36.233965" lon="-86.746907">
        <ele>187.496972</ele>
        <time>2024-06-02T08:11:05.000Z</time>
      </trkpt>
      <trkpt lat="36.233899" lon="-86.746972">
        <ele>187.464418</ele>
        <time>2024-06-02T08:11:06.000Z</time>
      </trkpt>
      <trkpt lat="36.233805" lon="-86.747016">
        <ele>187.431386</ele>
        <time>2024-06-02T08:11:07.000Z</time>
      </trkpt>
      <trkpt lat="36.233732" lon="-86.747087">
        <ele>187.398198</ele>
        <time>2024-06-02T08:11:08.000Z</time>
      </trkpt>
      <trkpt lat="36.233647" lon="-86.74714">
        <ele>187.364362</ele>
        <time>2024-06-02T08:11:09.000Z</time>
      </trkpt>
      <trkpt lat="36.233564" lon="-86.747181">
        <ele>187.330465</ele>
        <time>2024-06-02T08:11:10.000Z</time>
      </trkpt>
      <trkpt lat="36.233477" lon="-86.747238">
        <ele>187.287717</ele>
        <time>2024-06-02T08:11:11.000Z</time>
      </trkpt>
      <trkpt lat="36.233374" lon="-86.747279">
        <ele>186.922271</ele>
        <time>2024-06-02T08:11:12.000Z</time>
      </trkpt>
      <trkpt lat="36.233279" lon="-86.747325">
        <ele>186.551018</ele>
        <time>2024-06-02T08:11:13.000Z</time>
      </trkpt>
      <trkpt lat="36.233195" lon="-86.747377">
        <ele>186.176789</ele>
        <time>2024-06-02T08:11:14.000Z</time>
      </trkpt>
      <trkpt lat="36.233085" lon="-86.747408">
        <ele>185.796479</ele>
        <time>2024-06-02T08:11:15.000Z</time>
      </trkpt>
      <trkpt lat="36.232999" lon="-86.747452">
        <ele>185.424992</ele>
        <time>2024-06-02T08:11:16.000Z</time>
      </trkpt>
      <trkpt lat="36.232893" lon="-86.747469">
        <ele>185.045412</ele>
        <time>2024-06-02T08:11:17.000Z</time>
      </trkpt>
      <trkpt lat="36.232799" lon="-86.7475">
        <ele>184.669536</ele>
        <time>2024-06-02T08:11:18.000Z</time>
      </trkpt>
      <trkpt lat="36.232698" lon="-86.747526">
        <ele>184.278082</ele>
        <time>2024-06-02T08:11:19.000Z</time>
      </trkpt>
      <trkpt lat="36.232595" lon="-86.747559">
        <ele>183.892379</ele>
        <time>2024-06-02T08:11:20.000Z</time>
      </trkpt>
      <trkpt lat="36.232475" lon="-86.747571">
        <ele>183.503941</ele>
        <time>2024-06-02T08:11:21.000Z</time>
      </trkpt>
      <trkpt lat="36.232379" lon="-86.747598">
        <ele>183.108615</ele>
        <time>2024-06-02T08:11:22.000Z</time>
      </trkpt>
      <trkpt lat="36.232271" lon="-86.747595">
        <ele>182.682183</ele>
        <time>2024-06-02T08:11:23.000Z</time>
      </trkpt>
      <trkpt lat="36.232146" lon="-86.747613">
        <ele>182.249016</ele>
        <time>2024-06-02T08:11:24.000Z</time>
      </trkpt>
      <trkpt lat="36.232025" lon="-86.747614">
        <ele>181.811988</ele>
        <time>2024-06-02T08:11:25.000Z</time>
      </trkpt>
      <trkpt lat="36.231918" lon="-86.747634">
        <ele>181.375141</ele>
        <time>2024-06-02T08:11:26.000Z</time>
      </trkpt>
      <trkpt lat="36.231794" lon="-86.747638">
        <ele>180.945262</ele>
        <time>2024-06-02T08:11:27.000Z</time>
      </trkpt>
      <trkpt lat="36.231682" lon="-86.747654">
        <ele>180.647697</ele>
        <time>2024-06-02T08:11:28.000Z</time>
      </trkpt>
      <trkpt lat="36.231559" lon="-86.747654">
        <ele>180.636356</ele>
        <time>2024-06-02T08:11:29.000Z</time>
      </trkpt>
      <trkpt lat="36.231445" lon="-86.747664">
        <ele>180.625196</ele>
        <time>2024-06-02T08:11:30.000Z</time>
      </trkpt>
      <trkpt lat="36.231336" lon="-86.747668">
        <ele>180.614049</ele>
        <time>2024-06-02T08:11:31.000Z</time>
      </trkpt>
      <trkpt lat="36.231216" lon="-86.747678">
        <ele>180.602991</ele>
        <time>2024-06-02T08:11:32.000Z</time>
      </trkpt>
      <trkpt lat="36.231093" lon="-86.747678">
        <ele>180.59185</ele>
        <time>2024-06-02T08:11:33.000Z</time>
      </trkpt>
      <trkpt lat="36.230988" lon="-86.747677">
        <ele>180.580796</ele>
        <time>2024-06-02T08:11:34.000Z</time>
      </trkpt>
      <trkpt lat="36.230873" lon="-86.74767">
        <ele>180.569855</ele>
        <time>2024-06-02T08:11:35.000Z</time>
      </trkpt>
      <trkpt lat="36.230754" lon="-86.747685">
        <ele>180.558704</ele>
        <time>2024-06-02T08:11:36.000Z</time>
      </trkpt>
      <trkpt lat="36.230643" lon="-86.747671">
        <ele>180.547563</ele>
        <time>2024-06-02T08:11:37.000Z</time>
      </trkpt>
      <trkpt lat="36.23053" lon="-86.747683">
        <ele>180.53632</ele>
        <time>2024-06-02T08:11:38.000Z</time>
      </trkpt>
      <trkpt lat="36.230402" lon="-86.747666">
        <ele>180.524982</ele>
        <time>2024-06-02T08:11:39.000Z</time>
      </trkpt>
      <trkpt lat="36.230288" lon="-86.747668">
        <ele>180.513743</ele>
        <time>2024-06-02T08:11:40.000Z</time>
      </trkpt>
      <trkpt lat="36.23018" lon="-86.747673">
        <ele>180.502509</ele>
        <time>2024-06-02T08:11:41.000Z</time>
      </trkpt>
      <trkpt lat="36.230053" lon="-86.747675">
        <ele>180.491371</ele>
        <time>2024-06-02T08:11:42.000Z</time>
      </trkpt>
      <trkpt lat="36.229944" lon="-86.74766">
        <ele>180.480129</ele>
        <time>2024-06-02T08:11:43.000Z</time>
      </trkpt>
      <trkpt lat="36.229825" lon="-86.747646">
        <ele>180.680563</ele>
        <time>2024-06-02T08:11:44.000Z</time>
      </trkpt>
      <trkpt lat="36.22971" lon="-86.747649">
        <ele>180.954883</ele>
        <time>2024-06-02T08:11:45.000Z</time>
      </trkpt>
      <trkpt lat="36.2296" lon="-86.747624">
        <ele>181.230161</ele>
        <time>2024-06-02T08:11:46.000Z</time>
      </trkpt>
      <trkpt lat="36.229494" lon="-86.747605">
        <ele>181.508512</ele>
        <time>2024-06-02T08:11:47.000Z</time>
      </trkpt>
      <trkpt lat="36.229367" lon="-86.74759">
        <ele>181.787638</ele>
        <time>2024-06-02T08:11:48.000Z</time>
      </trkpt>
      <trkpt lat="36.229263" lon="-86.747572">
        <ele>182.064697</ele>
        <time>2024-06-02T08:11:49.000Z</time>
      </trkpt>
      <trkpt lat="36.229152" lon="-86.74755">
        <ele>182.345057</ele>
        <time>2024-06-02T08:11:50.000Z</time>
      </trkpt>
      <trkpt lat="36.229031" lon="-86.747513">
        <ele>182.624141</ele>
        <time>2024-06-02T08:11:51.000Z</time>
      </trkpt>
      <trkpt lat="36.228923" lon="-86.747484">
        <ele>182.897761</ele>
        <time>2024-06-02T08:11:52.000Z</time>
      </trkpt>
      <trkpt lat="36.22881" lon="-86.747459">
        <ele>183.176103</ele>
        <time>2024-06-02T08:11:53.000Z</time>
      </trkpt>
      <trkpt lat="36.228701" lon="-86.747423">
        <ele>183.449793</ele>
        <time>2024-06-02T08:11:54.000Z</time>
      </trkpt>
      <trkpt lat="36.228592" lon="-86.747391">
        <ele>183.722222</ele>
        <time>2024-06-02T08:11:55.000Z</time>
      </trkpt>
      <trkpt lat="36.22847" lon="-86.747338">
        <ele>183.992347</ele>
        <time>2024-06-02T08:11:56.000Z</time>
      </trkpt>
      <trkpt lat="36.22837" lon="-86.747309">
        <ele>184.261285</ele>
        <time>2024-06-02T08:11:57.000Z</time>
      </trkpt>
      <trkpt lat="36.228268" lon="-86.747255">
        <ele>184.527356</ele>
        <time>2024-06-02T08:11:58.000Z</time>
      </trkpt>
      <trkpt lat="36.228154" lon="-86.747231">
        <ele>184.792875</ele>
        <time>2024-06-02T08:11:59.000Z</time>
      </trkpt>
      <trkpt lat="36.228063" lon="-86.74718">
        <ele>185.020109</ele>
        <time>2024-06-02T08:12:00.000Z</time>
      </trkpt>
      <trkpt lat="36.227962" lon="-86.747135">
        <ele>185.24201</ele>
        <time>2024-06-02T08:12:01.000Z</time>
      </trkpt>
      <trkpt lat="36.227861" lon="-86.747098">
        <ele>185.464826</ele>
        <time>2024-06-02T08:12:02.000Z</time>
      </trkpt>
      <trkpt lat="36.227753" lon="-86.747051">
        <ele>185.683689</ele>
        <time>2024-06-02T08:12:03.000Z</time>
      </trkpt>
      <trkpt lat="36.227655" lon="-86.747009">
        <ele>185.901652</ele>
        <time>2024-06-02T08:12:04.000Z</time>
      </trkpt>
      <trkpt lat="36.227552" lon="-86.746969">
        <ele>186.119093</ele>
        <time>2024-06-02T08:12:05.000Z</time>
      </trkpt>
      <trkpt lat="36.227457" lon="-86.746929">
        <ele>186.331182</ele>
        <time>2024-06-02T08:12:06.000Z</time>
      </trkpt>
      <trkpt lat="36.227363" lon="-86.746893">
        <ele>186.537696</ele>
        <time>2024-06-02T08:12:07.000Z</time>
      </trkpt>
      <trkpt lat="36.22728" lon="-86.74685">
        <ele>186.7428</ele>
        <time>2024-06-02T08:12:08.000Z</time>
      </trkpt>
      <trkpt lat="36.227186" lon="-86.746811">
        <ele>186.939962</ele>
        <time>2024-06-02T08:12:09.000Z</time>
      </trkpt>
      <trkpt lat="36.227089" lon="-86.74676">
        <ele>187.140594</ele>
        <time>2024-06-02T08:12:10.000Z</time>
      </trkpt>
      <trkpt lat="36.227003" lon="-86.746733">
        <ele>187.339602</ele>
        <time>2024-06-02T08:12:11.000Z</time>
      </trkpt>
      <trkpt lat="36.226917" lon="-86.746694">
        <ele>187.537168</ele>
        <time>2024-06-02T08:12:12.000Z</time>
      </trkpt>
      <trkpt lat="36.226828" lon="-86.746651">
        <ele>187.72829</ele>
        <time>2024-06-02T08:12:13.000Z</time>
      </trkpt>
      <trkpt lat="36.226742" lon="-86.74661">
        <ele>187.919807</ele>
        <time>2024-06-02T08:12:14.000Z</time>
      </trkpt>
      <trkpt lat="36.22665" lon="-86.746593">
        <ele>188.108862</ele>
        <time>2024-06-02T08:12:15.000Z</time>
      </trkpt>
      <trkpt lat="36.226562" lon="-86.74656">
        <ele>188.294973</ele>
        <time>2024-06-02T08:12:16.000Z</time>
      </trkpt>
      <trkpt lat="36.226484" lon="-86.746532">
        <ele>188.481067</ele>
        <time>2024-06-02T08:12:17.000Z</time>
      </trkpt>
      <trkpt lat="36.226385" lon="-86.746498">
        <ele>188.756965</ele>
        <time>2024-06-02T08:12:18.000Z</time>
      </trkpt>
      <trkpt lat="36.226317" lon="-86.746463">
        <ele>189.067107</ele>
        <time>2024-06-02T08:12:19.000Z</time>
      </trkpt>
      <trkpt lat="36.22623" lon="-86.746439">
        <ele>189.370314</ele>
        <time>2024-06-02T08:12:20.000Z</time>
      </trkpt>
      <trkpt lat="36.226154" lon="-86.746411">
        <ele>189.672752</ele>
        <time>2024-06-02T08:12:21.000Z</time>
      </trkpt>
      <trkpt lat="36.226064" lon="-86.746381">
        <ele>189.968757</ele>
        <time>2024-06-02T08:12:22.000Z</time>
      </trkpt>
      <trkpt lat="36.225998" lon="-86.746355">
        <ele>190.258187</ele>
        <time>2024-06-02T08:12:23.000Z</time>
      </trkpt>
      <trkpt lat="36.225908" lon="-86.746349">
        <ele>190.546061</ele>
        <time>2024-06-02T08:12:24.000Z</time>
      </trkpt>
      <trkpt lat="36.225827" lon="-86.746341">
        <ele>190.829935</ele>
        <time>2024-06-02T08:12:25.000Z</time>
      </trkpt>
      <trkpt lat="36.225752" lon="-86.74632">
        <ele>191.116957</ele>
        <time>2024-06-02T08:12:26.000Z</time>
      </trkpt>
      <trkpt lat="36.225672" lon="-86.746316">
        <ele>191.399615</ele>
        <time>2024-06-02T08:12:27.000Z</time>
      </trkpt>
      <trkpt lat="36.225606" lon="-86.746297">
        <ele>191.683067</ele>
        <time>2024-06-02T08:12:28.000Z</time>
      </trkpt>
      <trkpt lat="36.22552" lon="-86.746285">
        <ele>191.962551</ele>
        <time>2024-06-02T08:12:29.000Z</time>
      </trkpt>
      <trkpt lat="36.225437" lon="-86.74627">
        <ele>192.244289</ele>
        <time>2024-06-02T08:12:30.000Z</time>
      </trkpt>
      <trkpt lat="36.225367" lon="-86.74627">
        <ele>192.52159</ele>
        <time>2024-06-02T08:12:31.000Z</time>
      </trkpt>
      <trkpt lat="36.225296" lon="-86.746252">
        <ele>192.799257</ele>
        <time>2024-06-02T08:12:32.000Z</time>
      </trkpt>
      <trkpt lat="36.22522" lon="-86.746245">
        <ele>193.073582</ele>
        <time>2024-06-02T08:12:33.000Z</time>
      </trkpt>
      <trkpt lat="36.22513" lon="-86.746254">
        <ele>193.350565</ele>
        <time>2024-06-02T08:12:34.000Z</time>
      </trkpt>
      <trkpt lat="36.225063" lon="-86.746245">
        <ele>193.627538</ele>
        <time>2024-06-02T08:12:35.000Z</time>
      </trkpt>
      <trkpt lat="36.224979" lon="-86.746263">
        <ele>193.904706</ele>
        <time>2024-06-02T08:12:36.000Z</time>
      </trkpt>
      <trkpt lat="36.224907" lon="-86.746255">
        <ele>194.178606</ele>
        <time>2024-06-02T08:12:37.000Z</time>
      </trkpt>
      <trkpt lat="36.224833" lon="-86.746271">
        <ele>194.452163</ele>
        <time>2024-06-02T08:12:38.000Z</time>
      </trkpt>
      <trkpt lat="36.224752" lon="-86.746264">
        <ele>194.729242</ele>
        <time>2024-06-02T08:12:39.000Z</time>
      </trkpt>
      <trkpt lat="36.224673" lon="-86.746274">
        <ele>195.007488</ele>
        <time>2024-06-02T08:12:40.000Z</time>
      </trkpt>
      <trkpt lat="36.224599" lon="-86.746267">
        <ele>195.378038</ele>
        <time>2024-06-02T08:12:41.000Z</time>
      </trkpt>
      <trkpt lat="36.224528" lon="-86.746274">
        <ele>195.7486</ele>
        <time>2024-06-02T08:12:42.000Z</time>
      </trkpt>
      <trkpt lat="36.224446" lon="-86.746295">
        <ele>196.115642</ele>
        <time>2024-06-02T08:12:43.000Z</time>
      </trkpt>
      <trkpt lat="36.224366" lon="-86.746298">
        <ele>196.485113</ele>
        <time>2024-06-02T08:12:44.000Z</time>
      </trkpt>
      <trkpt lat="36.224299" lon="-86.746311">
        <ele>196.853243</ele>
        <time>2024-06-02T08:12:45.000Z</time>
      </trkpt>
      <trkpt lat="36.224217" lon="-86.746328">
        <ele>197.215796</ele>
        <time>2024-06-02T08:12:46.000Z</time>
      </trkpt>
      <trkpt lat="36.224145" lon="-86.746351">
        <ele>197.575633</ele>
        <time>2024-06-02T08:12:47.000Z</time>
      </trkpt>
      <trkpt lat="36.224088" lon="-86.74637">
        <ele>197.934884</ele>
        <time>2024-06-02T08:12:48.000Z</time>
      </trkpt>
      <trkpt lat="36.224011" lon="-86.746377">
        <ele>198.291204</ele>
        <time>2024-06-02T08:12:49.000Z</time>
      </trkpt>
      <trkpt lat="36.223936" lon="-86.746399">
        <ele>198.647542</ele>
        <time>2024-06-02T08:12:50.000Z</time>
      </trkpt>
      <trkpt lat="36.223856" lon="-86.746406">
        <ele>199.009348</ele>
        <time>2024-06-02T08:12:51.000Z</time>
      </trkpt>
      <trkpt lat="36.2238" lon="-86.746423">
        <ele>199.360883</ele>
        <time>2024-06-02T08:12:52.000Z</time>
      </trkpt>
      <trkpt lat="36.223717" lon="-86.746436">
        <ele>199.71242</ele>
        <time>2024-06-02T08:12:53.000Z</time>
      </trkpt>
      <trkpt lat="36.22364" lon="-86.74646">
        <ele>200.066849</ele>
        <time>2024-06-02T08:12:54.000Z</time>
      </trkpt>
      <trkpt lat="36.223572" lon="-86.746476">
        <ele>200.412252</ele>
        <time>2024-06-02T08:12:55.000Z</time>
      </trkpt>
      <trkpt lat="36.223503" lon="-86.746482">
        <ele>200.762447</ele>
        <time>2024-06-02T08:12:56.000Z</time>
      </trkpt>
      <trkpt lat="36.223429" lon="-86.746509">
        <ele>201.108503</ele>
        <time>2024-06-02T08:12:57.000Z</time>
      </trkpt>
      <trkpt lat="36.223374" lon="-86.746511">
        <ele>201.454538</ele>
        <time>2024-06-02T08:12:58.000Z</time>
      </trkpt>
      <trkpt lat="36.223289" lon="-86.746532">
        <ele>201.80475</ele>
        <time>2024-06-02T08:12:59.000Z</time>
      </trkpt>
      <trkpt lat="36.223219" lon="-86.746553">
        <ele>202.154966</ele>
        <time>2024-06-02T08:13:00.000Z</time>
      </trkpt>
      <trkpt lat="36.223152" lon="-86.746554">
        <ele>202.504579</ele>
        <time>2024-06-02T08:13:01.000Z</time>
      </trkpt>
      <trkpt lat="36.223089" lon="-86.746571">
        <ele>202.858454</ele>
        <time>2024-06-02T08:13:02.000Z</time>
      </trkpt>
      <trkpt lat="36.223003" lon="-86.746585">
        <ele>203.207523</ele>
        <time>2024-06-02T08:13:03.000Z</time>
      </trkpt>
      <trkpt lat="36.222941" lon="-86.746591">
        <ele>203.55712</ele>
        <time>2024-06-02T08:13:04.000Z</time>
      </trkpt>
      <trkpt lat="36.22287" lon="-86.746603">
        <ele>203.744808</ele>
        <time>2024-06-02T08:13:05.000Z</time>
      </trkpt>
      <trkpt lat="36.222805" lon="-86.746629">
        <ele>203.697695</ele>
        <time>2024-06-02T08:13:06.000Z</time>
      </trkpt>
      <trkpt lat="36.222724" lon="-86.746645">
        <ele>203.650324</ele>
        <time>2024-06-02T08:13:07.000Z</time>
      </trkpt>
      <trkpt lat="36.222656" lon="-86.74665">
        <ele>203.604352</ele>
        <time>2024-06-02T08:13:08.000Z</time>
      </trkpt>
      <trkpt lat="36.22258" lon="-86.746664">
        <ele>203.557805</ele>
        <time>2024-06-02T08:13:09.000Z</time>
      </trkpt>
      <trkpt lat="36.222525" lon="-86.746672">
        <ele>203.51182</ele>
        <time>2024-06-02T08:13:10.000Z</time>
      </trkpt>
      <trkpt lat="36.222446" lon="-86.746698">
        <ele>203.465186</ele>
        <time>2024-06-02T08:13:11.000Z</time>
      </trkpt>
      <trkpt lat="36.222377" lon="-86.746705">
        <ele>203.417619</ele>
        <time>2024-06-02T08:13:12.000Z</time>
      </trkpt>
      <trkpt lat="36.222302" lon="-86.746732">
        <ele>203.371115</ele>
        <time>2024-06-02T08:13:13.000Z</time>
      </trkpt>
      <trkpt lat="36.222251" lon="-86.746748">
        <ele>203.325359</ele>
        <time>2024-06-02T08:13:14.000Z</time>
      </trkpt>
      <trkpt lat="36.222176" lon="-86.746776">
        <ele>203.280018</ele>
        <time>2024-06-02T08:13:15.000Z</time>
      </trkpt>
      <trkpt lat="36.222101" lon="-86.746791">
        <ele>203.234128</ele>
        <time>2024-06-02T08:13:16.000Z</time>
      </trkpt>
      <trkpt lat="36.222034" lon="-86.746804">
        <ele>203.190402</ele>
        <time>2024-06-02T08:13:17.000Z</time>
      </trkpt>
      <trkpt lat="36.221978" lon="-86.746816">
        <ele>203.146581</ele>
        <time>2024-06-02T08:13:18.000Z</time>
      </trkpt>
      <trkpt lat="36.22191" lon="-86.746837">
        <ele>203.101245</ele>
        <time>2024-06-02T08:13:19.000Z</time>
      </trkpt>
      <trkpt lat="36.221832" lon="-86.74685">
        <ele>203.053969</ele>
        <time>2024-06-02T08:13:20.000Z</time>
      </trkpt>
      <trkpt lat="36.221771" lon="-86.746866">
        <ele>203.006589</ele>
        <time>2024-06-02T08:13:21.000Z</time>
      </trkpt>
      <trkpt lat="36.221691" lon="-86.746871">
        <ele>202.956815</ele>
        <time>2024-06-02T08:13:22.000Z</time>
      </trkpt>
      <trkpt lat="36.22161" lon="-86.746902">
        <ele>202.906298</ele>
        <time>2024-06-02T08:13:23.000Z</time>
      </trkpt>
      <trkpt lat="36.221541" lon="-86.746907">
        <ele>202.85504</ele>
        <time>2024-06-02T08:13:24.000Z</time>
      </trkpt>
      <trkpt lat="36.221454" lon="-86.746922">
        <ele>202.80461</ele>
        <time>2024-06-02T08:13:25.000Z</time>
      </trkpt>
      <trkpt lat="36.221377" lon="-86.746944">
        <ele>202.753031</ele>
        <time>2024-06-02T08:13:26.000Z</time>
      </trkpt>
      <trkpt lat="36.221308" lon="-86.746955">
        <ele>202.701291</ele>
        <time>2024-06-02T08:13:27.000Z</time>
      </trkpt>
      <trkpt lat="36.221235" lon="-86.746959">
        <ele>202.649857</ele>
        <time>2024-06-02T08:13:28.000Z</time>
      </trkpt>
      <trkpt lat="36.221154" lon="-86.746978">
        <ele>202.59658</ele>
        <time>2024-06-02T08:13:29.000Z</time>
      </trkpt>
      <trkpt lat="36.221071" lon="-86.746996">
        <ele>202.299516</ele>
        <time>2024-06-02T08:13:30.000Z</time>
      </trkpt>
      <trkpt lat="36.220997" lon="-86.747017">
        <ele>201.920866</ele>
        <time>2024-06-02T08:13:31.000Z</time>
      </trkpt>
      <trkpt lat="36.220915" lon="-86.747047">
        <ele>201.527424</ele>
        <time>2024-06-02T08:13:32.000Z</time>
      </trkpt>
      <trkpt lat="36.220825" lon="-86.747055">
        <ele>201.125227</ele>
        <time>2024-06-02T08:13:33.000Z</time>
      </trkpt>
      <trkpt lat="36.22075" lon="-86.747075">
        <ele>200.718912</ele>
        <time>2024-06-02T08:13:34.000Z</time>
      </trkpt>
      <trkpt lat="36.22066" lon="-86.747092">
        <ele>200.311987</ele>
        <time>2024-06-02T08:13:35.000Z</time>
      </trkpt>
      <trkpt lat="36.220583" lon="-86.74711">
        <ele>199.900326</ele>
        <time>2024-06-02T08:13:36.000Z</time>
      </trkpt>
      <trkpt lat="36.220494" lon="-86.747132">
        <ele>199.483349</ele>
        <time>2024-06-02T08:13:37.000Z</time>
      </trkpt>
      <trkpt lat="36.220395" lon="-86.747136">
        <ele>199.066974</ele>
        <time>2024-06-02T08:13:38.000Z</time>
      </trkpt>
      <trkpt lat="36.22032" lon="-86.747162">
        <ele>198.6428</ele>
        <time>2024-06-02T08:13:39.000Z</time>
      </trkpt>
      <trkpt lat="36.220225" lon="-86.747163">
        <ele>198.223368</ele>
        <time>2024-06-02T08:13:40.000Z</time>
      </trkpt>
      <trkpt lat="36.220139" lon="-86.74718">
        <ele>197.78919</ele>
        <time>2024-06-02T08:13:41.000Z</time>
      </trkpt>
      <trkpt lat="36.220053" lon="-86.747205">
        <ele>197.3545</ele>
        <time>2024-06-02T08:13:42.000Z</time>
      </trkpt>
      <trkpt lat="36.219948" lon="-86.747207">
        <ele>196.909785</ele>
        <time>2024-06-02T08:13:43.000Z</time>
      </trkpt>
      <trkpt lat="36.219859" lon="-86.747241">
        <ele>196.455043</ele>
        <time>2024-06-02T08:13:44.000Z</time>
      </trkpt>
      <trkpt lat="36.219773" lon="-86.747248">
        <ele>195.990236</ele>
        <time>2024-06-02T08:13:45.000Z</time>
      </trkpt>
      <trkpt lat="36.219661" lon="-86.747277">
        <ele>195.518786</ele>
        <time>2024-06-02T08:13:46.000Z</time>
      </trkpt>
      <trkpt lat="36.21957" lon="-86.747292">
        <ele>195.030275</ele>
        <time>2024-06-02T08:13:47.000Z</time>
      </trkpt>
      <trkpt lat="36.219473" lon="-86.74732">
        <ele>194.533159</ele>
        <time>2024-06-02T08:13:48.000Z</time>
      </trkpt>
      <trkpt lat="36.219367" lon="-86.747357">
        <ele>194.025933</ele>
        <time>2024-06-02T08:13:49.000Z</time>
      </trkpt>
      <trkpt lat="36.219262" lon="-86.747368">
        <ele>193.602364</ele>
        <time>2024-06-02T08:13:50.000Z</time>
      </trkpt>
      <trkpt lat="36.219148" lon="-86.747406">
        <ele>193.179932</ele>
        <time>2024-06-02T08:13:51.000Z</time>
      </trkpt>
      <trkpt lat="36.219036" lon="-86.747415">
        <ele>192.754764</ele>
        <time>2024-06-02T08:13:52.000Z</time>
      </trkpt>
      <trkpt lat="36.218925" lon="-86.747443">
        <ele>192.318644</ele>
        <time>2024-06-02T08:13:53.000Z</time>
      </trkpt>
      <trkpt lat="36.218809" lon="-86.747473">
        <ele>191.882554</ele>
        <time>2024-06-02T08:13:54.000Z</time>
      </trkpt>
      <trkpt lat="36.218708" lon="-86.747479">
        <ele>191.43835</ele>
        <time>2024-06-02T08:13:55.000Z</time>
      </trkpt>
      <trkpt lat="36.218584" lon="-86.747503">
        <ele>190.98885</ele>
        <time>2024-06-02T08:13:56.000Z</time>
      </trkpt>
      <trkpt lat="36.218471" lon="-86.747545">
        <ele>190.542582</ele>
        <time>2024-06-02T08:13:57.000Z</time>
      </trkpt>
      <trkpt lat="36.218363" lon="-86.74757">
        <ele>190.09631</ele>
        <time>2024-06-02T08:13:58.000Z</time>
      </trkpt>
      <trkpt lat="36.218244" lon="-86.747592">
        <ele>189.63489</ele>
        <time>2024-06-02T08:13:59.000Z</time>
      </trkpt>
      <trkpt lat="36.218129" lon="-86.747609">
        <ele>189.164778</ele>
        <time>2024-06-02T08:14:00.000Z</time>
      </trkpt>
      <trkpt lat="36.217994" lon="-86.74764">
        <ele>188.684395</ele>
        <time>2024-06-02T08:14:02.000Z</time>
      </trkpt>
      <trkpt lat="36.217864" lon="-86.747663">
        <ele>188.196415</ele>
        <time>2024-06-02T08:14:03.000Z</time>
      </trkpt>
      <trkpt lat="36.217749" lon="-86.747705">
        <ele>187.700846</ele>
        <time>2024-06-02T08:14:04.000Z</time>
      </trkpt>
      <trkpt lat="36.217611" lon="-86.747727">
        <ele>187.197669</ele>
        <time>2024-06-02T08:14:06.000Z</time>
      </trkpt>
      <trkpt lat="36.217489" lon="-86.747752">
        <ele>186.716744</ele>
        <time>2024-06-02T08:14:07.000Z</time>
      </trkpt>
      <trkpt lat="36.217352" lon="-86.747768">
        <ele>186.240074</ele>
        <time>2024-06-02T08:14:09.000Z</time>
      </trkpt>
      <trkpt lat="36.217219" lon="-86.747803">
        <ele>185.759459</ele>
        <time>2024-06-02T08:14:11.000Z</time>
      </trkpt>
      <trkpt lat="36.217094" lon="-86.747823">
        <ele>185.28233</ele>
        <time>2024-06-02T08:14:12.000Z</time>
      </trkpt>
      <trkpt lat="36.216944" lon="-86.747853">
        <ele>184.802641</ele>
        <time>2024-06-02T08:14:14.000Z</time>
      </trkpt>
      <trkpt lat="36.216809" lon="-86.747878">
        <ele>184.322944</ele>
        <time>2024-06-02T08:14:16.000Z</time>
      </trkpt>
      <trkpt lat="36.216691" lon="-86.74792">
        <ele>183.845331</ele>
        <time>2024-06-02T08:14:17.000Z</time>
      </trkpt>
      <trkpt lat="36.216555" lon="-86.747936">
        <ele>183.364228</ele>
        <time>2024-06-02T08:14:19.000Z</time>
      </trkpt>
      <trkpt lat="36.216422" lon="-86.747968">
        <ele>182.883615</ele>
        <time>2024-06-02T08:14:21.000Z</time>
      </trkpt>
      <trkpt lat="36.216278" lon="-86.747996">
        <ele>182.402999</ele>
        <time>2024-06-02T08:14:23.000Z</time>
      </trkpt>
      <trkpt lat="36.216138" lon="-86.748026">
        <ele>181.914937</ele>
        <time>2024-06-02T08:14:25.000Z</time>
      </trkpt>
      <trkpt lat="36.216008" lon="-86.748062">
        <ele>181.43036</ele>
        <time>2024-06-02T08:14:26.000Z</time>
      </trkpt>
      <trkpt lat="36.215876" lon="-86.748089">
        <ele>180.939738</ele>
        <time>2024-06-02T08:14:27.000Z</time>
      </trkpt>
      <trkpt lat="36.215732" lon="-86.748103">
        <ele>180.562809</ele>
        <time>2024-06-02T08:14:29.000Z</time>
      </trkpt>
      <trkpt lat="36.215597" lon="-86.74814">
        <ele>180.29229</ele>
        <time>2024-06-02T08:14:31.000Z</time>
      </trkpt>
      <trkpt lat="36.215463" lon="-86.74816">
        <ele>180.021519</ele>
        <time>2024-06-02T08:14:33.000Z</time>
      </trkpt>
      <trkpt lat="36.215331" lon="-86.748195">
        <ele>179.748822</ele>
        <time>2024-06-02T08:14:35.000Z</time>
      </trkpt>
      <trkpt lat="36.215193" lon="-86.748218">
        <ele>179.476634</ele>
        <time>2024-06-02T08:14:37.000Z</time>
      </trkpt>
      <trkpt lat="36.215052" lon="-86.748249">
        <ele>179.204195</ele>
        <time>2024-06-02T08:14:39.000Z</time>
      </trkpt>
      <trkpt lat="36.214907" lon="-86.748282">
        <ele>178.929836</ele>
        <time>2024-06-02T08:14:41.000Z</time>
      </trkpt>
      <trkpt lat="36.214782" lon="-86.748315">
        <ele>178.655473</ele>
        <time>2024-06-02T08:14:42.000Z</time>
      </trkpt>
      <trkpt lat="36.214627" lon="-86.748337">
        <ele>178.379192</ele>
        <time>2024-06-02T08:14:44.000Z</time>
      </trkpt>
      <trkpt lat="36.214486" lon="-86.748371">
        <ele>178.102383</ele>
        <time>2024-06-02T08:14:46.000Z</time>
      </trkpt>
      <trkpt lat="36.214354" lon="-86.748393">
        <ele>177.825845</ele>
        <time>2024-06-02T08:14:47.000Z</time>
      </trkpt>
      <trkpt lat="36.21422" lon="-86.748428">
        <ele>177.547387</ele>
        <time>2024-06-02T08:14:49.000Z</time>
      </trkpt>
      <trkpt lat="36.214074" lon="-86.748445">
        <ele>177.271114</ele>
        <time>2024-06-02T08:14:51.000Z</time>
      </trkpt>
      <trkpt lat="36.21394" lon="-86.748479">
        <ele>177.148787</ele>
        <time>2024-06-02T08:14:53.000Z</time>
      </trkpt>
      <trkpt lat="36.213797" lon="-86.748514">
        <ele>177.086433</ele>
        <time>2024-06-02T08:14:55.000Z</time>
      </trkpt>
      <trkpt lat="36.213644" lon="-86.748541">
        <ele>177.024215</ele>
        <time>2024-06-02T08:14:57.000Z</time>
      </trkpt>
      <trkpt lat="36.213516" lon="-86.748571">
        <ele>176.962403</ele>
        <time>2024-06-02T08:14:58.000Z</time>
      </trkpt>
      <trkpt lat="36.213371" lon="-86.748595">
        <ele>176.901353</ele>
        <time>2024-06-02T08:15:00.000Z</time>
      </trkpt>
      <trkpt lat="36.213228" lon="-86.748625">
        <ele>176.840244</ele>
        <time>2024-06-02T08:15:02.000Z</time>
      </trkpt>
      <trkpt lat="36.213103" lon="-86.748651">
        <ele>176.780041</ele>
        <time>2024-06-02T08:15:03.000Z</time>
      </trkpt>
      <trkpt lat="36.212967" lon="-86.748685">
        <ele>176.720209</ele>
        <time>2024-06-02T08:15:05.000Z</time>
      </trkpt>
      <trkpt lat="36.212822" lon="-86.748712">
        <ele>176.661805</ele>
        <time>2024-06-02T08:15:07.000Z</time>
      </trkpt>
      <trkpt lat="36.212698" lon="-86.748733">
        <ele>176.603876</ele>
        <time>2024-06-02T08:15:08.000Z</time>
      </trkpt>
      <trkpt lat="36.212564" lon="-86.748766">
        <ele>176.546489</ele>
        <time>2024-06-02T08:15:10.000Z</time>
      </trkpt>
      <trkpt lat="36.212442" lon="-86.748783">
        <ele>176.488628</ele>
        <time>2024-06-02T08:15:11.000Z</time>
      </trkpt>
      <trkpt lat="36.212303" lon="-86.748822">
        <ele>176.431061</ele>
        <time>2024-06-02T08:15:13.000Z</time>
      </trkpt>
      <trkpt lat="36.212181" lon="-86.748852">
        <ele>176.474488</ele>
        <time>2024-06-02T08:15:14.000Z</time>
      </trkpt>
      <trkpt lat="36.212044" lon="-86.748868">
        <ele>176.577939</ele>
        <time>2024-06-02T08:15:16.000Z</time>
      </trkpt>
      <trkpt lat="36.21193" lon="-86.74889">
        <ele>176.681266</ele>
        <time>2024-06-02T08:15:17.000Z</time>
      </trkpt>
      <trkpt lat="36.2118" lon="-86.748917">
        <ele>176.782942</ele>
        <time>2024-06-02T08:15:18.000Z</time>
      </trkpt>
      <trkpt lat="36.211674" lon="-86.748945">
        <ele>176.88481</ele>
        <time>2024-06-02T08:15:19.000Z</time>
      </trkpt>
      <trkpt lat="36.21154" lon="-86.748965">
        <ele>176.98491</ele>
        <time>2024-06-02T08:15:21.000Z</time>
      </trkpt>
      <trkpt lat="36.211429" lon="-86.749005">
        <ele>177.083318</ele>
        <time>2024-06-02T08:15:22.000Z</time>
      </trkpt>
      <trkpt lat="36.211307" lon="-86.749013">
        <ele>177.181737</ele>
        <time>2024-06-02T08:15:23.000Z</time>
      </trkpt>
      <trkpt lat="36.211184" lon="-86.74905">
        <ele>177.278015</ele>
        <time>2024-06-02T08:15:24.000Z</time>
      </trkpt>
      <trkpt lat="36.211066" lon="-86.749075">
        <ele>177.374412</ele>
        <time>2024-06-02T08:15:25.000Z</time>
      </trkpt>
      <trkpt lat="36.210953" lon="-86.749092">
        <ele>177.470672</ele>
        <time>2024-06-02T08:15:26.000Z</time>
      </trkpt>
      <trkpt lat="36.210819" lon="-86.749123">
        <ele>177.565949</ele>
        <time>2024-06-02T08:15:28.000Z</time>
      </trkpt>
      <trkpt lat="36.210706" lon="-86.749141">
        <ele>177.661219</ele>
        <time>2024-06-02T08:15:29.000Z</time>
      </trkpt>
      <trkpt lat="36.210586" lon="-86.749181">
        <ele>177.755705</ele>
        <time>2024-06-02T08:15:30.000Z</time>
      </trkpt>
      <trkpt lat="36.210475" lon="-86.7492">
        <ele>177.835068</ele>
        <time>2024-06-02T08:15:31.000Z</time>
      </trkpt>
      <trkpt lat="36.210349" lon="-86.749215">
        <ele>177.749041</ele>
        <time>2024-06-02T08:15:32.000Z</time>
      </trkpt>
      <trkpt lat="36.210251" lon="-86.749244">
        <ele>177.663656</ele>
        <time>2024-06-02T08:15:33.000Z</time>
      </trkpt>
      <trkpt lat="36.210124" lon="-86.749257">
        <ele>177.578963</ele>
        <time>2024-06-02T08:15:34.000Z</time>
      </trkpt>
      <trkpt lat="36.21001" lon="-86.749282">
        <ele>177.4949</ele>
        <time>2024-06-02T08:15:35.000Z</time>
      </trkpt>
      <trkpt lat="36.209901" lon="-86.749321">
        <ele>177.411559</ele>
        <time>2024-06-02T08:15:36.000Z</time>
      </trkpt>
      <trkpt lat="36.209785" lon="-86.749346">
        <ele>177.328205</ele>
        <time>2024-06-02T08:15:37.000Z</time>
      </trkpt>
      <trkpt lat="36.209671" lon="-86.749374">
        <ele>177.244962</ele>
        <time>2024-06-02T08:15:38.000Z</time>
      </trkpt>
      <trkpt lat="36.209564" lon="-86.749395">
        <ele>177.161811</ele>
        <time>2024-06-02T08:15:39.000Z</time>
      </trkpt>
      <trkpt lat="36.209438" lon="-86.749406">
        <ele>177.077402</ele>
        <time>2024-06-02T08:15:40.000Z</time>
      </trkpt>
      <trkpt lat="36.20934" lon="-86.749432">
        <ele>176.993719</ele>
        <time>2024-06-02T08:15:41.000Z</time>
      </trkpt>
      <trkpt lat="36.209223" lon="-86.74946">
        <ele>176.91065</ele>
        <time>2024-06-02T08:15:42.000Z</time>
      </trkpt>
      <trkpt lat="36.209112" lon="-86.749478">
        <ele>176.827509</ele>
        <time>2024-06-02T08:15:43.000Z</time>
      </trkpt>
      <trkpt lat="36.208987" lon="-86.749498">
        <ele>176.744256</ele>
        <time>2024-06-02T08:15:44.000Z</time>
      </trkpt>
      <trkpt lat="36.208875" lon="-86.749528">
        <ele>176.660375</ele>
        <time>2024-06-02T08:15:45.000Z</time>
      </trkpt>
      <trkpt lat="36.208775" lon="-86.749541">
        <ele>176.577031</ele>
        <time>2024-06-02T08:15:46.000Z</time>
      </trkpt>
      <trkpt lat="36.208645" lon="-86.749563">
        <ele>176.383287</ele>
        <time>2024-06-02T08:15:47.000Z</time>
      </trkpt>
      <trkpt lat="36.208541" lon="-86.74959">
        <ele>176.080494</ele>
        <time>2024-06-02T08:15:48.000Z</time>
      </trkpt>
      <trkpt lat="36.208428" lon="-86.74962">
        <ele>175.782544</ele>
        <time>2024-06-02T08:15:49.000Z</time>
      </trkpt>
      <trkpt lat="36.208305" lon="-86.74963">
        <ele>175.47941</ele>
        <time>2024-06-02T08:15:50.000Z</time>
      </trkpt>
      <trkpt lat="36.208191" lon="-86.749666">
        <ele>175.174024</ele>
        <time>2024-06-02T08:15:51.000Z</time>
      </trkpt>
      <trkpt lat="36.208075" lon="-86.749674">
        <ele>174.863438</ele>
        <time>2024-06-02T08:15:52.000Z</time>
      </trkpt>
      <trkpt lat="36.207963" lon="-86.749706">
        <ele>174.550564</ele>
        <time>2024-06-02T08:15:53.000Z</time>
      </trkpt>
      <trkpt lat="36.207837" lon="-86.749734">
        <ele>174.237394</ele>
        <time>2024-06-02T08:15:54.000Z</time>
      </trkpt>
      <trkpt lat="36.207723" lon="-86.749743">
        <ele>173.928018</ele>
        <time>2024-06-02T08:15:55.000Z</time>
      </trkpt>
      <trkpt lat="36.207614" lon="-86.749783">
        <ele>173.610503</ele>
        <time>2024-06-02T08:15:56.000Z</time>
      </trkpt>
      <trkpt lat="36.207494" lon="-86.749794">
        <ele>173.291149</ele>
        <time>2024-06-02T08:15:57.000Z</time>
      </trkpt>
      <trkpt lat="36.207362" lon="-86.74983">
        <ele>172.964364</ele>
        <time>2024-06-02T08:15:59.000Z</time>
      </trkpt>
      <trkpt lat="36.207252" lon="-86.749843">
        <ele>172.639832</ele>
        <time>2024-06-02T08:16:00.000Z</time>
      </trkpt>
      <trkpt lat="36.20712" lon="-86.749875">
        <ele>172.307842</ele>
        <time>2024-06-02T08:16:01.000Z</time>
      </trkpt>
      <trkpt lat="36.206989" lon="-86.749893">
        <ele>171.973601</ele>
        <time>2024-06-02T08:16:02.000Z</time>
      </trkpt>
      <trkpt lat="36.206867" lon="-86.749932">
        <ele>171.704073</ele>
        <time>2024-06-02T08:16:03.000Z</time>
      </trkpt>
      <trkpt lat="36.206742" lon="-86.749953">
        <ele>171.495193</ele>
        <time>2024-06-02T08:16:04.000Z</time>
      </trkpt>
      <trkpt lat="36.206605" lon="-86.74998">
        <ele>171.286512</ele>
        <time>2024-06-02T08:16:06.000Z</time>
      </trkpt>
      <trkpt lat="36.206472" lon="-86.75">
        <ele>171.073052</ele>
        <time>2024-06-02T08:16:07.000Z</time>
      </trkpt>
      <trkpt lat="36.20634" lon="-86.750025">
        <ele>170.860762</ele>
        <time>2024-06-02T08:16:08.000Z</time>
      </trkpt>
      <trkpt lat="36.206212" lon="-86.750052">
        <ele>170.648498</ele>
        <time>2024-06-02T08:16:09.000Z</time>
      </trkpt>
      <trkpt lat="36.20608" lon="-86.750085">
        <ele>170.434631</ele>
        <time>2024-06-02T08:16:10.000Z</time>
      </trkpt>
      <trkpt lat="36.205965" lon="-86.750107">
        <ele>170.220307</ele>
        <time>2024-06-02T08:16:11.000Z</time>
      </trkpt>
      <trkpt lat="36.20583" lon="-86.750144">
        <ele>170.003709</ele>
        <time>2024-06-02T08:16:13.000Z</time>
      </trkpt>
      <trkpt lat="36.205694" lon="-86.750165">
        <ele>169.787091</ele>
        <time>2024-06-02T08:16:15.000Z</time>
      </trkpt>
      <trkpt lat="36.205565" lon="-86.750202">
        <ele>169.570975</ele>
        <time>2024-06-02T08:16:16.000Z</time>
      </trkpt>
      <trkpt lat="36.205428" lon="-86.750225">
        <ele>169.350324</ele>
        <time>2024-06-02T08:16:18.000Z</time>
      </trkpt>
      <trkpt lat="36.205294" lon="-86.750265">
        <ele>169.130288</ele>
        <time>2024-06-02T08:16:20.000Z</time>
      </trkpt>
      <trkpt lat="36.205147" lon="-86.750288">
        <ele>168.907588</ele>
        <time>2024-06-02T08:16:22.000Z</time>
      </trkpt>
      <trkpt lat="36.205013" lon="-86.750298">
        <ele>168.658827</ele>
        <time>2024-06-02T08:16:23.000Z</time>
      </trkpt>
      <trkpt lat="36.204884" lon="-86.750322">
        <ele>168.410429</ele>
        <time>2024-06-02T08:16:24.000Z</time>
      </trkpt>
      <trkpt lat="36.204756" lon="-86.75035">
        <ele>168.166274</ele>
        <time>2024-06-02T08:16:25.000Z</time>
      </trkpt>
      <trkpt lat="36.204616" lon="-86.750382">
        <ele>167.92831</ele>
        <time>2024-06-02T08:16:27.000Z</time>
      </trkpt>
      <trkpt lat="36.204493" lon="-86.750405">
        <ele>167.686841</ele>
        <time>2024-06-02T08:16:28.000Z</time>
      </trkpt>
      <trkpt lat="36.204357" lon="-86.75046">
        <ele>167.438097</ele>
        <time>2024-06-02T08:16:30.000Z</time>
      </trkpt>
      <trkpt lat="36.204215" lon="-86.750485">
        <ele>167.187579</ele>
        <time>2024-06-02T08:16:32.000Z</time>
      </trkpt>
      <trkpt lat="36.204082" lon="-86.750534">
        <ele>166.939506</ele>
        <time>2024-06-02T08:16:34.000Z</time>
      </trkpt>
      <trkpt lat="36.203953" lon="-86.750575">
        <ele>166.695641</ele>
        <time>2024-06-02T08:16:35.000Z</time>
      </trkpt>
      <trkpt lat="36.203829" lon="-86.750596">
        <ele>166.454181</ele>
        <time>2024-06-02T08:16:36.000Z</time>
      </trkpt>
      <trkpt lat="36.203698" lon="-86.750636">
        <ele>166.215944</ele>
        <time>2024-06-02T08:16:38.000Z</time>
      </trkpt>
      <trkpt lat="36.203579" lon="-86.750673">
        <ele>165.977719</ele>
        <time>2024-06-02T08:16:39.000Z</time>
      </trkpt>
      <trkpt lat="36.20344" lon="-86.750717">
        <ele>165.742208</ele>
        <time>2024-06-02T08:16:41.000Z</time>
      </trkpt>
      <trkpt lat="36.203327" lon="-86.750738">
        <ele>165.488209</ele>
        <time>2024-06-02T08:16:42.000Z</time>
      </trkpt>
      <trkpt lat="36.203198" lon="-86.750773">
        <ele>165.221655</ele>
        <time>2024-06-02T08:16:43.000Z</time>
      </trkpt>
      <trkpt lat="36.203081" lon="-86.750816">
        <ele>164.955982</ele>
        <time>2024-06-02T08:16:44.000Z</time>
      </trkpt>
      <trkpt lat="36.202954" lon="-86.750857">
        <ele>164.691095</ele>
        <time>2024-06-02T08:16:45.000Z</time>
      </trkpt>
      <trkpt lat="36.202828" lon="-86.750894">
        <ele>164.428664</ele>
        <time>2024-06-02T08:16:46.000Z</time>
      </trkpt>
      <trkpt lat="36.202714" lon="-86.750929">
        <ele>164.16662</ele>
        <time>2024-06-02T08:16:47.000Z</time>
      </trkpt>
      <trkpt lat="36.202582" lon="-86.750957">
        <ele>163.908645</ele>
        <time>2024-06-02T08:16:48.000Z</time>
      </trkpt>
      <trkpt lat="36.20247" lon="-86.750995">
        <ele>163.646144</ele>
        <time>2024-06-02T08:16:49.000Z</time>
      </trkpt>
      <trkpt lat="36.202335" lon="-86.751037">
        <ele>163.382305</ele>
        <time>2024-06-02T08:16:51.000Z</time>
      </trkpt>
      <trkpt lat="36.202211" lon="-86.751059">
        <ele>163.117769</ele>
        <time>2024-06-02T08:16:52.000Z</time>
      </trkpt>
      <trkpt lat="36.202079" lon="-86.751098">
        <ele>162.848432</ele>
        <time>2024-06-02T08:16:54.000Z</time>
      </trkpt>
      <trkpt lat="36.201969" lon="-86.751143">
        <ele>162.581127</ele>
        <time>2024-06-02T08:16:55.000Z</time>
      </trkpt>
      <trkpt lat="36.201834" lon="-86.751182">
        <ele>162.311781</ele>
        <time>2024-06-02T08:16:57.000Z</time>
      </trkpt>
      <trkpt lat="36.201706" lon="-86.751212">
        <ele>162.038382</ele>
        <time>2024-06-02T08:16:58.000Z</time>
      </trkpt>
      <trkpt lat="36.201574" lon="-86.751237">
        <ele>161.778388</ele>
        <time>2024-06-02T08:16:59.000Z</time>
      </trkpt>
      <trkpt lat="36.20146" lon="-86.75128">
        <ele>161.530388</ele>
        <time>2024-06-02T08:17:00.000Z</time>
      </trkpt>
      <trkpt lat="36.201328" lon="-86.751312">
        <ele>161.279843</ele>
        <time>2024-06-02T08:17:01.000Z</time>
      </trkpt>
      <trkpt lat="36.201189" lon="-86.751354">
        <ele>161.029676</ele>
        <time>2024-06-02T08:17:03.000Z</time>
      </trkpt>
      <trkpt lat="36.201058" lon="-86.751401">
        <ele>160.778031</ele>
        <time>2024-06-02T08:17:05.000Z</time>
      </trkpt>
      <trkpt lat="36.200937" lon="-86.751431">
        <ele>160.528563</ele>
        <time>2024-06-02T08:17:06.000Z</time>
      </trkpt>
      <trkpt lat="36.200803" lon="-86.751469">
        <ele>160.279404</ele>
        <time>2024-06-02T08:17:08.000Z</time>
      </trkpt>
      <trkpt lat="36.200675" lon="-86.751511">
        <ele>160.026606</ele>
        <time>2024-06-02T08:17:09.000Z</time>
      </trkpt>
      <trkpt lat="36.200542" lon="-86.751541">
        <ele>159.775311</ele>
        <time>2024-06-02T08:17:11.000Z</time>
      </trkpt>
      <trkpt lat="36.20041" lon="-86.751589">
        <ele>159.520673</ele>
        <time>2024-06-02T08:17:13.000Z</time>
      </trkpt>
      <trkpt lat="36.200266" lon="-86.751614">
        <ele>159.264547</ele>
        <time>2024-06-02T08:17:15.000Z</time>
      </trkpt>
      <trkpt lat="36.200141" lon="-86.75165">
        <ele>159.011071</ele>
        <time>2024-06-02T08:17:16.000Z</time>
      </trkpt>
      <trkpt lat="36.200002" lon="-86.751689">
        <ele>158.753629</ele>
        <time>2024-06-02T08:17:18.000Z</time>
      </trkpt>
      <trkpt lat="36.199867" lon="-86.751721">
        <ele>158.481121</ele>
        <time>2024-06-02T08:17:20.000Z</time>
      </trkpt>
      <trkpt lat="36.199741" lon="-86.751758">
        <ele>158.096038</ele>
        <time>2024-06-02T08:17:21.000Z</time>
      </trkpt>
      <trkpt lat="36.199597" lon="-86.751797">
        <ele>157.708205</ele>
        <time>2024-06-02T08:17:23.000Z</time>
      </trkpt>
      <trkpt lat="36.19947" lon="-86.751834">
        <ele>157.323603</ele>
        <time>2024-06-02T08:17:24.000Z</time>
      </trkpt>
      <trkpt lat="36.19934" lon="-86.751877">
        <ele>156.941259</ele>
        <time>2024-06-02T08:17:25.000Z</time>
      </trkpt>
      <trkpt lat="36.199196" lon="-86.751912">
        <ele>156.554376</ele>
        <time>2024-06-02T08:17:27.000Z</time>
      </trkpt>
      <trkpt lat="36.199065" lon="-86.751955">
        <ele>156.171529</ele>
        <time>2024-06-02T08:17:29.000Z</time>
      </trkpt>
      <trkpt lat="36.198935" lon="-86.751992">
        <ele>155.785934</ele>
        <time>2024-06-02T08:17:30.000Z</time>
      </trkpt>
      <trkpt lat="36.198805" lon="-86.752032">
        <ele>155.40035</ele>
        <time>2024-06-02T08:17:31.000Z</time>
      </trkpt>
      <trkpt lat="36.19866" lon="-86.752056">
        <ele>155.020233</ele>
        <time>2024-06-02T08:17:33.000Z</time>
      </trkpt>
      <trkpt lat="36.198543" lon="-86.752095">
        <ele>154.636871</ele>
        <time>2024-06-02T08:17:34.000Z</time>
      </trkpt>
      <trkpt lat="36.198402" lon="-86.752136">
        <ele>154.249701</ele>
        <time>2024-06-02T08:17:36.000Z</time>
      </trkpt>
      <trkpt lat="36.198265" lon="-86.752185">
        <ele>153.867364</ele>
        <time>2024-06-02T08:17:38.000Z</time>
      </trkpt>
      <trkpt lat="36.19813" lon="-86.752216">
        <ele>153.492445</ele>
        <time>2024-06-02T08:17:40.000Z</time>
      </trkpt>
      <trkpt lat="36.198001" lon="-86.752254">
        <ele>153.168061</ele>
        <time>2024-06-02T08:17:41.000Z</time>
      </trkpt>
      <trkpt lat="36.19788" lon="-86.752271">
        <ele>152.854751</ele>
        <time>2024-06-02T08:17:42.000Z</time>
      </trkpt>
      <trkpt lat="36.197748" lon="-86.752308">
        <ele>152.548539</ele>
        <time>2024-06-02T08:17:44.000Z</time>
      </trkpt>
      <trkpt lat="36.197636" lon="-86.752354">
        <ele>152.249795</ele>
        <time>2024-06-02T08:17:45.000Z</time>
      </trkpt>
      <trkpt lat="36.197506" lon="-86.752378">
        <ele>151.952594</ele>
        <time>2024-06-02T08:17:46.000Z</time>
      </trkpt>
      <trkpt lat="36.1974" lon="-86.752405">
        <ele>151.654348</ele>
        <time>2024-06-02T08:17:47.000Z</time>
      </trkpt>
      <trkpt lat="36.197277" lon="-86.752414">
        <ele>151.353401</ele>
        <time>2024-06-02T08:17:48.000Z</time>
      </trkpt>
      <trkpt lat="36.19715" lon="-86.752448">
        <ele>151.057229</ele>
        <time>2024-06-02T08:17:49.000Z</time>
      </trkpt>
      <trkpt lat="36.197026" lon="-86.752471">
        <ele>150.761661</ele>
        <time>2024-06-02T08:17:50.000Z</time>
      </trkpt>
      <trkpt lat="36.196903" lon="-86.752488">
        <ele>150.47622</ele>
        <time>2024-06-02T08:17:51.000Z</time>
      </trkpt>
      <trkpt lat="36.196787" lon="-86.752518">
        <ele>150.188101</ele>
        <time>2024-06-02T08:17:52.000Z</time>
      </trkpt>
      <trkpt lat="36.196684" lon="-86.752542">
        <ele>149.905333</ele>
        <time>2024-06-02T08:17:53.000Z</time>
      </trkpt>
      <trkpt lat="36.196567" lon="-86.752557">
        <ele>149.628094</ele>
        <time>2024-06-02T08:17:54.000Z</time>
      </trkpt>
      <trkpt lat="36.196439" lon="-86.75257">
        <ele>149.353014</ele>
        <time>2024-06-02T08:17:55.000Z</time>
      </trkpt>
      <trkpt lat="36.196335" lon="-86.752589">
        <ele>149.095658</ele>
        <time>2024-06-02T08:17:56.000Z</time>
      </trkpt>
      <trkpt lat="36.196212" lon="-86.752591">
        <ele>148.898591</ele>
        <time>2024-06-02T08:17:57.000Z</time>
      </trkpt>
      <trkpt lat="36.196106" lon="-86.752603">
        <ele>148.701504</ele>
        <time>2024-06-02T08:17:58.000Z</time>
      </trkpt>
      <trkpt lat="36.195995" lon="-86.752622">
        <ele>148.499531</ele>
        <time>2024-06-02T08:17:59.000Z</time>
      </trkpt>
      <trkpt lat="36.195867" lon="-86.752632">
        <ele>148.300748</ele>
        <time>2024-06-02T08:18:00.000Z</time>
      </trkpt>
      <trkpt lat="36.195749" lon="-86.752657">
        <ele>148.100596</ele>
        <time>2024-06-02T08:18:01.000Z</time>
      </trkpt>
      <trkpt lat="36.195646" lon="-86.75265">
        <ele>147.90057</ele>
        <time>2024-06-02T08:18:02.000Z</time>
      </trkpt>
      <trkpt lat="36.195517" lon="-86.752669">
        <ele>147.702323</ele>
        <time>2024-06-02T08:18:03.000Z</time>
      </trkpt>
      <trkpt lat="36.195418" lon="-86.752685">
        <ele>147.502185</ele>
        <time>2024-06-02T08:18:04.000Z</time>
      </trkpt>
      <trkpt lat="36.195296" lon="-86.752695">
        <ele>147.299685</ele>
        <time>2024-06-02T08:18:05.000Z</time>
      </trkpt>
      <trkpt lat="36.19518" lon="-86.752711">
        <ele>147.095152</ele>
        <time>2024-06-02T08:18:06.000Z</time>
      </trkpt>
      <trkpt lat="36.19505" lon="-86.752724">
        <ele>146.890078</ele>
        <time>2024-06-02T08:18:07.000Z</time>
      </trkpt>
      <trkpt lat="36.194941" lon="-86.752753">
        <ele>146.680246</ele>
        <time>2024-06-02T08:18:08.000Z</time>
      </trkpt>
      <trkpt lat="36.194816" lon="-86.752767">
        <ele>146.474326</ele>
        <time>2024-06-02T08:18:09.000Z</time>
      </trkpt>
      <trkpt lat="36.194696" lon="-86.752784">
        <ele>146.268398</ele>
        <time>2024-06-02T08:18:10.000Z</time>
      </trkpt>
      <trkpt lat="36.194575" lon="-86.752805">
        <ele>146.060622</ele>
        <time>2024-06-02T08:18:11.000Z</time>
      </trkpt>
      <trkpt lat="36.194465" lon="-86.752826">
        <ele>145.856244</ele>
        <time>2024-06-02T08:18:12.000Z</time>
      </trkpt>
      <trkpt lat="36.194339" lon="-86.752831">
        <ele>145.651867</ele>
        <time>2024-06-02T08:18:13.000Z</time>
      </trkpt>
      <trkpt lat="36.194206" lon="-86.75285">
        <ele>145.44381</ele>
        <time>2024-06-02T08:18:14.000Z</time>
      </trkpt>
      <trkpt lat="36.194091" lon="-86.752858">
        <ele>145.232696</ele>
        <time>2024-06-02T08:18:15.000Z</time>
      </trkpt>
      <trkpt lat="36.193973" lon="-86.752882">
        <ele>145.021848</ele>
        <time>2024-06-02T08:18:16.000Z</time>
      </trkpt>
      <trkpt lat="36.193836" lon="-86.75289">
        <ele>144.807499</ele>
        <time>2024-06-02T08:18:18.000Z</time>
      </trkpt>
      <trkpt lat="36.193707" lon="-86.752918">
        <ele>144.592879</ele>
        <time>2024-06-02T08:18:19.000Z</time>
      </trkpt>
      <trkpt lat="36.193589" lon="-86.752922">
        <ele>144.375008</ele>
        <time>2024-06-02T08:18:20.000Z</time>
      </trkpt>
      <trkpt lat="36.193459" lon="-86.752947">
        <ele>144.157301</ele>
        <time>2024-06-02T08:18:21.000Z</time>
      </trkpt>
      <trkpt lat="36.193334" lon="-86.75296">
        <ele>143.942939</ele>
        <time>2024-06-02T08:18:22.000Z</time>
      </trkpt>
      <trkpt lat="36.193217" lon="-86.752977">
        <ele>143.730143</ele>
        <time>2024-06-02T08:18:23.000Z</time>
      </trkpt>
      <trkpt lat="36.193075" lon="-86.752987">
        <ele>143.515505</ele>
        <time>2024-06-02T08:18:25.000Z</time>
      </trkpt>
      <trkpt lat="36.192948" lon="-86.753014">
        <ele>143.299048</ele>
        <time>2024-06-02T08:18:26.000Z</time>
      </trkpt>
      <trkpt lat="36.192825" lon="-86.753028">
        <ele>143.084113</ele>
        <time>2024-06-02T08:18:27.000Z</time>
      </trkpt>
      <trkpt lat="36.192707" lon="-86.753049">
        <ele>142.839623</ele>
        <time>2024-06-02T08:18:28.000Z</time>
      </trkpt>
      <trkpt lat="36.192574" lon="-86.753057">
        <ele>142.58448</ele>
        <time>2024-06-02T08:18:29.000Z</time>
      </trkpt>
      <trkpt lat="36.192439" lon="-86.753082">
        <ele>142.33131</ele>
        <time>2024-06-02T08:18:31.000Z</time>
      </trkpt>
      <trkpt lat="36.192308" lon="-86.753084">
        <ele>142.077981</ele>
        <time>2024-06-02T08:18:32.000Z</time>
      </trkpt>
      <trkpt lat="36.192181" lon="-86.753105">
        <ele>141.824646</ele>
        <time>2024-06-02T08:18:33.000Z</time>
      </trkpt>
      <trkpt lat="36.192065" lon="-86.753132">
        <ele>141.571477</ele>
        <time>2024-06-02T08:18:34.000Z</time>
      </trkpt>
      <trkpt lat="36.191921" lon="-86.753135">
        <ele>141.316174</ele>
        <time>2024-06-02T08:18:36.000Z</time>
      </trkpt>
      <trkpt lat="36.191811" lon="-86.753154">
        <ele>141.062845</ele>
        <time>2024-06-02T08:18:37.000Z</time>
      </trkpt>
      <trkpt lat="36.191682" lon="-86.753172">
        <ele>140.807555</ele>
        <time>2024-06-02T08:18:38.000Z</time>
      </trkpt>
      <trkpt lat="36.191552" lon="-86.753181">
        <ele>140.55226</ele>
        <time>2024-06-02T08:18:39.000Z</time>
      </trkpt>
      <trkpt lat="36.191412" lon="-86.753198">
        <ele>140.296635</ele>
        <time>2024-06-02T08:18:41.000Z</time>
      </trkpt>
      <trkpt lat="36.191291" lon="-86.753237">
        <ele>140.041724</ele>
        <time>2024-06-02T08:18:42.000Z</time>
      </trkpt>
      <trkpt lat="36.191158" lon="-86.75326">
        <ele>139.786036</ele>
        <time>2024-06-02T08:18:43.000Z</time>
      </trkpt>
      <trkpt lat="36.191032" lon="-86.753292">
        <ele>139.531448</ele>
        <time>2024-06-02T08:18:44.000Z</time>
      </trkpt>
      <trkpt lat="36.190907" lon="-86.753315">
        <ele>139.290067</ele>
        <time>2024-06-02T08:18:45.000Z</time>
      </trkpt>
      <trkpt lat="36.19077" lon="-86.753362">
        <ele>139.051104</ele>
        <time>2024-06-02T08:18:47.000Z</time>
      </trkpt>
      <trkpt lat="36.190657" lon="-86.753405">
        <ele>138.813893</ele>
        <time>2024-06-02T08:18:48.000Z</time>
      </trkpt>
      <trkpt lat="36.190535" lon="-86.75344">
        <ele>138.576686</ele>
        <time>2024-06-02T08:18:49.000Z</time>
      </trkpt>
      <trkpt lat="36.190406" lon="-86.753478">
        <ele>138.339626</ele>
        <time>2024-06-02T08:18:50.000Z</time>
      </trkpt>
      <trkpt lat="36.190275" lon="-86.75353">
        <ele>138.101112</ele>
        <time>2024-06-02T08:18:52.000Z</time>
      </trkpt>
      <trkpt lat="36.190368" lon="-86.753779">
        <ele>137.704962</ele>
        <time>2024-06-02T08:18:54.000Z</time>
      </trkpt>
      <trkpt lat="36.189679" lon="-86.754122">
        <ele>136.369784</ele>
        <time>2024-06-02T08:19:02.000Z</time>
      </trkpt>
      <trkpt lat="36.188833" lon="-86.754944">
        <ele>134.735125</ele>
        <time>2024-06-02T08:19:14.000Z</time>
      </trkpt>
      <trkpt lat="36.18876" lon="-86.754999">
        <ele>134.619539</ele>
        <time>2024-06-02T08:19:15.000Z</time>
      </trkpt>
      <trkpt lat="36.188707" lon="-86.755076">
        <ele>134.500068</ele>
        <time>2024-06-02T08:19:16.000Z</time>
      </trkpt>
      <trkpt lat="36.188153" lon="-86.755737">
        <ele>133.418272</ele>
        <time>2024-06-02T08:19:25.000Z</time>
      </trkpt>
      <trkpt lat="36.187617" lon="-86.756571">
        <ele>132.577669</ele>
        <time>2024-06-02T08:19:35.000Z</time>
      </trkpt>
      <trkpt lat="36.187466" lon="-86.756791">
        <ele>132.343666</ele>
        <time>2024-06-02T08:19:38.000Z</time>
      </trkpt>
      <trkpt lat="36.187373" lon="-86.756631">
        <ele>132.187037</ele>
        <time>2024-06-02T08:19:40.000Z</time>
      </trkpt>
      <trkpt lat="36.187291" lon="-86.756767">
        <ele>132.054559</ele>
        <time>2024-06-02T08:19:42.000Z</time>
      </trkpt>
      <trkpt lat="36.187212" lon="-86.756903">
        <ele>131.920804</ele>
        <time>2024-06-02T08:19:44.000Z</time>
      </trkpt>
      <trkpt lat="36.187138" lon="-86.757047">
        <ele>131.787058</ele>
        <time>2024-06-02T08:19:46.000Z</time>
      </trkpt>
      <trkpt lat="36.187053" lon="-86.757169">
        <ele>131.784783</ele>
        <time>2024-06-02T08:19:47.000Z</time>
      </trkpt>
      <trkpt lat="36.186981" lon="-86.757315">
        <ele>131.805085</ele>
        <time>2024-06-02T08:19:49.000Z</time>
      </trkpt>
      <trkpt lat="36.186898" lon="-86.757437">
        <ele>131.825305</ele>
        <time>2024-06-02T08:19:50.000Z</time>
      </trkpt>
      <trkpt lat="36.186819" lon="-86.757573">
        <ele>131.845519</ele>
        <time>2024-06-02T08:19:52.000Z</time>
      </trkpt>
      <trkpt lat="36.186726" lon="-86.757712">
        <ele>131.865537</ele>
        <time>2024-06-02T08:19:54.000Z</time>
      </trkpt>
      <trkpt lat="36.186646" lon="-86.757846">
        <ele>131.88545</ele>
        <time>2024-06-02T08:19:55.000Z</time>
      </trkpt>
      <trkpt lat="36.186576" lon="-86.757965">
        <ele>131.905176</ele>
        <time>2024-06-02T08:19:56.000Z</time>
      </trkpt>
      <trkpt lat="36.186501" lon="-86.758104">
        <ele>131.924742</ele>
        <time>2024-06-02T08:19:58.000Z</time>
      </trkpt>
      <trkpt lat="36.186418" lon="-86.758238">
        <ele>131.94402</ele>
        <time>2024-06-02T08:20:00.000Z</time>
      </trkpt>
      <trkpt lat="36.186343" lon="-86.758362">
        <ele>131.963297</ele>
        <time>2024-06-02T08:20:01.000Z</time>
      </trkpt>
      <trkpt lat="36.186272" lon="-86.758482">
        <ele>131.981933</ele>
        <time>2024-06-02T08:20:02.000Z</time>
      </trkpt>
      <trkpt lat="36.186204" lon="-86.758615">
        <ele>132.000465</ele>
        <time>2024-06-02T08:20:03.000Z</time>
      </trkpt>
      <trkpt lat="36.186128" lon="-86.758732">
        <ele>132.018771</ele>
        <time>2024-06-02T08:20:04.000Z</time>
      </trkpt>
      <trkpt lat="36.186047" lon="-86.758845">
        <ele>132.034731</ele>
        <time>2024-06-02T08:20:05.000Z</time>
      </trkpt>
      <trkpt lat="36.185975" lon="-86.758964">
        <ele>131.987914</ele>
        <time>2024-06-02T08:20:06.000Z</time>
      </trkpt>
      <trkpt lat="36.185906" lon="-86.759072">
        <ele>131.942096</ele>
        <time>2024-06-02T08:20:07.000Z</time>
      </trkpt>
      <trkpt lat="36.185829" lon="-86.759191">
        <ele>131.896938</ele>
        <time>2024-06-02T08:20:08.000Z</time>
      </trkpt>
      <trkpt lat="36.185746" lon="-86.759294">
        <ele>131.850919</ele>
        <time>2024-06-02T08:20:09.000Z</time>
      </trkpt>
      <trkpt lat="36.185649" lon="-86.759384">
        <ele>131.805116</ele>
        <time>2024-06-02T08:20:10.000Z</time>
      </trkpt>
      <trkpt lat="36.18557" lon="-86.759495">
        <ele>131.759863</ele>
        <time>2024-06-02T08:20:11.000Z</time>
      </trkpt>
      <trkpt lat="36.185478" lon="-86.759584">
        <ele>131.714677</ele>
        <time>2024-06-02T08:20:12.000Z</time>
      </trkpt>
      <trkpt lat="36.185404" lon="-86.759677">
        <ele>131.669209</ele>
        <time>2024-06-02T08:20:13.000Z</time>
      </trkpt>
      <trkpt lat="36.185314" lon="-86.759773">
        <ele>131.624339</ele>
        <time>2024-06-02T08:20:14.000Z</time>
      </trkpt>
      <trkpt lat="36.185216" lon="-86.759853">
        <ele>131.579487</ele>
        <time>2024-06-02T08:20:15.000Z</time>
      </trkpt>
      <trkpt lat="36.185137" lon="-86.759946">
        <ele>131.534522</ele>
        <time>2024-06-02T08:20:16.000Z</time>
      </trkpt>
      <trkpt lat="36.185043" lon="-86.760027">
        <ele>131.490138</ele>
        <time>2024-06-02T08:20:17.000Z</time>
      </trkpt>
      <trkpt lat="36.18495" lon="-86.760121">
        <ele>131.445695</ele>
        <time>2024-06-02T08:20:18.000Z</time>
      </trkpt>
      <trkpt lat="36.184859" lon="-86.760187">
        <ele>131.401294</ele>
        <time>2024-06-02T08:20:19.000Z</time>
      </trkpt>
      <trkpt lat="36.184763" lon="-86.760273">
        <ele>131.357933</ele>
        <time>2024-06-02T08:20:20.000Z</time>
      </trkpt>
      <trkpt lat="36.184681" lon="-86.760354">
        <ele>131.271292</ele>
        <time>2024-06-02T08:20:21.000Z</time>
      </trkpt>
      <trkpt lat="36.184583" lon="-86.760418">
        <ele>131.115276</ele>
        <time>2024-06-02T08:20:22.000Z</time>
      </trkpt>
      <trkpt lat="36.184484" lon="-86.760482">
        <ele>130.958626</ele>
        <time>2024-06-02T08:20:23.000Z</time>
      </trkpt>
      <trkpt lat="36.184377" lon="-86.760552">
        <ele>130.801867</ele>
        <time>2024-06-02T08:20:24.000Z</time>
      </trkpt>
      <trkpt lat="36.184291" lon="-86.760634">
        <ele>130.643348</ele>
        <time>2024-06-02T08:20:25.000Z</time>
      </trkpt>
      <trkpt lat="36.184174" lon="-86.760689">
        <ele>130.482926</ele>
        <time>2024-06-02T08:20:26.000Z</time>
      </trkpt>
      <trkpt lat="36.18408" lon="-86.760759">
        <ele>130.320746</ele>
        <time>2024-06-02T08:20:27.000Z</time>
      </trkpt>
      <trkpt lat="36.183981" lon="-86.760822">
        <ele>130.156112</ele>
        <time>2024-06-02T08:20:28.000Z</time>
      </trkpt>
      <trkpt lat="36.183882" lon="-86.760897">
        <ele>129.992169</ele>
        <time>2024-06-02T08:20:29.000Z</time>
      </trkpt>
      <trkpt lat="36.183763" lon="-86.760967">
        <ele>129.829302</ele>
        <time>2024-06-02T08:20:30.000Z</time>
      </trkpt>
      <trkpt lat="36.183677" lon="-86.761031">
        <ele>129.666421</ele>
        <time>2024-06-02T08:20:31.000Z</time>
      </trkpt>
      <trkpt lat="36.183567" lon="-86.761109">
        <ele>129.502838</ele>
        <time>2024-06-02T08:20:32.000Z</time>
      </trkpt>
      <trkpt lat="36.183465" lon="-86.761179">
        <ele>129.339964</ele>
        <time>2024-06-02T08:20:33.000Z</time>
      </trkpt>
      <trkpt lat="36.183361" lon="-86.761245">
        <ele>129.175144</ele>
        <time>2024-06-02T08:20:34.000Z</time>
      </trkpt>
      <trkpt lat="36.18325" lon="-86.761311">
        <ele>129.010306</ele>
        <time>2024-06-02T08:20:35.000Z</time>
      </trkpt>
      <trkpt lat="36.183155" lon="-86.761372">
        <ele>128.846909</ele>
        <time>2024-06-02T08:20:36.000Z</time>
      </trkpt>
      <trkpt lat="36.183045" lon="-86.761448">
        <ele>128.729388</ele>
        <time>2024-06-02T08:20:37.000Z</time>
      </trkpt>
      <trkpt lat="36.182939" lon="-86.761514">
        <ele>128.621857</ele>
        <time>2024-06-02T08:20:38.000Z</time>
      </trkpt>
      <trkpt lat="36.18283" lon="-86.761589">
        <ele>128.515476</ele>
        <time>2024-06-02T08:20:39.000Z</time>
      </trkpt>
      <trkpt lat="36.182728" lon="-86.761661">
        <ele>128.409879</ele>
        <time>2024-06-02T08:20:40.000Z</time>
      </trkpt>
      <trkpt lat="36.182617" lon="-86.761728">
        <ele>128.302683</ele>
        <time>2024-06-02T08:20:41.000Z</time>
      </trkpt>
      <trkpt lat="36.182516" lon="-86.761794">
        <ele>128.196297</ele>
        <time>2024-06-02T08:20:42.000Z</time>
      </trkpt>
      <trkpt lat="36.182424" lon="-86.761857">
        <ele>128.090906</ele>
        <time>2024-06-02T08:20:43.000Z</time>
      </trkpt>
      <trkpt lat="36.182316" lon="-86.761933">
        <ele>127.985993</ele>
        <time>2024-06-02T08:20:44.000Z</time>
      </trkpt>
      <trkpt lat="36.182207" lon="-86.761983">
        <ele>127.882068</ele>
        <time>2024-06-02T08:20:45.000Z</time>
      </trkpt>
      <trkpt lat="36.182106" lon="-86.762056">
        <ele>127.77736</ele>
        <time>2024-06-02T08:20:46.000Z</time>
      </trkpt>
      <trkpt lat="36.182001" lon="-86.762116">
        <ele>127.674393</ele>
        <time>2024-06-02T08:20:47.000Z</time>
      </trkpt>
      <trkpt lat="36.181896" lon="-86.762162">
        <ele>127.573479</ele>
        <time>2024-06-02T08:20:48.000Z</time>
      </trkpt>
      <trkpt lat="36.181805" lon="-86.762227">
        <ele>127.471503</ele>
        <time>2024-06-02T08:20:49.000Z</time>
      </trkpt>
      <trkpt lat="36.181684" lon="-86.76228">
        <ele>127.369801</ele>
        <time>2024-06-02T08:20:50.000Z</time>
      </trkpt>
      <trkpt lat="36.181588" lon="-86.762328">
        <ele>127.263609</ele>
        <time>2024-06-02T08:20:51.000Z</time>
      </trkpt>
      <trkpt lat="36.181474" lon="-86.762367">
        <ele>127.185061</ele>
        <time>2024-06-02T08:20:52.000Z</time>
      </trkpt>
      <trkpt lat="36.181368" lon="-86.762429">
        <ele>127.148409</ele>
        <time>2024-06-02T08:20:53.000Z</time>
      </trkpt>
      <trkpt lat="36.181256" lon="-86.762462">
        <ele>127.111657</ele>
        <time>2024-06-02T08:20:54.000Z</time>
      </trkpt>
      <trkpt lat="36.181136" lon="-86.762526">
        <ele>127.074859</ele>
        <time>2024-06-02T08:20:55.000Z</time>
      </trkpt>
      <trkpt lat="36.181044" lon="-86.762557">
        <ele>127.038841</ele>
        <time>2024-06-02T08:20:56.000Z</time>
      </trkpt>
      <trkpt lat="36.180924" lon="-86.762601">
        <ele>127.002059</ele>
        <time>2024-06-02T08:20:57.000Z</time>
      </trkpt>
      <trkpt lat="36.180825" lon="-86.76265">
        <ele>126.966862</ele>
        <time>2024-06-02T08:20:58.000Z</time>
      </trkpt>
      <trkpt lat="36.180716" lon="-86.762682">
        <ele>126.930883</ele>
        <time>2024-06-02T08:20:59.000Z</time>
      </trkpt>
      <trkpt lat="36.180589" lon="-86.762704">
        <ele>126.894793</ele>
        <time>2024-06-02T08:21:00.000Z</time>
      </trkpt>
      <trkpt lat="36.18049" lon="-86.762736">
        <ele>126.858769</ele>
        <time>2024-06-02T08:21:01.000Z</time>
      </trkpt>
      <trkpt lat="36.180383" lon="-86.762774">
        <ele>126.82335</ele>
        <time>2024-06-02T08:21:02.000Z</time>
      </trkpt>
      <trkpt lat="36.180274" lon="-86.762817">
        <ele>126.787929</ele>
        <time>2024-06-02T08:21:03.000Z</time>
      </trkpt>
      <trkpt lat="36.180163" lon="-86.762836">
        <ele>126.753086</ele>
        <time>2024-06-02T08:21:04.000Z</time>
      </trkpt>
      <trkpt lat="36.180058" lon="-86.762873">
        <ele>126.717581</ele>
        <time>2024-06-02T08:21:05.000Z</time>
      </trkpt>
      <trkpt lat="36.179942" lon="-86.76289">
        <ele>126.682592</ele>
        <time>2024-06-02T08:21:06.000Z</time>
      </trkpt>
      <trkpt lat="36.179835" lon="-86.76293">
        <ele>126.646669</ele>
        <time>2024-06-02T08:21:07.000Z</time>
      </trkpt>
      <trkpt lat="36.179842" lon="-86.763192">
        <ele>126.564986</ele>
        <time>2024-06-02T08:21:09.000Z</time>
      </trkpt>
      <trkpt lat="36.179531" lon="-86.763214">
        <ele>126.436061</ele>
        <time>2024-06-02T08:21:12.000Z</time>
      </trkpt>
      <trkpt lat="36.179461" lon="-86.763236">
        <ele>126.408817</ele>
        <time>2024-06-02T08:21:13.000Z</time>
      </trkpt>
      <trkpt lat="36.179124" lon="-86.763321">
        <ele>126.267268</ele>
        <time>2024-06-02T08:21:17.000Z</time>
      </trkpt>
      <trkpt lat="36.178838" lon="-86.763453">
        <ele>126.145786</ele>
        <time>2024-06-02T08:21:20.000Z</time>
      </trkpt>
      <trkpt lat="36.17882" lon="-86.763458">
        <ele>126.135899</ele>
        <time>2024-06-02T08:21:20.000Z</time>
      </trkpt>
      <trkpt lat="36.178633" lon="-86.763593">
        <ele>126.046305</ele>
        <time>2024-06-02T08:21:22.000Z</time>
      </trkpt>
      <trkpt lat="36.178503" lon="-86.763757">
        <ele>125.975016</ele>
        <time>2024-06-02T08:21:24.000Z</time>
      </trkpt>
      <trkpt lat="36.178427" lon="-86.763646">
        <ele>125.931377</ele>
        <time>2024-06-02T08:21:25.000Z</time>
      </trkpt>
      <trkpt lat="36.178344" lon="-86.763731">
        <ele>125.919664</ele>
        <time>2024-06-02T08:21:26.000Z</time>
      </trkpt>
      <trkpt lat="36.178262" lon="-86.763816">
        <ele>125.976036</ele>
        <time>2024-06-02T08:21:27.000Z</time>
      </trkpt>
      <trkpt lat="36.178187" lon="-86.763907">
        <ele>126.032575</ele>
        <time>2024-06-02T08:21:28.000Z</time>
      </trkpt>
      <trkpt lat="36.178111" lon="-86.763998">
        <ele>126.088872</ele>
        <time>2024-06-02T08:21:29.000Z</time>
      </trkpt>
      <trkpt lat="36.178023" lon="-86.764074">
        <ele>126.144891</ele>
        <time>2024-06-02T08:21:30.000Z</time>
      </trkpt>
      <trkpt lat="36.177945" lon="-86.764174">
        <ele>126.200821</ele>
        <time>2024-06-02T08:21:31.000Z</time>
      </trkpt>
      <trkpt lat="36.177867" lon="-86.764267">
        <ele>126.256266</ele>
        <time>2024-06-02T08:21:32.000Z</time>
      </trkpt>
      <trkpt lat="36.177804" lon="-86.764347">
        <ele>126.310357</ele>
        <time>2024-06-02T08:21:33.000Z</time>
      </trkpt>
      <trkpt lat="36.177725" lon="-86.764446">
        <ele>126.365201</ele>
        <time>2024-06-02T08:21:34.000Z</time>
      </trkpt>
      <trkpt lat="36.177644" lon="-86.764528">
        <ele>126.420937</ele>
        <time>2024-06-02T08:21:35.000Z</time>
      </trkpt>
      <trkpt lat="36.177567" lon="-86.764621">
        <ele>126.476473</ele>
        <time>2024-06-02T08:21:36.000Z</time>
      </trkpt>
      <trkpt lat="36.17751" lon="-86.764713">
        <ele>126.531662</ele>
        <time>2024-06-02T08:21:37.000Z</time>
      </trkpt>
      <trkpt lat="36.177426" lon="-86.76481">
        <ele>126.587087</ele>
        <time>2024-06-02T08:21:38.000Z</time>
      </trkpt>
      <trkpt lat="36.177364" lon="-86.764893">
        <ele>126.642575</ele>
        <time>2024-06-02T08:21:39.000Z</time>
      </trkpt>
      <trkpt lat="36.177282" lon="-86.765">
        <ele>126.698243</ele>
        <time>2024-06-02T08:21:40.000Z</time>
      </trkpt>
      <trkpt lat="36.177209" lon="-86.765073">
        <ele>126.753781</ele>
        <time>2024-06-02T08:21:41.000Z</time>
      </trkpt>
      <trkpt lat="36.177142" lon="-86.765174">
        <ele>126.809701</ele>
        <time>2024-06-02T08:21:42.000Z</time>
      </trkpt>
      <trkpt lat="36.177058" lon="-86.765249">
        <ele>126.870279</ele>
        <time>2024-06-02T08:21:43.000Z</time>
      </trkpt>
      <trkpt lat="36.176983" lon="-86.765333">
        <ele>126.967895</ele>
        <time>2024-06-02T08:21:44.000Z</time>
      </trkpt>
      <trkpt lat="36.176903" lon="-86.765421">
        <ele>127.065498</ele>
        <time>2024-06-02T08:21:45.000Z</time>
      </trkpt>
      <trkpt lat="36.176841" lon="-86.765517">
        <ele>127.162221</ele>
        <time>2024-06-02T08:21:46.000Z</time>
      </trkpt>
      <trkpt lat="36.176757" lon="-86.765604">
        <ele>127.258621</ele>
        <time>2024-06-02T08:21:47.000Z</time>
      </trkpt>
      <trkpt lat="36.176685" lon="-86.765688">
        <ele>127.355549</ele>
        <time>2024-06-02T08:21:48.000Z</time>
      </trkpt>
      <trkpt lat="36.17661" lon="-86.76578">
        <ele>127.451946</ele>
        <time>2024-06-02T08:21:49.000Z</time>
      </trkpt>
      <trkpt lat="36.176551" lon="-86.765851">
        <ele>127.548493</ele>
        <time>2024-06-02T08:21:50.000Z</time>
      </trkpt>
      <trkpt lat="36.176466" lon="-86.765954">
        <ele>127.64408</ele>
        <time>2024-06-02T08:21:51.000Z</time>
      </trkpt>
      <trkpt lat="36.176394" lon="-86.766035">
        <ele>127.740348</ele>
        <time>2024-06-02T08:21:52.000Z</time>
      </trkpt>
      <trkpt lat="36.176338" lon="-86.766114">
        <ele>127.836588</ele>
        <time>2024-06-02T08:21:53.000Z</time>
      </trkpt>
      <trkpt lat="36.176262" lon="-86.766214">
        <ele>127.933147</ele>
        <time>2024-06-02T08:21:54.000Z</time>
      </trkpt>
      <trkpt lat="36.176187" lon="-86.766288">
        <ele>128.029158</ele>
        <time>2024-06-02T08:21:55.000Z</time>
      </trkpt>
      <trkpt lat="36.176121" lon="-86.766377">
        <ele>128.12448</ele>
        <time>2024-06-02T08:21:56.000Z</time>
      </trkpt>
      <trkpt lat="36.176046" lon="-86.766466">
        <ele>128.220343</ele>
        <time>2024-06-02T08:21:57.000Z</time>
      </trkpt>
      <trkpt lat="36.175968" lon="-86.766553">
        <ele>128.314441</ele>
        <time>2024-06-02T08:21:58.000Z</time>
      </trkpt>
      <trkpt lat="36.175904" lon="-86.76664">
        <ele>128.409073</ele>
        <time>2024-06-02T08:21:59.000Z</time>
      </trkpt>
      <trkpt lat="36.175837" lon="-86.766726">
        <ele>128.504934</ele>
        <time>2024-06-02T08:22:00.000Z</time>
      </trkpt>
      <trkpt lat="36.175765" lon="-86.766802">
        <ele>128.606857</ele>
        <time>2024-06-02T08:22:01.000Z</time>
      </trkpt>
      <trkpt lat="36.175692" lon="-86.766895">
        <ele>128.735682</ele>
        <time>2024-06-02T08:22:02.000Z</time>
      </trkpt>
      <trkpt lat="36.175618" lon="-86.76698">
        <ele>128.862298</ele>
        <time>2024-06-02T08:22:03.000Z</time>
      </trkpt>
      <trkpt lat="36.175551" lon="-86.767056">
        <ele>128.987934</ele>
        <time>2024-06-02T08:22:04.000Z</time>
      </trkpt>
      <trkpt lat="36.175469" lon="-86.767141">
        <ele>129.115103</ele>
        <time>2024-06-02T08:22:05.000Z</time>
      </trkpt>
      <trkpt lat="36.175394" lon="-86.767215">
        <ele>129.240629</ele>
        <time>2024-06-02T08:22:06.000Z</time>
      </trkpt>
      <trkpt lat="36.17532" lon="-86.767285">
        <ele>129.366501</ele>
        <time>2024-06-02T08:22:07.000Z</time>
      </trkpt>
      <trkpt lat="36.175239" lon="-86.767366">
        <ele>129.491537</ele>
        <time>2024-06-02T08:22:08.000Z</time>
      </trkpt>
      <trkpt lat="36.17516" lon="-86.767429">
        <ele>129.617934</ele>
        <time>2024-06-02T08:22:09.000Z</time>
      </trkpt>
      <trkpt lat="36.175074" lon="-86.767492">
        <ele>129.745908</ele>
        <time>2024-06-02T08:22:10.000Z</time>
      </trkpt>
      <trkpt lat="36.174989" lon="-86.767557">
        <ele>129.873306</ele>
        <time>2024-06-02T08:22:11.000Z</time>
      </trkpt>
      <trkpt lat="36.17491" lon="-86.767629">
        <ele>130.001268</ele>
        <time>2024-06-02T08:22:12.000Z</time>
      </trkpt>
      <trkpt lat="36.174818" lon="-86.767676">
        <ele>130.127429</ele>
        <time>2024-06-02T08:22:13.000Z</time>
      </trkpt>
      <trkpt lat="36.174726" lon="-86.767718">
        <ele>130.250947</ele>
        <time>2024-06-02T08:22:14.000Z</time>
      </trkpt>
      <trkpt lat="36.174626" lon="-86.767734">
        <ele>130.375789</ele>
        <time>2024-06-02T08:22:15.000Z</time>
      </trkpt>
      <trkpt lat="36.174538" lon="-86.767751">
        <ele>130.503006</ele>
        <time>2024-06-02T08:22:16.000Z</time>
      </trkpt>
      <trkpt lat="36.174446" lon="-86.767745">
        <ele>130.629603</ele>
        <time>2024-06-02T08:22:17.000Z</time>
      </trkpt>
      <trkpt lat="36.174351" lon="-86.767738">
        <ele>130.753722</ele>
        <time>2024-06-02T08:22:18.000Z</time>
      </trkpt>
      <trkpt lat="36.174248" lon="-86.767721">
        <ele>130.875312</ele>
        <time>2024-06-02T08:22:19.000Z</time>
      </trkpt>
      <trkpt lat="36.174152" lon="-86.767697">
        <ele>131.073137</ele>
        <time>2024-06-02T08:22:20.000Z</time>
      </trkpt>
      <trkpt lat="36.174086" lon="-86.767656">
        <ele>131.290635</ele>
        <time>2024-06-02T08:22:21.000Z</time>
      </trkpt>
      <trkpt lat="36.173994" lon="-86.7676">
        <ele>131.500724</ele>
        <time>2024-06-02T08:22:22.000Z</time>
      </trkpt>
      <trkpt lat="36.173938" lon="-86.767544">
        <ele>131.70917</ele>
        <time>2024-06-02T08:22:23.000Z</time>
      </trkpt>
      <trkpt lat="36.173861" lon="-86.767462">
        <ele>131.917945</ele>
        <time>2024-06-02T08:22:24.000Z</time>
      </trkpt>
      <trkpt lat="36.173803" lon="-86.767396">
        <ele>132.122388</ele>
        <time>2024-06-02T08:22:25.000Z</time>
      </trkpt>
      <trkpt lat="36.17376" lon="-86.767301">
        <ele>132.329786</ele>
        <time>2024-06-02T08:22:26.000Z</time>
      </trkpt>
      <trkpt lat="36.173716" lon="-86.767224">
        <ele>132.533668</ele>
        <time>2024-06-02T08:22:27.000Z</time>
      </trkpt>
      <trkpt lat="36.173674" lon="-86.767124">
        <ele>132.735742</ele>
        <time>2024-06-02T08:22:28.000Z</time>
      </trkpt>
      <trkpt lat="36.173648" lon="-86.767033">
        <ele>132.935917</ele>
        <time>2024-06-02T08:22:29.000Z</time>
      </trkpt>
      <trkpt lat="36.17361" lon="-86.766932">
        <ele>133.132836</ele>
        <time>2024-06-02T08:22:30.000Z</time>
      </trkpt>
      <trkpt lat="36.173588" lon="-86.76683">
        <ele>133.332706</ele>
        <time>2024-06-02T08:22:31.000Z</time>
      </trkpt>
      <trkpt lat="36.17357" lon="-86.76673">
        <ele>133.528138</ele>
        <time>2024-06-02T08:22:32.000Z</time>
      </trkpt>
      <trkpt lat="36.173536" lon="-86.766639">
        <ele>133.723586</ele>
        <time>2024-06-02T08:22:33.000Z</time>
      </trkpt>
      <trkpt lat="36.173513" lon="-86.766542">
        <ele>133.918319</ele>
        <time>2024-06-02T08:22:34.000Z</time>
      </trkpt>
      <trkpt lat="36.173504" lon="-86.766444">
        <ele>134.11375</ele>
        <time>2024-06-02T08:22:35.000Z</time>
      </trkpt>
      <trkpt lat="36.17347" lon="-86.766362">
        <ele>134.308493</ele>
        <time>2024-06-02T08:22:36.000Z</time>
      </trkpt>
      <trkpt lat="36.173455" lon="-86.766258">
        <ele>134.500038</ele>
        <time>2024-06-02T08:22:37.000Z</time>
      </trkpt>
      <trkpt lat="36.173437" lon="-86.766172">
        <ele>134.693448</ele>
        <time>2024-06-02T08:22:38.000Z</time>
      </trkpt>
      <trkpt lat="36.173402" lon="-86.766062">
        <ele>134.883782</ele>
        <time>2024-06-02T08:22:39.000Z</time>
      </trkpt>
      <trkpt lat="36.173384" lon="-86.765977">
        <ele>135.073328</ele>
        <time>2024-06-02T08:22:40.000Z</time>
      </trkpt>
      <trkpt lat="36.173349" lon="-86.765889">
        <ele>135.24503</ele>
        <time>2024-06-02T08:22:41.000Z</time>
      </trkpt>
      <trkpt lat="36.173307" lon="-86.765814">
        <ele>135.315201</ele>
        <time>2024-06-02T08:22:42.000Z</time>
      </trkpt>
      <trkpt lat="36.173263" lon="-86.765735">
        <ele>135.384106</ele>
        <time>2024-06-02T08:22:43.000Z</time>
      </trkpt>
      <trkpt lat="36.173214" lon="-86.765693">
        <ele>135.451666</ele>
        <time>2024-06-02T08:22:44.000Z</time>
      </trkpt>
      <trkpt lat="36.173156" lon="-86.765641">
        <ele>135.518587</ele>
        <time>2024-06-02T08:22:45.000Z</time>
      </trkpt>
      <trkpt lat="36.173096" lon="-86.765585">
        <ele>135.58532</ele>
        <time>2024-06-02T08:22:46.000Z</time>
      </trkpt>
      <trkpt lat="36.173035" lon="-86.765544">
        <ele>135.65243</ele>
        <time>2024-06-02T08:22:47.000Z</time>
      </trkpt>
      <trkpt lat="36.172974" lon="-86.765496">
        <ele>135.719989</ele>
        <time>2024-06-02T08:22:48.000Z</time>
      </trkpt>
      <trkpt lat="36.172908" lon="-86.765449">
        <ele>135.789183</ele>
        <time>2024-06-02T08:22:49.000Z</time>
      </trkpt>
      <trkpt lat="36.172882" lon="-86.76536">
        <ele>135.871346</ele>
        <time>2024-06-02T08:22:50.000Z</time>
      </trkpt>
      <trkpt lat="36.172754" lon="-86.76527">
        <ele>136.006062</ele>
        <time>2024-06-02T08:22:52.000Z</time>
      </trkpt>
      <trkpt lat="36.172521" lon="-86.765146">
        <ele>136.247849</ele>
        <time>2024-06-02T08:22:55.000Z</time>
      </trkpt>
      <trkpt lat="36.17235" lon="-86.765038">
        <ele>136.429817</ele>
        <time>2024-06-02T08:22:57.000Z</time>
      </trkpt>
      <trkpt lat="36.172248" lon="-86.764992">
        <ele>136.526059</ele>
        <time>2024-06-02T08:22:58.000Z</time>
      </trkpt>
      <trkpt lat="36.171906" lon="-86.76478">
        <ele>136.888843</ele>
        <time>2024-06-02T08:23:02.000Z</time>
      </trkpt>
      <trkpt lat="36.171849" lon="-86.764755">
        <ele>136.929536</ele>
        <time>2024-06-02T08:23:03.000Z</time>
      </trkpt>
      <trkpt lat="36.171835" lon="-86.764888">
        <ele>136.795271</ele>
        <time>2024-06-02T08:23:04.000Z</time>
      </trkpt>
      <trkpt lat="36.171721" lon="-86.765197">
        <ele>136.439672</ele>
        <time>2024-06-02T08:23:07.000Z</time>
      </trkpt>
      <trkpt lat="36.17146" lon="-86.765842">
        <ele>135.710394</ele>
        <time>2024-06-02T08:23:13.000Z</time>
      </trkpt>
      <trkpt lat="36.171383" lon="-86.766033">
        <ele>135.495086</ele>
        <time>2024-06-02T08:23:15.000Z</time>
      </trkpt>
      <trkpt lat="36.171183" lon="-86.766649">
        <ele>134.823392</ele>
        <time>2024-06-02T08:23:21.000Z</time>
      </trkpt>
      <trkpt lat="36.170724" lon="-86.767912">
        <ele>133.10283</ele>
        <time>2024-06-02T08:23:33.000Z</time>
      </trkpt>
      <trkpt lat="36.170579" lon="-86.768228">
        <ele>132.646825</ele>
        <time>2024-06-02T08:23:36.000Z</time>
      </trkpt>
      <trkpt lat="36.17048" lon="-86.768402">
        <ele>132.402057</ele>
        <time>2024-06-02T08:23:38.000Z</time>
      </trkpt>
      <trkpt lat="36.170391" lon="-86.768431">
        <ele>132.255539</ele>
        <time>2024-06-02T08:23:39.000Z</time>
      </trkpt>
      <trkpt lat="36.170356" lon="-86.768485">
        <ele>132.161377</ele>
        <time>2024-06-02T08:23:40.000Z</time>
      </trkpt>
      <trkpt lat="36.170085" lon="-86.769266">
        <ele>131.33116</ele>
        <time>2024-06-02T08:23:48.000Z</time>
      </trkpt>
      <trkpt lat="36.169979" lon="-86.769619">
        <ele>131.007456</ele>
        <time>2024-06-02T08:23:51.000Z</time>
      </trkpt>
      <trkpt lat="36.169738" lon="-86.770378">
        <ele>130.297236</ele>
        <time>2024-06-02T08:23:58.000Z</time>
      </trkpt>
      <trkpt lat="36.169518" lon="-86.770951">
        <ele>129.751122</ele>
        <time>2024-06-02T08:24:04.000Z</time>
      </trkpt>
      <trkpt lat="36.168739" lon="-86.770503">
        <ele>128.836003</ele>
        <time>2024-06-02T08:24:14.000Z</time>
      </trkpt>
      <trkpt lat="36.168522" lon="-86.770364">
        <ele>128.561646</ele>
        <time>2024-06-02T08:24:17.000Z</time>
      </trkpt>
      <trkpt lat="36.168458" lon="-86.770314">
        <ele>128.489253</ele>
        <time>2024-06-02T08:24:18.000Z</time>
      </trkpt>
      <trkpt lat="36.16841" lon="-86.770411">
        <ele>128.3966</ele>
        <time>2024-06-02T08:24:19.000Z</time>
      </trkpt>
      <trkpt lat="36.168352" lon="-86.770637">
        <ele>128.199087</ele>
        <time>2024-06-02T08:24:21.000Z</time>
      </trkpt>
      <trkpt lat="36.168263" lon="-86.770584">
        <ele>128.095883</ele>
        <time>2024-06-02T08:24:22.000Z</time>
      </trkpt>
      <trkpt lat="36.167473" lon="-86.770104">
        <ele>127.648489</ele>
        <time>2024-06-02T08:24:32.000Z</time>
      </trkpt>
      <trkpt lat="36.16633" lon="-86.769466">
        <ele>127.187927</ele>
        <time>2024-06-02T08:24:46.000Z</time>
      </trkpt>
      <trkpt lat="36.166241" lon="-86.769389">
        <ele>127.187367</ele>
        <time>2024-06-02T08:24:47.000Z</time>
      </trkpt>
      <trkpt lat="36.165873" lon="-86.769099">
        <ele>127.185319</ele>
        <time>2024-06-02T08:24:52.000Z</time>
      </trkpt>
      <trkpt lat="36.165788" lon="-86.768992">
        <ele>127.184773</ele>
        <time>2024-06-02T08:24:53.000Z</time>
      </trkpt>
      <trkpt lat="36.165868" lon="-86.769091">
        <ele>127.184215</ele>
        <time>2024-06-02T08:24:54.000Z</time>
      </trkpt>
      <trkpt lat="36.166227" lon="-86.76939">
        <ele>127.182181</ele>
        <time>2024-06-02T08:24:59.000Z</time>
      </trkpt>
      <trkpt lat="36.166338" lon="-86.769463">
        <ele>127.181624</ele>
        <time>2024-06-02T08:25:00.000Z</time>
      </trkpt>
      <trkpt lat="36.167469" lon="-86.770113">
        <ele>127.642718</ele>
        <time>2024-06-02T08:25:14.000Z</time>
      </trkpt>
      <trkpt lat="36.168258" lon="-86.770573">
        <ele>128.105873</ele>
        <time>2024-06-02T08:25:24.000Z</time>
      </trkpt>
      <trkpt lat="36.168355" lon="-86.770632">
        <ele>128.208063</ele>
        <time>2024-06-02T08:25:25.000Z</time>
      </trkpt>
      <trkpt lat="36.168409" lon="-86.770422">
        <ele>128.403678</ele>
        <time>2024-06-02T08:25:27.000Z</time>
      </trkpt>
      <trkpt lat="36.168451" lon="-86.770316">
        <ele>128.495427</ele>
        <time>2024-06-02T08:25:28.000Z</time>
      </trkpt>
      <trkpt lat="36.168505" lon="-86.770354">
        <ele>128.56713</ele>
        <time>2024-06-02T08:25:29.000Z</time>
      </trkpt>
      <trkpt lat="36.168743" lon="-86.770501">
        <ele>128.838808</ele>
        <time>2024-06-02T08:25:32.000Z</time>
      </trkpt>
      <trkpt lat="36.169526" lon="-86.770955">
        <ele>129.745066</ele>
        <time>2024-06-02T08:25:42.000Z</time>
      </trkpt>
      <trkpt lat="36.169723" lon="-86.770377">
        <ele>130.278368</ele>
        <time>2024-06-02T08:25:48.000Z</time>
      </trkpt>
      <trkpt lat="36.169924" lon="-86.769801">
        <ele>130.812571</ele>
        <time>2024-06-02T08:25:54.000Z</time>
      </trkpt>
      <trkpt lat="36.169992" lon="-86.769621">
        <ele>130.968426</ele>
        <time>2024-06-02T08:25:56.000Z</time>
      </trkpt>
      <trkpt lat="36.170088" lon="-86.769269">
        <ele>131.282938</ele>
        <time>2024-06-02T08:25:59.000Z</time>
      </trkpt>
      <trkpt lat="36.170364" lon="-86.768495">
        <ele>132.122342</ele>
        <time>2024-06-02T08:26:07.000Z</time>
      </trkpt>
      <trkpt lat="36.170397" lon="-86.768429">
        <ele>132.215313</ele>
        <time>2024-06-02T08:26:08.000Z</time>
      </trkpt>
      <trkpt lat="36.170376" lon="-86.768344">
        <ele>132.320341</ele>
        <time>2024-06-02T08:26:09.000Z</time>
      </trkpt>
      <trkpt lat="36.170926" lon="-86.766983">
        <ele>134.215791</ele>
        <time>2024-06-02T08:26:23.000Z</time>
      </trkpt>
      <trkpt lat="36.171038" lon="-86.766702">
        <ele>134.576878</ele>
        <time>2024-06-02T08:26:26.000Z</time>
      </trkpt>
      <trkpt lat="36.171083" lon="-86.766586">
        <ele>134.735546</ele>
        <time>2024-06-02T08:26:27.000Z</time>
      </trkpt>
      <trkpt lat="36.171164" lon="-86.766377">
        <ele>134.983292</ele>
        <time>2024-06-02T08:26:29.000Z</time>
      </trkpt>
      <trkpt lat="36.171377" lon="-86.765881">
        <ele>135.631237</ele>
        <time>2024-06-02T08:26:34.000Z</time>
      </trkpt>
      <trkpt lat="36.171394" lon="-86.765807">
        <ele>135.715285</ele>
        <time>2024-06-02T08:26:35.000Z</time>
      </trkpt>
      <trkpt lat="36.171573" lon="-86.765412">
        <ele>136.222938</ele>
        <time>2024-06-02T08:26:39.000Z</time>
      </trkpt>
      <trkpt lat="36.171669" lon="-86.765157">
        <ele>136.529531</ele>
        <time>2024-06-02T08:26:42.000Z</time>
      </trkpt>
      <trkpt lat="36.171773" lon="-86.764851">
        <ele>136.915891</ele>
        <time>2024-06-02T08:26:45.000Z</time>
      </trkpt>
      <trkpt lat="36.171855" lon="-86.764748">
        <ele>137.017693</ele>
        <time>2024-06-02T08:26:46.000Z</time>
      </trkpt>
      <trkpt lat="36.171905" lon="-86.764786">
        <ele>136.985326</ele>
        <time>2024-06-02T08:26:47.000Z</time>
      </trkpt>
      <trkpt lat="36.172253" lon="-86.764991">
        <ele>136.770076</ele>
        <time>2024-06-02T08:26:51.000Z</time>
      </trkpt>
      <trkpt lat="36.172349" lon="-86.765035">
        <ele>136.71299</ele>
        <time>2024-06-02T08:26:52.000Z</time>
      </trkpt>
      <trkpt lat="36.172515" lon="-86.765139">
        <ele>136.605009</ele>
        <time>2024-06-02T08:26:54.000Z</time>
      </trkpt>
      <trkpt lat="36.172743" lon="-86.76527">
        <ele>136.46155</ele>
        <time>2024-06-02T08:26:57.000Z</time>
      </trkpt>
      <trkpt lat="36.172872" lon="-86.765347">
        <ele>136.381638</ele>
        <time>2024-06-02T08:26:59.000Z</time>
      </trkpt>
      <trkpt lat="36.172986" lon="-86.765356">
        <ele>136.317655</ele>
        <time>2024-06-02T08:27:00.000Z</time>
      </trkpt>
      <trkpt lat="36.173576" lon="-86.765677">
        <ele>135.719245</ele>
        <time>2024-06-02T08:27:07.000Z</time>
      </trkpt>
      <trkpt lat="36.173768" lon="-86.765741">
        <ele>135.118428</ele>
        <time>2024-06-02T08:27:09.000Z</time>
      </trkpt>
      <trkpt lat="36.173984" lon="-86.765767">
        <ele>134.505228</ele>
        <time>2024-06-02T08:27:11.000Z</time>
      </trkpt>
      <trkpt lat="36.174574" lon="-86.76573">
        <ele>132.847082</ele>
        <time>2024-06-02T08:27:18.000Z</time>
      </trkpt>
      <trkpt lat="36.175" lon="-86.765712">
        <ele>131.639642</ele>
        <time>2024-06-02T08:27:23.000Z</time>
      </trkpt>
      <trkpt lat="36.175016" lon="-86.765691">
        <ele>131.552827</ele>
        <time>2024-06-02T08:27:23.000Z</time>
      </trkpt>
      <trkpt lat="36.175124" lon="-86.765676">
        <ele>131.245285</ele>
        <time>2024-06-02T08:27:24.000Z</time>
      </trkpt>
      <trkpt lat="36.175216" lon="-86.765662">
        <ele>130.943244</ele>
        <time>2024-06-02T08:27:25.000Z</time>
      </trkpt>
      <trkpt lat="36.175323" lon="-86.765649">
        <ele>130.666874</ele>
        <time>2024-06-02T08:27:26.000Z</time>
      </trkpt>
      <trkpt lat="36.175431" lon="-86.765631">
        <ele>130.39069</ele>
        <time>2024-06-02T08:27:27.000Z</time>
      </trkpt>
      <trkpt lat="36.17553" lon="-86.76561">
        <ele>130.11531</ele>
        <time>2024-06-02T08:27:28.000Z</time>
      </trkpt>
      <trkpt lat="36.175636" lon="-86.765576">
        <ele>129.835091</ele>
        <time>2024-06-02T08:27:29.000Z</time>
      </trkpt>
      <trkpt lat="36.175734" lon="-86.765547">
        <ele>129.540351</ele>
        <time>2024-06-02T08:27:30.000Z</time>
      </trkpt>
      <trkpt lat="36.17585" lon="-86.765516">
        <ele>129.243449</ele>
        <time>2024-06-02T08:27:31.000Z</time>
      </trkpt>
      <trkpt lat="36.175949" lon="-86.765471">
        <ele>128.937671</ele>
        <time>2024-06-02T08:27:32.000Z</time>
      </trkpt>
      <trkpt lat="36.176065" lon="-86.765434">
        <ele>128.630696</ele>
        <time>2024-06-02T08:27:33.000Z</time>
      </trkpt>
      <trkpt lat="36.176173" lon="-86.765383">
        <ele>128.314439</ele>
        <time>2024-06-02T08:27:34.000Z</time>
      </trkpt>
      <trkpt lat="36.176282" lon="-86.765319">
        <ele>127.998457</ele>
        <time>2024-06-02T08:27:35.000Z</time>
      </trkpt>
      <trkpt lat="36.176389" lon="-86.765264">
        <ele>127.674859</ele>
        <time>2024-06-02T08:27:36.000Z</time>
      </trkpt>
      <trkpt lat="36.176494" lon="-86.765189">
        <ele>127.344251</ele>
        <time>2024-06-02T08:27:37.000Z</time>
      </trkpt>
      <trkpt lat="36.176607" lon="-86.765115">
        <ele>127.012447</ele>
        <time>2024-06-02T08:27:38.000Z</time>
      </trkpt>
      <trkpt lat="36.176729" lon="-86.765035">
        <ele>126.670746</ele>
        <time>2024-06-02T08:27:40.000Z</time>
      </trkpt>
      <trkpt lat="36.176825" lon="-86.764954">
        <ele>126.329283</ele>
        <time>2024-06-02T08:27:41.000Z</time>
      </trkpt>
      <trkpt lat="36.176931" lon="-86.764876">
        <ele>126.082475</ele>
        <time>2024-06-02T08:27:42.000Z</time>
      </trkpt>
      <trkpt lat="36.17705" lon="-86.764787">
        <ele>126.030807</ele>
        <time>2024-06-02T08:27:44.000Z</time>
      </trkpt>
      <trkpt lat="36.177156" lon="-86.76469">
        <ele>125.978895</ele>
        <time>2024-06-02T08:27:45.000Z</time>
      </trkpt>
      <trkpt lat="36.177244" lon="-86.764596">
        <ele>125.927849</ele>
        <time>2024-06-02T08:27:46.000Z</time>
      </trkpt>
      <trkpt lat="36.177347" lon="-86.764501">
        <ele>125.877478</ele>
        <time>2024-06-02T08:27:47.000Z</time>
      </trkpt>
      <trkpt lat="36.177446" lon="-86.764401">
        <ele>125.827601</ele>
        <time>2024-06-02T08:27:48.000Z</time>
      </trkpt>
      <trkpt lat="36.177523" lon="-86.764305">
        <ele>125.777893</ele>
        <time>2024-06-02T08:27:49.000Z</time>
      </trkpt>
      <trkpt lat="36.177628" lon="-86.764209">
        <ele>125.728521</ele>
        <time>2024-06-02T08:27:50.000Z</time>
      </trkpt>
      <trkpt lat="36.177724" lon="-86.7641">
        <ele>125.679811</ele>
        <time>2024-06-02T08:27:51.000Z</time>
      </trkpt>
      <trkpt lat="36.177806" lon="-86.764006">
        <ele>125.631065</ele>
        <time>2024-06-02T08:27:52.000Z</time>
      </trkpt>
      <trkpt lat="36.1779" lon="-86.763909">
        <ele>125.582403</ele>
        <time>2024-06-02T08:27:53.000Z</time>
      </trkpt>
      <trkpt lat="36.177977" lon="-86.763811">
        <ele>125.53351</ele>
        <time>2024-06-02T08:27:54.000Z</time>
      </trkpt>
      <trkpt lat="36.178079" lon="-86.763707">
        <ele>125.485367</ele>
        <time>2024-06-02T08:27:55.000Z</time>
      </trkpt>
      <trkpt lat="36.178162" lon="-86.763613">
        <ele>125.437573</ele>
        <time>2024-06-02T08:27:56.000Z</time>
      </trkpt>
      <trkpt lat="36.178251" lon="-86.763508">
        <ele>125.389565</ele>
        <time>2024-06-02T08:27:57.000Z</time>
      </trkpt>
      <trkpt lat="36.178351" lon="-86.76342">
        <ele>125.434286</ele>
        <time>2024-06-02T08:27:58.000Z</time>
      </trkpt>
      <trkpt lat="36.178443" lon="-86.763335">
        <ele>125.535944</ele>
        <time>2024-06-02T08:27:59.000Z</time>
      </trkpt>
      <trkpt lat="36.178532" lon="-86.763256">
        <ele>125.638082</ele>
        <time>2024-06-02T08:28:00.000Z</time>
      </trkpt>
      <trkpt lat="36.17863" lon="-86.763175">
        <ele>125.740519</ele>
        <time>2024-06-02T08:28:01.000Z</time>
      </trkpt>
      <trkpt lat="36.17873" lon="-86.7631">
        <ele>125.843263</ele>
        <time>2024-06-02T08:28:02.000Z</time>
      </trkpt>
      <trkpt lat="36.178817" lon="-86.763026">
        <ele>125.946101</ele>
        <time>2024-06-02T08:28:03.000Z</time>
      </trkpt>
      <trkpt lat="36.178924" lon="-86.762968">
        <ele>126.04933</ele>
        <time>2024-06-02T08:28:04.000Z</time>
      </trkpt>
      <trkpt lat="36.179042" lon="-86.762907">
        <ele>126.15264</ele>
        <time>2024-06-02T08:28:05.000Z</time>
      </trkpt>
      <trkpt lat="36.179145" lon="-86.762864">
        <ele>126.255404</ele>
        <time>2024-06-02T08:28:06.000Z</time>
      </trkpt>
      <trkpt lat="36.179267" lon="-86.762803">
        <ele>126.358646</ele>
        <time>2024-06-02T08:28:07.000Z</time>
      </trkpt>
      <trkpt lat="36.179375" lon="-86.762775">
        <ele>126.461659</ele>
        <time>2024-06-02T08:28:08.000Z</time>
      </trkpt>
      <trkpt lat="36.179483" lon="-86.762729">
        <ele>126.565129</ele>
        <time>2024-06-02T08:28:09.000Z</time>
      </trkpt>
      <trkpt lat="36.179593" lon="-86.762691">
        <ele>126.668412</ele>
        <time>2024-06-02T08:28:10.000Z</time>
      </trkpt>
      <trkpt lat="36.179713" lon="-86.762664">
        <ele>126.773032</ele>
        <time>2024-06-02T08:28:11.000Z</time>
      </trkpt>
      <trkpt lat="36.179823" lon="-86.762627">
        <ele>126.875985</ele>
        <time>2024-06-02T08:28:12.000Z</time>
      </trkpt>
      <trkpt lat="36.17994" lon="-86.76259">
        <ele>126.969692</ele>
        <time>2024-06-02T08:28:13.000Z</time>
      </trkpt>
      <trkpt lat="36.180057" lon="-86.762566">
        <ele>127.022818</ele>
        <time>2024-06-02T08:28:14.000Z</time>
      </trkpt>
      <trkpt lat="36.180183" lon="-86.762527">
        <ele>127.076245</ele>
        <time>2024-06-02T08:28:15.000Z</time>
      </trkpt>
      <trkpt lat="36.180288" lon="-86.762495">
        <ele>127.128357</ele>
        <time>2024-06-02T08:28:16.000Z</time>
      </trkpt>
      <trkpt lat="36.180411" lon="-86.762476">
        <ele>127.181571</ele>
        <time>2024-06-02T08:28:17.000Z</time>
      </trkpt>
      <trkpt lat="36.180521" lon="-86.762431">
        <ele>127.234368</ele>
        <time>2024-06-02T08:28:18.000Z</time>
      </trkpt>
      <trkpt lat="36.180633" lon="-86.762402">
        <ele>127.287254</ele>
        <time>2024-06-02T08:28:19.000Z</time>
      </trkpt>
      <trkpt lat="36.180738" lon="-86.762363">
        <ele>127.340226</ele>
        <time>2024-06-02T08:28:20.000Z</time>
      </trkpt>
      <trkpt lat="36.180854" lon="-86.762328">
        <ele>127.393204</ele>
        <time>2024-06-02T08:28:21.000Z</time>
      </trkpt>
      <trkpt lat="36.180966" lon="-86.762285">
        <ele>127.44592</ele>
        <time>2024-06-02T08:28:22.000Z</time>
      </trkpt>
      <trkpt lat="36.181085" lon="-86.76225">
        <ele>127.497886</ele>
        <time>2024-06-02T08:28:23.000Z</time>
      </trkpt>
      <trkpt lat="36.181198" lon="-86.762196">
        <ele>127.549633</ele>
        <time>2024-06-02T08:28:24.000Z</time>
      </trkpt>
      <trkpt lat="36.181296" lon="-86.762155">
        <ele>127.601514</ele>
        <time>2024-06-02T08:28:25.000Z</time>
      </trkpt>
      <trkpt lat="36.181401" lon="-86.762107">
        <ele>127.652962</ele>
        <time>2024-06-02T08:28:26.000Z</time>
      </trkpt>
      <trkpt lat="36.181508" lon="-86.762058">
        <ele>127.70407</ele>
        <time>2024-06-02T08:28:27.000Z</time>
      </trkpt>
      <trkpt lat="36.181624" lon="-86.762006">
        <ele>127.755034</ele>
        <time>2024-06-02T08:28:28.000Z</time>
      </trkpt>
      <trkpt lat="36.18172" lon="-86.761949">
        <ele>127.837238</ele>
        <time>2024-06-02T08:28:29.000Z</time>
      </trkpt>
      <trkpt lat="36.181818" lon="-86.761893">
        <ele>127.927692</ele>
        <time>2024-06-02T08:28:30.000Z</time>
      </trkpt>
      <trkpt lat="36.181936" lon="-86.76183">
        <ele>128.017943</ele>
        <time>2024-06-02T08:28:31.000Z</time>
      </trkpt>
      <trkpt lat="36.182039" lon="-86.761773">
        <ele>128.107708</ele>
        <time>2024-06-02T08:28:32.000Z</time>
      </trkpt>
      <trkpt lat="36.182126" lon="-86.761708">
        <ele>128.197064</ele>
        <time>2024-06-02T08:28:33.000Z</time>
      </trkpt>
      <trkpt lat="36.182227" lon="-86.761643">
        <ele>128.285295</ele>
        <time>2024-06-02T08:28:34.000Z</time>
      </trkpt>
      <trkpt lat="36.182313" lon="-86.761591">
        <ele>128.374553</ele>
        <time>2024-06-02T08:28:35.000Z</time>
      </trkpt>
      <trkpt lat="36.182414" lon="-86.761526">
        <ele>128.462776</ele>
        <time>2024-06-02T08:28:36.000Z</time>
      </trkpt>
      <trkpt lat="36.182517" lon="-86.761457">
        <ele>128.549368</ele>
        <time>2024-06-02T08:28:37.000Z</time>
      </trkpt>
      <trkpt lat="36.182612" lon="-86.761404">
        <ele>128.635677</ele>
        <time>2024-06-02T08:28:38.000Z</time>
      </trkpt>
      <trkpt lat="36.18271" lon="-86.761332">
        <ele>128.721965</ele>
        <time>2024-06-02T08:28:39.000Z</time>
      </trkpt>
      <trkpt lat="36.182791" lon="-86.761265">
        <ele>128.806738</ele>
        <time>2024-06-02T08:28:40.000Z</time>
      </trkpt>
      <trkpt lat="36.18288" lon="-86.761201">
        <ele>128.893239</ele>
        <time>2024-06-02T08:28:41.000Z</time>
      </trkpt>
      <trkpt lat="36.182973" lon="-86.761146">
        <ele>128.978333</ele>
        <time>2024-06-02T08:28:42.000Z</time>
      </trkpt>
      <trkpt lat="36.183068" lon="-86.761082">
        <ele>129.063523</ele>
        <time>2024-06-02T08:28:43.000Z</time>
      </trkpt>
      <trkpt lat="36.183171" lon="-86.761014">
        <ele>129.147274</ele>
        <time>2024-06-02T08:28:44.000Z</time>
      </trkpt>
      <trkpt lat="36.183256" lon="-86.760955">
        <ele>129.239211</ele>
        <time>2024-06-02T08:28:45.000Z</time>
      </trkpt>
      <trkpt lat="36.183353" lon="-86.760888">
        <ele>129.364958</ele>
        <time>2024-06-02T08:28:46.000Z</time>
      </trkpt>
      <trkpt lat="36.183451" lon="-86.760821">
        <ele>129.488919</ele>
        <time>2024-06-02T08:28:47.000Z</time>
      </trkpt>
      <trkpt lat="36.183533" lon="-86.760772">
        <ele>129.61436</ele>
        <time>2024-06-02T08:28:48.000Z</time>
      </trkpt>
      <trkpt lat="36.183634" lon="-86.760709">
        <ele>129.740393</ele>
        <time>2024-06-02T08:28:49.000Z</time>
      </trkpt>
      <trkpt lat="36.183737" lon="-86.760655">
        <ele>129.864349</ele>
        <time>2024-06-02T08:28:50.000Z</time>
      </trkpt>
      <trkpt lat="36.183834" lon="-86.760592">
        <ele>129.988331</ele>
        <time>2024-06-02T08:28:51.000Z</time>
      </trkpt>
      <trkpt lat="36.183931" lon="-86.760533">
        <ele>130.113326</ele>
        <time>2024-06-02T08:28:52.000Z</time>
      </trkpt>
      <trkpt lat="36.184021" lon="-86.760464">
        <ele>130.236263</ele>
        <time>2024-06-02T08:28:53.000Z</time>
      </trkpt>
      <trkpt lat="36.184115" lon="-86.760398">
        <ele>130.359642</ele>
        <time>2024-06-02T08:28:54.000Z</time>
      </trkpt>
      <trkpt lat="36.184208" lon="-86.760351">
        <ele>130.482762</ele>
        <time>2024-06-02T08:28:55.000Z</time>
      </trkpt>
      <trkpt lat="36.184309" lon="-86.760291">
        <ele>130.603819</ele>
        <time>2024-06-02T08:28:56.000Z</time>
      </trkpt>
      <trkpt lat="36.184394" lon="-86.760224">
        <ele>130.724476</ele>
        <time>2024-06-02T08:28:57.000Z</time>
      </trkpt>
      <trkpt lat="36.184471" lon="-86.76015">
        <ele>130.844215</ele>
        <time>2024-06-02T08:28:58.000Z</time>
      </trkpt>
      <trkpt lat="36.184569" lon="-86.760077">
        <ele>130.967354</ele>
        <time>2024-06-02T08:28:59.000Z</time>
      </trkpt>
      <trkpt lat="36.184645" lon="-86.760006">
        <ele>131.088513</ele>
        <time>2024-06-02T08:29:00.000Z</time>
      </trkpt>
      <trkpt lat="36.184748" lon="-86.759934">
        <ele>131.210662</ele>
        <time>2024-06-02T08:29:01.000Z</time>
      </trkpt>
      <trkpt lat="36.184832" lon="-86.759851">
        <ele>131.308933</ele>
        <time>2024-06-02T08:29:02.000Z</time>
      </trkpt>
      <trkpt lat="36.184928" lon="-86.759789">
        <ele>131.339675</ele>
        <time>2024-06-02T08:29:03.000Z</time>
      </trkpt>
      <trkpt lat="36.184997" lon="-86.759703">
        <ele>131.37011</ele>
        <time>2024-06-02T08:29:04.000Z</time>
      </trkpt>
      <trkpt lat="36.185086" lon="-86.759635">
        <ele>131.400485</ele>
        <time>2024-06-02T08:29:05.000Z</time>
      </trkpt>
      <trkpt lat="36.185169" lon="-86.759556">
        <ele>131.430589</ele>
        <time>2024-06-02T08:29:06.000Z</time>
      </trkpt>
      <trkpt lat="36.185256" lon="-86.759466">
        <ele>131.460736</ele>
        <time>2024-06-02T08:29:07.000Z</time>
      </trkpt>
      <trkpt lat="36.185329" lon="-86.759392">
        <ele>131.491101</ele>
        <time>2024-06-02T08:29:08.000Z</time>
      </trkpt>
      <trkpt lat="36.185419" lon="-86.759304">
        <ele>131.521385</ele>
        <time>2024-06-02T08:29:09.000Z</time>
      </trkpt>
      <trkpt lat="36.185506" lon="-86.759218">
        <ele>131.551704</ele>
        <time>2024-06-02T08:29:10.000Z</time>
      </trkpt>
      <trkpt lat="36.185577" lon="-86.759117">
        <ele>131.582375</ele>
        <time>2024-06-02T08:29:11.000Z</time>
      </trkpt>
      <trkpt lat="36.185642" lon="-86.759033">
        <ele>131.612958</ele>
        <time>2024-06-02T08:29:12.000Z</time>
      </trkpt>
      <trkpt lat="36.185723" lon="-86.758935">
        <ele>131.643074</ele>
        <time>2024-06-02T08:29:13.000Z</time>
      </trkpt>
      <trkpt lat="36.18579" lon="-86.758838">
        <ele>131.673157</ele>
        <time>2024-06-02T08:29:14.000Z</time>
      </trkpt>
      <trkpt lat="36.185862" lon="-86.75874">
        <ele>131.703419</ele>
        <time>2024-06-02T08:29:15.000Z</time>
      </trkpt>
      <trkpt lat="36.185915" lon="-86.758628">
        <ele>131.732604</ele>
        <time>2024-06-02T08:29:16.000Z</time>
      </trkpt>
      <trkpt lat="36.185976" lon="-86.75852">
        <ele>131.762514</ele>
        <time>2024-06-02T08:29:17.000Z</time>
      </trkpt>
      <trkpt lat="36.186038" lon="-86.758424">
        <ele>131.792238</ele>
        <time>2024-06-02T08:29:18.000Z</time>
      </trkpt>
      <trkpt lat="36.186115" lon="-86.758319">
        <ele>131.822075</ele>
        <time>2024-06-02T08:29:19.000Z</time>
      </trkpt>
      <trkpt lat="36.186178" lon="-86.758215">
        <ele>131.851172</ele>
        <time>2024-06-02T08:29:20.000Z</time>
      </trkpt>
      <trkpt lat="36.186239" lon="-86.75812">
        <ele>131.879979</ele>
        <time>2024-06-02T08:29:21.000Z</time>
      </trkpt>
      <trkpt lat="36.186297" lon="-86.758014">
        <ele>131.909305</ele>
        <time>2024-06-02T08:29:22.000Z</time>
      </trkpt>
      <trkpt lat="36.186354" lon="-86.757904">
        <ele>131.938337</ele>
        <time>2024-06-02T08:29:23.000Z</time>
      </trkpt>
      <trkpt lat="36.186408" lon="-86.757796">
        <ele>131.967323</ele>
        <time>2024-06-02T08:29:24.000Z</time>
      </trkpt>
      <trkpt lat="36.186482" lon="-86.757691">
        <ele>131.996599</ele>
        <time>2024-06-02T08:29:25.000Z</time>
      </trkpt>
      <trkpt lat="36.186553" lon="-86.757592">
        <ele>132.025715</ele>
        <time>2024-06-02T08:29:26.000Z</time>
      </trkpt>
      <trkpt lat="36.186605" lon="-86.757491">
        <ele>132.054838</ele>
        <time>2024-06-02T08:29:27.000Z</time>
      </trkpt>
      <trkpt lat="36.186666" lon="-86.75737">
        <ele>132.084277</ele>
        <time>2024-06-02T08:29:28.000Z</time>
      </trkpt>
      <trkpt lat="36.186742" lon="-86.757281">
        <ele>132.113904</ele>
        <time>2024-06-02T08:29:29.000Z</time>
      </trkpt>
      <trkpt lat="36.186804" lon="-86.757174">
        <ele>132.143194</ele>
        <time>2024-06-02T08:29:30.000Z</time>
      </trkpt>
      <trkpt lat="36.18686" lon="-86.757062">
        <ele>132.171788</ele>
        <time>2024-06-02T08:29:31.000Z</time>
      </trkpt>
      <trkpt lat="36.186932" lon="-86.756969">
        <ele>132.200413</ele>
        <time>2024-06-02T08:29:32.000Z</time>
      </trkpt>
      <trkpt lat="36.186993" lon="-86.756858">
        <ele>132.229198</ele>
        <time>2024-06-02T08:29:33.000Z</time>
      </trkpt>
      <trkpt lat="36.187054" lon="-86.756744">
        <ele>132.257629</ele>
        <time>2024-06-02T08:29:34.000Z</time>
      </trkpt>
      <trkpt lat="36.187122" lon="-86.756657">
        <ele>132.286047</ele>
        <time>2024-06-02T08:29:35.000Z</time>
      </trkpt>
      <trkpt lat="36.187179" lon="-86.756557">
        <ele>132.322185</ele>
        <time>2024-06-02T08:29:36.000Z</time>
      </trkpt>
      <trkpt lat="36.187232" lon="-86.756451">
        <ele>132.474812</ele>
        <time>2024-06-02T08:29:37.000Z</time>
      </trkpt>
      <trkpt lat="36.187302" lon="-86.756367">
        <ele>132.621773</ele>
        <time>2024-06-02T08:29:38.000Z</time>
      </trkpt>
      <trkpt lat="36.187346" lon="-86.756256">
        <ele>132.771753</ele>
        <time>2024-06-02T08:29:39.000Z</time>
      </trkpt>
      <trkpt lat="36.187413" lon="-86.75616">
        <ele>132.917958</ele>
        <time>2024-06-02T08:29:40.000Z</time>
      </trkpt>
      <trkpt lat="36.18745" lon="-86.756073">
        <ele>133.062002</ele>
        <time>2024-06-02T08:29:41.000Z</time>
      </trkpt>
      <trkpt lat="36.187508" lon="-86.75599">
        <ele>133.20405</ele>
        <time>2024-06-02T08:29:42.000Z</time>
      </trkpt>
      <trkpt lat="36.187559" lon="-86.755894">
        <ele>133.344199</ele>
        <time>2024-06-02T08:29:43.000Z</time>
      </trkpt>
      <trkpt lat="36.187631" lon="-86.755799">
        <ele>133.483273</ele>
        <time>2024-06-02T08:29:44.000Z</time>
      </trkpt>
      <trkpt lat="36.187681" lon="-86.755712">
        <ele>133.619435</ele>
        <time>2024-06-02T08:29:45.000Z</time>
      </trkpt>
      <trkpt lat="36.187727" lon="-86.755621">
        <ele>133.752852</ele>
        <time>2024-06-02T08:29:46.000Z</time>
      </trkpt>
      <trkpt lat="36.187781" lon="-86.75555">
        <ele>133.884261</ele>
        <time>2024-06-02T08:29:47.000Z</time>
      </trkpt>
      <trkpt lat="36.18782" lon="-86.755466">
        <ele>134.012764</ele>
        <time>2024-06-02T08:29:48.000Z</time>
      </trkpt>
      <trkpt lat="36.187881" lon="-86.755371">
        <ele>134.13925</ele>
        <time>2024-06-02T08:29:49.000Z</time>
      </trkpt>
      <trkpt lat="36.187922" lon="-86.755303">
        <ele>134.26475</ele>
        <time>2024-06-02T08:29:50.000Z</time>
      </trkpt>
      <trkpt lat="36.187991" lon="-86.755229">
        <ele>134.390276</ele>
        <time>2024-06-02T08:29:51.000Z</time>
      </trkpt>
      <trkpt lat="36.188043" lon="-86.755148">
        <ele>134.513889</ele>
        <time>2024-06-02T08:29:52.000Z</time>
      </trkpt>
      <trkpt lat="36.188095" lon="-86.755064">
        <ele>134.638583</ele>
        <time>2024-06-02T08:29:53.000Z</time>
      </trkpt>
      <trkpt lat="36.188149" lon="-86.755">
        <ele>134.761346</ele>
        <time>2024-06-02T08:29:54.000Z</time>
      </trkpt>
      <trkpt lat="36.188194" lon="-86.754931">
        <ele>134.88524</ele>
        <time>2024-06-02T08:29:55.000Z</time>
      </trkpt>
      <trkpt lat="36.188255" lon="-86.754845">
        <ele>135.008416</ele>
        <time>2024-06-02T08:29:56.000Z</time>
      </trkpt>
      <trkpt lat="36.188305" lon="-86.754778">
        <ele>135.111747</ele>
        <time>2024-06-02T08:29:57.000Z</time>
      </trkpt>
      <trkpt lat="36.188375" lon="-86.754713">
        <ele>135.190184</ele>
        <time>2024-06-02T08:29:58.000Z</time>
      </trkpt>
      <trkpt lat="36.18842" lon="-86.754642">
        <ele>135.269342</ele>
        <time>2024-06-02T08:29:59.000Z</time>
      </trkpt>
      <trkpt lat="36.188477" lon="-86.754586">
        <ele>135.346697</ele>
        <time>2024-06-02T08:30:00.000Z</time>
      </trkpt>
      <trkpt lat="36.188549" lon="-86.754513">
        <ele>135.428772</ele>
        <time>2024-06-02T08:30:01.000Z</time>
      </trkpt>
      <trkpt lat="36.188592" lon="-86.754454">
        <ele>135.503762</ele>
        <time>2024-06-02T08:30:02.000Z</time>
      </trkpt>
      <trkpt lat="36.188657" lon="-86.754393">
        <ele>135.583005</ele>
        <time>2024-06-02T08:30:03.000Z</time>
      </trkpt>
      <trkpt lat="36.188717" lon="-86.754316">
        <ele>135.661985</ele>
        <time>2024-06-02T08:30:04.000Z</time>
      </trkpt>
      <trkpt lat="36.188782" lon="-86.75426">
        <ele>135.741256</ele>
        <time>2024-06-02T08:30:05.000Z</time>
      </trkpt>
      <trkpt lat="36.188842" lon="-86.754197">
        <ele>135.8213</ele>
        <time>2024-06-02T08:30:06.000Z</time>
      </trkpt>
      <trkpt lat="36.188917" lon="-86.754133">
        <ele>135.902147</ele>
        <time>2024-06-02T08:30:07.000Z</time>
      </trkpt>
      <trkpt lat="36.188982" lon="-86.754087">
        <ele>135.984093</ele>
        <time>2024-06-02T08:30:08.000Z</time>
      </trkpt>
      <trkpt lat="36.189053" lon="-86.754027">
        <ele>136.06513</ele>
        <time>2024-06-02T08:30:09.000Z</time>
      </trkpt>
      <trkpt lat="36.189111" lon="-86.753976">
        <ele>136.146465</ele>
        <time>2024-06-02T08:30:10.000Z</time>
      </trkpt>
      <trkpt lat="36.18919" lon="-86.753913">
        <ele>136.228238</ele>
        <time>2024-06-02T08:30:11.000Z</time>
      </trkpt>
      <trkpt lat="36.189258" lon="-86.75385">
        <ele>136.310437</ele>
        <time>2024-06-02T08:30:12.000Z</time>
      </trkpt>
      <trkpt lat="36.189321" lon="-86.753791">
        <ele>136.393452</ele>
        <time>2024-06-02T08:30:13.000Z</time>
      </trkpt>
      <trkpt lat="36.189395" lon="-86.753755">
        <ele>136.476076</ele>
        <time>2024-06-02T08:30:14.000Z</time>
      </trkpt>
      <trkpt lat="36.189478" lon="-86.753702">
        <ele>136.559628</ele>
        <time>2024-06-02T08:30:15.000Z</time>
      </trkpt>
      <trkpt lat="36.189541" lon="-86.753644">
        <ele>136.642811</ele>
        <time>2024-06-02T08:30:16.000Z</time>
      </trkpt>
      <trkpt lat="36.189612" lon="-86.753602">
        <ele>136.726512</ele>
        <time>2024-06-02T08:30:17.000Z</time>
      </trkpt>
      <trkpt lat="36.189702" lon="-86.753558">
        <ele>136.809826</ele>
        <time>2024-06-02T08:30:18.000Z</time>
      </trkpt>
      <trkpt lat="36.189771" lon="-86.753505">
        <ele>136.89554</ele>
        <time>2024-06-02T08:30:19.000Z</time>
      </trkpt>
      <trkpt lat="36.189857" lon="-86.753462">
        <ele>136.983755</ele>
        <time>2024-06-02T08:30:20.000Z</time>
      </trkpt>
      <trkpt lat="36.189929" lon="-86.753413">
        <ele>137.071971</ele>
        <time>2024-06-02T08:30:21.000Z</time>
      </trkpt>
      <trkpt lat="36.189995" lon="-86.75337">
        <ele>137.160771</ele>
        <time>2024-06-02T08:30:22.000Z</time>
      </trkpt>
      <trkpt lat="36.19009" lon="-86.753329">
        <ele>137.250471</ele>
        <time>2024-06-02T08:30:23.000Z</time>
      </trkpt>
      <trkpt lat="36.190162" lon="-86.75329">
        <ele>137.338647</ele>
        <time>2024-06-02T08:30:24.000Z</time>
      </trkpt>
      <trkpt lat="36.190238" lon="-86.753257">
        <ele>137.427529</ele>
        <time>2024-06-02T08:30:25.000Z</time>
      </trkpt>
      <trkpt lat="36.190318" lon="-86.753225">
        <ele>137.515872</ele>
        <time>2024-06-02T08:30:26.000Z</time>
      </trkpt>
      <trkpt lat="36.190407" lon="-86.753199">
        <ele>137.605207</ele>
        <time>2024-06-02T08:30:27.000Z</time>
      </trkpt>
      <trkpt lat="36.190497" lon="-86.75316">
        <ele>137.694276</ele>
        <time>2024-06-02T08:30:28.000Z</time>
      </trkpt>
      <trkpt lat="36.190565" lon="-86.753132">
        <ele>137.783106</ele>
        <time>2024-06-02T08:30:29.000Z</time>
      </trkpt>
      <trkpt lat="36.190663" lon="-86.753096">
        <ele>137.872684</ele>
        <time>2024-06-02T08:30:30.000Z</time>
      </trkpt>
      <trkpt lat="36.190737" lon="-86.753067">
        <ele>137.961824</ele>
        <time>2024-06-02T08:30:31.000Z</time>
      </trkpt>
      <trkpt lat="36.190817" lon="-86.753041">
        <ele>138.050314</ele>
        <time>2024-06-02T08:30:32.000Z</time>
      </trkpt>
      <trkpt lat="36.190911" lon="-86.753032">
        <ele>138.139644</ele>
        <time>2024-06-02T08:30:33.000Z</time>
      </trkpt>
      <trkpt lat="36.190996" lon="-86.753006">
        <ele>138.228603</ele>
        <time>2024-06-02T08:30:34.000Z</time>
      </trkpt>
      <trkpt lat="36.191067" lon="-86.752974">
        <ele>138.317381</ele>
        <time>2024-06-02T08:30:35.000Z</time>
      </trkpt>
      <trkpt lat="36.191152" lon="-86.752964">
        <ele>138.406011</ele>
        <time>2024-06-02T08:30:36.000Z</time>
      </trkpt>
      <trkpt lat="36.191242" lon="-86.752949">
        <ele>138.494336</ele>
        <time>2024-06-02T08:30:37.000Z</time>
      </trkpt>
      <trkpt lat="36.191322" lon="-86.752929">
        <ele>138.582522</ele>
        <time>2024-06-02T08:30:38.000Z</time>
      </trkpt>
      <trkpt lat="36.191419" lon="-86.752912">
        <ele>138.67137</ele>
        <time>2024-06-02T08:30:39.000Z</time>
      </trkpt>
      <trkpt lat="36.191492" lon="-86.752904">
        <ele>138.782952</ele>
        <time>2024-06-02T08:30:40.000Z</time>
      </trkpt>
      <trkpt lat="36.191575" lon="-86.752878">
        <ele>138.925286</ele>
        <time>2024-06-02T08:30:41.000Z</time>
      </trkpt>
      <trkpt lat="36.191663" lon="-86.752873">
        <ele>139.065836</ele>
        <time>2024-06-02T08:30:42.000Z</time>
      </trkpt>
      <trkpt lat="36.191758" lon="-86.75285">
        <ele>139.213235</ele>
        <time>2024-06-02T08:30:43.000Z</time>
      </trkpt>
      <trkpt lat="36.191844" lon="-86.752844">
        <ele>139.358649</ele>
        <time>2024-06-02T08:30:44.000Z</time>
      </trkpt>
      <trkpt lat="36.191936" lon="-86.752827">
        <ele>139.505426</ele>
        <time>2024-06-02T08:30:45.000Z</time>
      </trkpt>
      <trkpt lat="36.192016" lon="-86.752815">
        <ele>139.647067</ele>
        <time>2024-06-02T08:30:46.000Z</time>
      </trkpt>
      <trkpt lat="36.1921" lon="-86.752813">
        <ele>139.791858</ele>
        <time>2024-06-02T08:30:47.000Z</time>
      </trkpt>
      <trkpt lat="36.192187" lon="-86.752801">
        <ele>139.93484</ele>
        <time>2024-06-02T08:30:48.000Z</time>
      </trkpt>
      <trkpt lat="36.192275" lon="-86.75281">
        <ele>140.076115</ele>
        <time>2024-06-02T08:30:49.000Z</time>
      </trkpt>
      <trkpt lat="36.192369" lon="-86.752799">
        <ele>140.21591</ele>
        <time>2024-06-02T08:30:50.000Z</time>
      </trkpt>
      <trkpt lat="36.192447" lon="-86.752796">
        <ele>140.354522</ele>
        <time>2024-06-02T08:30:51.000Z</time>
      </trkpt>
      <trkpt lat="36.192526" lon="-86.752766">
        <ele>140.491986</ele>
        <time>2024-06-02T08:30:52.000Z</time>
      </trkpt>
      <trkpt lat="36.192611" lon="-86.752767">
        <ele>140.629279</ele>
        <time>2024-06-02T08:30:53.000Z</time>
      </trkpt>
      <trkpt lat="36.192696" lon="-86.752751">
        <ele>140.766245</ele>
        <time>2024-06-02T08:30:54.000Z</time>
      </trkpt>
      <trkpt lat="36.19278" lon="-86.752745">
        <ele>140.903223</ele>
        <time>2024-06-02T08:30:55.000Z</time>
      </trkpt>
      <trkpt lat="36.192869" lon="-86.752734">
        <ele>141.038118</ele>
        <time>2024-06-02T08:30:56.000Z</time>
      </trkpt>
      <trkpt lat="36.192934" lon="-86.752719">
        <ele>141.169812</ele>
        <time>2024-06-02T08:30:57.000Z</time>
      </trkpt>
      <trkpt lat="36.193026" lon="-86.752705">
        <ele>141.301639</ele>
        <time>2024-06-02T08:30:58.000Z</time>
      </trkpt>
      <trkpt lat="36.193105" lon="-86.752711">
        <ele>141.431829</ele>
        <time>2024-06-02T08:30:59.000Z</time>
      </trkpt>
      <trkpt lat="36.193184" lon="-86.752701">
        <ele>141.560653</ele>
        <time>2024-06-02T08:31:00.000Z</time>
      </trkpt>
      <trkpt lat="36.193264" lon="-86.75269">
        <ele>141.686624</ele>
        <time>2024-06-02T08:31:01.000Z</time>
      </trkpt>
      <trkpt lat="36.193343" lon="-86.752663">
        <ele>141.799982</ele>
        <time>2024-06-02T08:31:02.000Z</time>
      </trkpt>
      <trkpt lat="36.193403" lon="-86.752664">
        <ele>141.913189</ele>
        <time>2024-06-02T08:31:03.000Z</time>
      </trkpt>
      <trkpt lat="36.193487" lon="-86.752637">
        <ele>142.024789</ele>
        <time>2024-06-02T08:31:04.000Z</time>
      </trkpt>
      <trkpt lat="36.193564" lon="-86.752629">
        <ele>142.136545</ele>
        <time>2024-06-02T08:31:05.000Z</time>
      </trkpt>
      <trkpt lat="36.193647" lon="-86.752623">
        <ele>142.248308</ele>
        <time>2024-06-02T08:31:06.000Z</time>
      </trkpt>
      <trkpt lat="36.193713" lon="-86.752616">
        <ele>142.358222</ele>
        <time>2024-06-02T08:31:07.000Z</time>
      </trkpt>
      <trkpt lat="36.193783" lon="-86.752599">
        <ele>142.468129</ele>
        <time>2024-06-02T08:31:08.000Z</time>
      </trkpt>
      <trkpt lat="36.193862" lon="-86.752589">
        <ele>142.577843</ele>
        <time>2024-06-02T08:31:09.000Z</time>
      </trkpt>
      <trkpt lat="36.193932" lon="-86.752587">
        <ele>142.686312</ele>
        <time>2024-06-02T08:31:10.000Z</time>
      </trkpt>
      <trkpt lat="36.194017" lon="-86.752571">
        <ele>142.793314</ele>
        <time>2024-06-02T08:31:11.000Z</time>
      </trkpt>
      <trkpt lat="36.194077" lon="-86.752565">
        <ele>142.902034</ele>
        <time>2024-06-02T08:31:12.000Z</time>
      </trkpt>
      <trkpt lat="36.19415" lon="-86.752552">
        <ele>143.009291</ele>
        <time>2024-06-02T08:31:13.000Z</time>
      </trkpt>
      <trkpt lat="36.194237" lon="-86.752547">
        <ele>143.116205</ele>
        <time>2024-06-02T08:31:14.000Z</time>
      </trkpt>
      <trkpt lat="36.194298" lon="-86.752532">
        <ele>143.221647</ele>
        <time>2024-06-02T08:31:15.000Z</time>
      </trkpt>
      <trkpt lat="36.194376" lon="-86.752533">
        <ele>143.327083</ele>
        <time>2024-06-02T08:31:16.000Z</time>
      </trkpt>
      <trkpt lat="36.194454" lon="-86.752527">
        <ele>143.432541</ele>
        <time>2024-06-02T08:31:17.000Z</time>
      </trkpt>
      <trkpt lat="36.194518" lon="-86.752506">
        <ele>143.536773</ele>
        <time>2024-06-02T08:31:18.000Z</time>
      </trkpt>
      <trkpt lat="36.194593" lon="-86.752501">
        <ele>143.639559</ele>
        <time>2024-06-02T08:31:19.000Z</time>
      </trkpt>
      <trkpt lat="36.194654" lon="-86.752504">
        <ele>143.743662</ele>
        <time>2024-06-02T08:31:20.000Z</time>
      </trkpt>
      <trkpt lat="36.194732" lon="-86.752481">
        <ele>143.847659</ele>
        <time>2024-06-02T08:31:21.000Z</time>
      </trkpt>
      <trkpt lat="36.194793" lon="-86.75248">
        <ele>143.951551</ele>
        <time>2024-06-02T08:31:22.000Z</time>
      </trkpt>
      <trkpt lat="36.194863" lon="-86.752468">
        <ele>144.05554</ele>
        <time>2024-06-02T08:31:23.000Z</time>
      </trkpt>
      <trkpt lat="36.194939" lon="-86.75247">
        <ele>144.159535</ele>
        <time>2024-06-02T08:31:24.000Z</time>
      </trkpt>
      <trkpt lat="36.195019" lon="-86.752448">
        <ele>144.265354</ele>
        <time>2024-06-02T08:31:25.000Z</time>
      </trkpt>
      <trkpt lat="36.195092" lon="-86.752444">
        <ele>144.402228</ele>
        <time>2024-06-02T08:31:26.000Z</time>
      </trkpt>
      <trkpt lat="36.195156" lon="-86.752434">
        <ele>144.550241</ele>
        <time>2024-06-02T08:31:27.000Z</time>
      </trkpt>
      <trkpt lat="36.195233" lon="-86.752421">
        <ele>144.702197</ele>
        <time>2024-06-02T08:31:28.000Z</time>
      </trkpt>
      <trkpt lat="36.195301" lon="-86.752414">
        <ele>144.854283</ele>
        <time>2024-06-02T08:31:29.000Z</time>
      </trkpt>
      <trkpt lat="36.195387" lon="-86.752408">
        <ele>145.004475</ele>
        <time>2024-06-02T08:31:30.000Z</time>
      </trkpt>
      <trkpt lat="36.195453" lon="-86.752412">
        <ele>145.156563</ele>
        <time>2024-06-02T08:31:31.000Z</time>
      </trkpt>
      <trkpt lat="36.19553" lon="-86.752399">
        <ele>145.308529</ele>
        <time>2024-06-02T08:31:32.000Z</time>
      </trkpt>
      <trkpt lat="36.195614" lon="-86.752396">
        <ele>145.464354</ele>
        <time>2024-06-02T08:31:33.000Z</time>
      </trkpt>
      <trkpt lat="36.195674" lon="-86.752382">
        <ele>145.622544</ele>
        <time>2024-06-02T08:31:34.000Z</time>
      </trkpt>
      <trkpt lat="36.195757" lon="-86.752378">
        <ele>145.782661</ele>
        <time>2024-06-02T08:31:35.000Z</time>
      </trkpt>
      <trkpt lat="36.195844" lon="-86.752372">
        <ele>145.946876</ele>
        <time>2024-06-02T08:31:36.000Z</time>
      </trkpt>
      <trkpt lat="36.195925" lon="-86.752355">
        <ele>146.111069</ele>
        <time>2024-06-02T08:31:37.000Z</time>
      </trkpt>
      <trkpt lat="36.195998" lon="-86.752346">
        <ele>146.273673</ele>
        <time>2024-06-02T08:31:38.000Z</time>
      </trkpt>
      <trkpt lat="36.196075" lon="-86.75234">
        <ele>146.440698</ele>
        <time>2024-06-02T08:31:39.000Z</time>
      </trkpt>
      <trkpt lat="36.196165" lon="-86.752329">
        <ele>146.611599</ele>
        <time>2024-06-02T08:31:40.000Z</time>
      </trkpt>
      <trkpt lat="36.19625" lon="-86.752318">
        <ele>146.784532</ele>
        <time>2024-06-02T08:31:41.000Z</time>
      </trkpt>
      <trkpt lat="36.196331" lon="-86.7523">
        <ele>146.963761</ele>
        <time>2024-06-02T08:31:42.000Z</time>
      </trkpt>
      <trkpt lat="36.196414" lon="-86.752286">
        <ele>147.145222</ele>
        <time>2024-06-02T08:31:43.000Z</time>
      </trkpt>
      <trkpt lat="36.196507" lon="-86.752286">
        <ele>147.327085</ele>
        <time>2024-06-02T08:31:44.000Z</time>
      </trkpt>
      <trkpt lat="36.196596" lon="-86.752272">
        <ele>147.508362</ele>
        <time>2024-06-02T08:31:45.000Z</time>
      </trkpt>
      <trkpt lat="36.196682" lon="-86.752262">
        <ele>147.693876</ele>
        <time>2024-06-02T08:31:46.000Z</time>
      </trkpt>
      <trkpt lat="36.196771" lon="-86.752238">
        <ele>147.8792</ele>
        <time>2024-06-02T08:31:47.000Z</time>
      </trkpt>
      <trkpt lat="36.196861" lon="-86.752218">
        <ele>148.116841</ele>
        <time>2024-06-02T08:31:48.000Z</time>
      </trkpt>
      <trkpt lat="36.196961" lon="-86.752209">
        <ele>148.422425</ele>
        <time>2024-06-02T08:31:49.000Z</time>
      </trkpt>
      <trkpt lat="36.197062" lon="-86.752185">
        <ele>148.725929</ele>
        <time>2024-06-02T08:31:50.000Z</time>
      </trkpt>
      <trkpt lat="36.197151" lon="-86.75216">
        <ele>149.034176</ele>
        <time>2024-06-02T08:31:51.000Z</time>
      </trkpt>
      <trkpt lat="36.197241" lon="-86.752141">
        <ele>149.343485</ele>
        <time>2024-06-02T08:31:52.000Z</time>
      </trkpt>
      <trkpt lat="36.197348" lon="-86.752123">
        <ele>149.654971</ele>
        <time>2024-06-02T08:31:53.000Z</time>
      </trkpt>
      <trkpt lat="36.197437" lon="-86.752104">
        <ele>149.973825</ele>
        <time>2024-06-02T08:31:54.000Z</time>
      </trkpt>
      <trkpt lat="36.19754" lon="-86.752084">
        <ele>150.291587</ele>
        <time>2024-06-02T08:31:55.000Z</time>
      </trkpt>
      <trkpt lat="36.197628" lon="-86.752059">
        <ele>150.623476</ele>
        <time>2024-06-02T08:31:56.000Z</time>
      </trkpt>
      <trkpt lat="36.197743" lon="-86.752022">
        <ele>150.95698</ele>
        <time>2024-06-02T08:31:57.000Z</time>
      </trkpt>
      <trkpt lat="36.197833" lon="-86.751999">
        <ele>151.291051</ele>
        <time>2024-06-02T08:31:58.000Z</time>
      </trkpt>
      <trkpt lat="36.19794" lon="-86.751964">
        <ele>151.628283</ele>
        <time>2024-06-02T08:31:59.000Z</time>
      </trkpt>
      <trkpt lat="36.198035" lon="-86.751952">
        <ele>151.969224</ele>
        <time>2024-06-02T08:32:00.000Z</time>
      </trkpt>
      <trkpt lat="36.198142" lon="-86.751915">
        <ele>152.315317</ele>
        <time>2024-06-02T08:32:01.000Z</time>
      </trkpt>
      <trkpt lat="36.198249" lon="-86.751897">
        <ele>152.659846</ele>
        <time>2024-06-02T08:32:02.000Z</time>
      </trkpt>
      <trkpt lat="36.198356" lon="-86.751872">
        <ele>153.004886</ele>
        <time>2024-06-02T08:32:03.000Z</time>
      </trkpt>
      <trkpt lat="36.198458" lon="-86.751834">
        <ele>153.350192</ele>
        <time>2024-06-02T08:32:04.000Z</time>
      </trkpt>
      <trkpt lat="36.198564" lon="-86.751807">
        <ele>153.692362</ele>
        <time>2024-06-02T08:32:05.000Z</time>
      </trkpt>
      <trkpt lat="36.198663" lon="-86.751767">
        <ele>153.987909</ele>
        <time>2024-06-02T08:32:06.000Z</time>
      </trkpt>
      <trkpt lat="36.198768" lon="-86.751735">
        <ele>154.26126</ele>
        <time>2024-06-02T08:32:07.000Z</time>
      </trkpt>
      <trkpt lat="36.198871" lon="-86.751706">
        <ele>154.541159</ele>
        <time>2024-06-02T08:32:08.000Z</time>
      </trkpt>
      <trkpt lat="36.198979" lon="-86.751678">
        <ele>154.821536</ele>
        <time>2024-06-02T08:32:09.000Z</time>
      </trkpt>
      <trkpt lat="36.19907" lon="-86.751661">
        <ele>155.101897</ele>
        <time>2024-06-02T08:32:10.000Z</time>
      </trkpt>
      <trkpt lat="36.199181" lon="-86.751624">
        <ele>155.376163</ele>
        <time>2024-06-02T08:32:11.000Z</time>
      </trkpt>
      <trkpt lat="36.199278" lon="-86.751591">
        <ele>155.64783</ele>
        <time>2024-06-02T08:32:12.000Z</time>
      </trkpt>
      <trkpt lat="36.199381" lon="-86.751575">
        <ele>155.919984</ele>
        <time>2024-06-02T08:32:13.000Z</time>
      </trkpt>
      <trkpt lat="36.199475" lon="-86.751533">
        <ele>156.186968</ele>
        <time>2024-06-02T08:32:14.000Z</time>
      </trkpt>
      <trkpt lat="36.199575" lon="-86.75152">
        <ele>156.448815</ele>
        <time>2024-06-02T08:32:15.000Z</time>
      </trkpt>
      <trkpt lat="36.199667" lon="-86.751494">
        <ele>156.704502</ele>
        <time>2024-06-02T08:32:16.000Z</time>
      </trkpt>
      <trkpt lat="36.199764" lon="-86.751466">
        <ele>156.957145</ele>
        <time>2024-06-02T08:32:17.000Z</time>
      </trkpt>
      <trkpt lat="36.199845" lon="-86.751437">
        <ele>157.210253</ele>
        <time>2024-06-02T08:32:18.000Z</time>
      </trkpt>
      <trkpt lat="36.199936" lon="-86.75141">
        <ele>157.460796</ele>
        <time>2024-06-02T08:32:19.000Z</time>
      </trkpt>
      <trkpt lat="36.200033" lon="-86.751383">
        <ele>157.709243</ele>
        <time>2024-06-02T08:32:20.000Z</time>
      </trkpt>
      <trkpt lat="36.200133" lon="-86.751346">
        <ele>157.95206</ele>
        <time>2024-06-02T08:32:21.000Z</time>
      </trkpt>
      <trkpt lat="36.200218" lon="-86.751326">
        <ele>158.190824</ele>
        <time>2024-06-02T08:32:22.000Z</time>
      </trkpt>
      <trkpt lat="36.200296" lon="-86.751298">
        <ele>158.427011</ele>
        <time>2024-06-02T08:32:23.000Z</time>
      </trkpt>
      <trkpt lat="36.200383" lon="-86.751282">
        <ele>158.620198</ele>
        <time>2024-06-02T08:32:24.000Z</time>
      </trkpt>
      <trkpt lat="36.200471" lon="-86.751257">
        <ele>158.774956</ele>
        <time>2024-06-02T08:32:25.000Z</time>
      </trkpt>
      <trkpt lat="36.200554" lon="-86.751224">
        <ele>158.925622</ele>
        <time>2024-06-02T08:32:26.000Z</time>
      </trkpt>
      <trkpt lat="36.200626" lon="-86.751205">
        <ele>159.076582</ele>
        <time>2024-06-02T08:32:27.000Z</time>
      </trkpt>
      <trkpt lat="36.200712" lon="-86.751182">
        <ele>159.225207</ele>
        <time>2024-06-02T08:32:28.000Z</time>
      </trkpt>
      <trkpt lat="36.200795" lon="-86.751155">
        <ele>159.374149</ele>
        <time>2024-06-02T08:32:29.000Z</time>
      </trkpt>
      <trkpt lat="36.200878" lon="-86.75113">
        <ele>159.526532</ele>
        <time>2024-06-02T08:32:30.000Z</time>
      </trkpt>
      <trkpt lat="36.200957" lon="-86.751106">
        <ele>159.677508</ele>
        <time>2024-06-02T08:32:31.000Z</time>
      </trkpt>
      <trkpt lat="36.201051" lon="-86.751082">
        <ele>159.82817</ele>
        <time>2024-06-02T08:32:32.000Z</time>
      </trkpt>
      <trkpt lat="36.201125" lon="-86.751065">
        <ele>159.977099</ele>
        <time>2024-06-02T08:32:33.000Z</time>
      </trkpt>
      <trkpt lat="36.201214" lon="-86.751042">
        <ele>160.125707</ele>
        <time>2024-06-02T08:32:34.000Z</time>
      </trkpt>
      <trkpt lat="36.201296" lon="-86.751018">
        <ele>160.272614</ele>
        <time>2024-06-02T08:32:35.000Z</time>
      </trkpt>
      <trkpt lat="36.20138" lon="-86.751004">
        <ele>160.416039</ele>
        <time>2024-06-02T08:32:36.000Z</time>
      </trkpt>
      <trkpt lat="36.201447" lon="-86.75097">
        <ele>160.561521</ele>
        <time>2024-06-02T08:32:37.000Z</time>
      </trkpt>
      <trkpt lat="36.201538" lon="-86.750958">
        <ele>160.703541</ele>
        <time>2024-06-02T08:32:38.000Z</time>
      </trkpt>
      <trkpt lat="36.201613" lon="-86.750943">
        <ele>160.84525</ele>
        <time>2024-06-02T08:32:39.000Z</time>
      </trkpt>
      <trkpt lat="36.201692" lon="-86.750905">
        <ele>160.986647</ele>
        <time>2024-06-02T08:32:40.000Z</time>
      </trkpt>
      <trkpt lat="36.201759" lon="-86.750885">
        <ele>161.130074</ele>
        <time>2024-06-02T08:32:41.000Z</time>
      </trkpt>
      <trkpt lat="36.201842" lon="-86.750869">
        <ele>161.27005</ele>
        <time>2024-06-02T08:32:42.000Z</time>
      </trkpt>
      <trkpt lat="36.201916" lon="-86.750854">
        <ele>161.41208</ele>
        <time>2024-06-02T08:32:43.000Z</time>
      </trkpt>
      <trkpt lat="36.202001" lon="-86.750817">
        <ele>161.551732</ele>
        <time>2024-06-02T08:32:44.000Z</time>
      </trkpt>
      <trkpt lat="36.202083" lon="-86.750806">
        <ele>161.692834</ele>
        <time>2024-06-02T08:32:45.000Z</time>
      </trkpt>
      <trkpt lat="36.202153" lon="-86.750793">
        <ele>161.852665</ele>
        <time>2024-06-02T08:32:46.000Z</time>
      </trkpt>
      <trkpt lat="36.202231" lon="-86.750763">
        <ele>162.023062</ele>
        <time>2024-06-02T08:32:47.000Z</time>
      </trkpt>
      <trkpt lat="36.202301" lon="-86.75074">
        <ele>162.195968</ele>
        <time>2024-06-02T08:32:48.000Z</time>
      </trkpt>
      <trkpt lat="36.202389" lon="-86.750716">
        <ele>162.364688</ele>
        <time>2024-06-02T08:32:49.000Z</time>
      </trkpt>
      <trkpt lat="36.202455" lon="-86.750688">
        <ele>162.538001</ele>
        <time>2024-06-02T08:32:50.000Z</time>
      </trkpt>
      <trkpt lat="36.202531" lon="-86.750672">
        <ele>162.708035</ele>
        <time>2024-06-02T08:32:51.000Z</time>
      </trkpt>
      <trkpt lat="36.202625" lon="-86.750632">
        <ele>162.884302</ele>
        <time>2024-06-02T08:32:52.000Z</time>
      </trkpt>
      <trkpt lat="36.202693" lon="-86.750619">
        <ele>163.057852</ele>
        <time>2024-06-02T08:32:53.000Z</time>
      </trkpt>
      <trkpt lat="36.202769" lon="-86.750598">
        <ele>163.233505</ele>
        <time>2024-06-02T08:32:54.000Z</time>
      </trkpt>
      <trkpt lat="36.202851" lon="-86.750575">
        <ele>163.410215</ele>
        <time>2024-06-02T08:32:55.000Z</time>
      </trkpt>
      <trkpt lat="36.202937" lon="-86.750566">
        <ele>163.587324</ele>
        <time>2024-06-02T08:32:56.000Z</time>
      </trkpt>
      <trkpt lat="36.203018" lon="-86.750538">
        <ele>163.770005</ele>
        <time>2024-06-02T08:32:57.000Z</time>
      </trkpt>
      <trkpt lat="36.203109" lon="-86.750507">
        <ele>163.952352</ele>
        <time>2024-06-02T08:32:58.000Z</time>
      </trkpt>
      <trkpt lat="36.203179" lon="-86.750506">
        <ele>164.138611</ele>
        <time>2024-06-02T08:32:59.000Z</time>
      </trkpt>
      <trkpt lat="36.203262" lon="-86.750476">
        <ele>164.325192</ele>
        <time>2024-06-02T08:33:00.000Z</time>
      </trkpt>
      <trkpt lat="36.20335" lon="-86.750451">
        <ele>164.513899</ele>
        <time>2024-06-02T08:33:01.000Z</time>
      </trkpt>
      <trkpt lat="36.203434" lon="-86.750432">
        <ele>164.702927</ele>
        <time>2024-06-02T08:33:02.000Z</time>
      </trkpt>
      <trkpt lat="36.203524" lon="-86.750423">
        <ele>164.891956</ele>
        <time>2024-06-02T08:33:03.000Z</time>
      </trkpt>
      <trkpt lat="36.203624" lon="-86.750388">
        <ele>165.08415</ele>
        <time>2024-06-02T08:33:04.000Z</time>
      </trkpt>
      <trkpt lat="36.203713" lon="-86.750364">
        <ele>165.278859</ele>
        <time>2024-06-02T08:33:05.000Z</time>
      </trkpt>
      <trkpt lat="36.203786" lon="-86.750331">
        <ele>165.473945</ele>
        <time>2024-06-02T08:33:06.000Z</time>
      </trkpt>
      <trkpt lat="36.20388" lon="-86.750318">
        <ele>165.64879</ele>
        <time>2024-06-02T08:33:07.000Z</time>
      </trkpt>
      <trkpt lat="36.203974" lon="-86.750289">
        <ele>165.775796</ele>
        <time>2024-06-02T08:33:08.000Z</time>
      </trkpt>
      <trkpt lat="36.204065" lon="-86.750258">
        <ele>165.904763</ele>
        <time>2024-06-02T08:33:09.000Z</time>
      </trkpt>
      <trkpt lat="36.204142" lon="-86.750236">
        <ele>166.03485</ele>
        <time>2024-06-02T08:33:10.000Z</time>
      </trkpt>
      <trkpt lat="36.204245" lon="-86.750222">
        <ele>166.163355</ele>
        <time>2024-06-02T08:33:11.000Z</time>
      </trkpt>
      <trkpt lat="36.204326" lon="-86.750201">
        <ele>166.293246</ele>
        <time>2024-06-02T08:33:12.000Z</time>
      </trkpt>
      <trkpt lat="36.204414" lon="-86.750174">
        <ele>166.421968</ele>
        <time>2024-06-02T08:33:13.000Z</time>
      </trkpt>
      <trkpt lat="36.204515" lon="-86.750153">
        <ele>166.552299</ele>
        <time>2024-06-02T08:33:14.000Z</time>
      </trkpt>
      <trkpt lat="36.204593" lon="-86.750119">
        <ele>166.678296</ele>
        <time>2024-06-02T08:33:15.000Z</time>
      </trkpt>
      <trkpt lat="36.204688" lon="-86.750111">
        <ele>166.805197</ele>
        <time>2024-06-02T08:33:16.000Z</time>
      </trkpt>
      <trkpt lat="36.204774" lon="-86.750088">
        <ele>166.930737</ele>
        <time>2024-06-02T08:33:17.000Z</time>
      </trkpt>
      <trkpt lat="36.204856" lon="-86.750056">
        <ele>167.057451</ele>
        <time>2024-06-02T08:33:18.000Z</time>
      </trkpt>
      <trkpt lat="36.204963" lon="-86.750036">
        <ele>167.186918</ele>
        <time>2024-06-02T08:33:19.000Z</time>
      </trkpt>
      <trkpt lat="36.205043" lon="-86.750025">
        <ele>167.315202</ele>
        <time>2024-06-02T08:33:20.000Z</time>
      </trkpt>
      <trkpt lat="36.205132" lon="-86.750001">
        <ele>167.441363</ele>
        <time>2024-06-02T08:33:21.000Z</time>
      </trkpt>
      <trkpt lat="36.20523" lon="-86.74998">
        <ele>167.567175</ele>
        <time>2024-06-02T08:33:22.000Z</time>
      </trkpt>
      <trkpt lat="36.205318" lon="-86.749975">
        <ele>167.691472</ele>
        <time>2024-06-02T08:33:23.000Z</time>
      </trkpt>
      <trkpt lat="36.205406" lon="-86.749964">
        <ele>167.816403</ele>
        <time>2024-06-02T08:33:24.000Z</time>
      </trkpt>
      <trkpt lat="36.205484" lon="-86.749941">
        <ele>167.936674</ele>
        <time>2024-06-02T08:33:25.000Z</time>
      </trkpt>
      <trkpt lat="36.205566" lon="-86.749912">
        <ele>168.057976</ele>
        <time>2024-06-02T08:33:26.000Z</time>
      </trkpt>
      <trkpt lat="36.20565" lon="-86.749876">
        <ele>168.184821</ele>
        <time>2024-06-02T08:33:27.000Z</time>
      </trkpt>
      <trkpt lat="36.205733" lon="-86.749861">
        <ele>168.318564</ele>
        <time>2024-06-02T08:33:28.000Z</time>
      </trkpt>
      <trkpt lat="36.205809" lon="-86.749853">
        <ele>168.451819</ele>
        <time>2024-06-02T08:33:29.000Z</time>
      </trkpt>
      <trkpt lat="36.205906" lon="-86.749832">
        <ele>168.586623</ele>
        <time>2024-06-02T08:33:30.000Z</time>
      </trkpt>
      <trkpt lat="36.205979" lon="-86.7498">
        <ele>168.717878</ele>
        <time>2024-06-02T08:33:31.000Z</time>
      </trkpt>
      <trkpt lat="36.206063" lon="-86.749796">
        <ele>168.84737</ele>
        <time>2024-06-02T08:33:32.000Z</time>
      </trkpt>
      <trkpt lat="36.206154" lon="-86.749772">
        <ele>168.977067</ele>
        <time>2024-06-02T08:33:33.000Z</time>
      </trkpt>
      <trkpt lat="36.206235" lon="-86.749752">
        <ele>169.106984</ele>
        <time>2024-06-02T08:33:34.000Z</time>
      </trkpt>
      <trkpt lat="36.20631" lon="-86.749733">
        <ele>169.232241</ele>
        <time>2024-06-02T08:33:35.000Z</time>
      </trkpt>
      <trkpt lat="36.206397" lon="-86.749726">
        <ele>169.366615</ele>
        <time>2024-06-02T08:33:36.000Z</time>
      </trkpt>
      <trkpt lat="36.206474" lon="-86.749701">
        <ele>169.493216</ele>
        <time>2024-06-02T08:33:37.000Z</time>
      </trkpt>
      <trkpt lat="36.20655" lon="-86.749682">
        <ele>169.616683</ele>
        <time>2024-06-02T08:33:38.000Z</time>
      </trkpt>
      <trkpt lat="36.206616" lon="-86.749683">
        <ele>169.736633</ele>
        <time>2024-06-02T08:33:39.000Z</time>
      </trkpt>
      <trkpt lat="36.206694" lon="-86.749668">
        <ele>169.859673</ele>
        <time>2024-06-02T08:33:40.000Z</time>
      </trkpt>
      <trkpt lat="36.206771" lon="-86.749646">
        <ele>169.982543</ele>
        <time>2024-06-02T08:33:41.000Z</time>
      </trkpt>
      <trkpt lat="36.206854" lon="-86.749627">
        <ele>170.103663</ele>
        <time>2024-06-02T08:33:42.000Z</time>
      </trkpt>
      <trkpt lat="36.20692" lon="-86.749616">
        <ele>170.224976</ele>
        <time>2024-06-02T08:33:43.000Z</time>
      </trkpt>
      <trkpt lat="36.206999" lon="-86.749608">
        <ele>170.342804</ele>
        <time>2024-06-02T08:33:44.000Z</time>
      </trkpt>
      <trkpt lat="36.207079" lon="-86.749586">
        <ele>170.4608</ele>
        <time>2024-06-02T08:33:45.000Z</time>
      </trkpt>
      <trkpt lat="36.207141" lon="-86.749588">
        <ele>170.578626</ele>
        <time>2024-06-02T08:33:46.000Z</time>
      </trkpt>
      <trkpt lat="36.207216" lon="-86.749572">
        <ele>170.695885</ele>
        <time>2024-06-02T08:33:47.000Z</time>
      </trkpt>
      <trkpt lat="36.2073" lon="-86.749572">
        <ele>170.8117</ele>
        <time>2024-06-02T08:33:48.000Z</time>
      </trkpt>
      <trkpt lat="36.207363" lon="-86.749549">
        <ele>170.927797</ele>
        <time>2024-06-02T08:33:49.000Z</time>
      </trkpt>
      <trkpt lat="36.207447" lon="-86.749546">
        <ele>171.063918</ele>
        <time>2024-06-02T08:33:50.000Z</time>
      </trkpt>
      <trkpt lat="36.207509" lon="-86.749517">
        <ele>171.208821</ele>
        <time>2024-06-02T08:33:51.000Z</time>
      </trkpt>
      <trkpt lat="36.207575" lon="-86.74949">
        <ele>171.358027</ele>
        <time>2024-06-02T08:33:52.000Z</time>
      </trkpt>
      <trkpt lat="36.207653" lon="-86.749484">
        <ele>171.505818</ele>
        <time>2024-06-02T08:33:53.000Z</time>
      </trkpt>
      <trkpt lat="36.207732" lon="-86.749453">
        <ele>171.652461</ele>
        <time>2024-06-02T08:33:54.000Z</time>
      </trkpt>
      <trkpt lat="36.207794" lon="-86.749446">
        <ele>171.798873</ele>
        <time>2024-06-02T08:33:55.000Z</time>
      </trkpt>
      <trkpt lat="36.207862" lon="-86.749431">
        <ele>171.947248</ele>
        <time>2024-06-02T08:33:56.000Z</time>
      </trkpt>
      <trkpt lat="36.207945" lon="-86.749421">
        <ele>172.10012</ele>
        <time>2024-06-02T08:33:57.000Z</time>
      </trkpt>
      <trkpt lat="36.208025" lon="-86.74941">
        <ele>172.252493</ele>
        <time>2024-06-02T08:33:58.000Z</time>
      </trkpt>
      <trkpt lat="36.208099" lon="-86.749398">
        <ele>172.406276</ele>
        <time>2024-06-02T08:33:59.000Z</time>
      </trkpt>
      <trkpt lat="36.208168" lon="-86.74939">
        <ele>172.560233</ele>
        <time>2024-06-02T08:34:00.000Z</time>
      </trkpt>
      <trkpt lat="36.208242" lon="-86.749365">
        <ele>172.718586</ele>
        <time>2024-06-02T08:34:01.000Z</time>
      </trkpt>
      <trkpt lat="36.208333" lon="-86.749365">
        <ele>172.877658</ele>
        <time>2024-06-02T08:34:02.000Z</time>
      </trkpt>
      <trkpt lat="36.208401" lon="-86.749339">
        <ele>173.038266</ele>
        <time>2024-06-02T08:34:03.000Z</time>
      </trkpt>
      <trkpt lat="36.208495" lon="-86.749311">
        <ele>173.202317</ele>
        <time>2024-06-02T08:34:04.000Z</time>
      </trkpt>
      <trkpt lat="36.208571" lon="-86.749293">
        <ele>173.370663</ele>
        <time>2024-06-02T08:34:05.000Z</time>
      </trkpt>
      <trkpt lat="36.208657" lon="-86.749269">
        <ele>173.540191</ele>
        <time>2024-06-02T08:34:06.000Z</time>
      </trkpt>
      <trkpt lat="36.208723" lon="-86.749246">
        <ele>173.708355</ele>
        <time>2024-06-02T08:34:07.000Z</time>
      </trkpt>
      <trkpt lat="36.208821" lon="-86.749232">
        <ele>173.879114</ele>
        <time>2024-06-02T08:34:08.000Z</time>
      </trkpt>
      <trkpt lat="36.208898" lon="-86.74922">
        <ele>174.05187</ele>
        <time>2024-06-02T08:34:09.000Z</time>
      </trkpt>
      <trkpt lat="36.208988" lon="-86.749191">
        <ele>174.227625</ele>
        <time>2024-06-02T08:34:10.000Z</time>
      </trkpt>
      <trkpt lat="36.209071" lon="-86.74917">
        <ele>174.405663</ele>
        <time>2024-06-02T08:34:11.000Z</time>
      </trkpt>
      <trkpt lat="36.209157" lon="-86.749147">
        <ele>174.585404</ele>
        <time>2024-06-02T08:34:12.000Z</time>
      </trkpt>
      <trkpt lat="36.209253" lon="-86.749132">
        <ele>174.628252</ele>
        <time>2024-06-02T08:34:13.000Z</time>
      </trkpt>
      <trkpt lat="36.209349" lon="-86.749107">
        <ele>174.670176</ele>
        <time>2024-06-02T08:34:14.000Z</time>
      </trkpt>
      <trkpt lat="36.20944" lon="-86.749103">
        <ele>174.712483</ele>
        <time>2024-06-02T08:34:15.000Z</time>
      </trkpt>
      <trkpt lat="36.209529" lon="-86.749078">
        <ele>174.755241</ele>
        <time>2024-06-02T08:34:16.000Z</time>
      </trkpt>
      <trkpt lat="36.209622" lon="-86.749058">
        <ele>174.797936</ele>
        <time>2024-06-02T08:34:17.000Z</time>
      </trkpt>
      <trkpt lat="36.209718" lon="-86.749036">
        <ele>174.841533</ele>
        <time>2024-06-02T08:34:18.000Z</time>
      </trkpt>
      <trkpt lat="36.209803" lon="-86.749013">
        <ele>174.885582</ele>
        <time>2024-06-02T08:34:19.000Z</time>
      </trkpt>
      <trkpt lat="36.209904" lon="-86.749">
        <ele>174.929521</ele>
        <time>2024-06-02T08:34:20.000Z</time>
      </trkpt>
      <trkpt lat="36.210011" lon="-86.748981">
        <ele>174.974353</ele>
        <time>2024-06-02T08:34:21.000Z</time>
      </trkpt>
      <trkpt lat="36.210109" lon="-86.748971">
        <ele>175.019254</ele>
        <time>2024-06-02T08:34:22.000Z</time>
      </trkpt>
      <trkpt lat="36.210203" lon="-86.748949">
        <ele>175.064199</ele>
        <time>2024-06-02T08:34:23.000Z</time>
      </trkpt>
      <trkpt lat="36.210307" lon="-86.748929">
        <ele>175.109759</ele>
        <time>2024-06-02T08:34:24.000Z</time>
      </trkpt>
      <trkpt lat="36.210403" lon="-86.748906">
        <ele>175.154999</ele>
        <time>2024-06-02T08:34:25.000Z</time>
      </trkpt>
      <trkpt lat="36.21049" lon="-86.748892">
        <ele>175.200395</ele>
        <time>2024-06-02T08:34:26.000Z</time>
      </trkpt>
      <trkpt lat="36.210599" lon="-86.748859">
        <ele>175.24647</ele>
        <time>2024-06-02T08:34:27.000Z</time>
      </trkpt>
      <trkpt lat="36.210699" lon="-86.748842">
        <ele>175.292866</ele>
        <time>2024-06-02T08:34:28.000Z</time>
      </trkpt>
      <trkpt lat="36.210801" lon="-86.748828">
        <ele>175.339253</ele>
        <time>2024-06-02T08:34:29.000Z</time>
      </trkpt>
      <trkpt lat="36.210904" lon="-86.748812">
        <ele>175.386059</ele>
        <time>2024-06-02T08:34:30.000Z</time>
      </trkpt>
      <trkpt lat="36.210993" lon="-86.748793">
        <ele>175.487653</ele>
        <time>2024-06-02T08:34:31.000Z</time>
      </trkpt>
      <trkpt lat="36.211107" lon="-86.748774">
        <ele>175.623072</ele>
        <time>2024-06-02T08:34:32.000Z</time>
      </trkpt>
      <trkpt lat="36.211204" lon="-86.748742">
        <ele>175.757663</ele>
        <time>2024-06-02T08:34:33.000Z</time>
      </trkpt>
      <trkpt lat="36.211321" lon="-86.748724">
        <ele>175.89428</ele>
        <time>2024-06-02T08:34:34.000Z</time>
      </trkpt>
      <trkpt lat="36.211407" lon="-86.748695">
        <ele>176.03025</ele>
        <time>2024-06-02T08:34:35.000Z</time>
      </trkpt>
      <trkpt lat="36.211524" lon="-86.748657">
        <ele>176.167724</ele>
        <time>2024-06-02T08:34:36.000Z</time>
      </trkpt>
      <trkpt lat="36.211631" lon="-86.748641">
        <ele>176.305391</ele>
        <time>2024-06-02T08:34:37.000Z</time>
      </trkpt>
      <trkpt lat="36.211737" lon="-86.748628">
        <ele>176.443828</ele>
        <time>2024-06-02T08:34:38.000Z</time>
      </trkpt>
      <trkpt lat="36.211839" lon="-86.748601">
        <ele>176.582588</ele>
        <time>2024-06-02T08:34:39.000Z</time>
      </trkpt>
      <trkpt lat="36.211944" lon="-86.748573">
        <ele>176.722811</ele>
        <time>2024-06-02T08:34:40.000Z</time>
      </trkpt>
      <trkpt lat="36.212054" lon="-86.748556">
        <ele>176.863017</ele>
        <time>2024-06-02T08:34:41.000Z</time>
      </trkpt>
      <trkpt lat="36.212153" lon="-86.748532">
        <ele>177.004002</ele>
        <time>2024-06-02T08:34:42.000Z</time>
      </trkpt>
      <trkpt lat="36.212276" lon="-86.748513">
        <ele>177.146082</ele>
        <time>2024-06-02T08:34:43.000Z</time>
      </trkpt>
      <trkpt lat="36.21237" lon="-86.748483">
        <ele>177.288497</ele>
        <time>2024-06-02T08:34:44.000Z</time>
      </trkpt>
      <trkpt lat="36.212489" lon="-86.748459">
        <ele>177.429466</ele>
        <time>2024-06-02T08:34:45.000Z</time>
      </trkpt>
      <trkpt lat="36.212588" lon="-86.748441">
        <ele>177.570601</ele>
        <time>2024-06-02T08:34:46.000Z</time>
      </trkpt>
      <trkpt lat="36.212692" lon="-86.748428">
        <ele>177.70937</ele>
        <time>2024-06-02T08:34:47.000Z</time>
      </trkpt>
      <trkpt lat="36.212811" lon="-86.748404">
        <ele>177.822546</ele>
        <time>2024-06-02T08:34:48.000Z</time>
      </trkpt>
      <trkpt lat="36.21291" lon="-86.748373">
        <ele>177.932931</ele>
        <time>2024-06-02T08:34:49.000Z</time>
      </trkpt>
      <trkpt lat="36.213025" lon="-86.748348">
        <ele>178.042156</ele>
        <time>2024-06-02T08:34:50.000Z</time>
      </trkpt>
      <trkpt lat="36.213115" lon="-86.748326">
        <ele>178.150383</ele>
        <time>2024-06-02T08:34:51.000Z</time>
      </trkpt>
      <trkpt lat="36.213229" lon="-86.74831">
        <ele>178.258869</ele>
        <time>2024-06-02T08:34:52.000Z</time>
      </trkpt>
      <trkpt lat="36.213332" lon="-86.748287">
        <ele>178.365498</ele>
        <time>2024-06-02T08:34:53.000Z</time>
      </trkpt>
      <trkpt lat="36.213426" lon="-86.748267">
        <ele>178.468948</ele>
        <time>2024-06-02T08:34:54.000Z</time>
      </trkpt>
      <trkpt lat="36.213524" lon="-86.74824">
        <ele>178.572393</ele>
        <time>2024-06-02T08:34:55.000Z</time>
      </trkpt>
      <trkpt lat="36.213625" lon="-86.748211">
        <ele>178.673661</ele>
        <time>2024-06-02T08:34:56.000Z</time>
      </trkpt>
      <trkpt lat="36.213725" lon="-86.748201">
        <ele>178.773777</ele>
        <time>2024-06-02T08:34:57.000Z</time>
      </trkpt>
      <trkpt lat="36.213812" lon="-86.748175">
        <ele>178.872253</ele>
        <time>2024-06-02T08:34:58.000Z</time>
      </trkpt>
      <trkpt lat="36.213906" lon="-86.748163">
        <ele>178.967777</ele>
        <time>2024-06-02T08:34:59.000Z</time>
      </trkpt>
      <trkpt lat="36.213987" lon="-86.748144">
        <ele>179.062162</ele>
        <time>2024-06-02T08:35:00.000Z</time>
      </trkpt>
      <trkpt lat="36.214076" lon="-86.748139">
        <ele>179.153183</ele>
        <time>2024-06-02T08:35:01.000Z</time>
      </trkpt>
      <trkpt lat="36.214176" lon="-86.748121">
        <ele>179.243084</ele>
        <time>2024-06-02T08:35:02.000Z</time>
      </trkpt>
      <trkpt lat="36.21425" lon="-86.748113">
        <ele>179.33104</ele>
        <time>2024-06-02T08:35:03.000Z</time>
      </trkpt>
      <trkpt lat="36.214339" lon="-86.748096">
        <ele>179.418202</ele>
        <time>2024-06-02T08:35:04.000Z</time>
      </trkpt>
      <trkpt lat="36.214421" lon="-86.748081">
        <ele>179.502583</ele>
        <time>2024-06-02T08:35:05.000Z</time>
      </trkpt>
      <trkpt lat="36.214496" lon="-86.748053">
        <ele>179.590171</ele>
        <time>2024-06-02T08:35:06.000Z</time>
      </trkpt>
      <trkpt lat="36.214586" lon="-86.748038">
        <ele>179.689734</ele>
        <time>2024-06-02T08:35:07.000Z</time>
      </trkpt>
      <trkpt lat="36.214661" lon="-86.748018">
        <ele>179.788888</ele>
        <time>2024-06-02T08:35:08.000Z</time>
      </trkpt>
      <trkpt lat="36.214733" lon="-86.747995">
        <ele>179.885234</ele>
        <time>2024-06-02T08:35:09.000Z</time>
      </trkpt>
      <trkpt lat="36.214817" lon="-86.747986">
        <ele>179.981213</ele>
        <time>2024-06-02T08:35:10.000Z</time>
      </trkpt>
      <trkpt lat="36.214881" lon="-86.747977">
        <ele>180.077383</ele>
        <time>2024-06-02T08:35:11.000Z</time>
      </trkpt>
      <trkpt lat="36.214954" lon="-86.747944">
        <ele>180.172306</ele>
        <time>2024-06-02T08:35:12.000Z</time>
      </trkpt>
      <trkpt lat="36.215029" lon="-86.747939">
        <ele>180.266172</ele>
        <time>2024-06-02T08:35:13.000Z</time>
      </trkpt>
      <trkpt lat="36.215114" lon="-86.74792">
        <ele>180.358823</ele>
        <time>2024-06-02T08:35:14.000Z</time>
      </trkpt>
      <trkpt lat="36.215181" lon="-86.747907">
        <ele>180.451295</ele>
        <time>2024-06-02T08:35:15.000Z</time>
      </trkpt>
      <trkpt lat="36.215256" lon="-86.74789">
        <ele>180.543287</ele>
        <time>2024-06-02T08:35:16.000Z</time>
      </trkpt>
      <trkpt lat="36.215317" lon="-86.747886">
        <ele>180.634895</ele>
        <time>2024-06-02T08:35:17.000Z</time>
      </trkpt>
      <trkpt lat="36.215388" lon="-86.747876">
        <ele>180.725385</ele>
        <time>2024-06-02T08:35:18.000Z</time>
      </trkpt>
      <trkpt lat="36.215473" lon="-86.747858">
        <ele>180.814773</ele>
        <time>2024-06-02T08:35:19.000Z</time>
      </trkpt>
      <trkpt lat="36.215547" lon="-86.747853">
        <ele>180.904293</ele>
        <time>2024-06-02T08:35:20.000Z</time>
      </trkpt>
      <trkpt lat="36.215617" lon="-86.747826">
        <ele>180.992915</ele>
        <time>2024-06-02T08:35:21.000Z</time>
      </trkpt>
      <trkpt lat="36.215674" lon="-86.747813">
        <ele>181.080466</ele>
        <time>2024-06-02T08:35:22.000Z</time>
      </trkpt>
      <trkpt lat="36.215737" lon="-86.747795">
        <ele>181.167202</ele>
        <time>2024-06-02T08:35:23.000Z</time>
      </trkpt>
      <trkpt lat="36.21581" lon="-86.747775">
        <ele>181.25272</ele>
        <time>2024-06-02T08:35:24.000Z</time>
      </trkpt>
      <trkpt lat="36.215879" lon="-86.747751">
        <ele>181.339244</ele>
        <time>2024-06-02T08:35:25.000Z</time>
      </trkpt>
      <trkpt lat="36.215941" lon="-86.747752">
        <ele>181.424359</ele>
        <time>2024-06-02T08:35:26.000Z</time>
      </trkpt>
      <trkpt lat="36.216016" lon="-86.747724">
        <ele>181.509098</ele>
        <time>2024-06-02T08:35:27.000Z</time>
      </trkpt>
      <trkpt lat="36.21608" lon="-86.747721">
        <ele>181.594026</ele>
        <time>2024-06-02T08:35:28.000Z</time>
      </trkpt>
      <trkpt lat="36.216149" lon="-86.747691">
        <ele>181.679145</ele>
        <time>2024-06-02T08:35:29.000Z</time>
      </trkpt>
      <trkpt lat="36.216208" lon="-86.747693">
        <ele>181.762829</ele>
        <time>2024-06-02T08:35:30.000Z</time>
      </trkpt>
      <trkpt lat="36.216271" lon="-86.747681">
        <ele>181.898558</ele>
        <time>2024-06-02T08:35:31.000Z</time>
      </trkpt>
      <trkpt lat="36.216352" lon="-86.747653">
        <ele>182.120119</ele>
        <time>2024-06-02T08:35:32.000Z</time>
      </trkpt>
      <trkpt lat="36.216404" lon="-86.747654">
        <ele>182.337951</ele>
        <time>2024-06-02T08:35:33.000Z</time>
      </trkpt>
      <trkpt lat="36.216477" lon="-86.747631">
        <ele>182.556174</ele>
        <time>2024-06-02T08:35:34.000Z</time>
      </trkpt>
      <trkpt lat="36.21654" lon="-86.747622">
        <ele>182.77527</ele>
        <time>2024-06-02T08:35:35.000Z</time>
      </trkpt>
      <trkpt lat="36.216598" lon="-86.747604">
        <ele>182.997234</ele>
        <time>2024-06-02T08:35:36.000Z</time>
      </trkpt>
      <trkpt lat="36.216666" lon="-86.747601">
        <ele>183.215891</ele>
        <time>2024-06-02T08:35:37.000Z</time>
      </trkpt>
      <trkpt lat="36.216738" lon="-86.747576">
        <ele>183.434986</ele>
        <time>2024-06-02T08:35:38.000Z</time>
      </trkpt>
      <trkpt lat="36.216798" lon="-86.747565">
        <ele>183.654081</ele>
        <time>2024-06-02T08:35:39.000Z</time>
      </trkpt>
      <trkpt lat="36.21685" lon="-86.747556">
        <ele>183.869405</ele>
        <time>2024-06-02T08:35:40.000Z</time>
      </trkpt>
      <trkpt lat="36.216919" lon="-86.747547">
        <ele>184.08096</ele>
        <time>2024-06-02T08:35:41.000Z</time>
      </trkpt>
      <trkpt lat="36.216977" lon="-86.747523">
        <ele>184.292513</ele>
        <time>2024-06-02T08:35:42.000Z</time>
      </trkpt>
      <trkpt lat="36.217041" lon="-86.747516">
        <ele>184.507837</ele>
        <time>2024-06-02T08:35:43.000Z</time>
      </trkpt>
      <trkpt lat="36.217107" lon="-86.747514">
        <ele>184.719838</ele>
        <time>2024-06-02T08:35:44.000Z</time>
      </trkpt>
      <trkpt lat="36.217164" lon="-86.747496">
        <ele>184.931385</ele>
        <time>2024-06-02T08:35:45.000Z</time>
      </trkpt>
      <trkpt lat="36.217236" lon="-86.747474">
        <ele>185.142541</ele>
        <time>2024-06-02T08:35:46.000Z</time>
      </trkpt>
      <trkpt lat="36.217285" lon="-86.747467">
        <ele>185.349981</ele>
        <time>2024-06-02T08:35:47.000Z</time>
      </trkpt>
      <trkpt lat="36.217362" lon="-86.747464">
        <ele>185.567826</ele>
        <time>2024-06-02T08:35:48.000Z</time>
      </trkpt>
      <trkpt lat="36.217415" lon="-86.747461">
        <ele>185.7786</ele>
        <time>2024-06-02T08:35:49.000Z</time>
      </trkpt>
      <trkpt lat="36.217481" lon="-86.747439">
        <ele>185.995756</ele>
        <time>2024-06-02T08:35:50.000Z</time>
      </trkpt>
      <trkpt lat="36.217552" lon="-86.747427">
        <ele>186.209562</ele>
        <time>2024-06-02T08:35:51.000Z</time>
      </trkpt>
      <trkpt lat="36.217604" lon="-86.74743">
        <ele>186.424041</ele>
        <time>2024-06-02T08:35:52.000Z</time>
      </trkpt>
      <trkpt lat="36.217673" lon="-86.747416">
        <ele>186.642689</ele>
        <time>2024-06-02T08:35:53.000Z</time>
      </trkpt>
      <trkpt lat="36.217727" lon="-86.7474">
        <ele>186.8562</ele>
        <time>2024-06-02T08:35:54.000Z</time>
      </trkpt>
      <trkpt lat="36.217798" lon="-86.747379">
        <ele>187.071515</ele>
        <time>2024-06-02T08:35:55.000Z</time>
      </trkpt>
      <trkpt lat="36.21786" lon="-86.747362">
        <ele>187.282916</ele>
        <time>2024-06-02T08:35:56.000Z</time>
      </trkpt>
      <trkpt lat="36.217916" lon="-86.747336">
        <ele>187.493701</ele>
        <time>2024-06-02T08:35:57.000Z</time>
      </trkpt>
      <trkpt lat="36.21797" lon="-86.747335">
        <ele>187.702365</ele>
        <time>2024-06-02T08:35:58.000Z</time>
      </trkpt>
      <trkpt lat="36.218036" lon="-86.747315">
        <ele>187.914876</ele>
        <time>2024-06-02T08:35:59.000Z</time>
      </trkpt>
      <trkpt lat="36.218101" lon="-86.7473">
        <ele>188.171932</ele>
        <time>2024-06-02T08:36:00.000Z</time>
      </trkpt>
      <trkpt lat="36.218148" lon="-86.747294">
        <ele>188.424846</ele>
        <time>2024-06-02T08:36:01.000Z</time>
      </trkpt>
      <trkpt lat="36.218215" lon="-86.747277">
        <ele>188.67837</ele>
        <time>2024-06-02T08:36:02.000Z</time>
      </trkpt>
      <trkpt lat="36.218282" lon="-86.747266">
        <ele>188.931278</ele>
        <time>2024-06-02T08:36:03.000Z</time>
      </trkpt>
      <trkpt lat="36.218339" lon="-86.74725">
        <ele>189.18361</ele>
        <time>2024-06-02T08:36:04.000Z</time>
      </trkpt>
      <trkpt lat="36.218388" lon="-86.747234">
        <ele>189.444833</ele>
        <time>2024-06-02T08:36:05.000Z</time>
      </trkpt>
      <trkpt lat="36.218457" lon="-86.747227">
        <ele>189.717539</ele>
        <time>2024-06-02T08:36:06.000Z</time>
      </trkpt>
      <trkpt lat="36.218523" lon="-86.747216">
        <ele>190.002778</ele>
        <time>2024-06-02T08:36:07.000Z</time>
      </trkpt>
      <trkpt lat="36.218597" lon="-86.747197">
        <ele>190.287192</ele>
        <time>2024-06-02T08:36:08.000Z</time>
      </trkpt>
      <trkpt lat="36.218664" lon="-86.747197">
        <ele>190.575178</ele>
        <time>2024-06-02T08:36:09.000Z</time>
      </trkpt>
      <trkpt lat="36.218733" lon="-86.747191">
        <ele>190.858959</ele>
        <time>2024-06-02T08:36:10.000Z</time>
      </trkpt>
      <trkpt lat="36.218789" lon="-86.747187">
        <ele>191.14377</ele>
        <time>2024-06-02T08:36:11.000Z</time>
      </trkpt>
      <trkpt lat="36.218855" lon="-86.747168">
        <ele>191.429985</ele>
        <time>2024-06-02T08:36:12.000Z</time>
      </trkpt>
      <trkpt lat="36.218938" lon="-86.747163">
        <ele>191.71673</ele>
        <time>2024-06-02T08:36:13.000Z</time>
      </trkpt>
      <trkpt lat="36.218997" lon="-86.747147">
        <ele>192.004083</ele>
        <time>2024-06-02T08:36:14.000Z</time>
      </trkpt>
      <trkpt lat="36.219056" lon="-86.747121">
        <ele>192.29143</ele>
        <time>2024-06-02T08:36:15.000Z</time>
      </trkpt>
      <trkpt lat="36.219123" lon="-86.747108">
        <ele>192.582355</ele>
        <time>2024-06-02T08:36:16.000Z</time>
      </trkpt>
      <trkpt lat="36.219194" lon="-86.74709">
        <ele>192.869696</ele>
        <time>2024-06-02T08:36:17.000Z</time>
      </trkpt>
      <trkpt lat="36.219269" lon="-86.747082">
        <ele>193.164647</ele>
        <time>2024-06-02T08:36:18.000Z</time>
      </trkpt>
      <trkpt lat="36.219329" lon="-86.747064">
        <ele>193.456328</ele>
        <time>2024-06-02T08:36:19.000Z</time>
      </trkpt>
      <trkpt lat="36.219392" lon="-86.747043">
        <ele>193.750523</ele>
        <time>2024-06-02T08:36:20.000Z</time>
      </trkpt>
      <trkpt lat="36.219463" lon="-86.747025">
        <ele>194.048098</ele>
        <time>2024-06-02T08:36:21.000Z</time>
      </trkpt>
      <trkpt lat="36.219543" lon="-86.746996">
        <ele>194.35329</ele>
        <time>2024-06-02T08:36:22.000Z</time>
      </trkpt>
      <trkpt lat="36.219618" lon="-86.746979">
        <ele>194.662003</ele>
        <time>2024-06-02T08:36:23.000Z</time>
      </trkpt>
      <trkpt lat="36.219684" lon="-86.746979">
        <ele>194.978476</ele>
        <time>2024-06-02T08:36:24.000Z</time>
      </trkpt>
      <trkpt lat="36.219768" lon="-86.746965">
        <ele>195.302758</ele>
        <time>2024-06-02T08:36:25.000Z</time>
      </trkpt>
      <trkpt lat="36.219847" lon="-86.746946">
        <ele>195.66183</ele>
        <time>2024-06-02T08:36:26.000Z</time>
      </trkpt>
      <trkpt lat="36.21993" lon="-86.746919">
        <ele>196.047151</ele>
        <time>2024-06-02T08:36:27.000Z</time>
      </trkpt>
      <trkpt lat="36.22001" lon="-86.746911">
        <ele>196.439155</ele>
        <time>2024-06-02T08:36:28.000Z</time>
      </trkpt>
      <trkpt lat="36.220085" lon="-86.746896">
        <ele>196.835827</ele>
        <time>2024-06-02T08:36:29.000Z</time>
      </trkpt>
      <trkpt lat="36.22016" lon="-86.746877">
        <ele>197.235228</ele>
        <time>2024-06-02T08:36:30.000Z</time>
      </trkpt>
      <trkpt lat="36.220254" lon="-86.746863">
        <ele>197.634644</ele>
        <time>2024-06-02T08:36:31.000Z</time>
      </trkpt>
      <trkpt lat="36.220341" lon="-86.746842">
        <ele>198.038204</ele>
        <time>2024-06-02T08:36:32.000Z</time>
      </trkpt>
      <trkpt lat="36.220425" lon="-86.746826">
        <ele>198.446468</ele>
        <time>2024-06-02T08:36:33.000Z</time>
      </trkpt>
      <trkpt lat="36.220516" lon="-86.746808">
        <ele>198.862706</ele>
        <time>2024-06-02T08:36:34.000Z</time>
      </trkpt>
      <trkpt lat="36.220596" lon="-86.746802">
        <ele>199.278958</ele>
        <time>2024-06-02T08:36:35.000Z</time>
      </trkpt>
      <trkpt lat="36.220683" lon="-86.746793">
        <ele>199.705082</ele>
        <time>2024-06-02T08:36:36.000Z</time>
      </trkpt>
      <trkpt lat="36.22077" lon="-86.746779">
        <ele>200.13688</ele>
        <time>2024-06-02T08:36:37.000Z</time>
      </trkpt>
      <trkpt lat="36.220875" lon="-86.746751">
        <ele>200.582362</ele>
        <time>2024-06-02T08:36:38.000Z</time>
      </trkpt>
      <trkpt lat="36.220963" lon="-86.746748">
        <ele>201.041153</ele>
        <time>2024-06-02T08:36:39.000Z</time>
      </trkpt>
      <trkpt lat="36.221051" lon="-86.746733">
        <ele>201.506479</ele>
        <time>2024-06-02T08:36:40.000Z</time>
      </trkpt>
      <trkpt lat="36.221152" lon="-86.746707">
        <ele>201.982236</ele>
        <time>2024-06-02T08:36:41.000Z</time>
      </trkpt>
      <trkpt lat="36.22126" lon="-86.746686">
        <ele>202.465946</ele>
        <time>2024-06-02T08:36:42.000Z</time>
      </trkpt>
      <trkpt lat="36.221358" lon="-86.746658">
        <ele>202.958074</ele>
        <time>2024-06-02T08:36:43.000Z</time>
      </trkpt>
      <trkpt lat="36.221467" lon="-86.746624">
        <ele>203.453239</ele>
        <time>2024-06-02T08:36:44.000Z</time>
      </trkpt>
      <trkpt lat="36.221572" lon="-86.746599">
        <ele>203.960943</ele>
        <time>2024-06-02T08:36:45.000Z</time>
      </trkpt>
      <trkpt lat="36.221674" lon="-86.746581">
        <ele>203.977155</ele>
        <time>2024-06-02T08:36:46.000Z</time>
      </trkpt>
      <trkpt lat="36.221771" lon="-86.746565">
        <ele>203.926966</ele>
        <time>2024-06-02T08:36:47.000Z</time>
      </trkpt>
      <trkpt lat="36.221884" lon="-86.746548">
        <ele>203.875412</ele>
        <time>2024-06-02T08:36:48.000Z</time>
      </trkpt>
      <trkpt lat="36.222002" lon="-86.746516">
        <ele>203.822839</ele>
        <time>2024-06-02T08:36:49.000Z</time>
      </trkpt>
      <trkpt lat="36.222111" lon="-86.746492">
        <ele>203.770099</ele>
        <time>2024-06-02T08:36:50.000Z</time>
      </trkpt>
      <trkpt lat="36.222233" lon="-86.746468">
        <ele>203.714827</ele>
        <time>2024-06-02T08:36:51.000Z</time>
      </trkpt>
      <trkpt lat="36.222349" lon="-86.746449">
        <ele>203.65851</ele>
        <time>2024-06-02T08:36:52.000Z</time>
      </trkpt>
      <trkpt lat="36.222465" lon="-86.746412">
        <ele>203.601819</ele>
        <time>2024-06-02T08:36:53.000Z</time>
      </trkpt>
      <trkpt lat="36.222588" lon="-86.746382">
        <ele>203.545064</ele>
        <time>2024-06-02T08:36:54.000Z</time>
      </trkpt>
      <trkpt lat="36.22271" lon="-86.746356">
        <ele>203.48777</ele>
        <time>2024-06-02T08:36:55.000Z</time>
      </trkpt>
      <trkpt lat="36.222841" lon="-86.746317">
        <ele>203.430793</ele>
        <time>2024-06-02T08:36:56.000Z</time>
      </trkpt>
      <trkpt lat="36.222966" lon="-86.746291">
        <ele>203.373046</ele>
        <time>2024-06-02T08:36:57.000Z</time>
      </trkpt>
      <trkpt lat="36.223083" lon="-86.746261">
        <ele>203.314839</ele>
        <time>2024-06-02T08:36:58.000Z</time>
      </trkpt>
      <trkpt lat="36.223217" lon="-86.746247">
        <ele>203.255331</ele>
        <time>2024-06-02T08:36:59.000Z</time>
      </trkpt>
      <trkpt lat="36.223353" lon="-86.746233">
        <ele>203.194998</ele>
        <time>2024-06-02T08:37:01.000Z</time>
      </trkpt>
      <trkpt lat="36.223483" lon="-86.746205">
        <ele>202.50393</ele>
        <time>2024-06-02T08:37:02.000Z</time>
      </trkpt>
      <trkpt lat="36.22361" lon="-86.746186">
        <ele>201.777005</ele>
        <time>2024-06-02T08:37:03.000Z</time>
      </trkpt>
      <trkpt lat="36.223747" lon="-86.746157">
        <ele>201.044051</ele>
        <time>2024-06-02T08:37:05.000Z</time>
      </trkpt>
      <trkpt lat="36.223874" lon="-86.746133">
        <ele>200.301118</ele>
        <time>2024-06-02T08:37:06.000Z</time>
      </trkpt>
      <trkpt lat="36.224006" lon="-86.746108">
        <ele>199.558193</ele>
        <time>2024-06-02T08:37:07.000Z</time>
      </trkpt>
      <trkpt lat="36.224145" lon="-86.746073">
        <ele>198.82249</ele>
        <time>2024-06-02T08:37:09.000Z</time>
      </trkpt>
      <trkpt lat="36.224289" lon="-86.746063">
        <ele>198.087357</ele>
        <time>2024-06-02T08:37:11.000Z</time>
      </trkpt>
      <trkpt lat="36.224413" lon="-86.746043">
        <ele>197.358149</ele>
        <time>2024-06-02T08:37:12.000Z</time>
      </trkpt>
      <trkpt lat="36.22456" lon="-86.746017">
        <ele>196.62597</ele>
        <time>2024-06-02T08:37:14.000Z</time>
      </trkpt>
      <trkpt lat="36.224694" lon="-86.746003">
        <ele>195.900641</ele>
        <time>2024-06-02T08:37:15.000Z</time>
      </trkpt>
      <trkpt lat="36.224824" lon="-86.74599">
        <ele>195.170737</ele>
        <time>2024-06-02T08:37:16.000Z</time>
      </trkpt>
      <trkpt lat="36.224958" lon="-86.745996">
        <ele>194.441553</ele>
        <time>2024-06-02T08:37:17.000Z</time>
      </trkpt>
      <trkpt lat="36.225088" lon="-86.746001">
        <ele>193.718081</ele>
        <time>2024-06-02T08:37:18.000Z</time>
      </trkpt>
      <trkpt lat="36.225237" lon="-86.746008">
        <ele>193.123652</ele>
        <time>2024-06-02T08:37:20.000Z</time>
      </trkpt>
      <trkpt lat="36.225359" lon="-86.746012">
        <ele>192.592748</ele>
        <time>2024-06-02T08:37:21.000Z</time>
      </trkpt>
      <trkpt lat="36.225515" lon="-86.746027">
        <ele>192.053724</ele>
        <time>2024-06-02T08:37:23.000Z</time>
      </trkpt>
      <trkpt lat="36.225648" lon="-86.746039">
        <ele>191.502992</ele>
        <time>2024-06-02T08:37:24.000Z</time>
      </trkpt>
      <trkpt lat="36.225795" lon="-86.746051">
        <ele>190.955495</ele>
        <time>2024-06-02T08:37:26.000Z</time>
      </trkpt>
      <trkpt lat="36.225935" lon="-86.746084">
        <ele>190.406702</ele>
        <time>2024-06-02T08:37:28.000Z</time>
      </trkpt>
      <trkpt lat="36.226084" lon="-86.746105">
        <ele>189.854405</ele>
        <time>2024-06-02T08:37:30.000Z</time>
      </trkpt>
      <trkpt lat="36.226217" lon="-86.74614">
        <ele>189.307497</ele>
        <time>2024-06-02T08:37:32.000Z</time>
      </trkpt>
      <trkpt lat="36.226356" lon="-86.746176">
        <ele>188.762544</ele>
        <time>2024-06-02T08:37:34.000Z</time>
      </trkpt>
      <trkpt lat="36.226493" lon="-86.746219">
        <ele>188.218673</ele>
        <time>2024-06-02T08:37:36.000Z</time>
      </trkpt>
      <trkpt lat="36.226626" lon="-86.746263">
        <ele>187.682969</ele>
        <time>2024-06-02T08:37:38.000Z</time>
      </trkpt>
      <trkpt lat="36.22676" lon="-86.746308">
        <ele>187.143141</ele>
        <time>2024-06-02T08:37:40.000Z</time>
      </trkpt>
      <trkpt lat="36.226888" lon="-86.746356">
        <ele>186.603352</ele>
        <time>2024-06-02T08:37:41.000Z</time>
      </trkpt>
      <trkpt lat="36.227027" lon="-86.746411">
        <ele>186.275326</ele>
        <time>2024-06-02T08:37:43.000Z</time>
      </trkpt>
      <trkpt lat="36.227152" lon="-86.746475">
        <ele>185.960898</ele>
        <time>2024-06-02T08:37:45.000Z</time>
      </trkpt>
      <trkpt lat="36.227282" lon="-86.746517">
        <ele>185.650224</ele>
        <time>2024-06-02T08:37:46.000Z</time>
      </trkpt>
      <trkpt lat="36.227425" lon="-86.746569">
        <ele>185.336377</ele>
        <time>2024-06-02T08:37:48.000Z</time>
      </trkpt>
      <trkpt lat="36.227541" lon="-86.746625">
        <ele>185.026847</ele>
        <time>2024-06-02T08:37:49.000Z</time>
      </trkpt>
      <trkpt lat="36.227683" lon="-86.746678">
        <ele>184.716762</ele>
        <time>2024-06-02T08:37:51.000Z</time>
      </trkpt>
      <trkpt lat="36.227804" lon="-86.746738">
        <ele>184.411959</ele>
        <time>2024-06-02T08:37:52.000Z</time>
      </trkpt>
      <trkpt lat="36.227922" lon="-86.746784">
        <ele>184.105283</ele>
        <time>2024-06-02T08:37:53.000Z</time>
      </trkpt>
      <trkpt lat="36.228062" lon="-86.74685">
        <ele>183.804999</ele>
        <time>2024-06-02T08:37:55.000Z</time>
      </trkpt>
      <trkpt lat="36.228181" lon="-86.74691">
        <ele>183.50474</ele>
        <time>2024-06-02T08:37:56.000Z</time>
      </trkpt>
      <trkpt lat="36.228308" lon="-86.74696">
        <ele>183.208521</ele>
        <time>2024-06-02T08:37:57.000Z</time>
      </trkpt>
      <trkpt lat="36.228416" lon="-86.747024">
        <ele>182.907674</ele>
        <time>2024-06-02T08:37:58.000Z</time>
      </trkpt>
      <trkpt lat="36.228554" lon="-86.747064">
        <ele>182.606287</ele>
        <time>2024-06-02T08:38:00.000Z</time>
      </trkpt>
      <trkpt lat="36.228673" lon="-86.747109">
        <ele>182.3537</ele>
        <time>2024-06-02T08:38:01.000Z</time>
      </trkpt>
      <trkpt lat="36.228814" lon="-86.747146">
        <ele>182.138832</ele>
        <time>2024-06-02T08:38:03.000Z</time>
      </trkpt>
      <trkpt lat="36.228943" lon="-86.747182">
        <ele>181.927705</ele>
        <time>2024-06-02T08:38:04.000Z</time>
      </trkpt>
      <trkpt lat="36.229061" lon="-86.747218">
        <ele>181.712448</ele>
        <time>2024-06-02T08:38:05.000Z</time>
      </trkpt>
      <trkpt lat="36.229199" lon="-86.747253">
        <ele>181.503292</ele>
        <time>2024-06-02T08:38:07.000Z</time>
      </trkpt>
      <trkpt lat="36.229315" lon="-86.747276">
        <ele>181.29279</ele>
        <time>2024-06-02T08:38:08.000Z</time>
      </trkpt>
      <trkpt lat="36.229449" lon="-86.747306">
        <ele>181.084771</ele>
        <time>2024-06-02T08:38:10.000Z</time>
      </trkpt>
      <trkpt lat="36.229563" lon="-86.74732">
        <ele>180.881106</ele>
        <time>2024-06-02T08:38:11.000Z</time>
      </trkpt>
      <trkpt lat="36.229698" lon="-86.747345">
        <ele>180.67952</ele>
        <time>2024-06-02T08:38:13.000Z</time>
      </trkpt>
      <trkpt lat="36.229812" lon="-86.747349">
        <ele>180.478184</ele>
        <time>2024-06-02T08:38:14.000Z</time>
      </trkpt>
      <trkpt lat="36.229933" lon="-86.747368">
        <ele>180.280428</ele>
        <time>2024-06-02T08:38:15.000Z</time>
      </trkpt>
      <trkpt lat="36.230063" lon="-86.747375">
        <ele>180.085973</ele>
        <time>2024-06-02T08:38:16.000Z</time>
      </trkpt>
      <trkpt lat="36.230179" lon="-86.747392">
        <ele>179.891714</ele>
        <time>2024-06-02T08:38:17.000Z</time>
      </trkpt>
      <trkpt lat="36.230302" lon="-86.747402">
        <ele>179.699126</ele>
        <time>2024-06-02T08:38:18.000Z</time>
      </trkpt>
      <trkpt lat="36.230414" lon="-86.747409">
        <ele>179.622868</ele>
        <time>2024-06-02T08:38:19.000Z</time>
      </trkpt>
      <trkpt lat="36.230529" lon="-86.747395">
        <ele>179.790336</ele>
        <time>2024-06-02T08:38:20.000Z</time>
      </trkpt>
      <trkpt lat="36.230641" lon="-86.7474">
        <ele>179.959225</ele>
        <time>2024-06-02T08:38:21.000Z</time>
      </trkpt>
      <trkpt lat="36.230757" lon="-86.747397">
        <ele>180.125216</ele>
        <time>2024-06-02T08:38:22.000Z</time>
      </trkpt>
      <trkpt lat="36.230881" lon="-86.747415">
        <ele>180.291205</ele>
        <time>2024-06-02T08:38:23.000Z</time>
      </trkpt>
      <trkpt lat="36.230984" lon="-86.7474">
        <ele>180.457221</ele>
        <time>2024-06-02T08:38:24.000Z</time>
      </trkpt>
      <trkpt lat="36.2311" lon="-86.747403">
        <ele>180.623263</ele>
        <time>2024-06-02T08:38:25.000Z</time>
      </trkpt>
      <trkpt lat="36.231226" lon="-86.747386">
        <ele>180.786686</ele>
        <time>2024-06-02T08:38:26.000Z</time>
      </trkpt>
      <trkpt lat="36.231339" lon="-86.747377">
        <ele>180.950966</ele>
        <time>2024-06-02T08:38:27.000Z</time>
      </trkpt>
      <trkpt lat="36.231434" lon="-86.747348">
        <ele>181.116996</ele>
        <time>2024-06-02T08:38:28.000Z</time>
      </trkpt>
      <trkpt lat="36.231556" lon="-86.74734">
        <ele>181.282031</ele>
        <time>2024-06-02T08:38:29.000Z</time>
      </trkpt>
      <trkpt lat="36.231675" lon="-86.747346">
        <ele>181.448132</ele>
        <time>2024-06-02T08:38:30.000Z</time>
      </trkpt>
      <trkpt lat="36.231792" lon="-86.747329">
        <ele>181.612753</ele>
        <time>2024-06-02T08:38:31.000Z</time>
      </trkpt>
      <trkpt lat="36.231903" lon="-86.74733">
        <ele>181.77609</ele>
        <time>2024-06-02T08:38:32.000Z</time>
      </trkpt>
      <trkpt lat="36.232001" lon="-86.747323">
        <ele>181.939503</ele>
        <time>2024-06-02T08:38:33.000Z</time>
      </trkpt>
      <trkpt lat="36.232122" lon="-86.747315">
        <ele>182.102998</ele>
        <time>2024-06-02T08:38:34.000Z</time>
      </trkpt>
      <trkpt lat="36.23223" lon="-86.747285">
        <ele>182.3339</ele>
        <time>2024-06-02T08:38:35.000Z</time>
      </trkpt>
      <trkpt lat="36.232335" lon="-86.747283">
        <ele>182.639492</ele>
        <time>2024-06-02T08:38:36.000Z</time>
      </trkpt>
      <trkpt lat="36.232445" lon="-86.747263">
        <ele>182.942895</ele>
        <time>2024-06-02T08:38:37.000Z</time>
      </trkpt>
      <trkpt lat="36.232549" lon="-86.747244">
        <ele>183.243536</ele>
        <time>2024-06-02T08:38:38.000Z</time>
      </trkpt>
      <trkpt lat="36.232658" lon="-86.747226">
        <ele>183.540019</ele>
        <time>2024-06-02T08:38:39.000Z</time>
      </trkpt>
      <trkpt lat="36.232758" lon="-86.747198">
        <ele>183.835405</ele>
        <time>2024-06-02T08:38:40.000Z</time>
      </trkpt>
      <trkpt lat="36.232863" lon="-86.747164">
        <ele>184.124041</ele>
        <time>2024-06-02T08:38:41.000Z</time>
      </trkpt>
      <trkpt lat="36.232962" lon="-86.747139">
        <ele>184.411594</ele>
        <time>2024-06-02T08:38:42.000Z</time>
      </trkpt>
      <trkpt lat="36.23307" lon="-86.747101">
        <ele>184.698219</ele>
        <time>2024-06-02T08:38:43.000Z</time>
      </trkpt>
      <trkpt lat="36.233157" lon="-86.747052">
        <ele>184.983441</ele>
        <time>2024-06-02T08:38:44.000Z</time>
      </trkpt>
      <trkpt lat="36.23325" lon="-86.747024">
        <ele>185.268051</ele>
        <time>2024-06-02T08:38:45.000Z</time>
      </trkpt>
      <trkpt lat="36.233355" lon="-86.746976">
        <ele>185.548128</ele>
        <time>2024-06-02T08:38:46.000Z</time>
      </trkpt>
      <trkpt lat="36.233447" lon="-86.746939">
        <ele>185.833089</ele>
        <time>2024-06-02T08:38:47.000Z</time>
      </trkpt>
      <trkpt lat="36.233539" lon="-86.746875">
        <ele>186.110221</ele>
        <time>2024-06-02T08:38:48.000Z</time>
      </trkpt>
      <trkpt lat="36.233621" lon="-86.746833">
        <ele>186.389585</ele>
        <time>2024-06-02T08:38:49.000Z</time>
      </trkpt>
      <trkpt lat="36.233713" lon="-86.746776">
        <ele>186.663245</ele>
        <time>2024-06-02T08:38:50.000Z</time>
      </trkpt>
      <trkpt lat="36.233804" lon="-86.746704">
        <ele>186.93894</ele>
        <time>2024-06-02T08:38:51.000Z</time>
      </trkpt>
      <trkpt lat="36.233886" lon="-86.746642">
        <ele>187.188672</ele>
        <time>2024-06-02T08:38:52.000Z</time>
      </trkpt>
      <trkpt lat="36.233953" lon="-86.746557">
        <ele>187.094248</ele>
        <time>2024-06-02T08:38:53.000Z</time>
      </trkpt>
      <trkpt lat="36.23403" lon="-86.746488">
        <ele>186.998609</ele>
        <time>2024-06-02T08:38:54.000Z</time>
      </trkpt>
      <trkpt lat="36.234121" lon="-86.7464">
        <ele>186.903997</ele>
        <time>2024-06-02T08:38:55.000Z</time>
      </trkpt>
      <trkpt lat="36.234185" lon="-86.746326">
        <ele>186.808705</ele>
        <time>2024-06-02T08:38:56.000Z</time>
      </trkpt>
      <trkpt lat="36.234266" lon="-86.746248">
        <ele>186.713116</ele>
        <time>2024-06-02T08:38:57.000Z</time>
      </trkpt>
      <trkpt lat="36.234351" lon="-86.746163">
        <ele>186.616032</ele>
        <time>2024-06-02T08:38:58.000Z</time>
      </trkpt>
      <trkpt lat="36.234423" lon="-86.746077">
        <ele>186.519302</ele>
        <time>2024-06-02T08:38:59.000Z</time>
      </trkpt>
      <trkpt lat="36.234483" lon="-86.745991">
        <ele>186.421809</ele>
        <time>2024-06-02T08:39:00.000Z</time>
      </trkpt>
      <trkpt lat="36.234559" lon="-86.745904">
        <ele>186.32442</ele>
        <time>2024-06-02T08:39:01.000Z</time>
      </trkpt>
      <trkpt lat="36.234626" lon="-86.745798">
        <ele>186.226589</ele>
        <time>2024-06-02T08:39:02.000Z</time>
      </trkpt>
      <trkpt lat="36.234706" lon="-86.745708">
        <ele>186.126975</ele>
        <time>2024-06-02T08:39:03.000Z</time>
      </trkpt>
      <trkpt lat="36.234772" lon="-86.745623">
        <ele>186.027341</ele>
        <time>2024-06-02T08:39:04.000Z</time>
      </trkpt>
      <trkpt lat="36.234849" lon="-86.745522">
        <ele>185.92894</ele>
        <time>2024-06-02T08:39:05.000Z</time>
      </trkpt>
      <trkpt lat="36.234905" lon="-86.745426">
        <ele>185.829412</ele>
        <time>2024-06-02T08:39:06.000Z</time>
      </trkpt>
      <trkpt lat="36.234978" lon="-86.745326">
        <ele>185.729221</ele>
        <time>2024-06-02T08:39:07.000Z</time>
      </trkpt>
      <trkpt lat="36.235053" lon="-86.745227">
        <ele>185.62904</ele>
        <time>2024-06-02T08:39:08.000Z</time>
      </trkpt>
      <trkpt lat="36.235135" lon="-86.745132">
        <ele>185.526898</ele>
        <time>2024-06-02T08:39:09.000Z</time>
      </trkpt>
      <trkpt lat="36.235203" lon="-86.745038">
        <ele>185.318024</ele>
        <time>2024-06-02T08:39:10.000Z</time>
      </trkpt>
      <trkpt lat="36.235273" lon="-86.744936">
        <ele>185.024508</ele>
        <time>2024-06-02T08:39:11.000Z</time>
      </trkpt>
      <trkpt lat="36.235353" lon="-86.74484">
        <ele>184.715535</ele>
        <time>2024-06-02T08:39:12.000Z</time>
      </trkpt>
      <trkpt lat="36.235432" lon="-86.744738">
        <ele>184.414458</ele>
        <time>2024-06-02T08:39:13.000Z</time>
      </trkpt>
      <trkpt lat="36.235509" lon="-86.744632">
        <ele>184.107722</ele>
        <time>2024-06-02T08:39:14.000Z</time>
      </trkpt>
      <trkpt lat="36.235591" lon="-86.744537">
        <ele>183.795228</ele>
        <time>2024-06-02T08:39:15.000Z</time>
      </trkpt>
      <trkpt lat="36.235686" lon="-86.744424">
        <ele>183.482736</ele>
        <time>2024-06-02T08:39:16.000Z</time>
      </trkpt>
      <trkpt lat="36.235774" lon="-86.744337">
        <ele>183.165863</ele>
        <time>2024-06-02T08:39:17.000Z</time>
      </trkpt>
      <trkpt lat="36.235863" lon="-86.744232">
        <ele>182.845003</ele>
        <time>2024-06-02T08:39:18.000Z</time>
      </trkpt>
      <trkpt lat="36.235958" lon="-86.744127">
        <ele>182.522992</ele>
        <time>2024-06-02T08:39:19.000Z</time>
      </trkpt>
      <trkpt lat="36.236055" lon="-86.744042">
        <ele>182.192623</ele>
        <time>2024-06-02T08:39:20.000Z</time>
      </trkpt>
      <trkpt lat="36.23615" lon="-86.743943">
        <ele>181.86063</ele>
        <time>2024-06-02T08:39:21.000Z</time>
      </trkpt>
      <trkpt lat="36.236254" lon="-86.743861">
        <ele>181.517808</ele>
        <time>2024-06-02T08:39:22.000Z</time>
      </trkpt>
      <trkpt lat="36.236345" lon="-86.743763">
        <ele>181.179663</ele>
        <time>2024-06-02T08:39:23.000Z</time>
      </trkpt>
      <trkpt lat="36.236451" lon="-86.743686">
        <ele>180.836147</ele>
        <time>2024-06-02T08:39:24.000Z</time>
      </trkpt>
      <trkpt lat="36.236567" lon="-86.743588">
        <ele>180.536792</ele>
        <time>2024-06-02T08:39:26.000Z</time>
      </trkpt>
      <trkpt lat="36.236664" lon="-86.743501">
        <ele>180.269282</ele>
        <time>2024-06-02T08:39:27.000Z</time>
      </trkpt>
      <trkpt lat="36.236778" lon="-86.743394">
        <ele>180.005052</ele>
        <time>2024-06-02T08:39:29.000Z</time>
      </trkpt>
      <trkpt lat="36.236884" lon="-86.743314">
        <ele>179.737719</ele>
        <time>2024-06-02T08:39:30.000Z</time>
      </trkpt>
      <trkpt lat="36.237006" lon="-86.743221">
        <ele>179.466135</ele>
        <time>2024-06-02T08:39:32.000Z</time>
      </trkpt>
      <trkpt lat="36.237116" lon="-86.743117">
        <ele>179.194547</ele>
        <time>2024-06-02T08:39:34.000Z</time>
      </trkpt>
      <trkpt lat="36.237221" lon="-86.743032">
        <ele>178.92037</ele>
        <time>2024-06-02T08:39:35.000Z</time>
      </trkpt>
      <trkpt lat="36.237339" lon="-86.742928">
        <ele>178.64697</ele>
        <time>2024-06-02T08:39:37.000Z</time>
      </trkpt>
      <trkpt lat="36.237444" lon="-86.742839">
        <ele>178.370767</ele>
        <time>2024-06-02T08:39:38.000Z</time>
      </trkpt>
      <trkpt lat="36.237559" lon="-86.742726">
        <ele>178.093052</ele>
        <time>2024-06-02T08:39:40.000Z</time>
      </trkpt>
      <trkpt lat="36.237669" lon="-86.742618">
        <ele>177.812353</ele>
        <time>2024-06-02T08:39:42.000Z</time>
      </trkpt>
      <trkpt lat="36.237768" lon="-86.742518">
        <ele>177.532292</ele>
        <time>2024-06-02T08:39:43.000Z</time>
      </trkpt>
      <trkpt lat="36.237874" lon="-86.742411">
        <ele>177.252612</ele>
        <time>2024-06-02T08:39:45.000Z</time>
      </trkpt>
      <trkpt lat="36.237984" lon="-86.742284">
        <ele>176.927571</ele>
        <time>2024-06-02T08:39:47.000Z</time>
      </trkpt>
      <trkpt lat="36.238086" lon="-86.742161">
        <ele>176.404656</ele>
        <time>2024-06-02T08:39:49.000Z</time>
      </trkpt>
      <trkpt lat="36.238176" lon="-86.742047">
        <ele>175.8879</ele>
        <time>2024-06-02T08:39:50.000Z</time>
      </trkpt>
      <trkpt lat="36.238261" lon="-86.741913">
        <ele>175.377168</ele>
        <time>2024-06-02T08:39:52.000Z</time>
      </trkpt>
      <trkpt lat="36.238344" lon="-86.741782">
        <ele>174.873639</ele>
        <time>2024-06-02T08:39:53.000Z</time>
      </trkpt>
      <trkpt lat="36.238427" lon="-86.741646">
        <ele>174.355779</ele>
        <time>2024-06-02T08:39:55.000Z</time>
      </trkpt>
      <trkpt lat="36.238493" lon="-86.741515">
        <ele>173.834868</ele>
        <time>2024-06-02T08:39:56.000Z</time>
      </trkpt>
      <trkpt lat="36.238587" lon="-86.741372">
        <ele>173.316157</ele>
        <time>2024-06-02T08:39:58.000Z</time>
      </trkpt>
      <trkpt lat="36.238658" lon="-86.741244">
        <ele>172.804347</ele>
        <time>2024-06-02T08:39:59.000Z</time>
      </trkpt>
      <trkpt lat="36.238724" lon="-86.741101">
        <ele>172.290773</ele>
        <time>2024-06-02T08:40:00.000Z</time>
      </trkpt>
      <trkpt lat="36.238796" lon="-86.740954">
        <ele>171.788502</ele>
        <time>2024-06-02T08:40:02.000Z</time>
      </trkpt>
      <trkpt lat="36.238856" lon="-86.740819">
        <ele>171.308832</ele>
        <time>2024-06-02T08:40:03.000Z</time>
      </trkpt>
      <trkpt lat="36.238933" lon="-86.740672">
        <ele>170.80792</ele>
        <time>2024-06-02T08:40:05.000Z</time>
      </trkpt>
      <trkpt lat="36.238993" lon="-86.740549">
        <ele>170.313849</ele>
        <time>2024-06-02T08:40:06.000Z</time>
      </trkpt>
      <trkpt lat="36.239057" lon="-86.740405">
        <ele>169.925481</ele>
        <time>2024-06-02T08:40:07.000Z</time>
      </trkpt>
      <trkpt lat="36.239098" lon="-86.740268">
        <ele>169.57426</ele>
        <time>2024-06-02T08:40:08.000Z</time>
      </trkpt>
      <trkpt lat="36.23917" lon="-86.740134">
        <ele>169.210336</ele>
        <time>2024-06-02T08:40:09.000Z</time>
      </trkpt>
      <trkpt lat="36.239224" lon="-86.739987">
        <ele>168.843013</ele>
        <time>2024-06-02T08:40:10.000Z</time>
      </trkpt>
      <trkpt lat="36.239278" lon="-86.73984">
        <ele>168.472301</ele>
        <time>2024-06-02T08:40:11.000Z</time>
      </trkpt>
      <trkpt lat="36.239351" lon="-86.739706">
        <ele>168.097502</ele>
        <time>2024-06-02T08:40:12.000Z</time>
      </trkpt>
      <trkpt lat="36.239404" lon="-86.739561">
        <ele>167.721341</ele>
        <time>2024-06-02T08:40:13.000Z</time>
      </trkpt>
      <trkpt lat="36.239465" lon="-86.739426">
        <ele>167.344455</ele>
        <time>2024-06-02T08:40:14.000Z</time>
      </trkpt>
      <trkpt lat="36.239537" lon="-86.739279">
        <ele>166.967591</ele>
        <time>2024-06-02T08:40:16.000Z</time>
      </trkpt>
      <trkpt lat="36.239594" lon="-86.739132">
        <ele>166.594408</ele>
        <time>2024-06-02T08:40:17.000Z</time>
      </trkpt>
      <trkpt lat="36.239668" lon="-86.738994">
        <ele>166.235576</ele>
        <time>2024-06-02T08:40:18.000Z</time>
      </trkpt>
      <trkpt lat="36.239715" lon="-86.738869">
        <ele>165.88367</ele>
        <time>2024-06-02T08:40:19.000Z</time>
      </trkpt>
      <trkpt lat="36.239782" lon="-86.738735">
        <ele>165.531193</ele>
        <time>2024-06-02T08:40:20.000Z</time>
      </trkpt>
      <trkpt lat="36.239846" lon="-86.738609">
        <ele>165.183261</ele>
        <time>2024-06-02T08:40:21.000Z</time>
      </trkpt>
      <trkpt lat="36.239913" lon="-86.738478">
        <ele>165.041257</ele>
        <time>2024-06-02T08:40:22.000Z</time>
      </trkpt>
      <trkpt lat="36.239979" lon="-86.738357">
        <ele>165.065568</ele>
        <time>2024-06-02T08:40:23.000Z</time>
      </trkpt>
      <trkpt lat="36.24004" lon="-86.738237">
        <ele>165.089445</ele>
        <time>2024-06-02T08:40:24.000Z</time>
      </trkpt>
      <trkpt lat="36.240105" lon="-86.738118">
        <ele>165.11346</ele>
        <time>2024-06-02T08:40:25.000Z</time>
      </trkpt>
      <trkpt lat="36.240172" lon="-86.738002">
        <ele>165.137024</ele>
        <time>2024-06-02T08:40:26.000Z</time>
      </trkpt>
      <trkpt lat="36.240232" lon="-86.737889">
        <ele>165.160421</ele>
        <time>2024-06-02T08:40:27.000Z</time>
      </trkpt>
      <trkpt lat="36.240317" lon="-86.737778">
        <ele>165.183788</ele>
        <time>2024-06-02T08:40:28.000Z</time>
      </trkpt>
      <trkpt lat="36.240381" lon="-86.737665">
        <ele>165.207166</ele>
        <time>2024-06-02T08:40:29.000Z</time>
      </trkpt>
      <trkpt lat="36.24047" lon="-86.73756">
        <ele>165.230181</ele>
        <time>2024-06-02T08:40:30.000Z</time>
      </trkpt>
      <trkpt lat="36.24054" lon="-86.737461">
        <ele>165.253107</ele>
        <time>2024-06-02T08:40:31.000Z</time>
      </trkpt>
      <trkpt lat="36.240624" lon="-86.737354">
        <ele>165.275521</ele>
        <time>2024-06-02T08:40:32.000Z</time>
      </trkpt>
      <trkpt lat="36.240694" lon="-86.737277">
        <ele>165.297231</ele>
        <time>2024-06-02T08:40:33.000Z</time>
      </trkpt>
      <trkpt lat="36.240793" lon="-86.737198">
        <ele>165.318749</ele>
        <time>2024-06-02T08:40:34.000Z</time>
      </trkpt>
      <trkpt lat="36.240871" lon="-86.737113">
        <ele>165.340563</ele>
        <time>2024-06-02T08:40:35.000Z</time>
      </trkpt>
      <trkpt lat="36.24097" lon="-86.737054">
        <ele>165.361996</ele>
        <time>2024-06-02T08:40:36.000Z</time>
      </trkpt>
      <trkpt lat="36.241061" lon="-86.736987">
        <ele>165.383282</ele>
        <time>2024-06-02T08:40:37.000Z</time>
      </trkpt>
      <trkpt lat="36.241138" lon="-86.736922">
        <ele>165.412595</ele>
        <time>2024-06-02T08:40:38.000Z</time>
      </trkpt>
      <trkpt lat="36.241234" lon="-86.736879">
        <ele>165.448217</ele>
        <time>2024-06-02T08:40:39.000Z</time>
      </trkpt>
      <trkpt lat="36.241346" lon="-86.736817">
        <ele>165.484381</ele>
        <time>2024-06-02T08:40:40.000Z</time>
      </trkpt>
      <trkpt lat="36.241429" lon="-86.736773">
        <ele>165.51816</ele>
        <time>2024-06-02T08:40:41.000Z</time>
      </trkpt>
      <trkpt lat="36.241519" lon="-86.736723">
        <ele>165.55235</ele>
        <time>2024-06-02T08:40:42.000Z</time>
      </trkpt>
      <trkpt lat="36.241616" lon="-86.736692">
        <ele>165.585057</ele>
        <time>2024-06-02T08:40:43.000Z</time>
      </trkpt>
      <trkpt lat="36.241709" lon="-86.736632">
        <ele>165.61694</ele>
        <time>2024-06-02T08:40:44.000Z</time>
      </trkpt>
      <trkpt lat="36.241772" lon="-86.736599">
        <ele>165.6454</ele>
        <time>2024-06-02T08:40:45.000Z</time>
      </trkpt>
      <trkpt lat="36.241846" lon="-86.736589">
        <ele>165.668984</ele>
        <time>2024-06-02T08:40:46.000Z</time>
      </trkpt>
      <trkpt lat="36.241904" lon="-86.736628">
        <ele>165.687452</ele>
        <time>2024-06-02T08:40:47.000Z</time>
      </trkpt>
      <trkpt lat="36.241919" lon="-86.736678">
        <ele>165.70237</ele>
        <time>2024-06-02T08:40:47.000Z</time>
      </trkpt>
      <trkpt lat="36.241894" lon="-86.736726">
        <ele>165.717646</ele>
        <time>2024-06-02T08:40:48.000Z</time>
      </trkpt>
      <trkpt lat="36.241863" lon="-86.736762">
        <ele>165.736343</ele>
        <time>2024-06-02T08:40:48.000Z</time>
      </trkpt>
      <trkpt lat="36.241801" lon="-86.736783">
        <ele>165.760134</ele>
        <time>2024-06-02T08:40:49.000Z</time>
      </trkpt>
      <trkpt lat="36.241709" lon="-86.736821">
        <ele>165.787091</ele>
        <time>2024-06-02T08:40:50.000Z</time>
      </trkpt>
      <trkpt lat="36.241643" lon="-86.736869">
        <ele>165.816992</ele>
        <time>2024-06-02T08:40:51.000Z</time>
      </trkpt>
      <trkpt lat="36.241557" lon="-86.736924">
        <ele>165.846884</ele>
        <time>2024-06-02T08:40:52.000Z</time>
      </trkpt>
      <trkpt lat="36.241487" lon="-86.736963">
        <ele>165.876638</ele>
        <time>2024-06-02T08:40:53.000Z</time>
      </trkpt>
      <trkpt lat="36.241402" lon="-86.737027">
        <ele>165.907975</ele>
        <time>2024-06-02T08:40:54.000Z</time>
      </trkpt>
      <trkpt lat="36.241314" lon="-86.737081">
        <ele>165.939686</ele>
        <time>2024-06-02T08:40:55.000Z</time>
      </trkpt>
      <trkpt lat="36.241232" lon="-86.73715">
        <ele>165.972373</ele>
        <time>2024-06-02T08:40:56.000Z</time>
      </trkpt>
      <trkpt lat="36.241149" lon="-86.737204">
        <ele>166.0055</ele>
        <time>2024-06-02T08:40:57.000Z</time>
      </trkpt>
      <trkpt lat="36.24107" lon="-86.737274">
        <ele>166.019744</ele>
        <time>2024-06-02T08:40:58.000Z</time>
      </trkpt>
      <trkpt lat="36.241002" lon="-86.737348">
        <ele>166.033986</ele>
        <time>2024-06-02T08:40:59.000Z</time>
      </trkpt>
      <trkpt lat="36.240924" lon="-86.737434">
        <ele>166.048242</ele>
        <time>2024-06-02T08:41:00.000Z</time>
      </trkpt>
      <trkpt lat="36.240843" lon="-86.737507">
        <ele>166.062523</ele>
        <time>2024-06-02T08:41:01.000Z</time>
      </trkpt>
      <trkpt lat="36.240776" lon="-86.737597">
        <ele>166.076818</ele>
        <time>2024-06-02T08:41:02.000Z</time>
      </trkpt>
      <trkpt lat="36.240715" lon="-86.737703">
        <ele>166.090923</ele>
        <time>2024-06-02T08:41:03.000Z</time>
      </trkpt>
      <trkpt lat="36.24066" lon="-86.737794">
        <ele>166.105011</ele>
        <time>2024-06-02T08:41:04.000Z</time>
      </trkpt>
      <trkpt lat="36.240609" lon="-86.737884">
        <ele>166.119018</ele>
        <time>2024-06-02T08:41:05.000Z</time>
      </trkpt>
      <trkpt lat="36.240541" lon="-86.737984">
        <ele>166.132826</ele>
        <time>2024-06-02T08:41:06.000Z</time>
      </trkpt>
      <trkpt lat="36.2405" lon="-86.738094">
        <ele>166.146603</ele>
        <time>2024-06-02T08:41:07.000Z</time>
      </trkpt>
      <trkpt lat="36.240453" lon="-86.738181">
        <ele>166.160399</ele>
        <time>2024-06-02T08:41:08.000Z</time>
      </trkpt>
      <trkpt lat="36.240414" lon="-86.738289">
        <ele>166.174121</ele>
        <time>2024-06-02T08:41:09.000Z</time>
      </trkpt>
      <trkpt lat="36.24038" lon="-86.738396">
        <ele>166.18781</ele>
        <time>2024-06-02T08:41:10.000Z</time>
      </trkpt>
      <trkpt lat="36.240335" lon="-86.738499">
        <ele>166.201294</ele>
        <time>2024-06-02T08:41:11.000Z</time>
      </trkpt>
      <trkpt lat="36.240297" lon="-86.73862">
        <ele>166.215065</ele>
        <time>2024-06-02T08:41:12.000Z</time>
      </trkpt>
      <trkpt lat="36.240258" lon="-86.73872">
        <ele>166.228602</ele>
        <time>2024-06-02T08:41:13.000Z</time>
      </trkpt>
      <trkpt lat="36.240226" lon="-86.738827">
        <ele>166.242193</ele>
        <time>2024-06-02T08:41:14.000Z</time>
      </trkpt>
      <trkpt lat="36.240194" lon="-86.738937">
        <ele>166.255844</ele>
        <time>2024-06-02T08:41:15.000Z</time>
      </trkpt>
      <trkpt lat="36.240177" lon="-86.739043">
        <ele>166.293448</ele>
        <time>2024-06-02T08:41:16.000Z</time>
      </trkpt>
      <trkpt lat="36.240134" lon="-86.739157">
        <ele>166.416215</ele>
        <time>2024-06-02T08:41:17.000Z</time>
      </trkpt>
      <trkpt lat="36.240101" lon="-86.739282">
        <ele>166.537999</ele>
        <time>2024-06-02T08:41:18.000Z</time>
      </trkpt>
      <trkpt lat="36.240079" lon="-86.739386">
        <ele>166.658659</ele>
        <time>2024-06-02T08:41:19.000Z</time>
      </trkpt>
      <trkpt lat="36.240049" lon="-86.73949">
        <ele>166.781263</ele>
        <time>2024-06-02T08:41:20.000Z</time>
      </trkpt>
      <trkpt lat="36.240014" lon="-86.739606">
        <ele>166.901664</ele>
        <time>2024-06-02T08:41:21.000Z</time>
      </trkpt>
      <trkpt lat="36.239982" lon="-86.739719">
        <ele>167.02403</ele>
        <time>2024-06-02T08:41:22.000Z</time>
      </trkpt>
      <trkpt lat="36.239956" lon="-86.739843">
        <ele>167.147774</ele>
        <time>2024-06-02T08:41:23.000Z</time>
      </trkpt>
      <trkpt lat="36.23993" lon="-86.739946">
        <ele>167.271368</ele>
        <time>2024-06-02T08:41:24.000Z</time>
      </trkpt>
      <trkpt lat="36.239892" lon="-86.740055">
        <ele>167.396488</ele>
        <time>2024-06-02T08:41:25.000Z</time>
      </trkpt>
      <trkpt lat="36.239868" lon="-86.740177">
        <ele>167.520058</ele>
        <time>2024-06-02T08:41:26.000Z</time>
      </trkpt>
      <trkpt lat="36.239817" lon="-86.740292">
        <ele>167.645441</ele>
        <time>2024-06-02T08:41:27.000Z</time>
      </trkpt>
      <trkpt lat="36.239793" lon="-86.740404">
        <ele>167.770322</ele>
        <time>2024-06-02T08:41:28.000Z</time>
      </trkpt>
      <trkpt lat="36.239758" lon="-86.740512">
        <ele>167.899058</ele>
        <time>2024-06-02T08:41:29.000Z</time>
      </trkpt>
      <trkpt lat="36.239705" lon="-86.740621">
        <ele>168.027794</ele>
        <time>2024-06-02T08:41:30.000Z</time>
      </trkpt>
      <trkpt lat="36.239674" lon="-86.740754">
        <ele>168.158491</ele>
        <time>2024-06-02T08:41:31.000Z</time>
      </trkpt>
      <trkpt lat="36.239627" lon="-86.740868">
        <ele>168.286888</ele>
        <time>2024-06-02T08:41:32.000Z</time>
      </trkpt>
      <trkpt lat="36.239586" lon="-86.740967">
        <ele>168.418227</ele>
        <time>2024-06-02T08:41:33.000Z</time>
      </trkpt>
      <trkpt lat="36.239531" lon="-86.741097">
        <ele>168.548639</ele>
        <time>2024-06-02T08:41:34.000Z</time>
      </trkpt>
      <trkpt lat="36.239497" lon="-86.741212">
        <ele>168.825035</ele>
        <time>2024-06-02T08:41:35.000Z</time>
      </trkpt>
      <trkpt lat="36.239441" lon="-86.741312">
        <ele>169.125866</ele>
        <time>2024-06-02T08:41:36.000Z</time>
      </trkpt>
      <trkpt lat="36.239391" lon="-86.741428">
        <ele>169.422524</ele>
        <time>2024-06-02T08:41:37.000Z</time>
      </trkpt>
      <trkpt lat="36.239349" lon="-86.74155">
        <ele>169.723334</ele>
        <time>2024-06-02T08:41:38.000Z</time>
      </trkpt>
      <trkpt lat="36.239295" lon="-86.741644">
        <ele>170.02191</ele>
        <time>2024-06-02T08:41:39.000Z</time>
      </trkpt>
      <trkpt lat="36.239234" lon="-86.741748">
        <ele>170.320439</ele>
        <time>2024-06-02T08:41:40.000Z</time>
      </trkpt>
      <trkpt lat="36.239168" lon="-86.741856">
        <ele>170.614899</ele>
        <time>2024-06-02T08:41:41.000Z</time>
      </trkpt>
      <trkpt lat="36.239121" lon="-86.741954">
        <ele>170.903868</ele>
        <time>2024-06-02T08:41:42.000Z</time>
      </trkpt>
      <trkpt lat="36.23904" lon="-86.742029">
        <ele>171.193378</ele>
        <time>2024-06-02T08:41:43.000Z</time>
      </trkpt>
      <trkpt lat="36.238978" lon="-86.742132">
        <ele>171.481751</ele>
        <time>2024-06-02T08:41:44.000Z</time>
      </trkpt>
      <trkpt lat="36.238916" lon="-86.742219">
        <ele>171.768444</ele>
        <time>2024-06-02T08:41:45.000Z</time>
      </trkpt>
      <trkpt lat="36.23884" lon="-86.742299">
        <ele>172.045247</ele>
        <time>2024-06-02T08:41:46.000Z</time>
      </trkpt>
      <trkpt lat="36.238751" lon="-86.742361">
        <ele>172.338854</ele>
        <time>2024-06-02T08:41:47.000Z</time>
      </trkpt>
      <trkpt lat="36.238686" lon="-86.742445">
        <ele>172.621738</ele>
        <time>2024-06-02T08:41:48.000Z</time>
      </trkpt>
      <trkpt lat="36.238611" lon="-86.742518">
        <ele>172.899878</ele>
        <time>2024-06-02T08:41:49.000Z</time>
      </trkpt>
      <trkpt lat="36.238522" lon="-86.742577">
        <ele>173.171545</ele>
        <time>2024-06-02T08:41:50.000Z</time>
      </trkpt>
      <trkpt lat="36.238449" lon="-86.742651">
        <ele>173.439886</ele>
        <time>2024-06-02T08:41:51.000Z</time>
      </trkpt>
      <trkpt lat="36.238385" lon="-86.742709">
        <ele>173.706457</ele>
        <time>2024-06-02T08:41:52.000Z</time>
      </trkpt>
      <trkpt lat="36.238293" lon="-86.742758">
        <ele>173.97345</ele>
        <time>2024-06-02T08:41:53.000Z</time>
      </trkpt>
      <trkpt lat="36.238219" lon="-86.742811">
        <ele>174.241597</ele>
        <time>2024-06-02T08:41:54.000Z</time>
      </trkpt>
      <trkpt lat="36.238143" lon="-86.742876">
        <ele>174.50476</ele>
        <time>2024-06-02T08:41:55.000Z</time>
      </trkpt>
      <trkpt lat="36.238058" lon="-86.742922">
        <ele>174.772139</ele>
        <time>2024-06-02T08:41:56.000Z</time>
      </trkpt>
      <trkpt lat="36.237985" lon="-86.742971">
        <ele>175.04177</ele>
        <time>2024-06-02T08:41:57.000Z</time>
      </trkpt>
      <trkpt lat="36.237911" lon="-86.743017">
        <ele>175.308739</ele>
        <time>2024-06-02T08:41:58.000Z</time>
      </trkpt>
      <trkpt lat="36.237828" lon="-86.74308">
        <ele>175.57457</ele>
        <time>2024-06-02T08:41:59.000Z</time>
      </trkpt>
      <trkpt lat="36.237754" lon="-86.743125">
        <ele>175.835487</ele>
        <time>2024-06-02T08:42:00.000Z</time>
      </trkpt>
      <trkpt lat="36.237671" lon="-86.743165">
        <ele>176.09485</ele>
        <time>2024-06-02T08:42:01.000Z</time>
      </trkpt>
      <trkpt lat="36.237606" lon="-86.743226">
        <ele>176.358439</ele>
        <time>2024-06-02T08:42:02.000Z</time>
      </trkpt>
      <trkpt lat="36.237514" lon="-86.743272">
        <ele>176.620934</ele>
        <time>2024-06-02T08:42:03.000Z</time>
      </trkpt>
      <trkpt lat="36.237441" lon="-86.743325">
        <ele>176.880309</ele>
        <time>2024-06-02T08:42:04.000Z</time>
      </trkpt>
      <trkpt lat="36.237372" lon="-86.743369">
        <ele>177.134356</ele>
        <time>2024-06-02T08:42:05.000Z</time>
      </trkpt>
      <trkpt lat="36.237301" lon="-86.743417">
        <ele>177.399059</ele>
        <time>2024-06-02T08:42:06.000Z</time>
      </trkpt>
      <trkpt lat="36.237213" lon="-86.743479">
        <ele>177.651655</ele>
        <time>2024-06-02T08:42:07.000Z</time>
      </trkpt>
      <trkpt lat="36.237155" lon="-86.743515">
        <ele>177.90836</ele>
        <time>2024-06-02T08:42:08.000Z</time>
      </trkpt>
      <trkpt lat="36.23708" lon="-86.743573">
        <ele>178.158201</ele>
        <time>2024-06-02T08:42:09.000Z</time>
      </trkpt>
      <trkpt lat="36.237002" lon="-86.743631">
        <ele>178.411992</ele>
        <time>2024-06-02T08:42:10.000Z</time>
      </trkpt>
      <trkpt lat="36.236926" lon="-86.743685">
        <ele>178.656749</ele>
        <time>2024-06-02T08:42:11.000Z</time>
      </trkpt>
      <trkpt lat="36.23686" lon="-86.743721">
        <ele>178.898871</ele>
        <time>2024-06-02T08:42:12.000Z</time>
      </trkpt>
      <trkpt lat="36.236802" lon="-86.743778">
        <ele>179.14357</ele>
        <time>2024-06-02T08:42:13.000Z</time>
      </trkpt>
      <trkpt lat="36.236737" lon="-86.743841">
        <ele>179.410239</ele>
        <time>2024-06-02T08:42:14.000Z</time>
      </trkpt>
      <trkpt lat="36.236656" lon="-86.743896">
        <ele>179.691701</ele>
        <time>2024-06-02T08:42:15.000Z</time>
      </trkpt>
      <trkpt lat="36.236593" lon="-86.74395">
        <ele>179.967288</ele>
        <time>2024-06-02T08:42:16.000Z</time>
      </trkpt>
      <trkpt lat="36.236529" lon="-86.743992">
        <ele>180.247356</ele>
        <time>2024-06-02T08:42:17.000Z</time>
      </trkpt>
      <trkpt lat="36.236459" lon="-86.744064">
        <ele>180.523236</ele>
        <time>2024-06-02T08:42:18.000Z</time>
      </trkpt>
      <trkpt lat="36.236395" lon="-86.744115">
        <ele>180.796237</ele>
        <time>2024-06-02T08:42:19.000Z</time>
      </trkpt>
      <trkpt lat="36.236332" lon="-86.744165">
        <ele>181.069259</ele>
        <time>2024-06-02T08:42:20.000Z</time>
      </trkpt>
      <trkpt lat="36.236278" lon="-86.74422">
        <ele>181.338268</ele>
        <time>2024-06-02T08:42:21.000Z</time>
      </trkpt>
      <trkpt lat="36.23622" lon="-86.744285">
        <ele>181.600695</ele>
        <time>2024-06-02T08:42:22.000Z</time>
      </trkpt>
      <trkpt lat="36.236161" lon="-86.744344">
        <ele>181.864891</ele>
        <time>2024-06-02T08:42:23.000Z</time>
      </trkpt>
      <trkpt lat="36.2361" lon="-86.744396">
        <ele>182.128158</ele>
        <time>2024-06-02T08:42:24.000Z</time>
      </trkpt>
      <trkpt lat="36.236047" lon="-86.744472">
        <ele>182.388765</ele>
        <time>2024-06-02T08:42:25.000Z</time>
      </trkpt>
      <trkpt lat="36.235977" lon="-86.744526">
        <ele>182.648573</ele>
        <time>2024-06-02T08:42:26.000Z</time>
      </trkpt>
      <trkpt lat="36.235918" lon="-86.744586">
        <ele>182.902895</ele>
        <time>2024-06-02T08:42:27.000Z</time>
      </trkpt>
      <trkpt lat="36.235876" lon="-86.744639">
        <ele>183.160845</ele>
        <time>2024-06-02T08:42:28.000Z</time>
      </trkpt>
      <trkpt lat="36.235808" lon="-86.744703">
        <ele>183.418045</ele>
        <time>2024-06-02T08:42:29.000Z</time>
      </trkpt>
      <trkpt lat="36.23576" lon="-86.74477">
        <ele>183.674556</ele>
        <time>2024-06-02T08:42:30.000Z</time>
      </trkpt>
      <trkpt lat="36.235714" lon="-86.744832">
        <ele>183.932416</ele>
        <time>2024-06-02T08:42:31.000Z</time>
      </trkpt>
      <trkpt lat="36.235658" lon="-86.7449">
        <ele>184.190281</ele>
        <time>2024-06-02T08:42:32.000Z</time>
      </trkpt>
      <trkpt lat="36.2356" lon="-86.744961">
        <ele>184.448701</ele>
        <time>2024-06-02T08:42:33.000Z</time>
      </trkpt>
      <trkpt lat="36.235556" lon="-86.745027">
        <ele>184.706577</ele>
        <time>2024-06-02T08:42:34.000Z</time>
      </trkpt>
      <trkpt lat="36.235491" lon="-86.745084">
        <ele>184.965929</ele>
        <time>2024-06-02T08:42:35.000Z</time>
      </trkpt>
      <trkpt lat="36.23544" lon="-86.745146">
        <ele>185.226971</ele>
        <time>2024-06-02T08:42:36.000Z</time>
      </trkpt>
      <trkpt lat="36.235387" lon="-86.745228">
        <ele>185.490053</ele>
        <time>2024-06-02T08:42:37.000Z</time>
      </trkpt>
      <trkpt lat="36.235351" lon="-86.745288">
        <ele>185.62723</ele>
        <time>2024-06-02T08:42:38.000Z</time>
      </trkpt>
      <trkpt lat="36.235287" lon="-86.745366">
        <ele>185.760498</ele>
        <time>2024-06-02T08:42:39.000Z</time>
      </trkpt>
      <trkpt lat="36.235236" lon="-86.745436">
        <ele>185.892734</ele>
        <time>2024-06-02T08:42:40.000Z</time>
      </trkpt>
      <trkpt lat="36.235186" lon="-86.745488">
        <ele>186.02513</ele>
        <time>2024-06-02T08:42:41.000Z</time>
      </trkpt>
      <trkpt lat="36.235134" lon="-86.745559">
        <ele>186.158767</ele>
        <time>2024-06-02T08:42:42.000Z</time>
      </trkpt>
      <trkpt lat="36.235079" lon="-86.745638">
        <ele>186.29464</ele>
        <time>2024-06-02T08:42:43.000Z</time>
      </trkpt>
      <trkpt lat="36.235037" lon="-86.745695">
        <ele>186.42686</ele>
        <time>2024-06-02T08:42:44.000Z</time>
      </trkpt>
      <trkpt lat="36.234986" lon="-86.745766">
        <ele>186.563569</ele>
        <time>2024-06-02T08:42:45.000Z</time>
      </trkpt>
      <trkpt lat="36.234919" lon="-86.745831">
        <ele>186.702535</ele>
        <time>2024-06-02T08:42:46.000Z</time>
      </trkpt>
      <trkpt lat="36.234862" lon="-86.745915">
        <ele>186.844779</ele>
        <time>2024-06-02T08:42:47.000Z</time>
      </trkpt>
      <trkpt lat="36.234815" lon="-86.745986">
        <ele>186.989278</ele>
        <time>2024-06-02T08:42:48.000Z</time>
      </trkpt>
      <trkpt lat="36.234755" lon="-86.746052">
        <ele>187.134985</ele>
        <time>2024-06-02T08:42:49.000Z</time>
      </trkpt>
      <trkpt lat="36.234698" lon="-86.74613">
        <ele>187.281129</ele>
        <time>2024-06-02T08:42:50.000Z</time>
      </trkpt>
      <trkpt lat="36.234638" lon="-86.746198">
        <ele>187.425306</ele>
        <time>2024-06-02T08:42:51.000Z</time>
      </trkpt>
      <trkpt lat="36.23457" lon="-86.746281">
        <ele>187.57272</ele>
        <time>2024-06-02T08:42:52.000Z</time>
      </trkpt>
      <trkpt lat="36.234511" lon="-86.746336">
        <ele>187.718175</ele>
        <time>2024-06-02T08:42:53.000Z</time>
      </trkpt>
      <trkpt lat="36.234453" lon="-86.746416">
        <ele>187.867516</ele>
        <time>2024-06-02T08:42:54.000Z</time>
      </trkpt>
      <trkpt lat="36.23439" lon="-86.746479">
        <ele>188.016882</ele>
        <time>2024-06-02T08:42:55.000Z</time>
      </trkpt>
      <trkpt lat="36.234316" lon="-86.746555">
        <ele>188.17291</ele>
        <time>2024-06-02T08:42:56.000Z</time>
      </trkpt>
      <trkpt lat="36.234253" lon="-86.746621">
        <ele>188.328513</ele>
        <time>2024-06-02T08:42:57.000Z</time>
      </trkpt>
      <trkpt lat="36.234176" lon="-86.746684">
        <ele>188.484925</ele>
        <time>2024-06-02T08:42:58.000Z</time>
      </trkpt>
      <trkpt lat="36.234107" lon="-86.746746">
        <ele>188.643282</ele>
        <time>2024-06-02T08:42:59.000Z</time>
      </trkpt>
      <trkpt lat="36.234033" lon="-86.746801">
        <ele>188.447745</ele>
        <time>2024-06-02T08:43:00.000Z</time>
      </trkpt>
      <trkpt lat="36.233955" lon="-86.746864">
        <ele>188.165861</ele>
        <time>2024-06-02T08:43:01.000Z</time>
      </trkpt>
      <trkpt lat="36.23388" lon="-86.746933">
        <ele>187.881435</ele>
        <time>2024-06-02T08:43:02.000Z</time>
      </trkpt>
      <trkpt lat="36.233793" lon="-86.746997">
        <ele>187.593264</ele>
        <time>2024-06-02T08:43:03.000Z</time>
      </trkpt>
      <trkpt lat="36.233718" lon="-86.747056">
        <ele>187.303618</ele>
        <time>2024-06-02T08:43:04.000Z</time>
      </trkpt>
      <trkpt lat="36.233637" lon="-86.747106">
        <ele>187.004413</ele>
        <time>2024-06-02T08:43:05.000Z</time>
      </trkpt>
      <trkpt lat="36.23355" lon="-86.747171">
        <ele>186.705298</ele>
        <time>2024-06-02T08:43:06.000Z</time>
      </trkpt>
      <trkpt lat="36.23346" lon="-86.74721">
        <ele>186.399909</ele>
        <time>2024-06-02T08:43:07.000Z</time>
      </trkpt>
      <trkpt lat="36.233356" lon="-86.747266">
        <ele>186.089855</ele>
        <time>2024-06-02T08:43:08.000Z</time>
      </trkpt>
      <trkpt lat="36.233271" lon="-86.747303">
        <ele>185.777834</ele>
        <time>2024-06-02T08:43:09.000Z</time>
      </trkpt>
      <trkpt lat="36.233172" lon="-86.747341">
        <ele>185.460487</ele>
        <time>2024-06-02T08:43:10.000Z</time>
      </trkpt>
      <trkpt lat="36.233064" lon="-86.747388">
        <ele>185.136659</ele>
        <time>2024-06-02T08:43:11.000Z</time>
      </trkpt>
      <trkpt lat="36.232967" lon="-86.747425">
        <ele>184.811251</ele>
        <time>2024-06-02T08:43:12.000Z</time>
      </trkpt>
      <trkpt lat="36.232866" lon="-86.747461">
        <ele>184.48486</ele>
        <time>2024-06-02T08:43:13.000Z</time>
      </trkpt>
      <trkpt lat="36.232748" lon="-86.747489">
        <ele>184.15368</ele>
        <time>2024-06-02T08:43:14.000Z</time>
      </trkpt>
      <trkpt lat="36.232659" lon="-86.747518">
        <ele>183.821667</ele>
        <time>2024-06-02T08:43:15.000Z</time>
      </trkpt>
      <trkpt lat="36.232533" lon="-86.747545">
        <ele>183.486243</ele>
        <time>2024-06-02T08:43:16.000Z</time>
      </trkpt>
      <trkpt lat="36.232431" lon="-86.747553">
        <ele>183.150872</ele>
        <time>2024-06-02T08:43:17.000Z</time>
      </trkpt>
      <trkpt lat="36.23232" lon="-86.747568">
        <ele>182.926991</ele>
        <time>2024-06-02T08:43:18.000Z</time>
      </trkpt>
      <trkpt lat="36.232208" lon="-86.74759">
        <ele>182.704171</ele>
        <time>2024-06-02T08:43:19.000Z</time>
      </trkpt>
      <trkpt lat="36.232111" lon="-86.747584">
        <ele>182.479971</ele>
        <time>2024-06-02T08:43:20.000Z</time>
      </trkpt>
      <trkpt lat="36.231984" lon="-86.747596">
        <ele>182.249647</ele>
        <time>2024-06-02T08:43:21.000Z</time>
      </trkpt>
      <trkpt lat="36.231877" lon="-86.747615">
        <ele>182.025091</ele>
        <time>2024-06-02T08:43:22.000Z</time>
      </trkpt>
      <trkpt lat="36.231772" lon="-86.747621">
        <ele>181.796095</ele>
        <time>2024-06-02T08:43:23.000Z</time>
      </trkpt>
      <trkpt lat="36.231653" lon="-86.747628">
        <ele>181.565223</ele>
        <time>2024-06-02T08:43:24.000Z</time>
      </trkpt>
      <trkpt lat="36.231533" lon="-86.747648">
        <ele>181.332704</ele>
        <time>2024-06-02T08:43:25.000Z</time>
      </trkpt>
      <trkpt lat="36.231429" lon="-86.747641">
        <ele>181.10239</ele>
        <time>2024-06-02T08:43:26.000Z</time>
      </trkpt>
      <trkpt lat="36.231315" lon="-86.747654">
        <ele>180.878264</ele>
        <time>2024-06-02T08:43:27.000Z</time>
      </trkpt>
      <trkpt lat="36.231209" lon="-86.747664">
        <ele>180.664321</ele>
        <time>2024-06-02T08:43:28.000Z</time>
      </trkpt>
      <trkpt lat="36.23109" lon="-86.747665">
        <ele>180.452141</ele>
        <time>2024-06-02T08:43:29.000Z</time>
      </trkpt>
      <trkpt lat="36.231" lon="-86.747674">
        <ele>180.241379</ele>
        <time>2024-06-02T08:43:30.000Z</time>
      </trkpt>
      <trkpt lat="36.230884" lon="-86.747688">
        <ele>180.028876</ele>
        <time>2024-06-02T08:43:31.000Z</time>
      </trkpt>
      <trkpt lat="36.230777" lon="-86.747685">
        <ele>179.814952</ele>
        <time>2024-06-02T08:43:32.000Z</time>
      </trkpt>
      <trkpt lat="36.230673" lon="-86.747677">
        <ele>179.596971</ele>
        <time>2024-06-02T08:43:33.000Z</time>
      </trkpt>
      <trkpt lat="36.230572" lon="-86.747675">
        <ele>179.66701</ele>
        <time>2024-06-02T08:43:34.000Z</time>
      </trkpt>
      <trkpt lat="36.230459" lon="-86.747681">
        <ele>179.877005</ele>
        <time>2024-06-02T08:43:35.000Z</time>
      </trkpt>
      <trkpt lat="36.230353" lon="-86.747683">
        <ele>180.092863</ele>
        <time>2024-06-02T08:43:36.000Z</time>
      </trkpt>
      <trkpt lat="36.23023" lon="-86.747676">
        <ele>180.305166</ele>
        <time>2024-06-02T08:43:37.000Z</time>
      </trkpt>
      <trkpt lat="36.23012" lon="-86.74765">
        <ele>180.517659</ele>
        <time>2024-06-02T08:43:38.000Z</time>
      </trkpt>
      <trkpt lat="36.230016" lon="-86.747652">
        <ele>180.732308</ele>
        <time>2024-06-02T08:43:39.000Z</time>
      </trkpt>
      <trkpt lat="36.229908" lon="-86.74763">
        <ele>180.946736</ele>
        <time>2024-06-02T08:43:40.000Z</time>
      </trkpt>
      <trkpt lat="36.229796" lon="-86.747637">
        <ele>181.164885</ele>
        <time>2024-06-02T08:43:41.000Z</time>
      </trkpt>
      <trkpt lat="36.229676" lon="-86.747622">
        <ele>181.382934</ele>
        <time>2024-06-02T08:43:42.000Z</time>
      </trkpt>
      <trkpt lat="36.229572" lon="-86.747612">
        <ele>181.603023</ele>
        <time>2024-06-02T08:43:43.000Z</time>
      </trkpt>
      <trkpt lat="36.229451" lon="-86.747601">
        <ele>181.821173</ele>
        <time>2024-06-02T08:43:44.000Z</time>
      </trkpt>
      <trkpt lat="36.229345" lon="-86.747584">
        <ele>182.042026</ele>
        <time>2024-06-02T08:43:45.000Z</time>
      </trkpt>
      <trkpt lat="36.229223" lon="-86.747557">
        <ele>182.262167</ele>
        <time>2024-06-02T08:43:46.000Z</time>
      </trkpt>
      <trkpt lat="36.229107" lon="-86.747547">
        <ele>182.481982</ele>
        <time>2024-06-02T08:43:47.000Z</time>
      </trkpt>
      <trkpt lat="36.229005" lon="-86.747516">
        <ele>182.702422</ele>
        <time>2024-06-02T08:43:48.000Z</time>
      </trkpt>
      <trkpt lat="36.228896" lon="-86.747473">
        <ele>182.922861</ele>
        <time>2024-06-02T08:43:49.000Z</time>
      </trkpt>
      <trkpt lat="36.228772" lon="-86.747458">
        <ele>183.167666</ele>
        <time>2024-06-02T08:43:50.000Z</time>
      </trkpt>
      <trkpt lat="36.228662" lon="-86.747416">
        <ele>183.425035</ele>
        <time>2024-06-02T08:43:51.000Z</time>
      </trkpt>
      <trkpt lat="36.228552" lon="-86.747381">
        <ele>183.680667</ele>
        <time>2024-06-02T08:43:52.000Z</time>
      </trkpt>
      <trkpt lat="36.228451" lon="-86.747342">
        <ele>183.934018</ele>
        <time>2024-06-02T08:43:53.000Z</time>
      </trkpt>
      <trkpt lat="36.228348" lon="-86.747309">
        <ele>184.186816</ele>
        <time>2024-06-02T08:43:54.000Z</time>
      </trkpt>
      <trkpt lat="36.228237" lon="-86.747263">
        <ele>184.438078</ele>
        <time>2024-06-02T08:43:55.000Z</time>
      </trkpt>
      <trkpt lat="36.228127" lon="-86.747224">
        <ele>184.68718</ele>
        <time>2024-06-02T08:43:56.000Z</time>
      </trkpt>
      <trkpt lat="36.228019" lon="-86.747189">
        <ele>184.935126</ele>
        <time>2024-06-02T08:43:57.000Z</time>
      </trkpt>
      <trkpt lat="36.227923" lon="-86.747151">
        <ele>185.177117</ele>
        <time>2024-06-02T08:43:58.000Z</time>
      </trkpt>
      <trkpt lat="36.227825" lon="-86.747102">
        <ele>185.418092</ele>
        <time>2024-06-02T08:43:59.000Z</time>
      </trkpt>
      <trkpt lat="36.227719" lon="-86.747059">
        <ele>185.653867</ele>
        <time>2024-06-02T08:44:00.000Z</time>
      </trkpt>
      <trkpt lat="36.22762" lon="-86.747025">
        <ele>185.885394</ele>
        <time>2024-06-02T08:44:01.000Z</time>
      </trkpt>
      <trkpt lat="36.227527" lon="-86.746972">
        <ele>186.113319</ele>
        <time>2024-06-02T08:44:02.000Z</time>
      </trkpt>
      <trkpt lat="36.22745" lon="-86.746917">
        <ele>186.337753</ele>
        <time>2024-06-02T08:44:03.000Z</time>
      </trkpt>
      <trkpt lat="36.227352" lon="-86.746881">
        <ele>186.561091</ele>
        <time>2024-06-02T08:44:04.000Z</time>
      </trkpt>
      <trkpt lat="36.227266" lon="-86.746827">
        <ele>186.780066</ele>
        <time>2024-06-02T08:44:05.000Z</time>
      </trkpt>
      <trkpt lat="36.22717" lon="-86.746783">
        <ele>186.995719</ele>
        <time>2024-06-02T08:44:06.000Z</time>
      </trkpt>
      <trkpt lat="36.22709" lon="-86.746755">
        <ele>187.239327</ele>
        <time>2024-06-02T08:44:07.000Z</time>
      </trkpt>
      <trkpt lat="36.226994" lon="-86.746716">
        <ele>187.493436</ele>
        <time>2024-06-02T08:44:08.000Z</time>
      </trkpt>
      <trkpt lat="36.226915" lon="-86.746677">
        <ele>187.748646</ele>
        <time>2024-06-02T08:44:09.000Z</time>
      </trkpt>
      <trkpt lat="36.226814" lon="-86.746621">
        <ele>187.999828</ele>
        <time>2024-06-02T08:44:10.000Z</time>
      </trkpt>
      <trkpt lat="36.226735" lon="-86.746596">
        <ele>188.250739</ele>
        <time>2024-06-02T08:44:11.000Z</time>
      </trkpt>
      <trkpt lat="36.226632" lon="-86.746578">
        <ele>188.492201</ele>
        <time>2024-06-02T08:44:12.000Z</time>
      </trkpt>
      <trkpt lat="36.226545" lon="-86.746557">
        <ele>188.732354</ele>
        <time>2024-06-02T08:44:13.000Z</time>
      </trkpt>
      <trkpt lat="36.226463" lon="-86.746538">
        <ele>188.965506</ele>
        <time>2024-06-02T08:44:14.000Z</time>
      </trkpt>
      <trkpt lat="36.226375" lon="-86.746495">
        <ele>189.200643</ele>
        <time>2024-06-02T08:44:15.000Z</time>
      </trkpt>
      <trkpt lat="36.226305" lon="-86.746468">
        <ele>189.431742</ele>
        <time>2024-06-02T08:44:16.000Z</time>
      </trkpt>
      <trkpt lat="36.226226" lon="-86.746454">
        <ele>189.659677</ele>
        <time>2024-06-02T08:44:17.000Z</time>
      </trkpt>
      <trkpt lat="36.226142" lon="-86.746428">
        <ele>189.888565</ele>
        <time>2024-06-02T08:44:18.000Z</time>
      </trkpt>
      <trkpt lat="36.226049" lon="-86.7464">
        <ele>190.109499</ele>
        <time>2024-06-02T08:44:19.000Z</time>
      </trkpt>
      <trkpt lat="36.225972" lon="-86.746393">
        <ele>190.328969</ele>
        <time>2024-06-02T08:44:20.000Z</time>
      </trkpt>
      <trkpt lat="36.225883" lon="-86.746379">
        <ele>190.55143</ele>
        <time>2024-06-02T08:44:21.000Z</time>
      </trkpt>
      <trkpt lat="36.225811" lon="-86.746348">
        <ele>190.772752</ele>
        <time>2024-06-02T08:44:22.000Z</time>
      </trkpt>
      <trkpt lat="36.225732" lon="-86.74633">
        <ele>190.988403</ele>
        <time>2024-06-02T08:44:23.000Z</time>
      </trkpt>
      <trkpt lat="36.225643" lon="-86.746314">
        <ele>191.199938</ele>
        <time>2024-06-02T08:44:24.000Z</time>
      </trkpt>
      <trkpt lat="36.225566" lon="-86.74631">
        <ele>191.409236</ele>
        <time>2024-06-02T08:44:25.000Z</time>
      </trkpt>
      <trkpt lat="36.225496" lon="-86.746304">
        <ele>191.620952</ele>
        <time>2024-06-02T08:44:26.000Z</time>
      </trkpt>
      <trkpt lat="36.225416" lon="-86.746318">
        <ele>191.832659</ele>
        <time>2024-06-02T08:44:27.000Z</time>
      </trkpt>
      <trkpt lat="36.225332" lon="-86.746316">
        <ele>192.180349</ele>
        <time>2024-06-02T08:44:28.000Z</time>
      </trkpt>
      <trkpt lat="36.225263" lon="-86.746313">
        <ele>192.572739</ele>
        <time>2024-06-02T08:44:29.000Z</time>
      </trkpt>
      <trkpt lat="36.225187" lon="-86.746306">
        <ele>192.965122</ele>
        <time>2024-06-02T08:44:30.000Z</time>
      </trkpt>
      <trkpt lat="36.225096" lon="-86.746303">
        <ele>193.352561</ele>
        <time>2024-06-02T08:44:31.000Z</time>
      </trkpt>
      <trkpt lat="36.225032" lon="-86.746309">
        <ele>193.740073</ele>
        <time>2024-06-02T08:44:32.000Z</time>
      </trkpt>
      <trkpt lat="36.224955" lon="-86.746307">
        <ele>194.127679</ele>
        <time>2024-06-02T08:44:33.000Z</time>
      </trkpt>
      <trkpt lat="36.224866" lon="-86.746312">
        <ele>194.50551</ele>
        <time>2024-06-02T08:44:34.000Z</time>
      </trkpt>
      <trkpt lat="36.224801" lon="-86.746299">
        <ele>194.883008</ele>
        <time>2024-06-02T08:44:35.000Z</time>
      </trkpt>
      <trkpt lat="36.224716" lon="-86.74631">
        <ele>195.250566</ele>
        <time>2024-06-02T08:44:36.000Z</time>
      </trkpt>
      <trkpt lat="36.224644" lon="-86.746299">
        <ele>195.608193</ele>
        <time>2024-06-02T08:44:37.000Z</time>
      </trkpt>
      <trkpt lat="36.224585" lon="-86.74631">
        <ele>195.966183</ele>
        <time>2024-06-02T08:44:38.000Z</time>
      </trkpt>
      <trkpt lat="36.224503" lon="-86.746314">
        <ele>196.324352</ele>
        <time>2024-06-02T08:44:39.000Z</time>
      </trkpt>
      <trkpt lat="36.224428" lon="-86.746322">
        <ele>196.682785</ele>
        <time>2024-06-02T08:44:40.000Z</time>
      </trkpt>
      <trkpt lat="36.224367" lon="-86.746326">
        <ele>197.046446</ele>
        <time>2024-06-02T08:44:41.000Z</time>
      </trkpt>
      <trkpt lat="36.224289" lon="-86.74633">
        <ele>197.400556</ele>
        <time>2024-06-02T08:44:42.000Z</time>
      </trkpt>
      <trkpt lat="36.22422" lon="-86.746347">
        <ele>197.755962</ele>
        <time>2024-06-02T08:44:43.000Z</time>
      </trkpt>
      <trkpt lat="36.224142" lon="-86.746349">
        <ele>198.111871</ele>
        <time>2024-06-02T08:44:44.000Z</time>
      </trkpt>
      <trkpt lat="36.224071" lon="-86.746363">
        <ele>198.457408</ele>
        <time>2024-06-02T08:44:45.000Z</time>
      </trkpt>
      <trkpt lat="36.224013" lon="-86.746376">
        <ele>198.808968</ele>
        <time>2024-06-02T08:44:46.000Z</time>
      </trkpt>
      <trkpt lat="36.223938" lon="-86.746384">
        <ele>199.155048</ele>
        <time>2024-06-02T08:44:47.000Z</time>
      </trkpt>
      <trkpt lat="36.223874" lon="-86.746412">
        <ele>199.506041</ele>
        <time>2024-06-02T08:44:48.000Z</time>
      </trkpt>
      <trkpt lat="36.223794" lon="-86.746423">
        <ele>199.852117</ele>
        <time>2024-06-02T08:44:49.000Z</time>
      </trkpt>
      <trkpt lat="36.223729" lon="-86.746439">
        <ele>200.204301</ele>
        <time>2024-06-02T08:44:50.000Z</time>
      </trkpt>
      <trkpt lat="36.223657" lon="-86.746454">
        <ele>200.547355</ele>
        <time>2024-06-02T08:44:51.000Z</time>
      </trkpt>
      <trkpt lat="36.223589" lon="-86.746452">
        <ele>200.844033</ele>
        <time>2024-06-02T08:44:52.000Z</time>
      </trkpt>
      <trkpt lat="36.223525" lon="-86.746474">
        <ele>200.981645</ele>
        <time>2024-06-02T08:44:53.000Z</time>
      </trkpt>
      <trkpt lat="36.22346" lon="-86.746492">
        <ele>201.1185</ele>
        <time>2024-06-02T08:44:54.000Z</time>
      </trkpt>
      <trkpt lat="36.223389" lon="-86.746499">
        <ele>201.255349</ele>
        <time>2024-06-02T08:44:55.000Z</time>
      </trkpt>
      <trkpt lat="36.223317" lon="-86.746506">
        <ele>201.390715</ele>
        <time>2024-06-02T08:44:56.000Z</time>
      </trkpt>
      <trkpt lat="36.223259" lon="-86.746521">
        <ele>201.525014</ele>
        <time>2024-06-02T08:44:57.000Z</time>
      </trkpt>
      <trkpt lat="36.223196" lon="-86.74654">
        <ele>201.659671</ele>
        <time>2024-06-02T08:44:58.000Z</time>
      </trkpt>
      <trkpt lat="36.223132" lon="-86.746571">
        <ele>201.793352</ele>
        <time>2024-06-02T08:44:59.000Z</time>
      </trkpt>
      <trkpt lat="36.223054" lon="-86.746578">
        <ele>201.926772</ele>
        <time>2024-06-02T08:45:00.000Z</time>
      </trkpt>
      <trkpt lat="36.222997" lon="-86.746593">
        <ele>202.057938</ele>
        <time>2024-06-02T08:45:01.000Z</time>
      </trkpt>
      <trkpt lat="36.222934" lon="-86.746608">
        <ele>202.191348</ele>
        <time>2024-06-02T08:45:02.000Z</time>
      </trkpt>
      <trkpt lat="36.222861" lon="-86.746628">
        <ele>202.323087</ele>
        <time>2024-06-02T08:45:03.000Z</time>
      </trkpt>
      <trkpt lat="36.222794" lon="-86.746627">
        <ele>202.454822</ele>
        <time>2024-06-02T08:45:04.000Z</time>
      </trkpt>
      <trkpt lat="36.222727" lon="-86.746643">
        <ele>202.58575</ele>
        <time>2024-06-02T08:45:05.000Z</time>
      </trkpt>
      <trkpt lat="36.222667" lon="-86.746653">
        <ele>202.716465</ele>
        <time>2024-06-02T08:45:06.000Z</time>
      </trkpt>
      <trkpt lat="36.222598" lon="-86.746676">
        <ele>202.847166</ele>
        <time>2024-06-02T08:45:07.000Z</time>
      </trkpt>
      <trkpt lat="36.222544" lon="-86.746683">
        <ele>202.979637</ele>
        <time>2024-06-02T08:45:08.000Z</time>
      </trkpt>
      <trkpt lat="36.222475" lon="-86.746691">
        <ele>203.112551</ele>
        <time>2024-06-02T08:45:09.000Z</time>
      </trkpt>
      <trkpt lat="36.222413" lon="-86.746707">
        <ele>203.245448</ele>
        <time>2024-06-02T08:45:10.000Z</time>
      </trkpt>
      <trkpt lat="36.222338" lon="-86.746722">
        <ele>203.3786</ele>
        <time>2024-06-02T08:45:11.000Z</time>
      </trkpt>
      <trkpt lat="36.222263" lon="-86.746719">
        <ele>203.513714</ele>
        <time>2024-06-02T08:45:12.000Z</time>
      </trkpt>
      <trkpt lat="36.222201" lon="-86.74674">
        <ele>203.647117</ele>
        <time>2024-06-02T08:45:13.000Z</time>
      </trkpt>
      <trkpt lat="36.222139" lon="-86.746751">
        <ele>203.778847</ele>
        <time>2024-06-02T08:45:14.000Z</time>
      </trkpt>
      <trkpt lat="36.222074" lon="-86.746772">
        <ele>203.912551</ele>
        <time>2024-06-02T08:45:15.000Z</time>
      </trkpt>
      <trkpt lat="36.221999" lon="-86.74678">
        <ele>204.04624</ele>
        <time>2024-06-02T08:45:16.000Z</time>
      </trkpt>
      <trkpt lat="36.221935" lon="-86.746805">
        <ele>204.181359</ele>
        <time>2024-06-02T08:45:17.000Z</time>
      </trkpt>
      <trkpt lat="36.22187" lon="-86.746807">
        <ele>204.308604</ele>
        <time>2024-06-02T08:45:18.000Z</time>
      </trkpt>
      <trkpt lat="36.221816" lon="-86.746821">
        <ele>204.309866</ele>
        <time>2024-06-02T08:45:19.000Z</time>
      </trkpt>
      <trkpt lat="36.221736" lon="-86.746826">
        <ele>204.047525</ele>
        <time>2024-06-02T08:45:20.000Z</time>
      </trkpt>
      <trkpt lat="36.221673" lon="-86.746837">
        <ele>203.780232</ele>
        <time>2024-06-02T08:45:21.000Z</time>
      </trkpt>
      <trkpt lat="36.221612" lon="-86.746845">
        <ele>203.509481</ele>
        <time>2024-06-02T08:45:22.000Z</time>
      </trkpt>
      <trkpt lat="36.221546" lon="-86.746862">
        <ele>203.235756</ele>
        <time>2024-06-02T08:45:23.000Z</time>
      </trkpt>
      <trkpt lat="36.221463" lon="-86.746862">
        <ele>202.956023</ele>
        <time>2024-06-02T08:45:24.000Z</time>
      </trkpt>
      <trkpt lat="36.22139" lon="-86.746877">
        <ele>202.668581</ele>
        <time>2024-06-02T08:45:25.000Z</time>
      </trkpt>
      <trkpt lat="36.22133" lon="-86.746886">
        <ele>202.381957</ele>
        <time>2024-06-02T08:45:26.000Z</time>
      </trkpt>
      <trkpt lat="36.221248" lon="-86.746912">
        <ele>202.099201</ele>
        <time>2024-06-02T08:45:27.000Z</time>
      </trkpt>
      <trkpt lat="36.221181" lon="-86.746912">
        <ele>201.811754</ele>
        <time>2024-06-02T08:45:28.000Z</time>
      </trkpt>
      <trkpt lat="36.221098" lon="-86.746938">
        <ele>201.51999</ele>
        <time>2024-06-02T08:45:29.000Z</time>
      </trkpt>
      <trkpt lat="36.221019" lon="-86.746941">
        <ele>201.226655</ele>
        <time>2024-06-02T08:45:30.000Z</time>
      </trkpt>
      <trkpt lat="36.220947" lon="-86.746959">
        <ele>200.932744</ele>
        <time>2024-06-02T08:45:31.000Z</time>
      </trkpt>
      <trkpt lat="36.220885" lon="-86.746976">
        <ele>200.632271</ele>
        <time>2024-06-02T08:45:32.000Z</time>
      </trkpt>
      <trkpt lat="36.220795" lon="-86.746992">
        <ele>200.327979</ele>
        <time>2024-06-02T08:45:33.000Z</time>
      </trkpt>
      <trkpt lat="36.220727" lon="-86.747026">
        <ele>200.0193</ele>
        <time>2024-06-02T08:45:34.000Z</time>
      </trkpt>
      <trkpt lat="36.220651" lon="-86.747037">
        <ele>199.705027</ele>
        <time>2024-06-02T08:45:35.000Z</time>
      </trkpt>
      <trkpt lat="36.220575" lon="-86.747057">
        <ele>199.392538</ele>
        <time>2024-06-02T08:45:36.000Z</time>
      </trkpt>
      <trkpt lat="36.220481" lon="-86.747085">
        <ele>199.067921</ele>
        <time>2024-06-02T08:45:37.000Z</time>
      </trkpt>
      <trkpt lat="36.220402" lon="-86.747103">
        <ele>198.737113</ele>
        <time>2024-06-02T08:45:38.000Z</time>
      </trkpt>
      <trkpt lat="36.220311" lon="-86.747126">
        <ele>198.404303</ele>
        <time>2024-06-02T08:45:39.000Z</time>
      </trkpt>
      <trkpt lat="36.220224" lon="-86.747152">
        <ele>198.060529</ele>
        <time>2024-06-02T08:45:40.000Z</time>
      </trkpt>
      <trkpt lat="36.220136" lon="-86.747164">
        <ele>197.71386</ele>
        <time>2024-06-02T08:45:41.000Z</time>
      </trkpt>
      <trkpt lat="36.220053" lon="-86.747184">
        <ele>197.351424</ele>
        <time>2024-06-02T08:45:42.000Z</time>
      </trkpt>
      <trkpt lat="36.219968" lon="-86.747196">
        <ele>196.953812</ele>
        <time>2024-06-02T08:45:43.000Z</time>
      </trkpt>
      <trkpt lat="36.219866" lon="-86.74722">
        <ele>196.55737</ele>
        <time>2024-06-02T08:45:44.000Z</time>
      </trkpt>
      <trkpt lat="36.219778" lon="-86.747231">
        <ele>196.154896</ele>
        <time>2024-06-02T08:45:45.000Z</time>
      </trkpt>
      <trkpt lat="36.219687" lon="-86.747266">
        <ele>195.7518</ele>
        <time>2024-06-02T08:45:46.000Z</time>
      </trkpt>
      <trkpt lat="36.2196" lon="-86.747271">
        <ele>195.341482</ele>
        <time>2024-06-02T08:45:47.000Z</time>
      </trkpt>
      <trkpt lat="36.219506" lon="-86.747306">
        <ele>194.926309</ele>
        <time>2024-06-02T08:45:48.000Z</time>
      </trkpt>
      <trkpt lat="36.219409" lon="-86.747328">
        <ele>194.50207</ele>
        <time>2024-06-02T08:45:49.000Z</time>
      </trkpt>
      <trkpt lat="36.219295" lon="-86.747349">
        <ele>194.080736</ele>
        <time>2024-06-02T08:45:50.000Z</time>
      </trkpt>
      <trkpt lat="36.219203" lon="-86.747373">
        <ele>193.646741</ele>
        <time>2024-06-02T08:45:51.000Z</time>
      </trkpt>
      <trkpt lat="36.219098" lon="-86.747388">
        <ele>193.200712</ele>
        <time>2024-06-02T08:45:52.000Z</time>
      </trkpt>
      <trkpt lat="36.219005" lon="-86.747406">
        <ele>192.74681</ele>
        <time>2024-06-02T08:45:53.000Z</time>
      </trkpt>
      <trkpt lat="36.218894" lon="-86.747433">
        <ele>192.288078</ele>
        <time>2024-06-02T08:45:54.000Z</time>
      </trkpt>
      <trkpt lat="36.218796" lon="-86.747461">
        <ele>191.826267</ele>
        <time>2024-06-02T08:45:55.000Z</time>
      </trkpt>
      <trkpt lat="36.218677" lon="-86.747489">
        <ele>191.354815</ele>
        <time>2024-06-02T08:45:56.000Z</time>
      </trkpt>
      <trkpt lat="36.218565" lon="-86.74751">
        <ele>190.870046</ele>
        <time>2024-06-02T08:45:57.000Z</time>
      </trkpt>
      <trkpt lat="36.218449" lon="-86.74752">
        <ele>190.376809</ele>
        <time>2024-06-02T08:45:58.000Z</time>
      </trkpt>
      <trkpt lat="36.218338" lon="-86.747552">
        <ele>189.866032</ele>
        <time>2024-06-02T08:45:59.000Z</time>
      </trkpt>
      <trkpt lat="36.218215" lon="-86.747576">
        <ele>189.395989</ele>
        <time>2024-06-02T08:46:00.000Z</time>
      </trkpt>
      <trkpt lat="36.218101" lon="-86.747612">
        <ele>188.937553</ele>
        <time>2024-06-02T08:46:01.000Z</time>
      </trkpt>
      <trkpt lat="36.217971" lon="-86.747633">
        <ele>188.468158</ele>
        <time>2024-06-02T08:46:02.000Z</time>
      </trkpt>
      <trkpt lat="36.217855" lon="-86.747663">
        <ele>187.995111</ele>
        <time>2024-06-02T08:46:03.000Z</time>
      </trkpt>
      <trkpt lat="36.217717" lon="-86.747678">
        <ele>187.514756</ele>
        <time>2024-06-02T08:46:05.000Z</time>
      </trkpt>
      <trkpt lat="36.217587" lon="-86.747714">
        <ele>187.031675</ele>
        <time>2024-06-02T08:46:06.000Z</time>
      </trkpt>
      <trkpt lat="36.217462" lon="-86.74773">
        <ele>186.548579</ele>
        <time>2024-06-02T08:46:07.000Z</time>
      </trkpt>
      <trkpt lat="36.217327" lon="-86.747763">
        <ele>186.067726</ele>
        <time>2024-06-02T08:46:09.000Z</time>
      </trkpt>
      <trkpt lat="36.217208" lon="-86.747788">
        <ele>185.586374</ele>
        <time>2024-06-02T08:46:10.000Z</time>
      </trkpt>
      <trkpt lat="36.217081" lon="-86.747812">
        <ele>185.098231</ele>
        <time>2024-06-02T08:46:11.000Z</time>
      </trkpt>
      <trkpt lat="36.216951" lon="-86.747836">
        <ele>184.599117</ele>
        <time>2024-06-02T08:46:12.000Z</time>
      </trkpt>
      <trkpt lat="36.216798" lon="-86.747867">
        <ele>184.085386</ele>
        <time>2024-06-02T08:46:14.000Z</time>
      </trkpt>
      <trkpt lat="36.216675" lon="-86.747887">
        <ele>183.563378</ele>
        <time>2024-06-02T08:46:15.000Z</time>
      </trkpt>
      <trkpt lat="36.216518" lon="-86.747932">
        <ele>183.033565</ele>
        <time>2024-06-02T08:46:17.000Z</time>
      </trkpt>
      <trkpt lat="36.216383" lon="-86.747952">
        <ele>182.641123</ele>
        <time>2024-06-02T08:46:19.000Z</time>
      </trkpt>
      <trkpt lat="36.216244" lon="-86.74799">
        <ele>182.262917</ele>
        <time>2024-06-02T08:46:21.000Z</time>
      </trkpt>
      <trkpt lat="36.216099" lon="-86.748012">
        <ele>181.885424</ele>
        <time>2024-06-02T08:46:23.000Z</time>
      </trkpt>
      <trkpt lat="36.215957" lon="-86.748043">
        <ele>181.505736</ele>
        <time>2024-06-02T08:46:25.000Z</time>
      </trkpt>
      <trkpt lat="36.215814" lon="-86.74808">
        <ele>181.128929</ele>
        <time>2024-06-02T08:46:27.000Z</time>
      </trkpt>
      <trkpt lat="36.215673" lon="-86.748108">
        <ele>180.749874</ele>
        <time>2024-06-02T08:46:29.000Z</time>
      </trkpt>
      <trkpt lat="36.21553" lon="-86.74813">
        <ele>180.372728</ele>
        <time>2024-06-02T08:46:31.000Z</time>
      </trkpt>
      <trkpt lat="36.21539" lon="-86.748164">
        <ele>179.994906</ele>
        <time>2024-06-02T08:46:33.000Z</time>
      </trkpt>
      <trkpt lat="36.215232" lon="-86.748191">
        <ele>179.619974</ele>
        <time>2024-06-02T08:46:35.000Z</time>
      </trkpt>
      <trkpt lat="36.215094" lon="-86.748216">
        <ele>179.246073</ele>
        <time>2024-06-02T08:46:37.000Z</time>
      </trkpt>
      <trkpt lat="36.214949" lon="-86.74825">
        <ele>178.869911</ele>
        <time>2024-06-02T08:46:39.000Z</time>
      </trkpt>
      <trkpt lat="36.214806" lon="-86.748276">
        <ele>178.496314</ele>
        <time>2024-06-02T08:46:41.000Z</time>
      </trkpt>
      <trkpt lat="36.214667" lon="-86.748292">
        <ele>178.236696</ele>
        <time>2024-06-02T08:46:43.000Z</time>
      </trkpt>
      <trkpt lat="36.21452" lon="-86.748331">
        <ele>178.098969</ele>
        <time>2024-06-02T08:46:45.000Z</time>
      </trkpt>
      <trkpt lat="36.214386" lon="-86.748354">
        <ele>177.961114</ele>
        <time>2024-06-02T08:46:47.000Z</time>
      </trkpt>
      <trkpt lat="36.214241" lon="-86.748383">
        <ele>177.823271</ele>
        <time>2024-06-02T08:46:49.000Z</time>
      </trkpt>
      <trkpt lat="36.2141" lon="-86.748412">
        <ele>177.68615</ele>
        <time>2024-06-02T08:46:51.000Z</time>
      </trkpt>
      <trkpt lat="36.213946" lon="-86.748446">
        <ele>177.54851</ele>
        <time>2024-06-02T08:46:53.000Z</time>
      </trkpt>
      <trkpt lat="36.213823" lon="-86.748468">
        <ele>177.411652</ele>
        <time>2024-06-02T08:46:54.000Z</time>
      </trkpt>
      <trkpt lat="36.213675" lon="-86.748507">
        <ele>177.275292</ele>
        <time>2024-06-02T08:46:56.000Z</time>
      </trkpt>
      <trkpt lat="36.213535" lon="-86.748544">
        <ele>177.139073</ele>
        <time>2024-06-02T08:46:58.000Z</time>
      </trkpt>
      <trkpt lat="36.2134" lon="-86.748575">
        <ele>177.003947</ele>
        <time>2024-06-02T08:47:00.000Z</time>
      </trkpt>
      <trkpt lat="36.213255" lon="-86.748612">
        <ele>176.870187</ele>
        <time>2024-06-02T08:47:02.000Z</time>
      </trkpt>
      <trkpt lat="36.213114" lon="-86.748644">
        <ele>176.737643</ele>
        <time>2024-06-02T08:47:04.000Z</time>
      </trkpt>
      <trkpt lat="36.212984" lon="-86.748658">
        <ele>176.607352</ele>
        <time>2024-06-02T08:47:05.000Z</time>
      </trkpt>
      <trkpt lat="36.212848" lon="-86.748679">
        <ele>176.615431</ele>
        <time>2024-06-02T08:47:07.000Z</time>
      </trkpt>
      <trkpt lat="36.212718" lon="-86.748708">
        <ele>176.644335</ele>
        <time>2024-06-02T08:47:08.000Z</time>
      </trkpt>
      <trkpt lat="36.212576" lon="-86.748737">
        <ele>176.67319</ele>
        <time>2024-06-02T08:47:10.000Z</time>
      </trkpt>
      <trkpt lat="36.212447" lon="-86.748767">
        <ele>176.702103</ele>
        <time>2024-06-02T08:47:11.000Z</time>
      </trkpt>
      <trkpt lat="36.212321" lon="-86.748786">
        <ele>176.730584</ele>
        <time>2024-06-02T08:47:12.000Z</time>
      </trkpt>
      <trkpt lat="36.2122" lon="-86.748826">
        <ele>176.758836</ele>
        <time>2024-06-02T08:47:13.000Z</time>
      </trkpt>
      <trkpt lat="36.212066" lon="-86.748838">
        <ele>176.78727</ele>
        <time>2024-06-02T08:47:14.000Z</time>
      </trkpt>
      <trkpt lat="36.211926" lon="-86.748867">
        <ele>176.815312</ele>
        <time>2024-06-02T08:47:16.000Z</time>
      </trkpt>
      <trkpt lat="36.211802" lon="-86.748894">
        <ele>176.842925</ele>
        <time>2024-06-02T08:47:17.000Z</time>
      </trkpt>
      <trkpt lat="36.21167" lon="-86.748931">
        <ele>176.870548</ele>
        <time>2024-06-02T08:47:19.000Z</time>
      </trkpt>
      <trkpt lat="36.211545" lon="-86.748946">
        <ele>176.897967</ele>
        <time>2024-06-02T08:47:20.000Z</time>
      </trkpt>
      <trkpt lat="36.211432" lon="-86.748988">
        <ele>176.925011</ele>
        <time>2024-06-02T08:47:21.000Z</time>
      </trkpt>
      <trkpt lat="36.211309" lon="-86.749015">
        <ele>176.952004</ele>
        <time>2024-06-02T08:47:22.000Z</time>
      </trkpt>
      <trkpt lat="36.211172" lon="-86.749035">
        <ele>176.98085</ele>
        <time>2024-06-02T08:47:24.000Z</time>
      </trkpt>
      <trkpt lat="36.211057" lon="-86.749064">
        <ele>177.024032</ele>
        <time>2024-06-02T08:47:25.000Z</time>
      </trkpt>
      <trkpt lat="36.210945" lon="-86.749079">
        <ele>177.066864</ele>
        <time>2024-06-02T08:47:26.000Z</time>
      </trkpt>
      <trkpt lat="36.210812" lon="-86.749108">
        <ele>177.109317</ele>
        <time>2024-06-02T08:47:28.000Z</time>
      </trkpt>
      <trkpt lat="36.210705" lon="-86.74913">
        <ele>177.151382</ele>
        <time>2024-06-02T08:47:29.000Z</time>
      </trkpt>
      <trkpt lat="36.210581" lon="-86.749162">
        <ele>177.193381</ele>
        <time>2024-06-02T08:47:30.000Z</time>
      </trkpt>
      <trkpt lat="36.210461" lon="-86.749182">
        <ele>177.235361</ele>
        <time>2024-06-02T08:47:31.000Z</time>
      </trkpt>
      <trkpt lat="36.210336" lon="-86.749191">
        <ele>177.2766</ele>
        <time>2024-06-02T08:47:32.000Z</time>
      </trkpt>
      <trkpt lat="36.210235" lon="-86.749229">
        <ele>177.317612</ele>
        <time>2024-06-02T08:47:33.000Z</time>
      </trkpt>
      <trkpt lat="36.210105" lon="-86.749257">
        <ele>177.359043</ele>
        <time>2024-06-02T08:47:34.000Z</time>
      </trkpt>
      <trkpt lat="36.210002" lon="-86.74928">
        <ele>177.399867</ele>
        <time>2024-06-02T08:47:35.000Z</time>
      </trkpt>
      <trkpt lat="36.209877" lon="-86.749298">
        <ele>177.440984</ele>
        <time>2024-06-02T08:47:36.000Z</time>
      </trkpt>
      <trkpt lat="36.209767" lon="-86.749324">
        <ele>177.48197</ele>
        <time>2024-06-02T08:47:37.000Z</time>
      </trkpt>
      <trkpt lat="36.209655" lon="-86.749346">
        <ele>177.522216</ele>
        <time>2024-06-02T08:47:38.000Z</time>
      </trkpt>
      <trkpt lat="36.209528" lon="-86.749365">
        <ele>177.562755</ele>
        <time>2024-06-02T08:47:39.000Z</time>
      </trkpt>
      <trkpt lat="36.209415" lon="-86.749377">
        <ele>177.602495</ele>
        <time>2024-06-02T08:47:40.000Z</time>
      </trkpt>
      <trkpt lat="36.209301" lon="-86.749402">
        <ele>177.343985</ele>
        <time>2024-06-02T08:47:41.000Z</time>
      </trkpt>
      <trkpt lat="36.209193" lon="-86.749421">
        <ele>177.083272</ele>
        <time>2024-06-02T08:47:42.000Z</time>
      </trkpt>
      <trkpt lat="36.209091" lon="-86.749454">
        <ele>176.822277</ele>
        <time>2024-06-02T08:47:43.000Z</time>
      </trkpt>
      <trkpt lat="36.208971" lon="-86.749477">
        <ele>176.560969</ele>
        <time>2024-06-02T08:47:44.000Z</time>
      </trkpt>
      <trkpt lat="36.208852" lon="-86.749504">
        <ele>176.301645</ele>
        <time>2024-06-02T08:47:45.000Z</time>
      </trkpt>
      <trkpt lat="36.208742" lon="-86.749511">
        <ele>176.040332</ele>
        <time>2024-06-02T08:47:46.000Z</time>
      </trkpt>
      <trkpt lat="36.208634" lon="-86.749535">
        <ele>175.783878</ele>
        <time>2024-06-02T08:47:47.000Z</time>
      </trkpt>
      <trkpt lat="36.208526" lon="-86.749564">
        <ele>175.521654</ele>
        <time>2024-06-02T08:47:48.000Z</time>
      </trkpt>
      <trkpt lat="36.208405" lon="-86.749584">
        <ele>175.261212</ele>
        <time>2024-06-02T08:47:49.000Z</time>
      </trkpt>
      <trkpt lat="36.208292" lon="-86.749591">
        <ele>174.998236</ele>
        <time>2024-06-02T08:47:50.000Z</time>
      </trkpt>
      <trkpt lat="36.20818" lon="-86.749623">
        <ele>174.735963</ele>
        <time>2024-06-02T08:47:51.000Z</time>
      </trkpt>
      <trkpt lat="36.208067" lon="-86.749651">
        <ele>174.471089</ele>
        <time>2024-06-02T08:47:52.000Z</time>
      </trkpt>
      <trkpt lat="36.207963" lon="-86.749675">
        <ele>174.205479</ele>
        <time>2024-06-02T08:47:53.000Z</time>
      </trkpt>
      <trkpt lat="36.20785" lon="-86.749699">
        <ele>173.94129</ele>
        <time>2024-06-02T08:47:54.000Z</time>
      </trkpt>
      <trkpt lat="36.207732" lon="-86.749736">
        <ele>173.674837</ele>
        <time>2024-06-02T08:47:55.000Z</time>
      </trkpt>
      <trkpt lat="36.20761" lon="-86.749749">
        <ele>173.410786</ele>
        <time>2024-06-02T08:47:56.000Z</time>
      </trkpt>
      <trkpt lat="36.207495" lon="-86.749777">
        <ele>173.166051</ele>
        <time>2024-06-02T08:47:57.000Z</time>
      </trkpt>
      <trkpt lat="36.20739" lon="-86.749797">
        <ele>172.921597</ele>
        <time>2024-06-02T08:47:58.000Z</time>
      </trkpt>
      <trkpt lat="36.207266" lon="-86.749826">
        <ele>172.673092</ele>
        <time>2024-06-02T08:47:59.000Z</time>
      </trkpt>
      <trkpt lat="36.207135" lon="-86.749854">
        <ele>172.42285</ele>
        <time>2024-06-02T08:48:00.000Z</time>
      </trkpt>
      <trkpt lat="36.207018" lon="-86.749882">
        <ele>172.172336</ele>
        <time>2024-06-02T08:48:01.000Z</time>
      </trkpt>
      <trkpt lat="36.206902" lon="-86.749894">
        <ele>171.920045</ele>
        <time>2024-06-02T08:48:02.000Z</time>
      </trkpt>
      <trkpt lat="36.206778" lon="-86.749929">
        <ele>171.665999</ele>
        <time>2024-06-02T08:48:03.000Z</time>
      </trkpt>
      <trkpt lat="36.206647" lon="-86.749943">
        <ele>171.406098</ele>
        <time>2024-06-02T08:48:04.000Z</time>
      </trkpt>
      <trkpt lat="36.206531" lon="-86.749966">
        <ele>171.154054</ele>
        <time>2024-06-02T08:48:05.000Z</time>
      </trkpt>
      <trkpt lat="36.206415" lon="-86.749987">
        <ele>170.903539</ele>
        <time>2024-06-02T08:48:06.000Z</time>
      </trkpt>
      <trkpt lat="36.206282" lon="-86.750009">
        <ele>170.652198</ele>
        <time>2024-06-02T08:48:07.000Z</time>
      </trkpt>
      <trkpt lat="36.20617" lon="-86.750038">
        <ele>170.39994</ele>
        <time>2024-06-02T08:48:08.000Z</time>
      </trkpt>
      <trkpt lat="36.20604" lon="-86.750079">
        <ele>170.147347</ele>
        <time>2024-06-02T08:48:09.000Z</time>
      </trkpt>
      <trkpt lat="36.205917" lon="-86.750111">
        <ele>169.893063</ele>
        <time>2024-06-02T08:48:10.000Z</time>
      </trkpt>
      <trkpt lat="36.205791" lon="-86.750129">
        <ele>169.674861</ele>
        <time>2024-06-02T08:48:11.000Z</time>
      </trkpt>
      <trkpt lat="36.205681" lon="-86.750155">
        <ele>169.483648</ele>
        <time>2024-06-02T08:48:12.000Z</time>
      </trkpt>
      <trkpt lat="36.205551" lon="-86.750191">
        <ele>169.289421</ele>
        <time>2024-06-02T08:48:13.000Z</time>
      </trkpt>
      <trkpt lat="36.205419" lon="-86.750217">
        <ele>169.096706</ele>
        <time>2024-06-02T08:48:14.000Z</time>
      </trkpt>
      <trkpt lat="36.205297" lon="-86.75025">
        <ele>168.902464</ele>
        <time>2024-06-02T08:48:15.000Z</time>
      </trkpt>
      <trkpt lat="36.205185" lon="-86.750257">
        <ele>168.70865</ele>
        <time>2024-06-02T08:48:16.000Z</time>
      </trkpt>
      <trkpt lat="36.205048" lon="-86.750289">
        <ele>168.513696</ele>
        <time>2024-06-02T08:48:18.000Z</time>
      </trkpt>
      <trkpt lat="36.204925" lon="-86.750308">
        <ele>168.316666</ele>
        <time>2024-06-02T08:48:19.000Z</time>
      </trkpt>
      <trkpt lat="36.204794" lon="-86.750349">
        <ele>168.1192</ele>
        <time>2024-06-02T08:48:21.000Z</time>
      </trkpt>
      <trkpt lat="36.204665" lon="-86.75038">
        <ele>167.921523</ele>
        <time>2024-06-02T08:48:22.000Z</time>
      </trkpt>
      <trkpt lat="36.20454" lon="-86.750397">
        <ele>167.727698</ele>
        <time>2024-06-02T08:48:23.000Z</time>
      </trkpt>
      <trkpt lat="36.204427" lon="-86.750423">
        <ele>167.535599</ele>
        <time>2024-06-02T08:48:24.000Z</time>
      </trkpt>
      <trkpt lat="36.204279" lon="-86.750442">
        <ele>167.319728</ele>
        <time>2024-06-02T08:48:26.000Z</time>
      </trkpt>
      <trkpt lat="36.204151" lon="-86.75048">
        <ele>167.121813</ele>
        <time>2024-06-02T08:48:27.000Z</time>
      </trkpt>
      <trkpt lat="36.204034" lon="-86.750509">
        <ele>166.886661</ele>
        <time>2024-06-02T08:48:28.000Z</time>
      </trkpt>
      <trkpt lat="36.203917" lon="-86.750548">
        <ele>166.62486</ele>
        <time>2024-06-02T08:48:29.000Z</time>
      </trkpt>
      <trkpt lat="36.203793" lon="-86.750574">
        <ele>166.367196</ele>
        <time>2024-06-02T08:48:30.000Z</time>
      </trkpt>
      <trkpt lat="36.203669" lon="-86.750616">
        <ele>166.112762</ele>
        <time>2024-06-02T08:48:31.000Z</time>
      </trkpt>
      <trkpt lat="36.203555" lon="-86.750636">
        <ele>165.870733</ele>
        <time>2024-06-02T08:48:32.000Z</time>
      </trkpt>
      <trkpt lat="36.203457" lon="-86.750673">
        <ele>165.624941</ele>
        <time>2024-06-02T08:48:33.000Z</time>
      </trkpt>
      <trkpt lat="36.203326" lon="-86.750712">
        <ele>165.375402</ele>
        <time>2024-06-02T08:48:34.000Z</time>
      </trkpt>
      <trkpt lat="36.203217" lon="-86.750746">
        <ele>165.125866</ele>
        <time>2024-06-02T08:48:35.000Z</time>
      </trkpt>
      <trkpt lat="36.203109" lon="-86.750776">
        <ele>164.880092</ele>
        <time>2024-06-02T08:48:36.000Z</time>
      </trkpt>
      <trkpt lat="36.20299" lon="-86.750808">
        <ele>164.628995</ele>
        <time>2024-06-02T08:48:37.000Z</time>
      </trkpt>
      <trkpt lat="36.202873" lon="-86.750849">
        <ele>164.377904</ele>
        <time>2024-06-02T08:48:38.000Z</time>
      </trkpt>
      <trkpt lat="36.202764" lon="-86.750877">
        <ele>164.133404</ele>
        <time>2024-06-02T08:48:39.000Z</time>
      </trkpt>
      <trkpt lat="36.202658" lon="-86.750904">
        <ele>163.883107</ele>
        <time>2024-06-02T08:48:40.000Z</time>
      </trkpt>
      <trkpt lat="36.202531" lon="-86.750932">
        <ele>163.632417</ele>
        <time>2024-06-02T08:48:41.000Z</time>
      </trkpt>
      <trkpt lat="36.20241" lon="-86.750971">
        <ele>163.377616</ele>
        <time>2024-06-02T08:48:42.000Z</time>
      </trkpt>
      <trkpt lat="36.2023" lon="-86.751004">
        <ele>163.131004</ele>
        <time>2024-06-02T08:48:43.000Z</time>
      </trkpt>
      <trkpt lat="36.202176" lon="-86.751042">
        <ele>162.904492</ele>
        <time>2024-06-02T08:48:44.000Z</time>
      </trkpt>
      <trkpt lat="36.202064" lon="-86.751078">
        <ele>162.677055</ele>
        <time>2024-06-02T08:48:45.000Z</time>
      </trkpt>
      <trkpt lat="36.201933" lon="-86.751098">
        <ele>162.444983</ele>
        <time>2024-06-02T08:48:46.000Z</time>
      </trkpt>
      <trkpt lat="36.201822" lon="-86.751143">
        <ele>162.214023</ele>
        <time>2024-06-02T08:48:47.000Z</time>
      </trkpt>
      <trkpt lat="36.201692" lon="-86.75117">
        <ele>161.977972</ele>
        <time>2024-06-02T08:48:48.000Z</time>
      </trkpt>
      <trkpt lat="36.201578" lon="-86.75122">
        <ele>161.743741</ele>
        <time>2024-06-02T08:48:49.000Z</time>
      </trkpt>
      <trkpt lat="36.201453" lon="-86.751246">
        <ele>161.509517</ele>
        <time>2024-06-02T08:48:50.000Z</time>
      </trkpt>
      <trkpt lat="36.201327" lon="-86.751286">
        <ele>161.275626</ele>
        <time>2024-06-02T08:48:51.000Z</time>
      </trkpt>
      <trkpt lat="36.201207" lon="-86.751312">
        <ele>161.038751</ele>
        <time>2024-06-02T08:48:52.000Z</time>
      </trkpt>
      <trkpt lat="36.201087" lon="-86.751354">
        <ele>160.80005</ele>
        <time>2024-06-02T08:48:53.000Z</time>
      </trkpt>
      <trkpt lat="36.200958" lon="-86.751378">
        <ele>160.555855</ele>
        <time>2024-06-02T08:48:54.000Z</time>
      </trkpt>
      <trkpt lat="36.200822" lon="-86.751411">
        <ele>160.310368</ele>
        <time>2024-06-02T08:48:56.000Z</time>
      </trkpt>
      <trkpt lat="36.200695" lon="-86.751466">
        <ele>160.062356</ele>
        <time>2024-06-02T08:48:57.000Z</time>
      </trkpt>
      <trkpt lat="36.200576" lon="-86.751502">
        <ele>159.799079</ele>
        <time>2024-06-02T08:48:58.000Z</time>
      </trkpt>
      <trkpt lat="36.200432" lon="-86.751541">
        <ele>159.476462</ele>
        <time>2024-06-02T08:49:00.000Z</time>
      </trkpt>
      <trkpt lat="36.200307" lon="-86.751571">
        <ele>159.149977</ele>
        <time>2024-06-02T08:49:01.000Z</time>
      </trkpt>
      <trkpt lat="36.200173" lon="-86.751613">
        <ele>158.819555</ele>
        <time>2024-06-02T08:49:03.000Z</time>
      </trkpt>
      <trkpt lat="36.200044" lon="-86.751651">
        <ele>158.488312</ele>
        <time>2024-06-02T08:49:04.000Z</time>
      </trkpt>
      <trkpt lat="36.199916" lon="-86.751682">
        <ele>158.153842</ele>
        <time>2024-06-02T08:49:05.000Z</time>
      </trkpt>
      <trkpt lat="36.199774" lon="-86.751715">
        <ele>157.823028</ele>
        <time>2024-06-02T08:49:07.000Z</time>
      </trkpt>
      <trkpt lat="36.199634" lon="-86.75175">
        <ele>157.492198</ele>
        <time>2024-06-02T08:49:09.000Z</time>
      </trkpt>
      <trkpt lat="36.199519" lon="-86.751782">
        <ele>157.163331</ele>
        <time>2024-06-02T08:49:10.000Z</time>
      </trkpt>
      <trkpt lat="36.199379" lon="-86.751826">
        <ele>156.83598</ele>
        <time>2024-06-02T08:49:12.000Z</time>
      </trkpt>
      <trkpt lat="36.199241" lon="-86.751872">
        <ele>156.50668</ele>
        <time>2024-06-02T08:49:14.000Z</time>
      </trkpt>
      <trkpt lat="36.19911" lon="-86.751902">
        <ele>156.173072</ele>
        <time>2024-06-02T08:49:15.000Z</time>
      </trkpt>
      <trkpt lat="36.198981" lon="-86.75194">
        <ele>155.841833</ele>
        <time>2024-06-02T08:49:16.000Z</time>
      </trkpt>
      <trkpt lat="36.198848" lon="-86.751965">
        <ele>155.51534</ele>
        <time>2024-06-02T08:49:17.000Z</time>
      </trkpt>
      <trkpt lat="36.198714" lon="-86.752008">
        <ele>155.134262</ele>
        <time>2024-06-02T08:49:19.000Z</time>
      </trkpt>
      <trkpt lat="36.198592" lon="-86.752056">
        <ele>154.745732</ele>
        <time>2024-06-02T08:49:20.000Z</time>
      </trkpt>
      <trkpt lat="36.198455" lon="-86.75208">
        <ele>154.368926</ele>
        <time>2024-06-02T08:49:22.000Z</time>
      </trkpt>
      <trkpt lat="36.198331" lon="-86.752122">
        <ele>153.991244</ele>
        <time>2024-06-02T08:49:23.000Z</time>
      </trkpt>
      <trkpt lat="36.198206" lon="-86.752153">
        <ele>153.618708</ele>
        <time>2024-06-02T08:49:24.000Z</time>
      </trkpt>
      <trkpt lat="36.198082" lon="-86.752179">
        <ele>153.254612</ele>
        <time>2024-06-02T08:49:25.000Z</time>
      </trkpt>
      <trkpt lat="36.19795" lon="-86.752214">
        <ele>152.901739</ele>
        <time>2024-06-02T08:49:27.000Z</time>
      </trkpt>
      <trkpt lat="36.197844" lon="-86.75225">
        <ele>152.550732</ele>
        <time>2024-06-02T08:49:28.000Z</time>
      </trkpt>
      <trkpt lat="36.197714" lon="-86.752266">
        <ele>152.197792</ele>
        <time>2024-06-02T08:49:29.000Z</time>
      </trkpt>
      <trkpt lat="36.197592" lon="-86.752307">
        <ele>151.844828</ele>
        <time>2024-06-02T08:49:30.000Z</time>
      </trkpt>
      <trkpt lat="36.197478" lon="-86.752326">
        <ele>151.499469</ele>
        <time>2024-06-02T08:49:31.000Z</time>
      </trkpt>
      <trkpt lat="36.197358" lon="-86.752367">
        <ele>151.14709</ele>
        <time>2024-06-02T08:49:32.000Z</time>
      </trkpt>
      <trkpt lat="36.197236" lon="-86.752395">
        <ele>150.79751</ele>
        <time>2024-06-02T08:49:33.000Z</time>
      </trkpt>
      <trkpt lat="36.197114" lon="-86.752425">
        <ele>150.4506</ele>
        <time>2024-06-02T08:49:34.000Z</time>
      </trkpt>
      <trkpt lat="36.196992" lon="-86.752442">
        <ele>150.187856</ele>
        <time>2024-06-02T08:49:35.000Z</time>
      </trkpt>
      <trkpt lat="36.196874" lon="-86.75247">
        <ele>149.975459</ele>
        <time>2024-06-02T08:49:36.000Z</time>
      </trkpt>
      <trkpt lat="36.19677" lon="-86.752487">
        <ele>149.76421</ele>
        <time>2024-06-02T08:49:37.000Z</time>
      </trkpt>
      <trkpt lat="36.196638" lon="-86.75249">
        <ele>149.556912</ele>
        <time>2024-06-02T08:49:38.000Z</time>
      </trkpt>
      <trkpt lat="36.196523" lon="-86.752507">
        <ele>149.346363</ele>
        <time>2024-06-02T08:49:39.000Z</time>
      </trkpt>
      <trkpt lat="36.196416" lon="-86.752528">
        <ele>149.137009</ele>
        <time>2024-06-02T08:49:40.000Z</time>
      </trkpt>
      <trkpt lat="36.196286" lon="-86.752533">
        <ele>148.927347</ele>
        <time>2024-06-02T08:49:41.000Z</time>
      </trkpt>
      <trkpt lat="36.196174" lon="-86.752554">
        <ele>148.721348</ele>
        <time>2024-06-02T08:49:42.000Z</time>
      </trkpt>
      <trkpt lat="36.19606" lon="-86.752583">
        <ele>148.513599</ele>
        <time>2024-06-02T08:49:43.000Z</time>
      </trkpt>
      <trkpt lat="36.195949" lon="-86.752598">
        <ele>148.307061</ele>
        <time>2024-06-02T08:49:44.000Z</time>
      </trkpt>
      <trkpt lat="36.195834" lon="-86.75262">
        <ele>148.104009</ele>
        <time>2024-06-02T08:49:45.000Z</time>
      </trkpt>
      <trkpt lat="36.195705" lon="-86.752632">
        <ele>147.899205</ele>
        <time>2024-06-02T08:49:46.000Z</time>
      </trkpt>
      <trkpt lat="36.1956" lon="-86.752651">
        <ele>147.694971</ele>
        <time>2024-06-02T08:49:47.000Z</time>
      </trkpt>
      <trkpt lat="36.195477" lon="-86.752654">
        <ele>147.493193</ele>
        <time>2024-06-02T08:49:48.000Z</time>
      </trkpt>
      <trkpt lat="36.195368" lon="-86.752674">
        <ele>147.291159</ele>
        <time>2024-06-02T08:49:49.000Z</time>
      </trkpt>
      <trkpt lat="36.195254" lon="-86.752701">
        <ele>147.093765</ele>
        <time>2024-06-02T08:49:50.000Z</time>
      </trkpt>
      <trkpt lat="36.195147" lon="-86.752716">
        <ele>146.904662</ele>
        <time>2024-06-02T08:49:51.000Z</time>
      </trkpt>
      <trkpt lat="36.195024" lon="-86.752722">
        <ele>146.717454</ele>
        <time>2024-06-02T08:49:52.000Z</time>
      </trkpt>
      <trkpt lat="36.194913" lon="-86.752742">
        <ele>146.523242</ele>
        <time>2024-06-02T08:49:53.000Z</time>
      </trkpt>
      <trkpt lat="36.19479" lon="-86.752747">
        <ele>146.333536</ele>
        <time>2024-06-02T08:49:54.000Z</time>
      </trkpt>
      <trkpt lat="36.194667" lon="-86.752778">
        <ele>146.140946</ele>
        <time>2024-06-02T08:49:55.000Z</time>
      </trkpt>
      <trkpt lat="36.194556" lon="-86.75279">
        <ele>145.947671</ele>
        <time>2024-06-02T08:49:56.000Z</time>
      </trkpt>
      <trkpt lat="36.194429" lon="-86.752806">
        <ele>145.754397</ele>
        <time>2024-06-02T08:49:57.000Z</time>
      </trkpt>
      <trkpt lat="36.19431" lon="-86.752838">
        <ele>145.560344</ele>
        <time>2024-06-02T08:49:58.000Z</time>
      </trkpt>
      <trkpt lat="36.194201" lon="-86.752842">
        <ele>145.363321</ele>
        <time>2024-06-02T08:49:59.000Z</time>
      </trkpt>
      <trkpt lat="36.194067" lon="-86.752863">
        <ele>145.165095</ele>
        <time>2024-06-02T08:50:01.000Z</time>
      </trkpt>
      <trkpt lat="36.193943" lon="-86.752861">
        <ele>144.963636</ele>
        <time>2024-06-02T08:50:02.000Z</time>
      </trkpt>
      <trkpt lat="36.193823" lon="-86.752873">
        <ele>144.762168</ele>
        <time>2024-06-02T08:50:03.000Z</time>
      </trkpt>
      <trkpt lat="36.193702" lon="-86.752889">
        <ele>144.557294</ele>
        <time>2024-06-02T08:50:04.000Z</time>
      </trkpt>
      <trkpt lat="36.193583" lon="-86.7529">
        <ele>144.351491</ele>
        <time>2024-06-02T08:50:05.000Z</time>
      </trkpt>
      <trkpt lat="36.193447" lon="-86.752937">
        <ele>144.132442</ele>
        <time>2024-06-02T08:50:07.000Z</time>
      </trkpt>
      <trkpt lat="36.193327" lon="-86.75295">
        <ele>143.897844</ele>
        <time>2024-06-02T08:50:08.000Z</time>
      </trkpt>
      <trkpt lat="36.193184" lon="-86.75296">
        <ele>143.662837</ele>
        <time>2024-06-02T08:50:10.000Z</time>
      </trkpt>
      <trkpt lat="36.193068" lon="-86.752985">
        <ele>143.426012</ele>
        <time>2024-06-02T08:50:11.000Z</time>
      </trkpt>
      <trkpt lat="36.192923" lon="-86.753005">
        <ele>143.186772</ele>
        <time>2024-06-02T08:50:13.000Z</time>
      </trkpt>
      <trkpt lat="36.192797" lon="-86.75302">
        <ele>142.947533</ele>
        <time>2024-06-02T08:50:14.000Z</time>
      </trkpt>
      <trkpt lat="36.192667" lon="-86.753037">
        <ele>142.710419</ele>
        <time>2024-06-02T08:50:15.000Z</time>
      </trkpt>
      <trkpt lat="36.192534" lon="-86.75306">
        <ele>142.47166</ele>
        <time>2024-06-02T08:50:16.000Z</time>
      </trkpt>
      <trkpt lat="36.192404" lon="-86.75307">
        <ele>142.232745</ele>
        <time>2024-06-02T08:50:17.000Z</time>
      </trkpt>
      <trkpt lat="36.192283" lon="-86.753099">
        <ele>141.995313</ele>
        <time>2024-06-02T08:50:18.000Z</time>
      </trkpt>
      <trkpt lat="36.19214" lon="-86.753117">
        <ele>141.75984</ele>
        <time>2024-06-02T08:50:20.000Z</time>
      </trkpt>
      <trkpt lat="36.192015" lon="-86.753119">
        <ele>141.524684</ele>
        <time>2024-06-02T08:50:21.000Z</time>
      </trkpt>
      <trkpt lat="36.191881" lon="-86.75315">
        <ele>141.291185</ele>
        <time>2024-06-02T08:50:23.000Z</time>
      </trkpt>
      <trkpt lat="36.191762" lon="-86.753154">
        <ele>141.057834</ele>
        <time>2024-06-02T08:50:24.000Z</time>
      </trkpt>
      <trkpt lat="36.19163" lon="-86.753171">
        <ele>140.826429</ele>
        <time>2024-06-02T08:50:25.000Z</time>
      </trkpt>
      <trkpt lat="36.191501" lon="-86.753175">
        <ele>140.593155</ele>
        <time>2024-06-02T08:50:26.000Z</time>
      </trkpt>
      <trkpt lat="36.191376" lon="-86.753197">
        <ele>140.358905</ele>
        <time>2024-06-02T08:50:27.000Z</time>
      </trkpt>
      <trkpt lat="36.19125" lon="-86.753226">
        <ele>140.123652</ele>
        <time>2024-06-02T08:50:28.000Z</time>
      </trkpt>
      <trkpt lat="36.191119" lon="-86.753249">
        <ele>139.887458</ele>
        <time>2024-06-02T08:50:29.000Z</time>
      </trkpt>
      <trkpt lat="36.190989" lon="-86.75328">
        <ele>139.653727</ele>
        <time>2024-06-02T08:50:30.000Z</time>
      </trkpt>
      <trkpt lat="36.190866" lon="-86.753309">
        <ele>139.420004</ele>
        <time>2024-06-02T08:50:31.000Z</time>
      </trkpt>
      <trkpt lat="36.190742" lon="-86.753356">
        <ele>139.186799</ele>
        <time>2024-06-02T08:50:32.000Z</time>
      </trkpt>
      <trkpt lat="36.190618" lon="-86.753391">
        <ele>138.952186</ele>
        <time>2024-06-02T08:50:33.000Z</time>
      </trkpt>
      <trkpt lat="36.190495" lon="-86.753443">
        <ele>138.717387</ele>
        <time>2024-06-02T08:50:34.000Z</time>
      </trkpt>
      <trkpt lat="36.190627" lon="-86.753658">
        <ele>138.319969</ele>
        <time>2024-06-02T08:50:36.000Z</time>
      </trkpt>
      <trkpt lat="36.189688" lon="-86.754125">
        <ele>136.757795</ele>
        <time>2024-06-02T08:50:47.000Z</time>
      </trkpt>
      <trkpt lat="36.188828" lon="-86.754956">
        <ele>135.243896</ele>
        <time>2024-06-02T08:50:59.000Z</time>
      </trkpt>
      <trkpt lat="36.188769" lon="-86.755012">
        <ele>135.136493</ele>
        <time>2024-06-02T08:51:00.000Z</time>
      </trkpt>
      <trkpt lat="36.188698" lon="-86.754913">
        <ele>135.009728</ele>
        <time>2024-06-02T08:51:01.000Z</time>
      </trkpt>
      <trkpt lat="36.188582" lon="-86.754777">
        <ele>134.793271</ele>
        <time>2024-06-02T08:51:03.000Z</time>
      </trkpt>
      <trkpt lat="36.188695" lon="-86.754928">
        <ele>134.57683</ele>
        <time>2024-06-02T08:51:05.000Z</time>
      </trkpt>
      <trkpt lat="36.188757" lon="-86.754999">
        <ele>134.450041</ele>
        <time>2024-06-02T08:51:06.000Z</time>
      </trkpt>
      <trkpt lat="36.188703" lon="-86.755065">
        <ele>134.341115</ele>
        <time>2024-06-02T08:51:07.000Z</time>
      </trkpt>
      <trkpt lat="36.188145" lon="-86.755731">
        <ele>133.303087</ele>
        <time>2024-06-02T08:51:16.000Z</time>
      </trkpt>
      <trkpt lat="36.187621" lon="-86.756576">
        <ele>132.505974</ele>
        <time>2024-06-02T08:51:26.000Z</time>
      </trkpt>
      <trkpt lat="36.187459" lon="-86.756793">
        <ele>132.367418</ele>
        <time>2024-06-02T08:51:29.000Z</time>
      </trkpt>
      <trkpt lat="36.187341" lon="-86.756997">
        <ele>132.251449</ele>
        <time>2024-06-02T08:51:31.000Z</time>
      </trkpt>
      <trkpt lat="36.187178" lon="-86.756929">
        <ele>132.147896</ele>
        <time>2024-06-02T08:51:33.000Z</time>
      </trkpt>
      <trkpt lat="36.187086" lon="-86.757068">
        <ele>132.066488</ele>
        <time>2024-06-02T08:51:35.000Z</time>
      </trkpt>
      <trkpt lat="36.186998" lon="-86.757197">
        <ele>131.985852</ele>
        <time>2024-06-02T08:51:37.000Z</time>
      </trkpt>
      <trkpt lat="36.186921" lon="-86.757352">
        <ele>131.905557</ele>
        <time>2024-06-02T08:51:39.000Z</time>
      </trkpt>
      <trkpt lat="36.18685" lon="-86.757478">
        <ele>131.826019</ele>
        <time>2024-06-02T08:51:40.000Z</time>
      </trkpt>
      <trkpt lat="36.186768" lon="-86.757616">
        <ele>131.746822</ele>
        <time>2024-06-02T08:51:42.000Z</time>
      </trkpt>
      <trkpt lat="36.186671" lon="-86.75775">
        <ele>131.748128</ele>
        <time>2024-06-02T08:51:44.000Z</time>
      </trkpt>
      <trkpt lat="36.1866" lon="-86.757895">
        <ele>131.76829</ele>
        <time>2024-06-02T08:51:46.000Z</time>
      </trkpt>
      <trkpt lat="36.186519" lon="-86.75801">
        <ele>131.788247</ele>
        <time>2024-06-02T08:51:47.000Z</time>
      </trkpt>
      <trkpt lat="36.186454" lon="-86.75816">
        <ele>131.808208</ele>
        <time>2024-06-02T08:51:49.000Z</time>
      </trkpt>
      <trkpt lat="36.186376" lon="-86.758287">
        <ele>131.828078</ele>
        <time>2024-06-02T08:51:50.000Z</time>
      </trkpt>
      <trkpt lat="36.186284" lon="-86.75841">
        <ele>131.847588</ele>
        <time>2024-06-02T08:51:52.000Z</time>
      </trkpt>
      <trkpt lat="36.186224" lon="-86.758548">
        <ele>131.867074</ele>
        <time>2024-06-02T08:51:53.000Z</time>
      </trkpt>
      <trkpt lat="36.186142" lon="-86.758674">
        <ele>131.885779</ele>
        <time>2024-06-02T08:51:54.000Z</time>
      </trkpt>
      <trkpt lat="36.18605" lon="-86.758789">
        <ele>131.905059</ele>
        <time>2024-06-02T08:51:55.000Z</time>
      </trkpt>
      <trkpt lat="36.185966" lon="-86.758895">
        <ele>131.923503</ele>
        <time>2024-06-02T08:51:56.000Z</time>
      </trkpt>
      <trkpt lat="36.185896" lon="-86.759019">
        <ele>131.941652</ele>
        <time>2024-06-02T08:51:57.000Z</time>
      </trkpt>
      <trkpt lat="36.185813" lon="-86.759129">
        <ele>131.959939</ele>
        <time>2024-06-02T08:51:58.000Z</time>
      </trkpt>
      <trkpt lat="36.18572" lon="-86.759224">
        <ele>131.978246</ele>
        <time>2024-06-02T08:51:59.000Z</time>
      </trkpt>
      <trkpt lat="36.185656" lon="-86.759348">
        <ele>131.996139</ele>
        <time>2024-06-02T08:52:00.000Z</time>
      </trkpt>
      <trkpt lat="36.185559" lon="-86.759449">
        <ele>131.93878</ele>
        <time>2024-06-02T08:52:01.000Z</time>
      </trkpt>
      <trkpt lat="36.185481" lon="-86.759549">
        <ele>131.844341</ele>
        <time>2024-06-02T08:52:02.000Z</time>
      </trkpt>
      <trkpt lat="36.185379" lon="-86.75963">
        <ele>131.752036</ele>
        <time>2024-06-02T08:52:03.000Z</time>
      </trkpt>
      <trkpt lat="36.1853" lon="-86.759734">
        <ele>131.65812</ele>
        <time>2024-06-02T08:52:04.000Z</time>
      </trkpt>
      <trkpt lat="36.185208" lon="-86.759819">
        <ele>131.564596</ele>
        <time>2024-06-02T08:52:05.000Z</time>
      </trkpt>
      <trkpt lat="36.185111" lon="-86.759903">
        <ele>131.473907</ele>
        <time>2024-06-02T08:52:06.000Z</time>
      </trkpt>
      <trkpt lat="36.185021" lon="-86.759992">
        <ele>131.38323</ele>
        <time>2024-06-02T08:52:07.000Z</time>
      </trkpt>
      <trkpt lat="36.184934" lon="-86.760089">
        <ele>131.294343</ele>
        <time>2024-06-02T08:52:08.000Z</time>
      </trkpt>
      <trkpt lat="36.184836" lon="-86.760172">
        <ele>131.202643</ele>
        <time>2024-06-02T08:52:09.000Z</time>
      </trkpt>
      <trkpt lat="36.184738" lon="-86.760254">
        <ele>131.109185</ele>
        <time>2024-06-02T08:52:10.000Z</time>
      </trkpt>
      <trkpt lat="36.184652" lon="-86.760336">
        <ele>131.018218</ele>
        <time>2024-06-02T08:52:11.000Z</time>
      </trkpt>
      <trkpt lat="36.184559" lon="-86.760414">
        <ele>130.926699</ele>
        <time>2024-06-02T08:52:12.000Z</time>
      </trkpt>
      <trkpt lat="36.184466" lon="-86.760482">
        <ele>130.835518</ele>
        <time>2024-06-02T08:52:13.000Z</time>
      </trkpt>
      <trkpt lat="36.184359" lon="-86.760543">
        <ele>130.74368</ele>
        <time>2024-06-02T08:52:14.000Z</time>
      </trkpt>
      <trkpt lat="36.184256" lon="-86.760618">
        <ele>130.65114</ele>
        <time>2024-06-02T08:52:15.000Z</time>
      </trkpt>
      <trkpt lat="36.184139" lon="-86.760687">
        <ele>130.54738</ele>
        <time>2024-06-02T08:52:16.000Z</time>
      </trkpt>
      <trkpt lat="36.184039" lon="-86.760747">
        <ele>130.388007</ele>
        <time>2024-06-02T08:52:17.000Z</time>
      </trkpt>
      <trkpt lat="36.183934" lon="-86.760826">
        <ele>130.225759</ele>
        <time>2024-06-02T08:52:18.000Z</time>
      </trkpt>
      <trkpt lat="36.183826" lon="-86.760884">
        <ele>130.06297</ele>
        <time>2024-06-02T08:52:19.000Z</time>
      </trkpt>
      <trkpt lat="36.183717" lon="-86.760956">
        <ele>129.900726</ele>
        <time>2024-06-02T08:52:20.000Z</time>
      </trkpt>
      <trkpt lat="36.183611" lon="-86.761021">
        <ele>129.73898</ele>
        <time>2024-06-02T08:52:21.000Z</time>
      </trkpt>
      <trkpt lat="36.183506" lon="-86.76109">
        <ele>129.575528</ele>
        <time>2024-06-02T08:52:22.000Z</time>
      </trkpt>
      <trkpt lat="36.183395" lon="-86.76117">
        <ele>129.409946</ele>
        <time>2024-06-02T08:52:23.000Z</time>
      </trkpt>
      <trkpt lat="36.183288" lon="-86.761233">
        <ele>129.245309</ele>
        <time>2024-06-02T08:52:24.000Z</time>
      </trkpt>
      <trkpt lat="36.183178" lon="-86.761288">
        <ele>129.08408</ele>
        <time>2024-06-02T08:52:25.000Z</time>
      </trkpt>
      <trkpt lat="36.183078" lon="-86.761375">
        <ele>128.921426</ele>
        <time>2024-06-02T08:52:26.000Z</time>
      </trkpt>
      <trkpt lat="36.182971" lon="-86.761452">
        <ele>128.757084</ele>
        <time>2024-06-02T08:52:27.000Z</time>
      </trkpt>
      <trkpt lat="36.182857" lon="-86.761505">
        <ele>128.592939</ele>
        <time>2024-06-02T08:52:28.000Z</time>
      </trkpt>
      <trkpt lat="36.182755" lon="-86.76159">
        <ele>128.429483</ele>
        <time>2024-06-02T08:52:29.000Z</time>
      </trkpt>
      <trkpt lat="36.182643" lon="-86.761659">
        <ele>128.264988</ele>
        <time>2024-06-02T08:52:30.000Z</time>
      </trkpt>
      <trkpt lat="36.18255" lon="-86.761728">
        <ele>128.122457</ele>
        <time>2024-06-02T08:52:31.000Z</time>
      </trkpt>
      <trkpt lat="36.182432" lon="-86.761802">
        <ele>128.04654</ele>
        <time>2024-06-02T08:52:32.000Z</time>
      </trkpt>
      <trkpt lat="36.182324" lon="-86.761869">
        <ele>127.970852</ele>
        <time>2024-06-02T08:52:33.000Z</time>
      </trkpt>
      <trkpt lat="36.182216" lon="-86.761943">
        <ele>127.895182</ele>
        <time>2024-06-02T08:52:34.000Z</time>
      </trkpt>
      <trkpt lat="36.18212" lon="-86.761998">
        <ele>127.821303</ele>
        <time>2024-06-02T08:52:35.000Z</time>
      </trkpt>
      <trkpt lat="36.182001" lon="-86.762063">
        <ele>127.748409</ele>
        <time>2024-06-02T08:52:36.000Z</time>
      </trkpt>
      <trkpt lat="36.181896" lon="-86.762138">
        <ele>127.676401</ele>
        <time>2024-06-02T08:52:37.000Z</time>
      </trkpt>
      <trkpt lat="36.181799" lon="-86.762177">
        <ele>127.604099</ele>
        <time>2024-06-02T08:52:38.000Z</time>
      </trkpt>
      <trkpt lat="36.181696" lon="-86.762231">
        <ele>127.532149</ele>
        <time>2024-06-02T08:52:39.000Z</time>
      </trkpt>
      <trkpt lat="36.18157" lon="-86.762295">
        <ele>127.459648</ele>
        <time>2024-06-02T08:52:41.000Z</time>
      </trkpt>
      <trkpt lat="36.181473" lon="-86.762352">
        <ele>127.38677</ele>
        <time>2024-06-02T08:52:42.000Z</time>
      </trkpt>
      <trkpt lat="36.181371" lon="-86.762416">
        <ele>127.314446</ele>
        <time>2024-06-02T08:52:43.000Z</time>
      </trkpt>
      <trkpt lat="36.181254" lon="-86.762466">
        <ele>127.242891</ele>
        <time>2024-06-02T08:52:44.000Z</time>
      </trkpt>
      <trkpt lat="36.181157" lon="-86.762507">
        <ele>127.172989</ele>
        <time>2024-06-02T08:52:45.000Z</time>
      </trkpt>
      <trkpt lat="36.181046" lon="-86.762545">
        <ele>127.101383</ele>
        <time>2024-06-02T08:52:46.000Z</time>
      </trkpt>
      <trkpt lat="36.180931" lon="-86.762578">
        <ele>127.03121</ele>
        <time>2024-06-02T08:52:47.000Z</time>
      </trkpt>
      <trkpt lat="36.180817" lon="-86.762616">
        <ele>126.982692</ele>
        <time>2024-06-02T08:52:48.000Z</time>
      </trkpt>
      <trkpt lat="36.180712" lon="-86.762645">
        <ele>126.935772</ele>
        <time>2024-06-02T08:52:49.000Z</time>
      </trkpt>
      <trkpt lat="36.1806" lon="-86.762691">
        <ele>126.889711</ele>
        <time>2024-06-02T08:52:50.000Z</time>
      </trkpt>
      <trkpt lat="36.1805" lon="-86.76272">
        <ele>126.844366</ele>
        <time>2024-06-02T08:52:51.000Z</time>
      </trkpt>
      <trkpt lat="36.180376" lon="-86.76274">
        <ele>126.797723</ele>
        <time>2024-06-02T08:52:52.000Z</time>
      </trkpt>
      <trkpt lat="36.180273" lon="-86.762769">
        <ele>126.750599</ele>
        <time>2024-06-02T08:52:53.000Z</time>
      </trkpt>
      <trkpt lat="36.180157" lon="-86.762815">
        <ele>126.705106</ele>
        <time>2024-06-02T08:52:54.000Z</time>
      </trkpt>
      <trkpt lat="36.180043" lon="-86.76284">
        <ele>126.658518</ele>
        <time>2024-06-02T08:52:55.000Z</time>
      </trkpt>
      <trkpt lat="36.179944" lon="-86.762864">
        <ele>126.612454</ele>
        <time>2024-06-02T08:52:56.000Z</time>
      </trkpt>
      <trkpt lat="36.179835" lon="-86.762901">
        <ele>126.567275</ele>
        <time>2024-06-02T08:52:57.000Z</time>
      </trkpt>
      <trkpt lat="36.179738" lon="-86.762935">
        <ele>126.521768</ele>
        <time>2024-06-02T08:52:58.000Z</time>
      </trkpt>
      <trkpt lat="36.179616" lon="-86.762973">
        <ele>126.477299</ele>
        <time>2024-06-02T08:52:59.000Z</time>
      </trkpt>
      <trkpt lat="36.179518" lon="-86.762997">
        <ele>126.431971</ele>
        <time>2024-06-02T08:53:00.000Z</time>
      </trkpt>
      <trkpt lat="36.17954" lon="-86.763217">
        <ele>126.358983</ele>
        <time>2024-06-02T08:53:02.000Z</time>
      </trkpt>
      <trkpt lat="36.179473" lon="-86.763235">
        <ele>126.331348</ele>
        <time>2024-06-02T08:53:03.000Z</time>
      </trkpt>
      <trkpt lat="36.179118" lon="-86.763324">
        <ele>126.221606</ele>
        <time>2024-06-02T08:53:07.000Z</time>
      </trkpt>
      <trkpt lat="36.178853" lon="-86.763456">
        <ele>126.14035</ele>
        <time>2024-06-02T08:53:10.000Z</time>
      </trkpt>
      <trkpt lat="36.178813" lon="-86.763328">
        <ele>126.109103</ele>
        <time>2024-06-02T08:53:11.000Z</time>
      </trkpt>
      <trkpt lat="36.178704" lon="-86.763392">
        <ele>126.080161</ele>
        <time>2024-06-02T08:53:12.000Z</time>
      </trkpt>
      <trkpt lat="36.178615" lon="-86.763456">
        <ele>126.051242</ele>
        <time>2024-06-02T08:53:13.000Z</time>
      </trkpt>
      <trkpt lat="36.178534" lon="-86.763522">
        <ele>126.022453</ele>
        <time>2024-06-02T08:53:14.000Z</time>
      </trkpt>
      <trkpt lat="36.178436" lon="-86.763593">
        <ele>125.99371</ele>
        <time>2024-06-02T08:53:15.000Z</time>
      </trkpt>
      <trkpt lat="36.17836" lon="-86.763685">
        <ele>125.96486</ele>
        <time>2024-06-02T08:53:16.000Z</time>
      </trkpt>
      <trkpt lat="36.178284" lon="-86.763759">
        <ele>125.936395</ele>
        <time>2024-06-02T08:53:17.000Z</time>
      </trkpt>
      <trkpt lat="36.178204" lon="-86.763852">
        <ele>125.908045</ele>
        <time>2024-06-02T08:53:18.000Z</time>
      </trkpt>
      <trkpt lat="36.17812" lon="-86.763927">
        <ele>125.879407</ele>
        <time>2024-06-02T08:53:19.000Z</time>
      </trkpt>
      <trkpt lat="36.17805" lon="-86.764029">
        <ele>125.851112</ele>
        <time>2024-06-02T08:53:20.000Z</time>
      </trkpt>
      <trkpt lat="36.177958" lon="-86.764118">
        <ele>125.822477</ele>
        <time>2024-06-02T08:53:21.000Z</time>
      </trkpt>
      <trkpt lat="36.177895" lon="-86.764207">
        <ele>125.818845</ele>
        <time>2024-06-02T08:53:22.000Z</time>
      </trkpt>
      <trkpt lat="36.177824" lon="-86.764294">
        <ele>125.909542</ele>
        <time>2024-06-02T08:53:23.000Z</time>
      </trkpt>
      <trkpt lat="36.177747" lon="-86.764377">
        <ele>126.000878</ele>
        <time>2024-06-02T08:53:24.000Z</time>
      </trkpt>
      <trkpt lat="36.177667" lon="-86.764465">
        <ele>126.096607</ele>
        <time>2024-06-02T08:53:25.000Z</time>
      </trkpt>
      <trkpt lat="36.177589" lon="-86.764556">
        <ele>126.184534</ele>
        <time>2024-06-02T08:53:26.000Z</time>
      </trkpt>
      <trkpt lat="36.177519" lon="-86.764652">
        <ele>126.274596</ele>
        <time>2024-06-02T08:53:27.000Z</time>
      </trkpt>
      <trkpt lat="36.177452" lon="-86.764733">
        <ele>126.365504</ele>
        <time>2024-06-02T08:53:28.000Z</time>
      </trkpt>
      <trkpt lat="36.177378" lon="-86.764831">
        <ele>126.456913</ele>
        <time>2024-06-02T08:53:29.000Z</time>
      </trkpt>
      <trkpt lat="36.177309" lon="-86.76493">
        <ele>126.546758</ele>
        <time>2024-06-02T08:53:30.000Z</time>
      </trkpt>
      <trkpt lat="36.177233" lon="-86.765001">
        <ele>126.635966</ele>
        <time>2024-06-02T08:53:31.000Z</time>
      </trkpt>
      <trkpt lat="36.17717" lon="-86.765098">
        <ele>126.725177</ele>
        <time>2024-06-02T08:53:32.000Z</time>
      </trkpt>
      <trkpt lat="36.177099" lon="-86.765176">
        <ele>126.81474</ele>
        <time>2024-06-02T08:53:33.000Z</time>
      </trkpt>
      <trkpt lat="36.177025" lon="-86.765269">
        <ele>126.903308</ele>
        <time>2024-06-02T08:53:34.000Z</time>
      </trkpt>
      <trkpt lat="36.176942" lon="-86.765347">
        <ele>126.991878</ele>
        <time>2024-06-02T08:53:35.000Z</time>
      </trkpt>
      <trkpt lat="36.17688" lon="-86.765449">
        <ele>127.079305</ele>
        <time>2024-06-02T08:53:36.000Z</time>
      </trkpt>
      <trkpt lat="36.176811" lon="-86.765521">
        <ele>127.167731</ele>
        <time>2024-06-02T08:53:37.000Z</time>
      </trkpt>
      <trkpt lat="36.176732" lon="-86.765608">
        <ele>127.255677</ele>
        <time>2024-06-02T08:53:38.000Z</time>
      </trkpt>
      <trkpt lat="36.176672" lon="-86.765699">
        <ele>127.341971</ele>
        <time>2024-06-02T08:53:39.000Z</time>
      </trkpt>
      <trkpt lat="36.176591" lon="-86.765791">
        <ele>127.43217</ele>
        <time>2024-06-02T08:53:40.000Z</time>
      </trkpt>
      <trkpt lat="36.176537" lon="-86.765876">
        <ele>127.525291</ele>
        <time>2024-06-02T08:53:41.000Z</time>
      </trkpt>
      <trkpt lat="36.176454" lon="-86.765957">
        <ele>127.614496</ele>
        <time>2024-06-02T08:53:42.000Z</time>
      </trkpt>
      <trkpt lat="36.176398" lon="-86.766044">
        <ele>127.709619</ele>
        <time>2024-06-02T08:53:43.000Z</time>
      </trkpt>
      <trkpt lat="36.176313" lon="-86.766131">
        <ele>127.803687</ele>
        <time>2024-06-02T08:53:44.000Z</time>
      </trkpt>
      <trkpt lat="36.17625" lon="-86.766211">
        <ele>127.898438</ele>
        <time>2024-06-02T08:53:45.000Z</time>
      </trkpt>
      <trkpt lat="36.176178" lon="-86.766288">
        <ele>127.992336</ele>
        <time>2024-06-02T08:53:46.000Z</time>
      </trkpt>
      <trkpt lat="36.176088" lon="-86.766368">
        <ele>128.085235</ele>
        <time>2024-06-02T08:53:47.000Z</time>
      </trkpt>
      <trkpt lat="36.176023" lon="-86.766456">
        <ele>128.176863</ele>
        <time>2024-06-02T08:53:48.000Z</time>
      </trkpt>
      <trkpt lat="36.175953" lon="-86.766522">
        <ele>128.267769</ele>
        <time>2024-06-02T08:53:49.000Z</time>
      </trkpt>
      <trkpt lat="36.175877" lon="-86.766609">
        <ele>128.358241</ele>
        <time>2024-06-02T08:53:50.000Z</time>
      </trkpt>
      <trkpt lat="36.175805" lon="-86.766679">
        <ele>128.449909</ele>
        <time>2024-06-02T08:53:51.000Z</time>
      </trkpt>
      <trkpt lat="36.175722" lon="-86.76676">
        <ele>128.541387</ele>
        <time>2024-06-02T08:53:52.000Z</time>
      </trkpt>
      <trkpt lat="36.175652" lon="-86.766843">
        <ele>128.631963</ele>
        <time>2024-06-02T08:53:53.000Z</time>
      </trkpt>
      <trkpt lat="36.17558" lon="-86.766914">
        <ele>128.723435</ele>
        <time>2024-06-02T08:53:54.000Z</time>
      </trkpt>
      <trkpt lat="36.175513" lon="-86.767001">
        <ele>128.812302</ele>
        <time>2024-06-02T08:53:55.000Z</time>
      </trkpt>
      <trkpt lat="36.175443" lon="-86.767091">
        <ele>128.902202</ele>
        <time>2024-06-02T08:53:56.000Z</time>
      </trkpt>
      <trkpt lat="36.175372" lon="-86.767169">
        <ele>128.993843</ele>
        <time>2024-06-02T08:53:57.000Z</time>
      </trkpt>
      <trkpt lat="36.175302" lon="-86.767239">
        <ele>129.085019</ele>
        <time>2024-06-02T08:53:58.000Z</time>
      </trkpt>
      <trkpt lat="36.175237" lon="-86.767313">
        <ele>129.247364</ele>
        <time>2024-06-02T08:53:59.000Z</time>
      </trkpt>
      <trkpt lat="36.175164" lon="-86.767392">
        <ele>129.417434</ele>
        <time>2024-06-02T08:54:00.000Z</time>
      </trkpt>
      <trkpt lat="36.175084" lon="-86.767473">
        <ele>129.583992</ele>
        <time>2024-06-02T08:54:01.000Z</time>
      </trkpt>
      <trkpt lat="36.174996" lon="-86.767529">
        <ele>129.753807</ele>
        <time>2024-06-02T08:54:02.000Z</time>
      </trkpt>
      <trkpt lat="36.174931" lon="-86.767593">
        <ele>129.924968</ele>
        <time>2024-06-02T08:54:03.000Z</time>
      </trkpt>
      <trkpt lat="36.174846" lon="-86.767654">
        <ele>130.091532</ele>
        <time>2024-06-02T08:54:04.000Z</time>
      </trkpt>
      <trkpt lat="36.174752" lon="-86.767688">
        <ele>130.261613</ele>
        <time>2024-06-02T08:54:05.000Z</time>
      </trkpt>
      <trkpt lat="36.174655" lon="-86.767725">
        <ele>130.43111</ele>
        <time>2024-06-02T08:54:06.000Z</time>
      </trkpt>
      <trkpt lat="36.174562" lon="-86.767742">
        <ele>130.607766</ele>
        <time>2024-06-02T08:54:07.000Z</time>
      </trkpt>
      <trkpt lat="36.174453" lon="-86.767754">
        <ele>130.778889</ele>
        <time>2024-06-02T08:54:08.000Z</time>
      </trkpt>
      <trkpt lat="36.174363" lon="-86.76776">
        <ele>130.945637</ele>
        <time>2024-06-02T08:54:09.000Z</time>
      </trkpt>
      <trkpt lat="36.17428" lon="-86.767745">
        <ele>131.11339</ele>
        <time>2024-06-02T08:54:10.000Z</time>
      </trkpt>
      <trkpt lat="36.174184" lon="-86.767717">
        <ele>131.279371</ele>
        <time>2024-06-02T08:54:11.000Z</time>
      </trkpt>
      <trkpt lat="36.1741" lon="-86.767671">
        <ele>131.440637</ele>
        <time>2024-06-02T08:54:12.000Z</time>
      </trkpt>
      <trkpt lat="36.17401" lon="-86.767627">
        <ele>131.599322</ele>
        <time>2024-06-02T08:54:13.000Z</time>
      </trkpt>
      <trkpt lat="36.173942" lon="-86.767556">
        <ele>131.758457</ele>
        <time>2024-06-02T08:54:14.000Z</time>
      </trkpt>
      <trkpt lat="36.173868" lon="-86.767487">
        <ele>131.91676</ele>
        <time>2024-06-02T08:54:15.000Z</time>
      </trkpt>
      <trkpt lat="36.173803" lon="-86.76741">
        <ele>132.070745</ele>
        <time>2024-06-02T08:54:16.000Z</time>
      </trkpt>
      <trkpt lat="36.173753" lon="-86.767339">
        <ele>132.222284</ele>
        <time>2024-06-02T08:54:17.000Z</time>
      </trkpt>
      <trkpt lat="36.17371" lon="-86.767246">
        <ele>132.397857</ele>
        <time>2024-06-02T08:54:18.000Z</time>
      </trkpt>
      <trkpt lat="36.173661" lon="-86.767167">
        <ele>132.584681</ele>
        <time>2024-06-02T08:54:19.000Z</time>
      </trkpt>
      <trkpt lat="36.173636" lon="-86.76706">
        <ele>132.769993</ele>
        <time>2024-06-02T08:54:20.000Z</time>
      </trkpt>
      <trkpt lat="36.173608" lon="-86.766975">
        <ele>132.958205</ele>
        <time>2024-06-02T08:54:21.000Z</time>
      </trkpt>
      <trkpt lat="36.173588" lon="-86.766868">
        <ele>133.139768</ele>
        <time>2024-06-02T08:54:22.000Z</time>
      </trkpt>
      <trkpt lat="36.173572" lon="-86.766772">
        <ele>133.320758</ele>
        <time>2024-06-02T08:54:23.000Z</time>
      </trkpt>
      <trkpt lat="36.173549" lon="-86.766673">
        <ele>133.502911</ele>
        <time>2024-06-02T08:54:24.000Z</time>
      </trkpt>
      <trkpt lat="36.173528" lon="-86.766585">
        <ele>133.682229</ele>
        <time>2024-06-02T08:54:25.000Z</time>
      </trkpt>
      <trkpt lat="36.1735" lon="-86.766489">
        <ele>133.85875</ele>
        <time>2024-06-02T08:54:26.000Z</time>
      </trkpt>
      <trkpt lat="36.173465" lon="-86.766397">
        <ele>134.034592</ele>
        <time>2024-06-02T08:54:27.000Z</time>
      </trkpt>
      <trkpt lat="36.173448" lon="-86.766306">
        <ele>134.208062</ele>
        <time>2024-06-02T08:54:28.000Z</time>
      </trkpt>
      <trkpt lat="36.173432" lon="-86.766216">
        <ele>134.382653</ele>
        <time>2024-06-02T08:54:29.000Z</time>
      </trkpt>
      <trkpt lat="36.17341" lon="-86.766109">
        <ele>134.556649</ele>
        <time>2024-06-02T08:54:30.000Z</time>
      </trkpt>
      <trkpt lat="36.173382" lon="-86.766028">
        <ele>134.728893</ele>
        <time>2024-06-02T08:54:31.000Z</time>
      </trkpt>
      <trkpt lat="36.173373" lon="-86.765932">
        <ele>134.902667</ele>
        <time>2024-06-02T08:54:32.000Z</time>
      </trkpt>
      <trkpt lat="36.173328" lon="-86.765847">
        <ele>135.073199</ele>
        <time>2024-06-02T08:54:33.000Z</time>
      </trkpt>
      <trkpt lat="36.173298" lon="-86.765765">
        <ele>135.242471</ele>
        <time>2024-06-02T08:54:34.000Z</time>
      </trkpt>
      <trkpt lat="36.17323" lon="-86.765695">
        <ele>135.411596</ele>
        <time>2024-06-02T08:54:35.000Z</time>
      </trkpt>
      <trkpt lat="36.17328" lon="-86.765654">
        <ele>135.542447</ele>
        <time>2024-06-02T08:54:36.000Z</time>
      </trkpt>
      <trkpt lat="36.173221" lon="-86.765608">
        <ele>135.666868</ele>
        <time>2024-06-02T08:54:37.000Z</time>
      </trkpt>
      <trkpt lat="36.17296" lon="-86.765464">
        <ele>136.313186</ele>
        <time>2024-06-02T08:54:40.000Z</time>
      </trkpt>
      <trkpt lat="36.172875" lon="-86.765346">
        <ele>136.328864</ele>
        <time>2024-06-02T08:54:41.000Z</time>
      </trkpt>
      <trkpt lat="36.172748" lon="-86.765283">
        <ele>136.347616</ele>
        <time>2024-06-02T08:54:43.000Z</time>
      </trkpt>
      <trkpt lat="36.172508" lon="-86.765141">
        <ele>136.381248</ele>
        <time>2024-06-02T08:54:46.000Z</time>
      </trkpt>
      <trkpt lat="36.172335" lon="-86.765031">
        <ele>136.406561</ele>
        <time>2024-06-02T08:54:48.000Z</time>
      </trkpt>
      <trkpt lat="36.172258" lon="-86.764982">
        <ele>136.419954</ele>
        <time>2024-06-02T08:54:49.000Z</time>
      </trkpt>
      <trkpt lat="36.171902" lon="-86.76479">
        <ele>136.470411</ele>
        <time>2024-06-02T08:54:53.000Z</time>
      </trkpt>
      <trkpt lat="36.171844" lon="-86.764751">
        <ele>136.47801</ele>
        <time>2024-06-02T08:54:54.000Z</time>
      </trkpt>
      <trkpt lat="36.171834" lon="-86.764889">
        <ele>136.492068</ele>
        <time>2024-06-02T08:54:55.000Z</time>
      </trkpt>
      <trkpt lat="36.171713" lon="-86.765209">
        <ele>136.529277</ele>
        <time>2024-06-02T08:54:58.000Z</time>
      </trkpt>
      <trkpt lat="36.171458" lon="-86.765839">
        <ele>135.875804</ele>
        <time>2024-06-02T08:55:04.000Z</time>
      </trkpt>
      <trkpt lat="36.171381" lon="-86.766031">
        <ele>135.608606</ele>
        <time>2024-06-02T08:55:06.000Z</time>
      </trkpt>
      <trkpt lat="36.171195" lon="-86.766664">
        <ele>134.775071</ele>
        <time>2024-06-02T08:55:12.000Z</time>
      </trkpt>
      <trkpt lat="36.17071" lon="-86.767926">
        <ele>133.096291</ele>
        <time>2024-06-02T08:55:25.000Z</time>
      </trkpt>
      <trkpt lat="36.170575" lon="-86.768223">
        <ele>132.68769</ele>
        <time>2024-06-02T08:55:28.000Z</time>
      </trkpt>
      <trkpt lat="36.17049" lon="-86.768399">
        <ele>132.468362</ele>
        <time>2024-06-02T08:55:30.000Z</time>
      </trkpt>
      <trkpt lat="36.1704" lon="-86.768419">
        <ele>132.337077</ele>
        <time>2024-06-02T08:55:31.000Z</time>
      </trkpt>
      <trkpt lat="36.170364" lon="-86.768479">
        <ele>132.252704</ele>
        <time>2024-06-02T08:55:32.000Z</time>
      </trkpt>
      <trkpt lat="36.170102" lon="-86.769263">
        <ele>131.288742</ele>
        <time>2024-06-02T08:55:40.000Z</time>
      </trkpt>
      <trkpt lat="36.169987" lon="-86.769615">
        <ele>130.957085</ele>
        <time>2024-06-02T08:55:43.000Z</time>
      </trkpt>
      <trkpt lat="36.169735" lon="-86.770374">
        <ele>130.264412</ele>
        <time>2024-06-02T08:55:50.000Z</time>
      </trkpt>
      <trkpt lat="36.16952" lon="-86.770959">
        <ele>129.730862</ele>
        <time>2024-06-02T08:55:56.000Z</time>
      </trkpt>
      <trkpt lat="36.168746" lon="-86.770499">
        <ele>128.883303</ele>
        <time>2024-06-02T08:56:06.000Z</time>
      </trkpt>
      <trkpt lat="36.168508" lon="-86.770349">
        <ele>128.640329</ele>
        <time>2024-06-02T08:56:09.000Z</time>
      </trkpt>
      <trkpt lat="36.168444" lon="-86.770322">
        <ele>128.576204</ele>
        <time>2024-06-02T08:56:10.000Z</time>
      </trkpt>
      <trkpt lat="36.168415" lon="-86.770418">
        <ele>128.494154</ele>
        <time>2024-06-02T08:56:11.000Z</time>
      </trkpt>
      <trkpt lat="36.168341" lon="-86.770624">
        <ele>128.319218</ele>
        <time>2024-06-02T08:56:13.000Z</time>
      </trkpt>
      <trkpt lat="36.168267" lon="-86.770579">
        <ele>128.22781</ele>
        <time>2024-06-02T08:56:14.000Z</time>
      </trkpt>
      <trkpt lat="36.167476" lon="-86.770108">
        <ele>127.598674</ele>
        <time>2024-06-02T08:56:24.000Z</time>
      </trkpt>
      <trkpt lat="36.166342" lon="-86.769471">
        <ele>127.362712</ele>
        <time>2024-06-02T08:56:38.000Z</time>
      </trkpt>
      <trkpt lat="36.166239" lon="-86.769394">
        <ele>127.34007</ele>
        <time>2024-06-02T08:56:39.000Z</time>
      </trkpt>
      <trkpt lat="36.165874" lon="-86.769084">
        <ele>127.260481</ele>
        <time>2024-06-02T08:56:44.000Z</time>
      </trkpt>
      <trkpt lat="36.165774" lon="-86.768985">
        <ele>127.239289</ele>
        <time>2024-06-02T08:56:45.000Z</time>
      </trkpt>
      <trkpt lat="36.165434" lon="-86.768604">
        <ele>127.156695</ele>
        <time>2024-06-02T08:56:50.000Z</time>
      </trkpt>
      <trkpt lat="36.165382" lon="-86.768804">
        <ele>127.127537</ele>
        <time>2024-06-02T08:56:52.000Z</time>
      </trkpt>
      <trkpt lat="36.1653" lon="-86.769027">
        <ele>127.091048</ele>
        <time>2024-06-02T08:56:54.000Z</time>
      </trkpt>
      <trkpt lat="36.165254" lon="-86.769142">
        <ele>127.074333</ele>
        <time>2024-06-02T08:56:55.000Z</time>
      </trkpt>
      <trkpt lat="36.165042" lon="-86.76971">
        <ele>126.986977753</ele>
        <time>2024-06-02T08:57:01.000Z</time>
      </trkpt>
      <trkpt lat="36.164991" lon="-86.769819">
        <ele>126.969390812</ele>
        <time>2024-06-02T08:57:02.000Z</time>
      </trkpt>
      <trkpt lat="36.164975" lon="-86.769885">
        <ele>126.959770929</ele>
        <time>2024-06-02T08:57:03.000Z</time>
      </trkpt>
      <trkpt lat="36.164926" lon="-86.769852">
        <ele>126.950126714</ele>
        <time>2024-06-02T08:57:04.000Z</time>
      </trkpt>
      <trkpt lat="36.164696" lon="-86.769722">
        <ele>126.906411392</ele>
        <time>2024-06-02T08:57:07.000Z</time>
      </trkpt>
      <trkpt lat="36.16466" lon="-86.76982">
        <ele>126.89138109</ele>
        <time>2024-06-02T08:57:08.000Z</time>
      </trkpt>
      <trkpt lat="36.164473" lon="-86.770296">
        <ele>126.817482363</ele>
        <time>2024-06-02T08:57:13.000Z</time>
      </trkpt>
    </trkseg>
  </trk>
</gpx>

<!--
Performance optimized by W3 Total Cache. Learn more: https://www.boldgrid.com/w3-total-cache/?utm_source=w3tc&utm_medium=footer_comment&utm_campaign=free_plugin

Page Caching using Disk: Enhanced{w3tc_pagecache_reject_reason} 

Served from: www.aquabike.world @ 2026-05-10 01:41:46 by W3 Total Cache
-->